<?xml version="1.0" encoding="UTF-8" standalone="no" ?>
<gpx xmlns="http://www.topografix.com/GPX/1/1" xmlns:xsi="http://www.w3.org/2001/XMLSchema-instance" xsi:schemaLocation="http://www.topografix.com/GPX/1/1 http://www.topografix.com/GPX/1/1/gpx.xsd" version="1.1" creator="VisuGPX - https://www.visugpx.com">
  <metadata>
    <name>J5 Celje - Ljubjana</name>
  </metadata>
  <trk>
    <name><![CDATA[J5 Celje - Ljubjana]]></name>
    <trkseg>
      <trkpt lat="46.23501" lon="15.24737">
        <ele>220.640057</ele>
        <time>2026-07-11T06:47:09.000Z</time>
      </trkpt>
      <trkpt lat="46.23502" lon="15.24737">
        <ele>220.640057</ele>
        <time>2026-07-11T06:47:10.000Z</time>
      </trkpt>
      <trkpt lat="46.23502" lon="15.24737">
        <ele>220.640057</ele>
        <time>2026-07-11T06:47:18.000Z</time>
      </trkpt>
      <trkpt lat="46.23502" lon="15.24736">
        <ele>220.640057</ele>
        <time>2026-07-11T06:47:30.000Z</time>
      </trkpt>
      <trkpt lat="46.23502" lon="15.2473">
        <ele>220.640057</ele>
        <time>2026-07-11T06:47:33.000Z</time>
      </trkpt>
      <trkpt lat="46.23502" lon="15.24725">
        <ele>220.640057</ele>
        <time>2026-07-11T06:47:35.000Z</time>
      </trkpt>
      <trkpt lat="46.23506" lon="15.2471">
        <ele>220.640057</ele>
        <time>2026-07-11T06:47:39.000Z</time>
      </trkpt>
      <trkpt lat="46.23507" lon="15.24705">
        <ele>220.640057</ele>
        <time>2026-07-11T06:47:40.000Z</time>
      </trkpt>
      <trkpt lat="46.23516" lon="15.24678">
        <ele>220.640057</ele>
        <time>2026-07-11T06:47:46.000Z</time>
      </trkpt>
      <trkpt lat="46.23518" lon="15.24656">
        <ele>220.640057</ele>
        <time>2026-07-11T06:47:51.000Z</time>
      </trkpt>
      <trkpt lat="46.23517" lon="15.24652">
        <ele>220.640057</ele>
        <time>2026-07-11T06:47:52.000Z</time>
      </trkpt>
      <trkpt lat="46.23503" lon="15.24638">
        <ele>220.640057</ele>
        <time>2026-07-11T06:47:57.000Z</time>
      </trkpt>
      <trkpt lat="46.235" lon="15.24635">
        <ele>220.640057</ele>
        <time>2026-07-11T06:47:58.000Z</time>
      </trkpt>
      <trkpt lat="46.23489" lon="15.24618">
        <ele>221.355351</ele>
        <time>2026-07-11T06:48:03.000Z</time>
      </trkpt>
      <trkpt lat="46.23476" lon="15.24609">
        <ele>222.387762</ele>
        <time>2026-07-11T06:48:07.000Z</time>
      </trkpt>
      <trkpt lat="46.23457" lon="15.24595">
        <ele>223.93878</ele>
        <time>2026-07-11T06:48:13.000Z</time>
      </trkpt>
      <trkpt lat="46.23446" lon="15.24587">
        <ele>224.840653</ele>
        <time>2026-07-11T06:48:18.000Z</time>
      </trkpt>
      <trkpt lat="46.23444" lon="15.24587">
        <ele>224.945253</ele>
        <time>2026-07-11T06:48:20.000Z</time>
      </trkpt>
      <trkpt lat="46.23442" lon="15.2459">
        <ele>225.203905</ele>
        <time>2026-07-11T06:48:22.000Z</time>
      </trkpt>
      <trkpt lat="46.23438" lon="15.24596">
        <ele>225.583676</ele>
        <time>2026-07-11T06:48:24.000Z</time>
      </trkpt>
      <trkpt lat="46.23429" lon="15.24615">
        <ele>226.734907</ele>
        <time>2026-07-11T06:48:29.000Z</time>
      </trkpt>
      <trkpt lat="46.23412" lon="15.24649">
        <ele>228.878274</ele>
        <time>2026-07-11T06:48:38.000Z</time>
      </trkpt>
      <trkpt lat="46.23402" lon="15.24667">
        <ele>230.013551</ele>
        <time>2026-07-11T06:48:44.000Z</time>
      </trkpt>
      <trkpt lat="46.234" lon="15.24671">
        <ele>230.283031</ele>
        <time>2026-07-11T06:48:46.000Z</time>
      </trkpt>
      <trkpt lat="46.23397" lon="15.24672">
        <ele>230.502073</ele>
        <time>2026-07-11T06:48:48.000Z</time>
      </trkpt>
      <trkpt lat="46.23396" lon="15.24669">
        <ele>230.658755</ele>
        <time>2026-07-11T06:48:50.000Z</time>
      </trkpt>
      <trkpt lat="46.23396" lon="15.24664">
        <ele>230.929784</ele>
        <time>2026-07-11T06:48:52.000Z</time>
      </trkpt>
      <trkpt lat="46.23396" lon="15.2466">
        <ele>231.0905</ele>
        <time>2026-07-11T06:48:53.000Z</time>
      </trkpt>
      <trkpt lat="46.23397" lon="15.2465">
        <ele>231.612747</ele>
        <time>2026-07-11T06:48:56.000Z</time>
      </trkpt>
      <trkpt lat="46.23396" lon="15.24635">
        <ele>232.38758</ele>
        <time>2026-07-11T06:49:00.000Z</time>
      </trkpt>
      <trkpt lat="46.23395" lon="15.24626">
        <ele>232.80666</ele>
        <time>2026-07-11T06:49:02.000Z</time>
      </trkpt>
      <trkpt lat="46.23394" lon="15.24622">
        <ele>233.039773</ele>
        <time>2026-07-11T06:49:03.000Z</time>
      </trkpt>
      <trkpt lat="46.23393" lon="15.24617">
        <ele>233.277072</ele>
        <time>2026-07-11T06:49:04.000Z</time>
      </trkpt>
      <trkpt lat="46.23392" lon="15.24613">
        <ele>233.50079</ele>
        <time>2026-07-11T06:49:05.000Z</time>
      </trkpt>
      <trkpt lat="46.23392" lon="15.24602">
        <ele>233.872813</ele>
        <time>2026-07-11T06:49:10.000Z</time>
      </trkpt>
      <trkpt lat="46.23397" lon="15.24602">
        <ele>234.046648</ele>
        <time>2026-07-11T06:49:16.000Z</time>
      </trkpt>
      <trkpt lat="46.23398" lon="15.24599">
        <ele>234.144179</ele>
        <time>2026-07-11T06:49:17.000Z</time>
      </trkpt>
      <trkpt lat="46.234" lon="15.24596">
        <ele>234.251781</ele>
        <time>2026-07-11T06:49:18.000Z</time>
      </trkpt>
      <trkpt lat="46.23415" lon="15.24574">
        <ele>235.01581</ele>
        <time>2026-07-11T06:49:24.000Z</time>
      </trkpt>
      <trkpt lat="46.23419" lon="15.24565">
        <ele>235.280396</ele>
        <time>2026-07-11T06:49:26.000Z</time>
      </trkpt>
      <trkpt lat="46.23427" lon="15.2455">
        <ele>235.782053</ele>
        <time>2026-07-11T06:49:31.000Z</time>
      </trkpt>
      <trkpt lat="46.23427" lon="15.24547">
        <ele>235.838668</ele>
        <time>2026-07-11T06:49:32.000Z</time>
      </trkpt>
      <trkpt lat="46.23425" lon="15.24535">
        <ele>236.153608</ele>
        <time>2026-07-11T06:49:36.000Z</time>
      </trkpt>
      <trkpt lat="46.23424" lon="15.24533">
        <ele>236.231385</ele>
        <time>2026-07-11T06:49:37.000Z</time>
      </trkpt>
      <trkpt lat="46.23418" lon="15.24517">
        <ele>236.697092</ele>
        <time>2026-07-11T06:49:43.000Z</time>
      </trkpt>
      <trkpt lat="46.23408" lon="15.24496">
        <ele>237.356093</ele>
        <time>2026-07-11T06:49:49.000Z</time>
      </trkpt>
      <trkpt lat="46.23395" lon="15.24475">
        <ele>238.071353</ele>
        <time>2026-07-11T06:49:55.000Z</time>
      </trkpt>
      <trkpt lat="46.23388" lon="15.24461">
        <ele>238.484813</ele>
        <time>2026-07-11T06:49:59.000Z</time>
      </trkpt>
      <trkpt lat="46.23386" lon="15.24454">
        <ele>238.69104</ele>
        <time>2026-07-11T06:50:01.000Z</time>
      </trkpt>
      <trkpt lat="46.2338" lon="15.24427">
        <ele>239.404913</ele>
        <time>2026-07-11T06:50:07.000Z</time>
      </trkpt>
      <trkpt lat="46.23378" lon="15.24424">
        <ele>239.501904</ele>
        <time>2026-07-11T06:50:08.000Z</time>
      </trkpt>
      <trkpt lat="46.23374" lon="15.24405">
        <ele>240.031249</ele>
        <time>2026-07-11T06:50:13.000Z</time>
      </trkpt>
      <trkpt lat="46.23367" lon="15.2437">
        <ele>240.745408</ele>
        <time>2026-07-11T06:50:20.000Z</time>
      </trkpt>
      <trkpt lat="46.23365" lon="15.24353">
        <ele>241.042074</ele>
        <time>2026-07-11T06:50:23.000Z</time>
      </trkpt>
      <trkpt lat="46.2336" lon="15.24331">
        <ele>241.449697</ele>
        <time>2026-07-11T06:50:27.000Z</time>
      </trkpt>
      <trkpt lat="46.23358" lon="15.24319">
        <ele>241.655786</ele>
        <time>2026-07-11T06:50:29.000Z</time>
      </trkpt>
      <trkpt lat="46.23353" lon="15.24302">
        <ele>241.962864</ele>
        <time>2026-07-11T06:50:32.000Z</time>
      </trkpt>
      <trkpt lat="46.23348" lon="15.2428">
        <ele>242.37002</ele>
        <time>2026-07-11T06:50:36.000Z</time>
      </trkpt>
      <trkpt lat="46.23342" lon="15.2426">
        <ele>242.738395</ele>
        <time>2026-07-11T06:50:40.000Z</time>
      </trkpt>
      <trkpt lat="46.23334" lon="15.2422">
        <ele>243.456636</ele>
        <time>2026-07-11T06:50:47.000Z</time>
      </trkpt>
      <trkpt lat="46.23325" lon="15.2419">
        <ele>244.030472</ele>
        <time>2026-07-11T06:50:53.000Z</time>
      </trkpt>
      <trkpt lat="46.23324" lon="15.24185">
        <ele>244.118426</ele>
        <time>2026-07-11T06:50:54.000Z</time>
      </trkpt>
      <trkpt lat="46.23319" lon="15.24166">
        <ele>244.476072</ele>
        <time>2026-07-11T06:50:58.000Z</time>
      </trkpt>
      <trkpt lat="46.23314" lon="15.24147">
        <ele>244.793204</ele>
        <time>2026-07-11T06:51:02.000Z</time>
      </trkpt>
      <trkpt lat="46.23303" lon="15.24095">
        <ele>244.371638</ele>
        <time>2026-07-11T06:51:12.000Z</time>
      </trkpt>
      <trkpt lat="46.23295" lon="15.24063">
        <ele>244.104928</ele>
        <time>2026-07-11T06:51:18.000Z</time>
      </trkpt>
      <trkpt lat="46.23283" lon="15.24016">
        <ele>243.709562</ele>
        <time>2026-07-11T06:51:24.000Z</time>
      </trkpt>
      <trkpt lat="46.23275" lon="15.23983">
        <ele>243.436574</ele>
        <time>2026-07-11T06:51:29.000Z</time>
      </trkpt>
      <trkpt lat="46.23272" lon="15.23971">
        <ele>243.341267</ele>
        <time>2026-07-11T06:51:31.000Z</time>
      </trkpt>
      <trkpt lat="46.23262" lon="15.23927">
        <ele>242.974432</ele>
        <time>2026-07-11T06:51:38.000Z</time>
      </trkpt>
      <trkpt lat="46.23249" lon="15.23872">
        <ele>242.978915</ele>
        <time>2026-07-11T06:51:47.000Z</time>
      </trkpt>
      <trkpt lat="46.23233" lon="15.23801">
        <ele>243.479509</ele>
        <time>2026-07-11T06:51:59.000Z</time>
      </trkpt>
      <trkpt lat="46.23232" lon="15.23795">
        <ele>243.518938</ele>
        <time>2026-07-11T06:52:00.000Z</time>
      </trkpt>
      <trkpt lat="46.23229" lon="15.23784">
        <ele>243.59899</ele>
        <time>2026-07-11T06:52:02.000Z</time>
      </trkpt>
      <trkpt lat="46.23225" lon="15.23773">
        <ele>243.681173</ele>
        <time>2026-07-11T06:52:04.000Z</time>
      </trkpt>
      <trkpt lat="46.23221" lon="15.23754">
        <ele>243.807608</ele>
        <time>2026-07-11T06:52:07.000Z</time>
      </trkpt>
      <trkpt lat="46.23217" lon="15.23731">
        <ele>243.971603</ele>
        <time>2026-07-11T06:52:11.000Z</time>
      </trkpt>
      <trkpt lat="46.23211" lon="15.23676">
        <ele>244.34243</ele>
        <time>2026-07-11T06:52:20.000Z</time>
      </trkpt>
      <trkpt lat="46.23205" lon="15.23613">
        <ele>245.052839</ele>
        <time>2026-07-11T06:52:31.000Z</time>
      </trkpt>
      <trkpt lat="46.23204" lon="15.2358">
        <ele>245.506379</ele>
        <time>2026-07-11T06:52:38.000Z</time>
      </trkpt>
      <trkpt lat="46.23205" lon="15.23538">
        <ele>246.084357</ele>
        <time>2026-07-11T06:52:46.000Z</time>
      </trkpt>
      <trkpt lat="46.23206" lon="15.23523">
        <ele>246.306611</ele>
        <time>2026-07-11T06:52:49.000Z</time>
      </trkpt>
      <trkpt lat="46.23206" lon="15.23502">
        <ele>246.592579</ele>
        <time>2026-07-11T06:52:53.000Z</time>
      </trkpt>
      <trkpt lat="46.23206" lon="15.23496">
        <ele>246.671933</ele>
        <time>2026-07-11T06:52:54.000Z</time>
      </trkpt>
      <trkpt lat="46.2321" lon="15.23469">
        <ele>247.056995</ele>
        <time>2026-07-11T06:52:59.000Z</time>
      </trkpt>
      <trkpt lat="46.23213" lon="15.23448">
        <ele>247.352136</ele>
        <time>2026-07-11T06:53:03.000Z</time>
      </trkpt>
      <trkpt lat="46.23215" lon="15.23432">
        <ele>247.58164</ele>
        <time>2026-07-11T06:53:06.000Z</time>
      </trkpt>
      <trkpt lat="46.23219" lon="15.23406">
        <ele>247.954199</ele>
        <time>2026-07-11T06:53:11.000Z</time>
      </trkpt>
      <trkpt lat="46.23225" lon="15.23375">
        <ele>248.053519</ele>
        <time>2026-07-11T06:53:17.000Z</time>
      </trkpt>
      <trkpt lat="46.23226" lon="15.23371">
        <ele>248.038268</ele>
        <time>2026-07-11T06:53:18.000Z</time>
      </trkpt>
      <trkpt lat="46.23229" lon="15.2335">
        <ele>247.976908</ele>
        <time>2026-07-11T06:53:22.000Z</time>
      </trkpt>
      <trkpt lat="46.23233" lon="15.23329">
        <ele>247.910535</ele>
        <time>2026-07-11T06:53:26.000Z</time>
      </trkpt>
      <trkpt lat="46.23239" lon="15.23298">
        <ele>247.815507</ele>
        <time>2026-07-11T06:53:32.000Z</time>
      </trkpt>
      <trkpt lat="46.23247" lon="15.23252">
        <ele>247.675413</ele>
        <time>2026-07-11T06:53:41.000Z</time>
      </trkpt>
      <trkpt lat="46.23248" lon="15.23247">
        <ele>247.65972</ele>
        <time>2026-07-11T06:53:42.000Z</time>
      </trkpt>
      <trkpt lat="46.23253" lon="15.23224">
        <ele>247.58998</ele>
        <time>2026-07-11T06:53:46.000Z</time>
      </trkpt>
      <trkpt lat="46.23254" lon="15.23219">
        <ele>247.573342</ele>
        <time>2026-07-11T06:53:47.000Z</time>
      </trkpt>
      <trkpt lat="46.23257" lon="15.23203">
        <ele>247.523632</ele>
        <time>2026-07-11T06:53:50.000Z</time>
      </trkpt>
      <trkpt lat="46.23259" lon="15.23193">
        <ele>247.491876</ele>
        <time>2026-07-11T06:53:52.000Z</time>
      </trkpt>
      <trkpt lat="46.23265" lon="15.23156">
        <ele>247.381379</ele>
        <time>2026-07-11T06:53:59.000Z</time>
      </trkpt>
      <trkpt lat="46.23266" lon="15.23151">
        <ele>247.365511</ele>
        <time>2026-07-11T06:54:00.000Z</time>
      </trkpt>
      <trkpt lat="46.23275" lon="15.231">
        <ele>247.796884</ele>
        <time>2026-07-11T06:54:09.000Z</time>
      </trkpt>
      <trkpt lat="46.2328" lon="15.23072">
        <ele>248.095347</ele>
        <time>2026-07-11T06:54:14.000Z</time>
      </trkpt>
      <trkpt lat="46.23282" lon="15.2306">
        <ele>248.222009</ele>
        <time>2026-07-11T06:54:16.000Z</time>
      </trkpt>
      <trkpt lat="46.23286" lon="15.23042">
        <ele>248.409692</ele>
        <time>2026-07-11T06:54:19.000Z</time>
      </trkpt>
      <trkpt lat="46.23297" lon="15.22983">
        <ele>249.031814</ele>
        <time>2026-07-11T06:54:29.000Z</time>
      </trkpt>
      <trkpt lat="46.23307" lon="15.22926">
        <ele>249.640068</ele>
        <time>2026-07-11T06:54:39.000Z</time>
      </trkpt>
      <trkpt lat="46.23313" lon="15.22897">
        <ele>249.943209</ele>
        <time>2026-07-11T06:54:44.000Z</time>
      </trkpt>
      <trkpt lat="46.23316" lon="15.22874">
        <ele>250.066736</ele>
        <time>2026-07-11T06:54:48.000Z</time>
      </trkpt>
      <trkpt lat="46.23322" lon="15.22843">
        <ele>250.196742</ele>
        <time>2026-07-11T06:54:53.000Z</time>
      </trkpt>
      <trkpt lat="46.23325" lon="15.22826">
        <ele>250.269205</ele>
        <time>2026-07-11T06:54:56.000Z</time>
      </trkpt>
      <trkpt lat="46.23331" lon="15.22791">
        <ele>250.413714</ele>
        <time>2026-07-11T06:55:02.000Z</time>
      </trkpt>
      <trkpt lat="46.23332" lon="15.22779">
        <ele>250.463558</ele>
        <time>2026-07-11T06:55:04.000Z</time>
      </trkpt>
      <trkpt lat="46.23339" lon="15.22727">
        <ele>250.681186</ele>
        <time>2026-07-11T06:55:13.000Z</time>
      </trkpt>
      <trkpt lat="46.23344" lon="15.22665">
        <ele>250.931495</ele>
        <time>2026-07-11T06:55:23.000Z</time>
      </trkpt>
      <trkpt lat="46.23345" lon="15.22659">
        <ele>250.956049</ele>
        <time>2026-07-11T06:55:24.000Z</time>
      </trkpt>
      <trkpt lat="46.23348" lon="15.22606">
        <ele>251.011993</ele>
        <time>2026-07-11T06:55:33.000Z</time>
      </trkpt>
      <trkpt lat="46.23352" lon="15.22576">
        <ele>250.978741</ele>
        <time>2026-07-11T06:55:38.000Z</time>
      </trkpt>
      <trkpt lat="46.23353" lon="15.22564">
        <ele>250.965106</ele>
        <time>2026-07-11T06:55:40.000Z</time>
      </trkpt>
      <trkpt lat="46.23357" lon="15.22509">
        <ele>250.903169</ele>
        <time>2026-07-11T06:55:49.000Z</time>
      </trkpt>
      <trkpt lat="46.23357" lon="15.22503">
        <ele>250.895863</ele>
        <time>2026-07-11T06:55:50.000Z</time>
      </trkpt>
      <trkpt lat="46.23357" lon="15.22436">
        <ele>250.820516</ele>
        <time>2026-07-11T06:56:00.000Z</time>
      </trkpt>
      <trkpt lat="46.23354" lon="15.22369">
        <ele>250.737903</ele>
        <time>2026-07-11T06:56:10.000Z</time>
      </trkpt>
      <trkpt lat="46.23353" lon="15.22322">
        <ele>250.652465</ele>
        <time>2026-07-11T06:56:17.000Z</time>
      </trkpt>
      <trkpt lat="46.23352" lon="15.22316">
        <ele>250.640967</ele>
        <time>2026-07-11T06:56:18.000Z</time>
      </trkpt>
      <trkpt lat="46.23349" lon="15.22269">
        <ele>250.552739</ele>
        <time>2026-07-11T06:56:25.000Z</time>
      </trkpt>
      <trkpt lat="46.23345" lon="15.22217">
        <ele>250.456348</ele>
        <time>2026-07-11T06:56:32.000Z</time>
      </trkpt>
      <trkpt lat="46.23341" lon="15.22168">
        <ele>250.365183</ele>
        <time>2026-07-11T06:56:39.000Z</time>
      </trkpt>
      <trkpt lat="46.2334" lon="15.22155">
        <ele>250.34155</ele>
        <time>2026-07-11T06:56:41.000Z</time>
      </trkpt>
      <trkpt lat="46.23338" lon="15.22111">
        <ele>250.203279</ele>
        <time>2026-07-11T06:56:48.000Z</time>
      </trkpt>
      <trkpt lat="46.23337" lon="15.22105">
        <ele>250.154238</ele>
        <time>2026-07-11T06:56:49.000Z</time>
      </trkpt>
      <trkpt lat="46.23337" lon="15.22087">
        <ele>250.01138</ele>
        <time>2026-07-11T06:56:52.000Z</time>
      </trkpt>
      <trkpt lat="46.23337" lon="15.22076">
        <ele>249.914585</ele>
        <time>2026-07-11T06:56:54.000Z</time>
      </trkpt>
      <trkpt lat="46.23338" lon="15.22069">
        <ele>249.861738</ele>
        <time>2026-07-11T06:56:55.000Z</time>
      </trkpt>
      <trkpt lat="46.2334" lon="15.22055">
        <ele>249.741819</ele>
        <time>2026-07-11T06:56:57.000Z</time>
      </trkpt>
      <trkpt lat="46.23341" lon="15.22039">
        <ele>249.612561</ele>
        <time>2026-07-11T06:56:59.000Z</time>
      </trkpt>
      <trkpt lat="46.23341" lon="15.22005">
        <ele>249.325423</ele>
        <time>2026-07-11T06:57:04.000Z</time>
      </trkpt>
      <trkpt lat="46.23341" lon="15.21998">
        <ele>249.270761</ele>
        <time>2026-07-11T06:57:05.000Z</time>
      </trkpt>
      <trkpt lat="46.23339" lon="15.21961">
        <ele>248.961805</ele>
        <time>2026-07-11T06:57:11.000Z</time>
      </trkpt>
      <trkpt lat="46.23339" lon="15.21955">
        <ele>248.91342</ele>
        <time>2026-07-11T06:57:12.000Z</time>
      </trkpt>
      <trkpt lat="46.23336" lon="15.2193">
        <ele>248.705703</ele>
        <time>2026-07-11T06:57:16.000Z</time>
      </trkpt>
      <trkpt lat="46.23333" lon="15.21899">
        <ele>248.446291</ele>
        <time>2026-07-11T06:57:21.000Z</time>
      </trkpt>
      <trkpt lat="46.23326" lon="15.21856">
        <ele>248.187385</ele>
        <time>2026-07-11T06:57:29.000Z</time>
      </trkpt>
      <trkpt lat="46.23326" lon="15.21851">
        <ele>248.239107</ele>
        <time>2026-07-11T06:57:30.000Z</time>
      </trkpt>
      <trkpt lat="46.23324" lon="15.21826">
        <ele>248.49049</ele>
        <time>2026-07-11T06:57:35.000Z</time>
      </trkpt>
      <trkpt lat="46.23324" lon="15.2182">
        <ele>248.549153</ele>
        <time>2026-07-11T06:57:36.000Z</time>
      </trkpt>
      <trkpt lat="46.2332" lon="15.21769">
        <ele>249.055902</ele>
        <time>2026-07-11T06:57:44.000Z</time>
      </trkpt>
      <trkpt lat="46.2332" lon="15.21762">
        <ele>249.125635</ele>
        <time>2026-07-11T06:57:45.000Z</time>
      </trkpt>
      <trkpt lat="46.23318" lon="15.21721">
        <ele>249.536287</ele>
        <time>2026-07-11T06:57:51.000Z</time>
      </trkpt>
      <trkpt lat="46.23317" lon="15.21714">
        <ele>249.603043</ele>
        <time>2026-07-11T06:57:52.000Z</time>
      </trkpt>
      <trkpt lat="46.23317" lon="15.2168">
        <ele>249.946218</ele>
        <time>2026-07-11T06:57:57.000Z</time>
      </trkpt>
      <trkpt lat="46.23316" lon="15.21645">
        <ele>250.288616</ele>
        <time>2026-07-11T06:58:02.000Z</time>
      </trkpt>
      <trkpt lat="46.23315" lon="15.21632">
        <ele>250.420497</ele>
        <time>2026-07-11T06:58:04.000Z</time>
      </trkpt>
      <trkpt lat="46.23312" lon="15.21612">
        <ele>250.621102</ele>
        <time>2026-07-11T06:58:07.000Z</time>
      </trkpt>
      <trkpt lat="46.2331" lon="15.2157">
        <ele>250.852361</ele>
        <time>2026-07-11T06:58:13.000Z</time>
      </trkpt>
      <trkpt lat="46.2331" lon="15.2153">
        <ele>251.025278</ele>
        <time>2026-07-11T06:58:19.000Z</time>
      </trkpt>
      <trkpt lat="46.23308" lon="15.21503">
        <ele>251.139095</ele>
        <time>2026-07-11T06:58:23.000Z</time>
      </trkpt>
      <trkpt lat="46.23308" lon="15.21472">
        <ele>251.270003</ele>
        <time>2026-07-11T06:58:28.000Z</time>
      </trkpt>
      <trkpt lat="46.23308" lon="15.21455">
        <ele>251.341176</ele>
        <time>2026-07-11T06:58:31.000Z</time>
      </trkpt>
      <trkpt lat="46.23306" lon="15.21418">
        <ele>251.497186</ele>
        <time>2026-07-11T06:58:38.000Z</time>
      </trkpt>
      <trkpt lat="46.23306" lon="15.21412">
        <ele>251.523209</ele>
        <time>2026-07-11T06:58:39.000Z</time>
      </trkpt>
      <trkpt lat="46.23306" lon="15.21393">
        <ele>251.604549</ele>
        <time>2026-07-11T06:58:42.000Z</time>
      </trkpt>
      <trkpt lat="46.23307" lon="15.21382">
        <ele>251.652191</ele>
        <time>2026-07-11T06:58:44.000Z</time>
      </trkpt>
      <trkpt lat="46.23308" lon="15.21376">
        <ele>251.677632</ele>
        <time>2026-07-11T06:58:47.000Z</time>
      </trkpt>
      <trkpt lat="46.23307" lon="15.21369">
        <ele>251.707595</ele>
        <time>2026-07-11T06:59:06.000Z</time>
      </trkpt>
      <trkpt lat="46.23307" lon="15.21363">
        <ele>251.73598</ele>
        <time>2026-07-11T06:59:08.000Z</time>
      </trkpt>
      <trkpt lat="46.23307" lon="15.2134">
        <ele>251.818907</ele>
        <time>2026-07-11T06:59:12.000Z</time>
      </trkpt>
      <trkpt lat="46.23307" lon="15.21333">
        <ele>251.822214</ele>
        <time>2026-07-11T06:59:13.000Z</time>
      </trkpt>
      <trkpt lat="46.23308" lon="15.21297">
        <ele>251.840397</ele>
        <time>2026-07-11T06:59:18.000Z</time>
      </trkpt>
      <trkpt lat="46.23308" lon="15.21251">
        <ele>251.863229</ele>
        <time>2026-07-11T06:59:24.000Z</time>
      </trkpt>
      <trkpt lat="46.23311" lon="15.21199">
        <ele>251.889281</ele>
        <time>2026-07-11T06:59:31.000Z</time>
      </trkpt>
      <trkpt lat="46.23314" lon="15.21185">
        <ele>251.896762</ele>
        <time>2026-07-11T06:59:33.000Z</time>
      </trkpt>
      <trkpt lat="46.23318" lon="15.21172">
        <ele>251.904059</ele>
        <time>2026-07-11T06:59:35.000Z</time>
      </trkpt>
      <trkpt lat="46.23319" lon="15.21165">
        <ele>251.907283</ele>
        <time>2026-07-11T06:59:36.000Z</time>
      </trkpt>
      <trkpt lat="46.23319" lon="15.21159">
        <ele>251.910715</ele>
        <time>2026-07-11T06:59:37.000Z</time>
      </trkpt>
      <trkpt lat="46.23317" lon="15.21137">
        <ele>251.921486</ele>
        <time>2026-07-11T06:59:40.000Z</time>
      </trkpt>
      <trkpt lat="46.23316" lon="15.21123">
        <ele>251.928986</ele>
        <time>2026-07-11T06:59:42.000Z</time>
      </trkpt>
      <trkpt lat="46.23316" lon="15.21098">
        <ele>251.941454</ele>
        <time>2026-07-11T06:59:45.000Z</time>
      </trkpt>
      <trkpt lat="46.23317" lon="15.21078">
        <ele>251.998719</ele>
        <time>2026-07-11T06:59:48.000Z</time>
      </trkpt>
      <trkpt lat="46.23319" lon="15.21048">
        <ele>252.184574</ele>
        <time>2026-07-11T06:59:52.000Z</time>
      </trkpt>
      <trkpt lat="46.23322" lon="15.21019">
        <ele>252.364373</ele>
        <time>2026-07-11T06:59:56.000Z</time>
      </trkpt>
      <trkpt lat="46.23324" lon="15.21012">
        <ele>252.415008</ele>
        <time>2026-07-11T06:59:57.000Z</time>
      </trkpt>
      <trkpt lat="46.23326" lon="15.21004">
        <ele>252.467367</ele>
        <time>2026-07-11T06:59:58.000Z</time>
      </trkpt>
      <trkpt lat="46.23327" lon="15.20989">
        <ele>252.563219</ele>
        <time>2026-07-11T07:00:00.000Z</time>
      </trkpt>
      <trkpt lat="46.23328" lon="15.20981">
        <ele>252.612617</ele>
        <time>2026-07-11T07:00:01.000Z</time>
      </trkpt>
      <trkpt lat="46.23333" lon="15.20914">
        <ele>253.029105</ele>
        <time>2026-07-11T07:00:10.000Z</time>
      </trkpt>
      <trkpt lat="46.23337" lon="15.20847">
        <ele>253.450593</ele>
        <time>2026-07-11T07:00:19.000Z</time>
      </trkpt>
      <trkpt lat="46.2334" lon="15.20774">
        <ele>253.3217</ele>
        <time>2026-07-11T07:00:29.000Z</time>
      </trkpt>
      <trkpt lat="46.23343" lon="15.20721">
        <ele>253.085723</ele>
        <time>2026-07-11T07:00:37.000Z</time>
      </trkpt>
      <trkpt lat="46.23348" lon="15.20659">
        <ele>252.811583</ele>
        <time>2026-07-11T07:00:46.000Z</time>
      </trkpt>
      <trkpt lat="46.23353" lon="15.20591">
        <ele>252.510216</ele>
        <time>2026-07-11T07:00:56.000Z</time>
      </trkpt>
      <trkpt lat="46.23354" lon="15.20564">
        <ele>252.429051</ele>
        <time>2026-07-11T07:01:00.000Z</time>
      </trkpt>
      <trkpt lat="46.23355" lon="15.20544">
        <ele>252.488979</ele>
        <time>2026-07-11T07:01:03.000Z</time>
      </trkpt>
      <trkpt lat="46.23356" lon="15.20517">
        <ele>252.572033</ele>
        <time>2026-07-11T07:01:07.000Z</time>
      </trkpt>
      <trkpt lat="46.23357" lon="15.20502">
        <ele>252.616663</ele>
        <time>2026-07-11T07:01:09.000Z</time>
      </trkpt>
      <trkpt lat="46.23359" lon="15.20453">
        <ele>252.764113</ele>
        <time>2026-07-11T07:01:16.000Z</time>
      </trkpt>
      <trkpt lat="46.2336" lon="15.20439">
        <ele>252.806807</ele>
        <time>2026-07-11T07:01:18.000Z</time>
      </trkpt>
      <trkpt lat="46.23363" lon="15.20377">
        <ele>252.995675</ele>
        <time>2026-07-11T07:01:27.000Z</time>
      </trkpt>
      <trkpt lat="46.23363" lon="15.20371">
        <ele>253.012582</ele>
        <time>2026-07-11T07:01:28.000Z</time>
      </trkpt>
      <trkpt lat="46.23366" lon="15.20337">
        <ele>253.115673</ele>
        <time>2026-07-11T07:01:33.000Z</time>
      </trkpt>
      <trkpt lat="46.23367" lon="15.20309">
        <ele>253.203786</ele>
        <time>2026-07-11T07:01:37.000Z</time>
      </trkpt>
      <trkpt lat="46.23368" lon="15.20295">
        <ele>253.299686</ele>
        <time>2026-07-11T07:01:39.000Z</time>
      </trkpt>
      <trkpt lat="46.23368" lon="15.20288">
        <ele>253.345583</ele>
        <time>2026-07-11T07:01:40.000Z</time>
      </trkpt>
      <trkpt lat="46.23371" lon="15.20259">
        <ele>253.544568</ele>
        <time>2026-07-11T07:01:44.000Z</time>
      </trkpt>
      <trkpt lat="46.23373" lon="15.20246">
        <ele>253.633269</ele>
        <time>2026-07-11T07:01:46.000Z</time>
      </trkpt>
      <trkpt lat="46.23375" lon="15.20227">
        <ele>253.764664</ele>
        <time>2026-07-11T07:01:49.000Z</time>
      </trkpt>
      <trkpt lat="46.23375" lon="15.20208">
        <ele>253.892449</ele>
        <time>2026-07-11T07:01:52.000Z</time>
      </trkpt>
      <trkpt lat="46.23374" lon="15.20201">
        <ele>253.935589</ele>
        <time>2026-07-11T07:01:53.000Z</time>
      </trkpt>
      <trkpt lat="46.23375" lon="15.20195">
        <ele>253.976361</ele>
        <time>2026-07-11T07:01:54.000Z</time>
      </trkpt>
      <trkpt lat="46.23378" lon="15.20177">
        <ele>254.104379</ele>
        <time>2026-07-11T07:01:57.000Z</time>
      </trkpt>
      <trkpt lat="46.23378" lon="15.2017">
        <ele>254.146088</ele>
        <time>2026-07-11T07:01:58.000Z</time>
      </trkpt>
      <trkpt lat="46.23378" lon="15.20163">
        <ele>254.196761</ele>
        <time>2026-07-11T07:01:59.000Z</time>
      </trkpt>
      <trkpt lat="46.23381" lon="15.20124">
        <ele>254.46211</ele>
        <time>2026-07-11T07:02:05.000Z</time>
      </trkpt>
      <trkpt lat="46.23384" lon="15.2008">
        <ele>254.760796</ele>
        <time>2026-07-11T07:02:12.000Z</time>
      </trkpt>
      <trkpt lat="46.23386" lon="15.20066">
        <ele>254.855426</ele>
        <time>2026-07-11T07:02:14.000Z</time>
      </trkpt>
      <trkpt lat="46.23392" lon="15.20004">
        <ele>254.935437</ele>
        <time>2026-07-11T07:02:23.000Z</time>
      </trkpt>
      <trkpt lat="46.23393" lon="15.19996">
        <ele>254.933747</ele>
        <time>2026-07-11T07:02:24.000Z</time>
      </trkpt>
      <trkpt lat="46.23399" lon="15.1995">
        <ele>254.924038</ele>
        <time>2026-07-11T07:02:31.000Z</time>
      </trkpt>
      <trkpt lat="46.23401" lon="15.1993">
        <ele>254.919724</ele>
        <time>2026-07-11T07:02:34.000Z</time>
      </trkpt>
      <trkpt lat="46.23407" lon="15.19888">
        <ele>254.910823</ele>
        <time>2026-07-11T07:02:40.000Z</time>
      </trkpt>
      <trkpt lat="46.23411" lon="15.19832">
        <ele>254.89899</ele>
        <time>2026-07-11T07:02:48.000Z</time>
      </trkpt>
      <trkpt lat="46.23416" lon="15.19778">
        <ele>254.88388</ele>
        <time>2026-07-11T07:02:56.000Z</time>
      </trkpt>
      <trkpt lat="46.23418" lon="15.19763">
        <ele>254.877917</ele>
        <time>2026-07-11T07:02:58.000Z</time>
      </trkpt>
      <trkpt lat="46.23423" lon="15.19713">
        <ele>254.856963</ele>
        <time>2026-07-11T07:03:05.000Z</time>
      </trkpt>
      <trkpt lat="46.23424" lon="15.19707">
        <ele>254.85445</ele>
        <time>2026-07-11T07:03:06.000Z</time>
      </trkpt>
      <trkpt lat="46.23428" lon="15.19659">
        <ele>254.83408</ele>
        <time>2026-07-11T07:03:13.000Z</time>
      </trkpt>
      <trkpt lat="46.2343" lon="15.19647">
        <ele>254.829128</ele>
        <time>2026-07-11T07:03:15.000Z</time>
      </trkpt>
      <trkpt lat="46.23433" lon="15.19621">
        <ele>254.818204</ele>
        <time>2026-07-11T07:03:19.000Z</time>
      </trkpt>
      <trkpt lat="46.2344" lon="15.19568">
        <ele>254.795772</ele>
        <time>2026-07-11T07:03:27.000Z</time>
      </trkpt>
      <trkpt lat="46.23452" lon="15.1951">
        <ele>254.966639</ele>
        <time>2026-07-11T07:03:37.000Z</time>
      </trkpt>
      <trkpt lat="46.23462" lon="15.19463">
        <ele>255.264118</ele>
        <time>2026-07-11T07:03:45.000Z</time>
      </trkpt>
      <trkpt lat="46.2347" lon="15.19432">
        <ele>255.461422</ele>
        <time>2026-07-11T07:03:50.000Z</time>
      </trkpt>
      <trkpt lat="46.23478" lon="15.19401">
        <ele>255.65899</ele>
        <time>2026-07-11T07:03:55.000Z</time>
      </trkpt>
      <trkpt lat="46.23492" lon="15.19345">
        <ele>256.014607</ele>
        <time>2026-07-11T07:04:04.000Z</time>
      </trkpt>
      <trkpt lat="46.23506" lon="15.19288">
        <ele>256.336859</ele>
        <time>2026-07-11T07:04:13.000Z</time>
      </trkpt>
      <trkpt lat="46.2352" lon="15.19239">
        <ele>256.339479</ele>
        <time>2026-07-11T07:04:21.000Z</time>
      </trkpt>
      <trkpt lat="46.23521" lon="15.19233">
        <ele>256.339775</ele>
        <time>2026-07-11T07:04:22.000Z</time>
      </trkpt>
      <trkpt lat="46.23533" lon="15.19188">
        <ele>256.342126</ele>
        <time>2026-07-11T07:04:30.000Z</time>
      </trkpt>
      <trkpt lat="46.23534" lon="15.19181">
        <ele>256.342462</ele>
        <time>2026-07-11T07:04:31.000Z</time>
      </trkpt>
      <trkpt lat="46.23537" lon="15.1917">
        <ele>256.343063</ele>
        <time>2026-07-11T07:04:33.000Z</time>
      </trkpt>
      <trkpt lat="46.23541" lon="15.1916">
        <ele>256.343608</ele>
        <time>2026-07-11T07:04:35.000Z</time>
      </trkpt>
      <trkpt lat="46.23543" lon="15.19153">
        <ele>256.343989</ele>
        <time>2026-07-11T07:04:36.000Z</time>
      </trkpt>
      <trkpt lat="46.23551" lon="15.19121">
        <ele>256.345664</ele>
        <time>2026-07-11T07:04:41.000Z</time>
      </trkpt>
      <trkpt lat="46.23569" lon="15.19048">
        <ele>256.350835</ele>
        <time>2026-07-11T07:04:52.000Z</time>
      </trkpt>
      <trkpt lat="46.23581" lon="15.18983">
        <ele>256.387922</ele>
        <time>2026-07-11T07:05:02.000Z</time>
      </trkpt>
      <trkpt lat="46.23582" lon="15.18975">
        <ele>256.392569</ele>
        <time>2026-07-11T07:05:03.000Z</time>
      </trkpt>
      <trkpt lat="46.23588" lon="15.18927">
        <ele>256.418834</ele>
        <time>2026-07-11T07:05:10.000Z</time>
      </trkpt>
      <trkpt lat="46.23592" lon="15.18893">
        <ele>256.438065</ele>
        <time>2026-07-11T07:05:15.000Z</time>
      </trkpt>
      <trkpt lat="46.23594" lon="15.18879">
        <ele>256.445568</ele>
        <time>2026-07-11T07:05:17.000Z</time>
      </trkpt>
      <trkpt lat="46.23595" lon="15.18855">
        <ele>256.459162</ele>
        <time>2026-07-11T07:05:21.000Z</time>
      </trkpt>
      <trkpt lat="46.23595" lon="15.18844">
        <ele>256.464862</ele>
        <time>2026-07-11T07:05:23.000Z</time>
      </trkpt>
      <trkpt lat="46.23596" lon="15.18817">
        <ele>256.479995</ele>
        <time>2026-07-11T07:05:29.000Z</time>
      </trkpt>
      <trkpt lat="46.23598" lon="15.18801">
        <ele>256.48891</ele>
        <time>2026-07-11T07:05:34.000Z</time>
      </trkpt>
      <trkpt lat="46.23595" lon="15.18776">
        <ele>256.293473</ele>
        <time>2026-07-11T07:05:39.000Z</time>
      </trkpt>
      <trkpt lat="46.23592" lon="15.18727">
        <ele>255.814829</ele>
        <time>2026-07-11T07:05:46.000Z</time>
      </trkpt>
      <trkpt lat="46.23591" lon="15.18713">
        <ele>255.672375</ele>
        <time>2026-07-11T07:05:48.000Z</time>
      </trkpt>
      <trkpt lat="46.23589" lon="15.18686">
        <ele>255.403858</ele>
        <time>2026-07-11T07:05:52.000Z</time>
      </trkpt>
      <trkpt lat="46.23587" lon="15.18672">
        <ele>255.268664</ele>
        <time>2026-07-11T07:05:54.000Z</time>
      </trkpt>
      <trkpt lat="46.23587" lon="15.18666">
        <ele>255.200705</ele>
        <time>2026-07-11T07:05:55.000Z</time>
      </trkpt>
      <trkpt lat="46.23586" lon="15.18652">
        <ele>255.065956</ele>
        <time>2026-07-11T07:05:57.000Z</time>
      </trkpt>
      <trkpt lat="46.23585" lon="15.18645">
        <ele>254.99693</ele>
        <time>2026-07-11T07:05:58.000Z</time>
      </trkpt>
      <trkpt lat="46.23581" lon="15.18582">
        <ele>254.368706</ele>
        <time>2026-07-11T07:06:07.000Z</time>
      </trkpt>
      <trkpt lat="46.23571" lon="15.18518">
        <ele>254.217477</ele>
        <time>2026-07-11T07:06:16.000Z</time>
      </trkpt>
      <trkpt lat="46.23564" lon="15.18458">
        <ele>255.101345</ele>
        <time>2026-07-11T07:06:25.000Z</time>
      </trkpt>
      <trkpt lat="46.23563" lon="15.18451">
        <ele>255.196591</ele>
        <time>2026-07-11T07:06:26.000Z</time>
      </trkpt>
      <trkpt lat="46.23554" lon="15.18405">
        <ele>255.887883</ele>
        <time>2026-07-11T07:06:33.000Z</time>
      </trkpt>
      <trkpt lat="46.23546" lon="15.18362">
        <ele>256.53209</ele>
        <time>2026-07-11T07:06:40.000Z</time>
      </trkpt>
      <trkpt lat="46.2354" lon="15.18321">
        <ele>257.13704</ele>
        <time>2026-07-11T07:06:46.000Z</time>
      </trkpt>
      <trkpt lat="46.23534" lon="15.18287">
        <ele>257.635127</ele>
        <time>2026-07-11T07:06:51.000Z</time>
      </trkpt>
      <trkpt lat="46.23531" lon="15.18281">
        <ele>257.670577</ele>
        <time>2026-07-11T07:06:52.000Z</time>
      </trkpt>
      <trkpt lat="46.23525" lon="15.18253">
        <ele>257.698092</ele>
        <time>2026-07-11T07:06:56.000Z</time>
      </trkpt>
      <trkpt lat="46.23523" lon="15.18243">
        <ele>257.70746</ele>
        <time>2026-07-11T07:06:58.000Z</time>
      </trkpt>
      <trkpt lat="46.2352" lon="15.18215">
        <ele>257.734582</ele>
        <time>2026-07-11T07:07:04.000Z</time>
      </trkpt>
      <trkpt lat="46.23516" lon="15.1818">
        <ele>257.767517</ele>
        <time>2026-07-11T07:07:09.000Z</time>
      </trkpt>
      <trkpt lat="46.23515" lon="15.18173">
        <ele>257.77412</ele>
        <time>2026-07-11T07:07:10.000Z</time>
      </trkpt>
      <trkpt lat="46.23512" lon="15.18144">
        <ele>257.801633</ele>
        <time>2026-07-11T07:07:14.000Z</time>
      </trkpt>
      <trkpt lat="46.23508" lon="15.18095">
        <ele>257.848165</ele>
        <time>2026-07-11T07:07:21.000Z</time>
      </trkpt>
      <trkpt lat="46.23513" lon="15.18061">
        <ele>257.880431</ele>
        <time>2026-07-11T07:07:26.000Z</time>
      </trkpt>
      <trkpt lat="46.23515" lon="15.18048">
        <ele>257.892541</ele>
        <time>2026-07-11T07:07:28.000Z</time>
      </trkpt>
      <trkpt lat="46.23519" lon="15.18026">
        <ele>257.946347</ele>
        <time>2026-07-11T07:07:32.000Z</time>
      </trkpt>
      <trkpt lat="46.2352" lon="15.18019">
        <ele>257.992733</ele>
        <time>2026-07-11T07:07:33.000Z</time>
      </trkpt>
      <trkpt lat="46.23516" lon="15.18012">
        <ele>258.058478</ele>
        <time>2026-07-11T07:07:35.000Z</time>
      </trkpt>
      <trkpt lat="46.23503" lon="15.18004">
        <ele>258.20159</ele>
        <time>2026-07-11T07:07:40.000Z</time>
      </trkpt>
      <trkpt lat="46.23503" lon="15.17992">
        <ele>258.292716</ele>
        <time>2026-07-11T07:07:44.000Z</time>
      </trkpt>
      <trkpt lat="46.23502" lon="15.17966">
        <ele>258.480039</ele>
        <time>2026-07-11T07:07:49.000Z</time>
      </trkpt>
      <trkpt lat="46.23504" lon="15.17931">
        <ele>258.728574</ele>
        <time>2026-07-11T07:07:55.000Z</time>
      </trkpt>
      <trkpt lat="46.23507" lon="15.17899">
        <ele>258.96516</ele>
        <time>2026-07-11T07:08:00.000Z</time>
      </trkpt>
      <trkpt lat="46.23508" lon="15.17892">
        <ele>259.014307</ele>
        <time>2026-07-11T07:08:01.000Z</time>
      </trkpt>
      <trkpt lat="46.2351" lon="15.17873">
        <ele>259.150724</ele>
        <time>2026-07-11T07:08:04.000Z</time>
      </trkpt>
      <trkpt lat="46.23513" lon="15.17846">
        <ele>259.350498</ele>
        <time>2026-07-11T07:08:08.000Z</time>
      </trkpt>
      <trkpt lat="46.2352" lon="15.17788">
        <ele>259.772392</ele>
        <time>2026-07-11T07:08:16.000Z</time>
      </trkpt>
      <trkpt lat="46.23524" lon="15.17756">
        <ele>260.044847</ele>
        <time>2026-07-11T07:08:21.000Z</time>
      </trkpt>
      <trkpt lat="46.23525" lon="15.1775">
        <ele>260.093863</ele>
        <time>2026-07-11T07:08:22.000Z</time>
      </trkpt>
      <trkpt lat="46.23533" lon="15.17719">
        <ele>260.368491</ele>
        <time>2026-07-11T07:08:28.000Z</time>
      </trkpt>
      <trkpt lat="46.23538" lon="15.177">
        <ele>260.542258</ele>
        <time>2026-07-11T07:08:31.000Z</time>
      </trkpt>
      <trkpt lat="46.2354" lon="15.17687">
        <ele>260.651008</ele>
        <time>2026-07-11T07:08:33.000Z</time>
      </trkpt>
      <trkpt lat="46.23541" lon="15.1768">
        <ele>260.709273</ele>
        <time>2026-07-11T07:08:34.000Z</time>
      </trkpt>
      <trkpt lat="46.23542" lon="15.17674">
        <ele>260.759508</ele>
        <time>2026-07-11T07:08:35.000Z</time>
      </trkpt>
      <trkpt lat="46.23543" lon="15.17666">
        <ele>260.829088</ele>
        <time>2026-07-11T07:08:36.000Z</time>
      </trkpt>
      <trkpt lat="46.23546" lon="15.17654">
        <ele>260.933876</ele>
        <time>2026-07-11T07:08:38.000Z</time>
      </trkpt>
      <trkpt lat="46.23553" lon="15.17621">
        <ele>261.223026</ele>
        <time>2026-07-11T07:08:43.000Z</time>
      </trkpt>
      <trkpt lat="46.23565" lon="15.17575">
        <ele>261.625635</ele>
        <time>2026-07-11T07:08:50.000Z</time>
      </trkpt>
      <trkpt lat="46.23569" lon="15.17556">
        <ele>261.795205</ele>
        <time>2026-07-11T07:08:53.000Z</time>
      </trkpt>
      <trkpt lat="46.23572" lon="15.17535">
        <ele>261.92064</ele>
        <time>2026-07-11T07:08:56.000Z</time>
      </trkpt>
      <trkpt lat="46.23574" lon="15.17527">
        <ele>261.887664</ele>
        <time>2026-07-11T07:08:57.000Z</time>
      </trkpt>
      <trkpt lat="46.23577" lon="15.17506">
        <ele>261.787816</ele>
        <time>2026-07-11T07:09:00.000Z</time>
      </trkpt>
      <trkpt lat="46.23582" lon="15.17478">
        <ele>261.655754</ele>
        <time>2026-07-11T07:09:04.000Z</time>
      </trkpt>
      <trkpt lat="46.23583" lon="15.17471">
        <ele>261.624736</ele>
        <time>2026-07-11T07:09:05.000Z</time>
      </trkpt>
      <trkpt lat="46.23587" lon="15.17452">
        <ele>261.536181</ele>
        <time>2026-07-11T07:09:08.000Z</time>
      </trkpt>
      <trkpt lat="46.2359" lon="15.17437">
        <ele>261.466881</ele>
        <time>2026-07-11T07:09:10.000Z</time>
      </trkpt>
      <trkpt lat="46.23591" lon="15.17432">
        <ele>261.441915</ele>
        <time>2026-07-11T07:09:11.000Z</time>
      </trkpt>
      <trkpt lat="46.23594" lon="15.17418">
        <ele>261.376077</ele>
        <time>2026-07-11T07:09:13.000Z</time>
      </trkpt>
      <trkpt lat="46.23599" lon="15.17398">
        <ele>261.278429</ele>
        <time>2026-07-11T07:09:16.000Z</time>
      </trkpt>
      <trkpt lat="46.23602" lon="15.17385">
        <ele>261.219585</ele>
        <time>2026-07-11T07:09:18.000Z</time>
      </trkpt>
      <trkpt lat="46.23604" lon="15.17372">
        <ele>261.158034</ele>
        <time>2026-07-11T07:09:20.000Z</time>
      </trkpt>
      <trkpt lat="46.23607" lon="15.17358">
        <ele>261.092098</ele>
        <time>2026-07-11T07:09:22.000Z</time>
      </trkpt>
      <trkpt lat="46.23611" lon="15.17345">
        <ele>261.026506</ele>
        <time>2026-07-11T07:09:24.000Z</time>
      </trkpt>
      <trkpt lat="46.23627" lon="15.17279">
        <ele>260.644036</ele>
        <time>2026-07-11T07:09:34.000Z</time>
      </trkpt>
      <trkpt lat="46.23639" lon="15.1722">
        <ele>260.035278</ele>
        <time>2026-07-11T07:09:43.000Z</time>
      </trkpt>
      <trkpt lat="46.23645" lon="15.17185">
        <ele>259.679257</ele>
        <time>2026-07-11T07:09:48.000Z</time>
      </trkpt>
      <trkpt lat="46.23647" lon="15.17172">
        <ele>259.550476</ele>
        <time>2026-07-11T07:09:50.000Z</time>
      </trkpt>
      <trkpt lat="46.23659" lon="15.17122">
        <ele>259.022847</ele>
        <time>2026-07-11T07:09:58.000Z</time>
      </trkpt>
      <trkpt lat="46.23669" lon="15.17081">
        <ele>258.590499</ele>
        <time>2026-07-11T07:10:04.000Z</time>
      </trkpt>
      <trkpt lat="46.23676" lon="15.17041">
        <ele>258.181604</ele>
        <time>2026-07-11T07:10:10.000Z</time>
      </trkpt>
      <trkpt lat="46.23678" lon="15.17034">
        <ele>258.150421</ele>
        <time>2026-07-11T07:10:11.000Z</time>
      </trkpt>
      <trkpt lat="46.23691" lon="15.16973">
        <ele>257.876215</ele>
        <time>2026-07-11T07:10:20.000Z</time>
      </trkpt>
      <trkpt lat="46.23692" lon="15.16967">
        <ele>257.847746</ele>
        <time>2026-07-11T07:10:21.000Z</time>
      </trkpt>
      <trkpt lat="46.237" lon="15.16935">
        <ele>257.702584</ele>
        <time>2026-07-11T07:10:26.000Z</time>
      </trkpt>
      <trkpt lat="46.23703" lon="15.1692">
        <ele>257.634878</ele>
        <time>2026-07-11T07:10:28.000Z</time>
      </trkpt>
      <trkpt lat="46.2371" lon="15.16892">
        <ele>257.507981</ele>
        <time>2026-07-11T07:10:32.000Z</time>
      </trkpt>
      <trkpt lat="46.23718" lon="15.16848">
        <ele>257.311098</ele>
        <time>2026-07-11T07:10:39.000Z</time>
      </trkpt>
      <trkpt lat="46.23719" lon="15.16842">
        <ele>257.2824</ele>
        <time>2026-07-11T07:10:40.000Z</time>
      </trkpt>
      <trkpt lat="46.23727" lon="15.16815">
        <ele>257.158398</ele>
        <time>2026-07-11T07:10:44.000Z</time>
      </trkpt>
      <trkpt lat="46.23728" lon="15.16809">
        <ele>257.129245</ele>
        <time>2026-07-11T07:10:45.000Z</time>
      </trkpt>
      <trkpt lat="46.23729" lon="15.16802">
        <ele>257.099881</ele>
        <time>2026-07-11T07:10:46.000Z</time>
      </trkpt>
      <trkpt lat="46.23732" lon="15.16788">
        <ele>257.071275</ele>
        <time>2026-07-11T07:10:48.000Z</time>
      </trkpt>
      <trkpt lat="46.23736" lon="15.16776">
        <ele>257.084051</ele>
        <time>2026-07-11T07:10:50.000Z</time>
      </trkpt>
      <trkpt lat="46.23741" lon="15.16761">
        <ele>257.099722</ele>
        <time>2026-07-11T07:10:52.000Z</time>
      </trkpt>
      <trkpt lat="46.23744" lon="15.16748">
        <ele>257.113758</ele>
        <time>2026-07-11T07:10:54.000Z</time>
      </trkpt>
      <trkpt lat="46.23749" lon="15.16721">
        <ele>257.141051</ele>
        <time>2026-07-11T07:10:58.000Z</time>
      </trkpt>
      <trkpt lat="46.23753" lon="15.16706">
        <ele>257.156767</ele>
        <time>2026-07-11T07:11:00.000Z</time>
      </trkpt>
      <trkpt lat="46.23762" lon="15.16669">
        <ele>257.194674</ele>
        <time>2026-07-11T07:11:06.000Z</time>
      </trkpt>
      <trkpt lat="46.23771" lon="15.16637">
        <ele>257.22874</ele>
        <time>2026-07-11T07:11:12.000Z</time>
      </trkpt>
      <trkpt lat="46.23773" lon="15.16632">
        <ele>257.234467</ele>
        <time>2026-07-11T07:11:13.000Z</time>
      </trkpt>
      <trkpt lat="46.23775" lon="15.16627">
        <ele>257.240108</ele>
        <time>2026-07-11T07:11:14.000Z</time>
      </trkpt>
      <trkpt lat="46.23781" lon="15.1662">
        <ele>257.251382</ele>
        <time>2026-07-11T07:11:16.000Z</time>
      </trkpt>
      <trkpt lat="46.23785" lon="15.16619">
        <ele>257.257171</ele>
        <time>2026-07-11T07:11:17.000Z</time>
      </trkpt>
      <trkpt lat="46.23789" lon="15.16619">
        <ele>257.262693</ele>
        <time>2026-07-11T07:11:18.000Z</time>
      </trkpt>
      <trkpt lat="46.23801" lon="15.16627">
        <ele>257.28175</ele>
        <time>2026-07-11T07:11:21.000Z</time>
      </trkpt>
      <trkpt lat="46.23809" lon="15.16632">
        <ele>257.294219</ele>
        <time>2026-07-11T07:11:23.000Z</time>
      </trkpt>
      <trkpt lat="46.23825" lon="15.16645">
        <ele>257.322394</ele>
        <time>2026-07-11T07:11:27.000Z</time>
      </trkpt>
      <trkpt lat="46.23831" lon="15.16648">
        <ele>257.348615</ele>
        <time>2026-07-11T07:11:28.000Z</time>
      </trkpt>
      <trkpt lat="46.23841" lon="15.1665">
        <ele>257.396464</ele>
        <time>2026-07-11T07:11:30.000Z</time>
      </trkpt>
      <trkpt lat="46.2385" lon="15.1665">
        <ele>257.439632</ele>
        <time>2026-07-11T07:11:32.000Z</time>
      </trkpt>
      <trkpt lat="46.23858" lon="15.16646">
        <ele>257.479124</ele>
        <time>2026-07-11T07:11:34.000Z</time>
      </trkpt>
      <trkpt lat="46.23869" lon="15.16641">
        <ele>257.534322</ele>
        <time>2026-07-11T07:11:37.000Z</time>
      </trkpt>
      <trkpt lat="46.23873" lon="15.16639">
        <ele>257.553666</ele>
        <time>2026-07-11T07:11:38.000Z</time>
      </trkpt>
      <trkpt lat="46.23883" lon="15.16636">
        <ele>257.598924</ele>
        <time>2026-07-11T07:11:40.000Z</time>
      </trkpt>
      <trkpt lat="46.23888" lon="15.16636">
        <ele>257.62403</ele>
        <time>2026-07-11T07:11:41.000Z</time>
      </trkpt>
      <trkpt lat="46.23897" lon="15.16638">
        <ele>257.662913</ele>
        <time>2026-07-11T07:11:43.000Z</time>
      </trkpt>
      <trkpt lat="46.2391" lon="15.16646">
        <ele>257.728466</ele>
        <time>2026-07-11T07:11:46.000Z</time>
      </trkpt>
      <trkpt lat="46.2392" lon="15.1665">
        <ele>257.777418</ele>
        <time>2026-07-11T07:11:48.000Z</time>
      </trkpt>
      <trkpt lat="46.23925" lon="15.16652">
        <ele>257.800956</ele>
        <time>2026-07-11T07:11:49.000Z</time>
      </trkpt>
      <trkpt lat="46.23944" lon="15.16658">
        <ele>257.891378</ele>
        <time>2026-07-11T07:11:53.000Z</time>
      </trkpt>
      <trkpt lat="46.23958" lon="15.16661">
        <ele>257.960043</ele>
        <time>2026-07-11T07:11:56.000Z</time>
      </trkpt>
      <trkpt lat="46.23968" lon="15.16661">
        <ele>258.00644</ele>
        <time>2026-07-11T07:11:58.000Z</time>
      </trkpt>
      <trkpt lat="46.23987" lon="15.16663">
        <ele>258.09104</ele>
        <time>2026-07-11T07:12:02.000Z</time>
      </trkpt>
      <trkpt lat="46.24009" lon="15.16667">
        <ele>258.079996</ele>
        <time>2026-07-11T07:12:07.000Z</time>
      </trkpt>
      <trkpt lat="46.24021" lon="15.16668">
        <ele>257.97904</ele>
        <time>2026-07-11T07:12:09.000Z</time>
      </trkpt>
      <trkpt lat="46.24025" lon="15.16669">
        <ele>257.94507</ele>
        <time>2026-07-11T07:12:10.000Z</time>
      </trkpt>
      <trkpt lat="46.2405" lon="15.1667">
        <ele>257.739362</ele>
        <time>2026-07-11T07:12:15.000Z</time>
      </trkpt>
      <trkpt lat="46.24077" lon="15.16675">
        <ele>257.513132</ele>
        <time>2026-07-11T07:12:21.000Z</time>
      </trkpt>
      <trkpt lat="46.24085" lon="15.16677">
        <ele>257.445436</ele>
        <time>2026-07-11T07:12:23.000Z</time>
      </trkpt>
      <trkpt lat="46.24098" lon="15.16681">
        <ele>257.335461</ele>
        <time>2026-07-11T07:12:26.000Z</time>
      </trkpt>
      <trkpt lat="46.24114" lon="15.16692">
        <ele>257.187941</ele>
        <time>2026-07-11T07:12:30.000Z</time>
      </trkpt>
      <trkpt lat="46.24118" lon="15.16695">
        <ele>257.155189</ele>
        <time>2026-07-11T07:12:31.000Z</time>
      </trkpt>
      <trkpt lat="46.24129" lon="15.16698">
        <ele>257.064863</ele>
        <time>2026-07-11T07:12:34.000Z</time>
      </trkpt>
      <trkpt lat="46.2415" lon="15.16697">
        <ele>256.887247</ele>
        <time>2026-07-11T07:12:40.000Z</time>
      </trkpt>
      <trkpt lat="46.24153" lon="15.16693">
        <ele>256.85306</ele>
        <time>2026-07-11T07:12:41.000Z</time>
      </trkpt>
      <trkpt lat="46.24156" lon="15.16683">
        <ele>256.786374</ele>
        <time>2026-07-11T07:12:43.000Z</time>
      </trkpt>
      <trkpt lat="46.24155" lon="15.16635">
        <ele>257.075936</ele>
        <time>2026-07-11T07:12:50.000Z</time>
      </trkpt>
      <trkpt lat="46.24159" lon="15.16603">
        <ele>257.552993</ele>
        <time>2026-07-11T07:12:55.000Z</time>
      </trkpt>
      <trkpt lat="46.24158" lon="15.16588">
        <ele>257.777021</ele>
        <time>2026-07-11T07:12:59.000Z</time>
      </trkpt>
      <trkpt lat="46.24158" lon="15.16566">
        <ele>258.118609</ele>
        <time>2026-07-11T07:13:03.000Z</time>
      </trkpt>
      <trkpt lat="46.24161" lon="15.16527">
        <ele>258.695179</ele>
        <time>2026-07-11T07:13:09.000Z</time>
      </trkpt>
      <trkpt lat="46.24164" lon="15.16491">
        <ele>259.240974</ele>
        <time>2026-07-11T07:13:14.000Z</time>
      </trkpt>
      <trkpt lat="46.24165" lon="15.16479">
        <ele>259.4283</ele>
        <time>2026-07-11T07:13:16.000Z</time>
      </trkpt>
      <trkpt lat="46.2417" lon="15.1641">
        <ele>260.45914</ele>
        <time>2026-07-11T07:13:26.000Z</time>
      </trkpt>
      <trkpt lat="46.24173" lon="15.16376">
        <ele>260.5064</ele>
        <time>2026-07-11T07:13:31.000Z</time>
      </trkpt>
      <trkpt lat="46.24175" lon="15.1635">
        <ele>260.451658</ele>
        <time>2026-07-11T07:13:35.000Z</time>
      </trkpt>
      <trkpt lat="46.24183" lon="15.16291">
        <ele>260.328487</ele>
        <time>2026-07-11T07:13:44.000Z</time>
      </trkpt>
      <trkpt lat="46.24186" lon="15.16275">
        <ele>260.295165</ele>
        <time>2026-07-11T07:13:47.000Z</time>
      </trkpt>
      <trkpt lat="46.24191" lon="15.16261">
        <ele>260.262143</ele>
        <time>2026-07-11T07:13:50.000Z</time>
      </trkpt>
      <trkpt lat="46.24196" lon="15.16243">
        <ele>260.221063</ele>
        <time>2026-07-11T07:13:54.000Z</time>
      </trkpt>
      <trkpt lat="46.24194" lon="15.16238">
        <ele>260.210681</ele>
        <time>2026-07-11T07:13:55.000Z</time>
      </trkpt>
      <trkpt lat="46.24181" lon="15.16227">
        <ele>260.163289</ele>
        <time>2026-07-11T07:13:59.000Z</time>
      </trkpt>
      <trkpt lat="46.24163" lon="15.16216">
        <ele>260.107791</ele>
        <time>2026-07-11T07:14:03.000Z</time>
      </trkpt>
      <trkpt lat="46.24158" lon="15.16212">
        <ele>260.090887</ele>
        <time>2026-07-11T07:14:04.000Z</time>
      </trkpt>
      <trkpt lat="46.24154" lon="15.1621">
        <ele>260.077907</ele>
        <time>2026-07-11T07:14:05.000Z</time>
      </trkpt>
      <trkpt lat="46.2412" lon="15.16187">
        <ele>259.931864</ele>
        <time>2026-07-11T07:14:13.000Z</time>
      </trkpt>
      <trkpt lat="46.24086" lon="15.16164">
        <ele>259.762521</ele>
        <time>2026-07-11T07:14:21.000Z</time>
      </trkpt>
      <trkpt lat="46.24053" lon="15.16142">
        <ele>259.595642</ele>
        <time>2026-07-11T07:14:29.000Z</time>
      </trkpt>
      <trkpt lat="46.24036" lon="15.1613">
        <ele>259.50776</ele>
        <time>2026-07-11T07:14:33.000Z</time>
      </trkpt>
      <trkpt lat="46.24023" lon="15.16124">
        <ele>259.448446</ele>
        <time>2026-07-11T07:14:36.000Z</time>
      </trkpt>
      <trkpt lat="46.24001" lon="15.16113">
        <ele>259.340374</ele>
        <time>2026-07-11T07:14:43.000Z</time>
      </trkpt>
      <trkpt lat="46.23991" lon="15.16104">
        <ele>259.285403</ele>
        <time>2026-07-11T07:14:48.000Z</time>
      </trkpt>
      <trkpt lat="46.23988" lon="15.16097">
        <ele>259.259973</ele>
        <time>2026-07-11T07:14:51.000Z</time>
      </trkpt>
      <trkpt lat="46.23986" lon="15.16088">
        <ele>259.229965</ele>
        <time>2026-07-11T07:14:54.000Z</time>
      </trkpt>
      <trkpt lat="46.23978" lon="15.1607">
        <ele>259.330731</ele>
        <time>2026-07-11T07:14:59.000Z</time>
      </trkpt>
      <trkpt lat="46.2398" lon="15.16046">
        <ele>259.534791</ele>
        <time>2026-07-11T07:15:03.000Z</time>
      </trkpt>
      <trkpt lat="46.23984" lon="15.16004">
        <ele>259.89388</ele>
        <time>2026-07-11T07:15:09.000Z</time>
      </trkpt>
      <trkpt lat="46.23985" lon="15.1599">
        <ele>260.011941</ele>
        <time>2026-07-11T07:15:11.000Z</time>
      </trkpt>
      <trkpt lat="46.23985" lon="15.15983">
        <ele>260.074313</ele>
        <time>2026-07-11T07:15:12.000Z</time>
      </trkpt>
      <trkpt lat="46.23986" lon="15.15976">
        <ele>260.135236</ele>
        <time>2026-07-11T07:15:13.000Z</time>
      </trkpt>
      <trkpt lat="46.2399" lon="15.15911">
        <ele>260.689214</ele>
        <time>2026-07-11T07:15:22.000Z</time>
      </trkpt>
      <trkpt lat="46.24" lon="15.15842">
        <ele>261.28964</ele>
        <time>2026-07-11T07:15:32.000Z</time>
      </trkpt>
      <trkpt lat="46.2401" lon="15.1579">
        <ele>261.354136</ele>
        <time>2026-07-11T07:15:40.000Z</time>
      </trkpt>
      <trkpt lat="46.24024" lon="15.15723">
        <ele>261.231657</ele>
        <time>2026-07-11T07:15:50.000Z</time>
      </trkpt>
      <trkpt lat="46.2404" lon="15.15659">
        <ele>261.112065</ele>
        <time>2026-07-11T07:16:00.000Z</time>
      </trkpt>
      <trkpt lat="46.24063" lon="15.15591">
        <ele>260.978345</ele>
        <time>2026-07-11T07:16:11.000Z</time>
      </trkpt>
      <trkpt lat="46.24081" lon="15.15534">
        <ele>260.855759</ele>
        <time>2026-07-11T07:16:20.000Z</time>
      </trkpt>
      <trkpt lat="46.24098" lon="15.15482">
        <ele>260.743182</ele>
        <time>2026-07-11T07:16:28.000Z</time>
      </trkpt>
      <trkpt lat="46.24101" lon="15.15469">
        <ele>260.715433</ele>
        <time>2026-07-11T07:16:30.000Z</time>
      </trkpt>
      <trkpt lat="46.241" lon="15.15455">
        <ele>260.689655</ele>
        <time>2026-07-11T07:16:32.000Z</time>
      </trkpt>
      <trkpt lat="46.24099" lon="15.15449">
        <ele>260.677468</ele>
        <time>2026-07-11T07:16:33.000Z</time>
      </trkpt>
      <trkpt lat="46.24095" lon="15.15432">
        <ele>260.64072</ele>
        <time>2026-07-11T07:16:36.000Z</time>
      </trkpt>
      <trkpt lat="46.24085" lon="15.15403">
        <ele>260.578477</ele>
        <time>2026-07-11T07:16:42.000Z</time>
      </trkpt>
      <trkpt lat="46.24077" lon="15.15398">
        <ele>260.552198</ele>
        <time>2026-07-11T07:16:44.000Z</time>
      </trkpt>
      <trkpt lat="46.24068" lon="15.15398">
        <ele>260.526645</ele>
        <time>2026-07-11T07:16:46.000Z</time>
      </trkpt>
      <trkpt lat="46.24041" lon="15.15412">
        <ele>260.455973</ele>
        <time>2026-07-11T07:16:52.000Z</time>
      </trkpt>
      <trkpt lat="46.24032" lon="15.15416">
        <ele>260.465426</ele>
        <time>2026-07-11T07:16:54.000Z</time>
      </trkpt>
      <trkpt lat="46.24023" lon="15.15418">
        <ele>260.474124</ele>
        <time>2026-07-11T07:16:56.000Z</time>
      </trkpt>
      <trkpt lat="46.24015" lon="15.15418">
        <ele>260.482527</ele>
        <time>2026-07-11T07:16:58.000Z</time>
      </trkpt>
      <trkpt lat="46.23987" lon="15.1541">
        <ele>260.51085</ele>
        <time>2026-07-11T07:17:04.000Z</time>
      </trkpt>
      <trkpt lat="46.23947" lon="15.15396">
        <ele>260.551229</ele>
        <time>2026-07-11T07:17:12.000Z</time>
      </trkpt>
      <trkpt lat="46.23937" lon="15.15392">
        <ele>260.561079</ele>
        <time>2026-07-11T07:17:14.000Z</time>
      </trkpt>
      <trkpt lat="46.23898" lon="15.15379">
        <ele>260.600931</ele>
        <time>2026-07-11T07:17:23.000Z</time>
      </trkpt>
      <trkpt lat="46.2388" lon="15.1537">
        <ele>260.619492</ele>
        <time>2026-07-11T07:17:27.000Z</time>
      </trkpt>
      <trkpt lat="46.23869" lon="15.15361">
        <ele>260.631687</ele>
        <time>2026-07-11T07:17:30.000Z</time>
      </trkpt>
      <trkpt lat="46.23855" lon="15.15347">
        <ele>260.643908</ele>
        <time>2026-07-11T07:17:34.000Z</time>
      </trkpt>
      <trkpt lat="46.23847" lon="15.1534">
        <ele>260.650078</ele>
        <time>2026-07-11T07:17:36.000Z</time>
      </trkpt>
      <trkpt lat="46.23843" lon="15.15337">
        <ele>260.653182</ele>
        <time>2026-07-11T07:17:37.000Z</time>
      </trkpt>
      <trkpt lat="46.23839" lon="15.15334">
        <ele>260.656207</ele>
        <time>2026-07-11T07:17:38.000Z</time>
      </trkpt>
      <trkpt lat="46.23831" lon="15.1533">
        <ele>260.66236</ele>
        <time>2026-07-11T07:17:40.000Z</time>
      </trkpt>
      <trkpt lat="46.23826" lon="15.15328">
        <ele>260.665529</ele>
        <time>2026-07-11T07:17:41.000Z</time>
      </trkpt>
      <trkpt lat="46.23806" lon="15.15311">
        <ele>260.682151</ele>
        <time>2026-07-11T07:17:47.000Z</time>
      </trkpt>
      <trkpt lat="46.23792" lon="15.1528">
        <ele>260.700026</ele>
        <time>2026-07-11T07:17:53.000Z</time>
      </trkpt>
      <trkpt lat="46.23776" lon="15.15239">
        <ele>260.72268</ele>
        <time>2026-07-11T07:18:00.000Z</time>
      </trkpt>
      <trkpt lat="46.23765" lon="15.15209">
        <ele>260.738632</ele>
        <time>2026-07-11T07:18:05.000Z</time>
      </trkpt>
      <trkpt lat="46.23763" lon="15.15197">
        <ele>260.744832</ele>
        <time>2026-07-11T07:18:07.000Z</time>
      </trkpt>
      <trkpt lat="46.23757" lon="15.15154">
        <ele>261.05576</ele>
        <time>2026-07-11T07:18:14.000Z</time>
      </trkpt>
      <trkpt lat="46.23755" lon="15.15134">
        <ele>261.35256</ele>
        <time>2026-07-11T07:18:18.000Z</time>
      </trkpt>
      <trkpt lat="46.23754" lon="15.15126">
        <ele>261.478181</ele>
        <time>2026-07-11T07:18:20.000Z</time>
      </trkpt>
      <trkpt lat="46.23751" lon="15.15096">
        <ele>261.915781</ele>
        <time>2026-07-11T07:18:27.000Z</time>
      </trkpt>
      <trkpt lat="46.23746" lon="15.15064">
        <ele>262.391972</ele>
        <time>2026-07-11T07:18:34.000Z</time>
      </trkpt>
      <trkpt lat="46.23745" lon="15.15057">
        <ele>262.49616</ele>
        <time>2026-07-11T07:18:37.000Z</time>
      </trkpt>
      <trkpt lat="46.23744" lon="15.15057">
        <ele>262.503883</ele>
        <time>2026-07-11T07:18:38.000Z</time>
      </trkpt>
      <trkpt lat="46.23739" lon="15.15056">
        <ele>262.618968</ele>
        <time>2026-07-11T07:18:48.000Z</time>
      </trkpt>
      <trkpt lat="46.23734" lon="15.15054">
        <ele>262.722697</ele>
        <time>2026-07-11T07:18:50.000Z</time>
      </trkpt>
      <trkpt lat="46.23713" lon="15.15048">
        <ele>263.187737</ele>
        <time>2026-07-11T07:18:56.000Z</time>
      </trkpt>
      <trkpt lat="46.23709" lon="15.15046">
        <ele>263.278992</ele>
        <time>2026-07-11T07:18:57.000Z</time>
      </trkpt>
      <trkpt lat="46.23681" lon="15.1504">
        <ele>263.868947</ele>
        <time>2026-07-11T07:19:03.000Z</time>
      </trkpt>
      <trkpt lat="46.23672" lon="15.15038">
        <ele>264.062448</ele>
        <time>2026-07-11T07:19:05.000Z</time>
      </trkpt>
      <trkpt lat="46.23659" lon="15.15031">
        <ele>264.361123</ele>
        <time>2026-07-11T07:19:08.000Z</time>
      </trkpt>
      <trkpt lat="46.23646" lon="15.15018">
        <ele>264.571077</ele>
        <time>2026-07-11T07:19:12.000Z</time>
      </trkpt>
      <trkpt lat="46.23644" lon="15.15015">
        <ele>264.574278</ele>
        <time>2026-07-11T07:19:13.000Z</time>
      </trkpt>
      <trkpt lat="46.23638" lon="15.15001">
        <ele>264.586233</ele>
        <time>2026-07-11T07:19:17.000Z</time>
      </trkpt>
      <trkpt lat="46.23636" lon="15.14992">
        <ele>264.593865</ele>
        <time>2026-07-11T07:19:19.000Z</time>
      </trkpt>
      <trkpt lat="46.23633" lon="15.14981">
        <ele>264.603221</ele>
        <time>2026-07-11T07:19:21.000Z</time>
      </trkpt>
      <trkpt lat="46.23631" lon="15.14975">
        <ele>264.607944</ele>
        <time>2026-07-11T07:19:22.000Z</time>
      </trkpt>
      <trkpt lat="46.2363" lon="15.1497">
        <ele>264.612558</ele>
        <time>2026-07-11T07:19:23.000Z</time>
      </trkpt>
      <trkpt lat="46.23629" lon="15.14943">
        <ele>264.633295</ele>
        <time>2026-07-11T07:19:27.000Z</time>
      </trkpt>
      <trkpt lat="46.23624" lon="15.14911">
        <ele>264.65884</ele>
        <time>2026-07-11T07:19:32.000Z</time>
      </trkpt>
      <trkpt lat="46.23622" lon="15.14898">
        <ele>264.668593</ele>
        <time>2026-07-11T07:19:34.000Z</time>
      </trkpt>
      <trkpt lat="46.23622" lon="15.14893">
        <ele>264.673164</ele>
        <time>2026-07-11T07:19:35.000Z</time>
      </trkpt>
      <trkpt lat="46.2362" lon="15.14876">
        <ele>264.686091</ele>
        <time>2026-07-11T07:19:38.000Z</time>
      </trkpt>
      <trkpt lat="46.23618" lon="15.14865">
        <ele>264.695323</ele>
        <time>2026-07-11T07:19:40.000Z</time>
      </trkpt>
      <trkpt lat="46.23617" lon="15.14847">
        <ele>264.70917</ele>
        <time>2026-07-11T07:19:43.000Z</time>
      </trkpt>
      <trkpt lat="46.23616" lon="15.14836">
        <ele>264.717899</ele>
        <time>2026-07-11T07:19:45.000Z</time>
      </trkpt>
      <trkpt lat="46.23613" lon="15.14825">
        <ele>264.727006</ele>
        <time>2026-07-11T07:19:47.000Z</time>
      </trkpt>
      <trkpt lat="46.23615" lon="15.14801">
        <ele>264.745834</ele>
        <time>2026-07-11T07:19:52.000Z</time>
      </trkpt>
      <trkpt lat="46.23619" lon="15.1478">
        <ele>264.76278</ele>
        <time>2026-07-11T07:19:56.000Z</time>
      </trkpt>
      <trkpt lat="46.23623" lon="15.14739">
        <ele>264.589282</ele>
        <time>2026-07-11T07:20:03.000Z</time>
      </trkpt>
      <trkpt lat="46.23629" lon="15.14706">
        <ele>264.431432</ele>
        <time>2026-07-11T07:20:08.000Z</time>
      </trkpt>
      <trkpt lat="46.23631" lon="15.14701">
        <ele>264.401279</ele>
        <time>2026-07-11T07:20:09.000Z</time>
      </trkpt>
      <trkpt lat="46.23636" lon="15.1467">
        <ele>264.251664</ele>
        <time>2026-07-11T07:20:14.000Z</time>
      </trkpt>
      <trkpt lat="46.23641" lon="15.14654">
        <ele>264.169802</ele>
        <time>2026-07-11T07:20:17.000Z</time>
      </trkpt>
      <trkpt lat="46.23644" lon="15.14636">
        <ele>264.083718</ele>
        <time>2026-07-11T07:20:20.000Z</time>
      </trkpt>
      <trkpt lat="46.23647" lon="15.14619">
        <ele>264.000013</ele>
        <time>2026-07-11T07:20:23.000Z</time>
      </trkpt>
      <trkpt lat="46.23648" lon="15.14613">
        <ele>263.970094</ele>
        <time>2026-07-11T07:20:24.000Z</time>
      </trkpt>
      <trkpt lat="46.23653" lon="15.14589">
        <ele>263.852343</ele>
        <time>2026-07-11T07:20:28.000Z</time>
      </trkpt>
      <trkpt lat="46.23657" lon="15.14573">
        <ele>263.770511</ele>
        <time>2026-07-11T07:20:31.000Z</time>
      </trkpt>
      <trkpt lat="46.2366" lon="15.14562">
        <ele>263.715097</ele>
        <time>2026-07-11T07:20:33.000Z</time>
      </trkpt>
      <trkpt lat="46.23662" lon="15.14556">
        <ele>263.685246</ele>
        <time>2026-07-11T07:20:34.000Z</time>
      </trkpt>
      <trkpt lat="46.23677" lon="15.1451">
        <ele>263.751276</ele>
        <time>2026-07-11T07:20:42.000Z</time>
      </trkpt>
      <trkpt lat="46.23679" lon="15.14504">
        <ele>263.81685</ele>
        <time>2026-07-11T07:20:43.000Z</time>
      </trkpt>
      <trkpt lat="46.23687" lon="15.14487">
        <ele>264.042345</ele>
        <time>2026-07-11T07:20:46.000Z</time>
      </trkpt>
      <trkpt lat="46.2369" lon="15.14481">
        <ele>264.11732</ele>
        <time>2026-07-11T07:20:47.000Z</time>
      </trkpt>
      <trkpt lat="46.23693" lon="15.14476">
        <ele>264.185237</ele>
        <time>2026-07-11T07:20:48.000Z</time>
      </trkpt>
      <trkpt lat="46.23695" lon="15.14471">
        <ele>264.246787</ele>
        <time>2026-07-11T07:20:49.000Z</time>
      </trkpt>
      <trkpt lat="46.23701" lon="15.14457">
        <ele>264.426998</ele>
        <time>2026-07-11T07:20:52.000Z</time>
      </trkpt>
      <trkpt lat="46.23704" lon="15.14453">
        <ele>264.487986</ele>
        <time>2026-07-11T07:20:53.000Z</time>
      </trkpt>
      <trkpt lat="46.23728" lon="15.14412">
        <ele>265.055532</ele>
        <time>2026-07-11T07:21:01.000Z</time>
      </trkpt>
      <trkpt lat="46.2375" lon="15.14379">
        <ele>265.539316</ele>
        <time>2026-07-11T07:21:08.000Z</time>
      </trkpt>
      <trkpt lat="46.23753" lon="15.14374">
        <ele>265.610294</ele>
        <time>2026-07-11T07:21:09.000Z</time>
      </trkpt>
      <trkpt lat="46.23757" lon="15.14369">
        <ele>265.688626</ele>
        <time>2026-07-11T07:21:10.000Z</time>
      </trkpt>
      <trkpt lat="46.23771" lon="15.14347">
        <ele>266.005109</ele>
        <time>2026-07-11T07:21:15.000Z</time>
      </trkpt>
      <trkpt lat="46.23774" lon="15.14344">
        <ele>266.063603</ele>
        <time>2026-07-11T07:21:16.000Z</time>
      </trkpt>
      <trkpt lat="46.2379" lon="15.14323">
        <ele>266.313256</ele>
        <time>2026-07-11T07:21:21.000Z</time>
      </trkpt>
      <trkpt lat="46.23801" lon="15.1431">
        <ele>266.355527</ele>
        <time>2026-07-11T07:21:24.000Z</time>
      </trkpt>
      <trkpt lat="46.23818" lon="15.1429">
        <ele>266.423513</ele>
        <time>2026-07-11T07:21:29.000Z</time>
      </trkpt>
      <trkpt lat="46.23828" lon="15.14276">
        <ele>266.466395</ele>
        <time>2026-07-11T07:21:32.000Z</time>
      </trkpt>
      <trkpt lat="46.23838" lon="15.14263">
        <ele>266.507465</ele>
        <time>2026-07-11T07:21:35.000Z</time>
      </trkpt>
      <trkpt lat="46.2385" lon="15.14248">
        <ele>266.556347</ele>
        <time>2026-07-11T07:21:39.000Z</time>
      </trkpt>
      <trkpt lat="46.23859" lon="15.14238">
        <ele>266.593145</ele>
        <time>2026-07-11T07:21:42.000Z</time>
      </trkpt>
      <trkpt lat="46.23878" lon="15.14207">
        <ele>266.682927</ele>
        <time>2026-07-11T07:21:49.000Z</time>
      </trkpt>
      <trkpt lat="46.23882" lon="15.14202">
        <ele>266.697349</ele>
        <time>2026-07-11T07:21:50.000Z</time>
      </trkpt>
      <trkpt lat="46.23894" lon="15.14184">
        <ele>266.752572</ele>
        <time>2026-07-11T07:21:54.000Z</time>
      </trkpt>
      <trkpt lat="46.23903" lon="15.14168">
        <ele>266.797534</ele>
        <time>2026-07-11T07:21:57.000Z</time>
      </trkpt>
      <trkpt lat="46.23912" lon="15.14151">
        <ele>266.842623</ele>
        <time>2026-07-11T07:22:00.000Z</time>
      </trkpt>
      <trkpt lat="46.23918" lon="15.1414">
        <ele>266.711625</ele>
        <time>2026-07-11T07:22:02.000Z</time>
      </trkpt>
      <trkpt lat="46.23922" lon="15.14128">
        <ele>266.530912</ele>
        <time>2026-07-11T07:22:04.000Z</time>
      </trkpt>
      <trkpt lat="46.23932" lon="15.14104">
        <ele>266.161413</ele>
        <time>2026-07-11T07:22:08.000Z</time>
      </trkpt>
      <trkpt lat="46.23934" lon="15.14098">
        <ele>266.067622</ele>
        <time>2026-07-11T07:22:09.000Z</time>
      </trkpt>
      <trkpt lat="46.2394" lon="15.1408">
        <ele>265.802525</ele>
        <time>2026-07-11T07:22:12.000Z</time>
      </trkpt>
      <trkpt lat="46.23946" lon="15.14056">
        <ele>265.462372</ele>
        <time>2026-07-11T07:22:16.000Z</time>
      </trkpt>
      <trkpt lat="46.23953" lon="15.14033">
        <ele>265.125201</ele>
        <time>2026-07-11T07:22:20.000Z</time>
      </trkpt>
      <trkpt lat="46.23956" lon="15.14021">
        <ele>264.95154</ele>
        <time>2026-07-11T07:22:22.000Z</time>
      </trkpt>
      <trkpt lat="46.23972" lon="15.13949">
        <ele>263.939959</ele>
        <time>2026-07-11T07:22:33.000Z</time>
      </trkpt>
      <trkpt lat="46.23974" lon="15.13917">
        <ele>263.510879</ele>
        <time>2026-07-11T07:22:38.000Z</time>
      </trkpt>
      <trkpt lat="46.23974" lon="15.13902">
        <ele>263.358062</ele>
        <time>2026-07-11T07:22:41.000Z</time>
      </trkpt>
      <trkpt lat="46.23976" lon="15.13871">
        <ele>263.328797</ele>
        <time>2026-07-11T07:22:47.000Z</time>
      </trkpt>
      <trkpt lat="46.2398" lon="15.13838">
        <ele>263.297403</ele>
        <time>2026-07-11T07:22:52.000Z</time>
      </trkpt>
      <trkpt lat="46.23981" lon="15.13824">
        <ele>263.283918</ele>
        <time>2026-07-11T07:22:54.000Z</time>
      </trkpt>
      <trkpt lat="46.23981" lon="15.13816">
        <ele>263.276934</ele>
        <time>2026-07-11T07:22:55.000Z</time>
      </trkpt>
      <trkpt lat="46.2398" lon="15.1379">
        <ele>263.251691</ele>
        <time>2026-07-11T07:22:59.000Z</time>
      </trkpt>
      <trkpt lat="46.23981" lon="15.13768">
        <ele>263.231593</ele>
        <time>2026-07-11T07:23:02.000Z</time>
      </trkpt>
      <trkpt lat="46.23981" lon="15.13754">
        <ele>263.218188</ele>
        <time>2026-07-11T07:23:04.000Z</time>
      </trkpt>
      <trkpt lat="46.23981" lon="15.13741">
        <ele>263.206105</ele>
        <time>2026-07-11T07:23:06.000Z</time>
      </trkpt>
      <trkpt lat="46.23986" lon="15.13707">
        <ele>263.173393</ele>
        <time>2026-07-11T07:23:11.000Z</time>
      </trkpt>
      <trkpt lat="46.23986" lon="15.137">
        <ele>263.166482</ele>
        <time>2026-07-11T07:23:12.000Z</time>
      </trkpt>
      <trkpt lat="46.23987" lon="15.13686">
        <ele>263.152824</ele>
        <time>2026-07-11T07:23:14.000Z</time>
      </trkpt>
      <trkpt lat="46.23987" lon="15.13666">
        <ele>263.133756</ele>
        <time>2026-07-11T07:23:17.000Z</time>
      </trkpt>
      <trkpt lat="46.23988" lon="15.13659">
        <ele>263.12749</ele>
        <time>2026-07-11T07:23:18.000Z</time>
      </trkpt>
      <trkpt lat="46.2399" lon="15.13605">
        <ele>263.019788</ele>
        <time>2026-07-11T07:23:26.000Z</time>
      </trkpt>
      <trkpt lat="46.2399" lon="15.13564">
        <ele>262.928254</ele>
        <time>2026-07-11T07:23:32.000Z</time>
      </trkpt>
      <trkpt lat="46.23991" lon="15.13551">
        <ele>262.898468</ele>
        <time>2026-07-11T07:23:34.000Z</time>
      </trkpt>
      <trkpt lat="46.23992" lon="15.13524">
        <ele>262.837981</ele>
        <time>2026-07-11T07:23:38.000Z</time>
      </trkpt>
      <trkpt lat="46.23994" lon="15.1351">
        <ele>262.807184</ele>
        <time>2026-07-11T07:23:40.000Z</time>
      </trkpt>
      <trkpt lat="46.23994" lon="15.13503">
        <ele>262.792376</ele>
        <time>2026-07-11T07:23:41.000Z</time>
      </trkpt>
      <trkpt lat="46.23995" lon="15.13464">
        <ele>262.703926</ele>
        <time>2026-07-11T07:23:47.000Z</time>
      </trkpt>
      <trkpt lat="46.23995" lon="15.13458">
        <ele>262.689331</ele>
        <time>2026-07-11T07:23:48.000Z</time>
      </trkpt>
      <trkpt lat="46.23996" lon="15.13415">
        <ele>262.594471</ele>
        <time>2026-07-11T07:23:54.000Z</time>
      </trkpt>
      <trkpt lat="46.23997" lon="15.13402">
        <ele>262.564385</ele>
        <time>2026-07-11T07:23:56.000Z</time>
      </trkpt>
      <trkpt lat="46.24001" lon="15.13338">
        <ele>262.779608</ele>
        <time>2026-07-11T07:24:05.000Z</time>
      </trkpt>
      <trkpt lat="46.24004" lon="15.13283">
        <ele>263.045099</ele>
        <time>2026-07-11T07:24:13.000Z</time>
      </trkpt>
      <trkpt lat="46.24005" lon="15.13269">
        <ele>263.111753</ele>
        <time>2026-07-11T07:24:15.000Z</time>
      </trkpt>
      <trkpt lat="46.24006" lon="15.13249">
        <ele>263.209497</ele>
        <time>2026-07-11T07:24:18.000Z</time>
      </trkpt>
      <trkpt lat="46.24006" lon="15.13236">
        <ele>263.274365</ele>
        <time>2026-07-11T07:24:20.000Z</time>
      </trkpt>
      <trkpt lat="46.24007" lon="15.13216">
        <ele>263.368605</ele>
        <time>2026-07-11T07:24:23.000Z</time>
      </trkpt>
      <trkpt lat="46.24008" lon="15.1321">
        <ele>263.400512</ele>
        <time>2026-07-11T07:24:24.000Z</time>
      </trkpt>
      <trkpt lat="46.24015" lon="15.13156">
        <ele>263.664527</ele>
        <time>2026-07-11T07:24:32.000Z</time>
      </trkpt>
      <trkpt lat="46.24019" lon="15.13101">
        <ele>264.059594</ele>
        <time>2026-07-11T07:24:40.000Z</time>
      </trkpt>
      <trkpt lat="46.24023" lon="15.13046">
        <ele>264.56088</ele>
        <time>2026-07-11T07:24:48.000Z</time>
      </trkpt>
      <trkpt lat="46.24024" lon="15.13039">
        <ele>264.622206</ele>
        <time>2026-07-11T07:24:49.000Z</time>
      </trkpt>
      <trkpt lat="46.24024" lon="15.13032">
        <ele>264.68556</ele>
        <time>2026-07-11T07:24:50.000Z</time>
      </trkpt>
      <trkpt lat="46.24023" lon="15.13025">
        <ele>264.747325</ele>
        <time>2026-07-11T07:24:51.000Z</time>
      </trkpt>
      <trkpt lat="46.24026" lon="15.12998">
        <ele>264.998896</ele>
        <time>2026-07-11T07:24:55.000Z</time>
      </trkpt>
      <trkpt lat="46.24032" lon="15.12929">
        <ele>265.619574</ele>
        <time>2026-07-11T07:25:05.000Z</time>
      </trkpt>
      <trkpt lat="46.24037" lon="15.12862">
        <ele>266.215259</ele>
        <time>2026-07-11T07:25:15.000Z</time>
      </trkpt>
      <trkpt lat="46.24044" lon="15.12803">
        <ele>266.647883</ele>
        <time>2026-07-11T07:25:24.000Z</time>
      </trkpt>
      <trkpt lat="46.24049" lon="15.12763">
        <ele>266.935169</ele>
        <time>2026-07-11T07:25:30.000Z</time>
      </trkpt>
      <trkpt lat="46.24057" lon="15.127">
        <ele>267.397683</ele>
        <time>2026-07-11T07:25:39.000Z</time>
      </trkpt>
      <trkpt lat="46.24057" lon="15.12693">
        <ele>267.448859</ele>
        <time>2026-07-11T07:25:40.000Z</time>
      </trkpt>
      <trkpt lat="46.24059" lon="15.12664">
        <ele>267.653565</ele>
        <time>2026-07-11T07:25:44.000Z</time>
      </trkpt>
      <trkpt lat="46.24063" lon="15.12631">
        <ele>267.894233</ele>
        <time>2026-07-11T07:25:49.000Z</time>
      </trkpt>
      <trkpt lat="46.24066" lon="15.1261">
        <ele>268.030293</ele>
        <time>2026-07-11T07:25:52.000Z</time>
      </trkpt>
      <trkpt lat="46.24073" lon="15.1257">
        <ele>268.190301</ele>
        <time>2026-07-11T07:25:58.000Z</time>
      </trkpt>
      <trkpt lat="46.2408" lon="15.12515">
        <ele>268.404124</ele>
        <time>2026-07-11T07:26:06.000Z</time>
      </trkpt>
      <trkpt lat="46.24081" lon="15.12501">
        <ele>268.457502</ele>
        <time>2026-07-11T07:26:08.000Z</time>
      </trkpt>
      <trkpt lat="46.24086" lon="15.12468">
        <ele>268.590588</ele>
        <time>2026-07-11T07:26:13.000Z</time>
      </trkpt>
      <trkpt lat="46.24087" lon="15.12452">
        <ele>268.650788</ele>
        <time>2026-07-11T07:26:15.000Z</time>
      </trkpt>
      <trkpt lat="46.24087" lon="15.12445">
        <ele>268.678134</ele>
        <time>2026-07-11T07:26:16.000Z</time>
      </trkpt>
      <trkpt lat="46.24088" lon="15.12418">
        <ele>268.782872</ele>
        <time>2026-07-11T07:26:20.000Z</time>
      </trkpt>
      <trkpt lat="46.24089" lon="15.12411">
        <ele>268.809434</ele>
        <time>2026-07-11T07:26:21.000Z</time>
      </trkpt>
      <trkpt lat="46.24091" lon="15.12383">
        <ele>268.91959</ele>
        <time>2026-07-11T07:26:26.000Z</time>
      </trkpt>
      <trkpt lat="46.2409" lon="15.12368">
        <ele>268.976296</ele>
        <time>2026-07-11T07:26:30.000Z</time>
      </trkpt>
      <trkpt lat="46.24077" lon="15.12363">
        <ele>269.192621</ele>
        <time>2026-07-11T07:26:34.000Z</time>
      </trkpt>
      <trkpt lat="46.24052" lon="15.12357">
        <ele>269.869086</ele>
        <time>2026-07-11T07:26:41.000Z</time>
      </trkpt>
      <trkpt lat="46.2405" lon="15.12358">
        <ele>269.917747</ele>
        <time>2026-07-11T07:26:42.000Z</time>
      </trkpt>
      <trkpt lat="46.24049" lon="15.12359">
        <ele>269.95375</ele>
        <time>2026-07-11T07:26:44.000Z</time>
      </trkpt>
      <trkpt lat="46.24039" lon="15.12353">
        <ele>270.227723</ele>
        <time>2026-07-11T07:27:17.000Z</time>
      </trkpt>
      <trkpt lat="46.24019" lon="15.12347">
        <ele>270.761031</ele>
        <time>2026-07-11T07:27:23.000Z</time>
      </trkpt>
      <trkpt lat="46.23992" lon="15.12342">
        <ele>271.47679</ele>
        <time>2026-07-11T07:27:30.000Z</time>
      </trkpt>
      <trkpt lat="46.23978" lon="15.12339">
        <ele>271.840393</ele>
        <time>2026-07-11T07:27:33.000Z</time>
      </trkpt>
      <trkpt lat="46.23953" lon="15.12335">
        <ele>272.507753</ele>
        <time>2026-07-11T07:27:39.000Z</time>
      </trkpt>
      <trkpt lat="46.2394" lon="15.12333">
        <ele>272.850396</ele>
        <time>2026-07-11T07:27:42.000Z</time>
      </trkpt>
      <trkpt lat="46.23926" lon="15.12332">
        <ele>273.229278</ele>
        <time>2026-07-11T07:27:46.000Z</time>
      </trkpt>
      <trkpt lat="46.23918" lon="15.12333">
        <ele>273.425639</ele>
        <time>2026-07-11T07:27:48.000Z</time>
      </trkpt>
      <trkpt lat="46.23895" lon="15.12332">
        <ele>273.761398</ele>
        <time>2026-07-11T07:27:55.000Z</time>
      </trkpt>
      <trkpt lat="46.23878" lon="15.12329">
        <ele>273.828948</ele>
        <time>2026-07-11T07:28:00.000Z</time>
      </trkpt>
      <trkpt lat="46.23863" lon="15.12326">
        <ele>273.88823</ele>
        <time>2026-07-11T07:28:05.000Z</time>
      </trkpt>
      <trkpt lat="46.23861" lon="15.12323">
        <ele>273.899585</ele>
        <time>2026-07-11T07:28:06.000Z</time>
      </trkpt>
      <trkpt lat="46.23858" lon="15.12314">
        <ele>273.925527</ele>
        <time>2026-07-11T07:28:08.000Z</time>
      </trkpt>
      <trkpt lat="46.23858" lon="15.12286">
        <ele>274.004301</ele>
        <time>2026-07-11T07:28:13.000Z</time>
      </trkpt>
      <trkpt lat="46.23858" lon="15.1225">
        <ele>274.102728</ele>
        <time>2026-07-11T07:28:19.000Z</time>
      </trkpt>
      <trkpt lat="46.23857" lon="15.12243">
        <ele>274.124112</ele>
        <time>2026-07-11T07:28:20.000Z</time>
      </trkpt>
      <trkpt lat="46.23855" lon="15.12212">
        <ele>274.208005</ele>
        <time>2026-07-11T07:28:24.000Z</time>
      </trkpt>
      <trkpt lat="46.23853" lon="15.12169">
        <ele>274.329216</ele>
        <time>2026-07-11T07:28:29.000Z</time>
      </trkpt>
      <trkpt lat="46.23855" lon="15.1215">
        <ele>274.380525</ele>
        <time>2026-07-11T07:28:31.000Z</time>
      </trkpt>
      <trkpt lat="46.23855" lon="15.1213">
        <ele>274.441469</ele>
        <time>2026-07-11T07:28:33.000Z</time>
      </trkpt>
      <trkpt lat="46.2385" lon="15.12118">
        <ele>274.52929</ele>
        <time>2026-07-11T07:28:35.000Z</time>
      </trkpt>
      <trkpt lat="46.23834" lon="15.12096">
        <ele>274.716932</ele>
        <time>2026-07-11T07:28:39.000Z</time>
      </trkpt>
      <trkpt lat="46.23821" lon="15.12083">
        <ele>274.852594</ele>
        <time>2026-07-11T07:28:42.000Z</time>
      </trkpt>
      <trkpt lat="46.23812" lon="15.12077">
        <ele>274.942238</ele>
        <time>2026-07-11T07:28:44.000Z</time>
      </trkpt>
      <trkpt lat="46.23784" lon="15.12062">
        <ele>275.192344</ele>
        <time>2026-07-11T07:28:50.000Z</time>
      </trkpt>
      <trkpt lat="46.23778" lon="15.12054">
        <ele>275.267979</ele>
        <time>2026-07-11T07:28:52.000Z</time>
      </trkpt>
      <trkpt lat="46.23773" lon="15.12042">
        <ele>275.350083</ele>
        <time>2026-07-11T07:28:54.000Z</time>
      </trkpt>
      <trkpt lat="46.23772" lon="15.12028">
        <ele>275.435348</ele>
        <time>2026-07-11T07:28:56.000Z</time>
      </trkpt>
      <trkpt lat="46.23778" lon="15.11974">
        <ele>275.76303</ele>
        <time>2026-07-11T07:29:03.000Z</time>
      </trkpt>
      <trkpt lat="46.23786" lon="15.11912">
        <ele>275.820915</ele>
        <time>2026-07-11T07:29:11.000Z</time>
      </trkpt>
      <trkpt lat="46.23792" lon="15.11834">
        <ele>275.3471</ele>
        <time>2026-07-11T07:29:20.000Z</time>
      </trkpt>
      <trkpt lat="46.23792" lon="15.11826">
        <ele>275.295888</ele>
        <time>2026-07-11T07:29:21.000Z</time>
      </trkpt>
      <trkpt lat="46.238" lon="15.11769">
        <ele>274.942108</ele>
        <time>2026-07-11T07:29:28.000Z</time>
      </trkpt>
      <trkpt lat="46.23801" lon="15.11762">
        <ele>274.897823</ele>
        <time>2026-07-11T07:29:29.000Z</time>
      </trkpt>
      <trkpt lat="46.23808" lon="15.11738">
        <ele>274.741864</ele>
        <time>2026-07-11T07:29:33.000Z</time>
      </trkpt>
      <trkpt lat="46.23816" lon="15.117">
        <ele>274.496322</ele>
        <time>2026-07-11T07:29:39.000Z</time>
      </trkpt>
      <trkpt lat="46.23817" lon="15.11693">
        <ele>274.457791</ele>
        <time>2026-07-11T07:29:40.000Z</time>
      </trkpt>
      <trkpt lat="46.23818" lon="15.11686">
        <ele>274.412038</ele>
        <time>2026-07-11T07:29:41.000Z</time>
      </trkpt>
      <trkpt lat="46.23818" lon="15.11646">
        <ele>274.697779</ele>
        <time>2026-07-11T07:29:47.000Z</time>
      </trkpt>
      <trkpt lat="46.23817" lon="15.11632">
        <ele>274.804623</ele>
        <time>2026-07-11T07:29:49.000Z</time>
      </trkpt>
      <trkpt lat="46.23814" lon="15.11605">
        <ele>275.022095</ele>
        <time>2026-07-11T07:29:53.000Z</time>
      </trkpt>
      <trkpt lat="46.23804" lon="15.11539">
        <ele>275.547637</ele>
        <time>2026-07-11T07:30:03.000Z</time>
      </trkpt>
      <trkpt lat="46.23804" lon="15.11484">
        <ele>275.976528</ele>
        <time>2026-07-11T07:30:11.000Z</time>
      </trkpt>
      <trkpt lat="46.23814" lon="15.11426">
        <ele>276.449446</ele>
        <time>2026-07-11T07:30:20.000Z</time>
      </trkpt>
      <trkpt lat="46.23816" lon="15.11408">
        <ele>276.664835</ele>
        <time>2026-07-11T07:30:23.000Z</time>
      </trkpt>
      <trkpt lat="46.23816" lon="15.1139">
        <ele>276.880771</ele>
        <time>2026-07-11T07:30:26.000Z</time>
      </trkpt>
      <trkpt lat="46.23813" lon="15.11358">
        <ele>277.259239</ele>
        <time>2026-07-11T07:30:31.000Z</time>
      </trkpt>
      <trkpt lat="46.23812" lon="15.11352">
        <ele>277.334518</ele>
        <time>2026-07-11T07:30:32.000Z</time>
      </trkpt>
      <trkpt lat="46.2381" lon="15.11346">
        <ele>277.409797</ele>
        <time>2026-07-11T07:30:33.000Z</time>
      </trkpt>
      <trkpt lat="46.23803" lon="15.11315">
        <ele>277.803449</ele>
        <time>2026-07-11T07:30:38.000Z</time>
      </trkpt>
      <trkpt lat="46.23798" lon="15.11261">
        <ele>278.448169</ele>
        <time>2026-07-11T07:30:46.000Z</time>
      </trkpt>
      <trkpt lat="46.23792" lon="15.11234">
        <ele>278.775625</ele>
        <time>2026-07-11T07:30:50.000Z</time>
      </trkpt>
      <trkpt lat="46.23788" lon="15.11222">
        <ele>278.937972</ele>
        <time>2026-07-11T07:30:52.000Z</time>
      </trkpt>
      <trkpt lat="46.23782" lon="15.11211">
        <ele>279.096154</ele>
        <time>2026-07-11T07:30:54.000Z</time>
      </trkpt>
      <trkpt lat="46.23774" lon="15.112">
        <ele>279.279219</ele>
        <time>2026-07-11T07:30:56.000Z</time>
      </trkpt>
      <trkpt lat="46.2377" lon="15.11196">
        <ele>279.376691</ele>
        <time>2026-07-11T07:30:57.000Z</time>
      </trkpt>
      <trkpt lat="46.23749" lon="15.11169">
        <ele>279.781919</ele>
        <time>2026-07-11T07:31:02.000Z</time>
      </trkpt>
      <trkpt lat="46.23746" lon="15.11164">
        <ele>279.852461</ele>
        <time>2026-07-11T07:31:03.000Z</time>
      </trkpt>
      <trkpt lat="46.23732" lon="15.11139">
        <ele>280.152429</ele>
        <time>2026-07-11T07:31:07.000Z</time>
      </trkpt>
      <trkpt lat="46.23714" lon="15.11108">
        <ele>280.532374</ele>
        <time>2026-07-11T07:31:12.000Z</time>
      </trkpt>
      <trkpt lat="46.23685" lon="15.11075">
        <ele>281.047539</ele>
        <time>2026-07-11T07:31:19.000Z</time>
      </trkpt>
      <trkpt lat="46.23648" lon="15.11049">
        <ele>281.604459</ele>
        <time>2026-07-11T07:31:27.000Z</time>
      </trkpt>
      <trkpt lat="46.23611" lon="15.11016">
        <ele>282.104629</ele>
        <time>2026-07-11T07:31:36.000Z</time>
      </trkpt>
      <trkpt lat="46.23604" lon="15.11006">
        <ele>282.179998</ele>
        <time>2026-07-11T07:31:38.000Z</time>
      </trkpt>
      <trkpt lat="46.23592" lon="15.10984">
        <ele>282.334046</ele>
        <time>2026-07-11T07:31:42.000Z</time>
      </trkpt>
      <trkpt lat="46.2359" lon="15.10978">
        <ele>282.368375</ele>
        <time>2026-07-11T07:31:43.000Z</time>
      </trkpt>
      <trkpt lat="46.23587" lon="15.10966">
        <ele>282.436546</ele>
        <time>2026-07-11T07:31:45.000Z</time>
      </trkpt>
      <trkpt lat="46.23586" lon="15.10956">
        <ele>282.494995</ele>
        <time>2026-07-11T07:31:47.000Z</time>
      </trkpt>
      <trkpt lat="46.23588" lon="15.10939">
        <ele>282.583378</ele>
        <time>2026-07-11T07:31:50.000Z</time>
      </trkpt>
      <trkpt lat="46.23592" lon="15.10927">
        <ele>282.656527</ele>
        <time>2026-07-11T07:31:52.000Z</time>
      </trkpt>
      <trkpt lat="46.23594" lon="15.10922">
        <ele>282.690333</ele>
        <time>2026-07-11T07:31:53.000Z</time>
      </trkpt>
      <trkpt lat="46.236" lon="15.10912">
        <ele>282.75972</ele>
        <time>2026-07-11T07:31:55.000Z</time>
      </trkpt>
      <trkpt lat="46.23608" lon="15.10905">
        <ele>282.829097</ele>
        <time>2026-07-11T07:31:57.000Z</time>
      </trkpt>
      <trkpt lat="46.23638" lon="15.10881">
        <ele>283.100782</ele>
        <time>2026-07-11T07:32:05.000Z</time>
      </trkpt>
      <trkpt lat="46.2366" lon="15.10873">
        <ele>283.277635</ele>
        <time>2026-07-11T07:32:11.000Z</time>
      </trkpt>
      <trkpt lat="46.23678" lon="15.10886">
        <ele>283.304811</ele>
        <time>2026-07-11T07:32:16.000Z</time>
      </trkpt>
      <trkpt lat="46.23705" lon="15.10923">
        <ele>282.912186</ele>
        <time>2026-07-11T07:32:24.000Z</time>
      </trkpt>
      <trkpt lat="46.23714" lon="15.1093">
        <ele>282.806753</ele>
        <time>2026-07-11T07:32:26.000Z</time>
      </trkpt>
      <trkpt lat="46.23724" lon="15.10933">
        <ele>282.695321</ele>
        <time>2026-07-11T07:32:28.000Z</time>
      </trkpt>
      <trkpt lat="46.23762" lon="15.10946">
        <ele>282.286429</ele>
        <time>2026-07-11T07:32:36.000Z</time>
      </trkpt>
      <trkpt lat="46.23772" lon="15.10947">
        <ele>282.181507</ele>
        <time>2026-07-11T07:32:38.000Z</time>
      </trkpt>
      <trkpt lat="46.23786" lon="15.10943">
        <ele>282.032979</ele>
        <time>2026-07-11T07:32:41.000Z</time>
      </trkpt>
      <trkpt lat="46.23833" lon="15.1092">
        <ele>281.511047</ele>
        <time>2026-07-11T07:32:51.000Z</time>
      </trkpt>
      <trkpt lat="46.23851" lon="15.10906">
        <ele>281.238296</ele>
        <time>2026-07-11T07:32:55.000Z</time>
      </trkpt>
      <trkpt lat="46.23865" lon="15.10895">
        <ele>281.024339</ele>
        <time>2026-07-11T07:32:58.000Z</time>
      </trkpt>
      <trkpt lat="46.23874" lon="15.10885">
        <ele>280.88176</ele>
        <time>2026-07-11T07:33:00.000Z</time>
      </trkpt>
      <trkpt lat="46.23881" lon="15.10874">
        <ele>280.737387</ele>
        <time>2026-07-11T07:33:02.000Z</time>
      </trkpt>
      <trkpt lat="46.23884" lon="15.10868">
        <ele>280.664531</ele>
        <time>2026-07-11T07:33:03.000Z</time>
      </trkpt>
      <trkpt lat="46.239" lon="15.10819">
        <ele>280.16456</ele>
        <time>2026-07-11T07:33:10.000Z</time>
      </trkpt>
      <trkpt lat="46.23917" lon="15.10755">
        <ele>279.523094</ele>
        <time>2026-07-11T07:33:19.000Z</time>
      </trkpt>
      <trkpt lat="46.23936" lon="15.10716">
        <ele>279.083064</ele>
        <time>2026-07-11T07:33:24.000Z</time>
      </trkpt>
      <trkpt lat="46.23946" lon="15.10699">
        <ele>278.566841</ele>
        <time>2026-07-11T07:33:26.000Z</time>
      </trkpt>
      <trkpt lat="46.23957" lon="15.10679">
        <ele>277.975082</ele>
        <time>2026-07-11T07:33:28.000Z</time>
      </trkpt>
      <trkpt lat="46.23961" lon="15.1067">
        <ele>277.726749</ele>
        <time>2026-07-11T07:33:29.000Z</time>
      </trkpt>
      <trkpt lat="46.23976" lon="15.10637">
        <ele>276.788256</ele>
        <time>2026-07-11T07:33:32.000Z</time>
      </trkpt>
      <trkpt lat="46.23986" lon="15.10612">
        <ele>276.136226</ele>
        <time>2026-07-11T07:33:34.000Z</time>
      </trkpt>
      <trkpt lat="46.24013" lon="15.10539">
        <ele>274.192036</ele>
        <time>2026-07-11T07:33:40.000Z</time>
      </trkpt>
      <trkpt lat="46.24018" lon="15.10525">
        <ele>273.822106</ele>
        <time>2026-07-11T07:33:41.000Z</time>
      </trkpt>
      <trkpt lat="46.24046" lon="15.10465">
        <ele>272.907053</ele>
        <time>2026-07-11T07:33:47.000Z</time>
      </trkpt>
      <trkpt lat="46.24053" lon="15.10454">
        <ele>272.874685</ele>
        <time>2026-07-11T07:33:48.000Z</time>
      </trkpt>
      <trkpt lat="46.2406" lon="15.10448">
        <ele>272.848458</ele>
        <time>2026-07-11T07:33:49.000Z</time>
      </trkpt>
      <trkpt lat="46.24076" lon="15.10442">
        <ele>272.795737</ele>
        <time>2026-07-11T07:33:51.000Z</time>
      </trkpt>
      <trkpt lat="46.24092" lon="15.1044">
        <ele>272.743346</ele>
        <time>2026-07-11T07:33:53.000Z</time>
      </trkpt>
      <trkpt lat="46.24106" lon="15.10443">
        <ele>272.694958</ele>
        <time>2026-07-11T07:33:55.000Z</time>
      </trkpt>
      <trkpt lat="46.24126" lon="15.10445">
        <ele>272.630758</ele>
        <time>2026-07-11T07:33:58.000Z</time>
      </trkpt>
      <trkpt lat="46.24131" lon="15.10443">
        <ele>272.613284</ele>
        <time>2026-07-11T07:33:59.000Z</time>
      </trkpt>
      <trkpt lat="46.24136" lon="15.10439">
        <ele>272.59512</ele>
        <time>2026-07-11T07:34:00.000Z</time>
      </trkpt>
      <trkpt lat="46.24143" lon="15.10427">
        <ele>272.561036</ele>
        <time>2026-07-11T07:34:02.000Z</time>
      </trkpt>
      <trkpt lat="46.24147" lon="15.10413">
        <ele>272.52663</ele>
        <time>2026-07-11T07:34:04.000Z</time>
      </trkpt>
      <trkpt lat="46.24148" lon="15.10397">
        <ele>272.49093</ele>
        <time>2026-07-11T07:34:06.000Z</time>
      </trkpt>
      <trkpt lat="46.24145" lon="15.10383">
        <ele>272.458753</ele>
        <time>2026-07-11T07:34:08.000Z</time>
      </trkpt>
      <trkpt lat="46.24142" lon="15.10375">
        <ele>272.437567</ele>
        <time>2026-07-11T07:34:09.000Z</time>
      </trkpt>
      <trkpt lat="46.24139" lon="15.10369">
        <ele>272.419766</ele>
        <time>2026-07-11T07:34:10.000Z</time>
      </trkpt>
      <trkpt lat="46.24127" lon="15.10356">
        <ele>272.448366</ele>
        <time>2026-07-11T07:34:13.000Z</time>
      </trkpt>
      <trkpt lat="46.24121" lon="15.10351">
        <ele>272.474162</ele>
        <time>2026-07-11T07:34:14.000Z</time>
      </trkpt>
      <trkpt lat="46.2407" lon="15.10312">
        <ele>272.697483</ele>
        <time>2026-07-11T07:34:25.000Z</time>
      </trkpt>
      <trkpt lat="46.24063" lon="15.10302">
        <ele>272.7357</ele>
        <time>2026-07-11T07:34:27.000Z</time>
      </trkpt>
      <trkpt lat="46.24056" lon="15.10291">
        <ele>272.77498</ele>
        <time>2026-07-11T07:34:29.000Z</time>
      </trkpt>
      <trkpt lat="46.2405" lon="15.10279">
        <ele>272.814959</ele>
        <time>2026-07-11T07:34:31.000Z</time>
      </trkpt>
      <trkpt lat="46.24047" lon="15.10274">
        <ele>272.833285</ele>
        <time>2026-07-11T07:34:32.000Z</time>
      </trkpt>
      <trkpt lat="46.24041" lon="15.10258">
        <ele>272.884398</ele>
        <time>2026-07-11T07:34:35.000Z</time>
      </trkpt>
      <trkpt lat="46.24034" lon="15.10239">
        <ele>272.940973</ele>
        <time>2026-07-11T07:34:38.000Z</time>
      </trkpt>
      <trkpt lat="46.2403" lon="15.10226">
        <ele>272.979557</ele>
        <time>2026-07-11T07:34:40.000Z</time>
      </trkpt>
      <trkpt lat="46.24016" lon="15.10174">
        <ele>273.091113</ele>
        <time>2026-07-11T07:34:48.000Z</time>
      </trkpt>
      <trkpt lat="46.24011" lon="15.10154">
        <ele>273.061668</ele>
        <time>2026-07-11T07:34:51.000Z</time>
      </trkpt>
      <trkpt lat="46.24004" lon="15.10113">
        <ele>273.002686</ele>
        <time>2026-07-11T07:34:57.000Z</time>
      </trkpt>
      <trkpt lat="46.23999" lon="15.10049">
        <ele>272.913124</ele>
        <time>2026-07-11T07:35:06.000Z</time>
      </trkpt>
      <trkpt lat="46.23995" lon="15.09986">
        <ele>272.825321</ele>
        <time>2026-07-11T07:35:15.000Z</time>
      </trkpt>
      <trkpt lat="46.23994" lon="15.09972">
        <ele>272.804948</ele>
        <time>2026-07-11T07:35:17.000Z</time>
      </trkpt>
      <trkpt lat="46.23994" lon="15.09965">
        <ele>272.795013</ele>
        <time>2026-07-11T07:35:18.000Z</time>
      </trkpt>
      <trkpt lat="46.23991" lon="15.09915">
        <ele>272.77735</ele>
        <time>2026-07-11T07:35:25.000Z</time>
      </trkpt>
      <trkpt lat="46.23993" lon="15.09855">
        <ele>272.964739</ele>
        <time>2026-07-11T07:35:33.000Z</time>
      </trkpt>
      <trkpt lat="46.23995" lon="15.09793">
        <ele>273.161418</ele>
        <time>2026-07-11T07:35:42.000Z</time>
      </trkpt>
      <trkpt lat="46.23995" lon="15.0973">
        <ele>273.36108</ele>
        <time>2026-07-11T07:35:51.000Z</time>
      </trkpt>
      <trkpt lat="46.23997" lon="15.09674">
        <ele>273.538094</ele>
        <time>2026-07-11T07:35:59.000Z</time>
      </trkpt>
      <trkpt lat="46.23996" lon="15.09653">
        <ele>273.62378</ele>
        <time>2026-07-11T07:36:02.000Z</time>
      </trkpt>
      <trkpt lat="46.23994" lon="15.09632">
        <ele>273.721471</ele>
        <time>2026-07-11T07:36:05.000Z</time>
      </trkpt>
      <trkpt lat="46.23993" lon="15.09624">
        <ele>273.756642</ele>
        <time>2026-07-11T07:36:06.000Z</time>
      </trkpt>
      <trkpt lat="46.23991" lon="15.0961">
        <ele>273.823783</ele>
        <time>2026-07-11T07:36:08.000Z</time>
      </trkpt>
      <trkpt lat="46.2399" lon="15.0959">
        <ele>273.918486</ele>
        <time>2026-07-11T07:36:11.000Z</time>
      </trkpt>
      <trkpt lat="46.23985" lon="15.09546">
        <ele>274.12232</ele>
        <time>2026-07-11T07:36:17.000Z</time>
      </trkpt>
      <trkpt lat="46.23983" lon="15.09525">
        <ele>274.222842</ele>
        <time>2026-07-11T07:36:20.000Z</time>
      </trkpt>
      <trkpt lat="46.23983" lon="15.09496">
        <ele>274.355226</ele>
        <time>2026-07-11T07:36:24.000Z</time>
      </trkpt>
      <trkpt lat="46.23984" lon="15.09462">
        <ele>274.513427</ele>
        <time>2026-07-11T07:36:29.000Z</time>
      </trkpt>
      <trkpt lat="46.23987" lon="15.09433">
        <ele>274.650798</ele>
        <time>2026-07-11T07:36:33.000Z</time>
      </trkpt>
      <trkpt lat="46.23988" lon="15.09419">
        <ele>274.715244</ele>
        <time>2026-07-11T07:36:35.000Z</time>
      </trkpt>
      <trkpt lat="46.2399" lon="15.09405">
        <ele>274.772754</ele>
        <time>2026-07-11T07:36:37.000Z</time>
      </trkpt>
      <trkpt lat="46.23995" lon="15.09379">
        <ele>274.840728</ele>
        <time>2026-07-11T07:36:41.000Z</time>
      </trkpt>
      <trkpt lat="46.23999" lon="15.09361">
        <ele>274.888018</ele>
        <time>2026-07-11T07:36:44.000Z</time>
      </trkpt>
      <trkpt lat="46.24002" lon="15.09338">
        <ele>274.949041</ele>
        <time>2026-07-11T07:36:48.000Z</time>
      </trkpt>
      <trkpt lat="46.24007" lon="15.0931">
        <ele>275.021767</ele>
        <time>2026-07-11T07:36:53.000Z</time>
      </trkpt>
      <trkpt lat="46.2401" lon="15.09301">
        <ele>275.047317</ele>
        <time>2026-07-11T07:36:55.000Z</time>
      </trkpt>
      <trkpt lat="46.2402" lon="15.0929">
        <ele>275.093575</ele>
        <time>2026-07-11T07:36:59.000Z</time>
      </trkpt>
      <trkpt lat="46.24026" lon="15.09274">
        <ele>275.142088</ele>
        <time>2026-07-11T07:37:03.000Z</time>
      </trkpt>
      <trkpt lat="46.24019" lon="15.09245">
        <ele>275.219704</ele>
        <time>2026-07-11T07:37:08.000Z</time>
      </trkpt>
      <trkpt lat="46.24019" lon="15.09238">
        <ele>275.238466</ele>
        <time>2026-07-11T07:37:09.000Z</time>
      </trkpt>
      <trkpt lat="46.24018" lon="15.0921">
        <ele>275.308338</ele>
        <time>2026-07-11T07:37:13.000Z</time>
      </trkpt>
      <trkpt lat="46.24014" lon="15.09163">
        <ele>275.428482</ele>
        <time>2026-07-11T07:37:20.000Z</time>
      </trkpt>
      <trkpt lat="46.24003" lon="15.09111">
        <ele>275.548062</ele>
        <time>2026-07-11T07:37:28.000Z</time>
      </trkpt>
      <trkpt lat="46.24002" lon="15.09105">
        <ele>275.563029</ele>
        <time>2026-07-11T07:37:29.000Z</time>
      </trkpt>
      <trkpt lat="46.24" lon="15.09049">
        <ele>275.686384</ele>
        <time>2026-07-11T07:37:37.000Z</time>
      </trkpt>
      <trkpt lat="46.24001" lon="15.08973">
        <ele>275.854959</ele>
        <time>2026-07-11T07:37:48.000Z</time>
      </trkpt>
      <trkpt lat="46.24002" lon="15.08902">
        <ele>276.007818</ele>
        <time>2026-07-11T07:37:58.000Z</time>
      </trkpt>
      <trkpt lat="46.23998" lon="15.08845">
        <ele>276.096464</ele>
        <time>2026-07-11T07:38:06.000Z</time>
      </trkpt>
      <trkpt lat="46.23997" lon="15.08839">
        <ele>276.106962</ele>
        <time>2026-07-11T07:38:07.000Z</time>
      </trkpt>
      <trkpt lat="46.23989" lon="15.08816">
        <ele>276.146139</ele>
        <time>2026-07-11T07:38:11.000Z</time>
      </trkpt>
      <trkpt lat="46.23974" lon="15.08769">
        <ele>276.227069</ele>
        <time>2026-07-11T07:38:19.000Z</time>
      </trkpt>
      <trkpt lat="46.2397" lon="15.08756">
        <ele>276.248422</ele>
        <time>2026-07-11T07:38:21.000Z</time>
      </trkpt>
      <trkpt lat="46.23956" lon="15.08717">
        <ele>276.318165</ele>
        <time>2026-07-11T07:38:28.000Z</time>
      </trkpt>
      <trkpt lat="46.23945" lon="15.08685">
        <ele>276.372853</ele>
        <time>2026-07-11T07:38:34.000Z</time>
      </trkpt>
      <trkpt lat="46.23942" lon="15.08674">
        <ele>276.391431</ele>
        <time>2026-07-11T07:38:36.000Z</time>
      </trkpt>
      <trkpt lat="46.23941" lon="15.08669">
        <ele>276.400188</ele>
        <time>2026-07-11T07:38:37.000Z</time>
      </trkpt>
      <trkpt lat="46.2393" lon="15.08638">
        <ele>276.530967</ele>
        <time>2026-07-11T07:38:43.000Z</time>
      </trkpt>
      <trkpt lat="46.23914" lon="15.08594">
        <ele>276.724489</ele>
        <time>2026-07-11T07:38:51.000Z</time>
      </trkpt>
      <trkpt lat="46.23903" lon="15.08571">
        <ele>276.834027</ele>
        <time>2026-07-11T07:38:57.000Z</time>
      </trkpt>
      <trkpt lat="46.23894" lon="15.08565">
        <ele>276.889972</ele>
        <time>2026-07-11T07:39:01.000Z</time>
      </trkpt>
      <trkpt lat="46.23893" lon="15.08561">
        <ele>276.907502</ele>
        <time>2026-07-11T07:39:02.000Z</time>
      </trkpt>
      <trkpt lat="46.23891" lon="15.08552">
        <ele>276.946632</ele>
        <time>2026-07-11T07:39:04.000Z</time>
      </trkpt>
      <trkpt lat="46.23888" lon="15.08539">
        <ele>277.000444</ele>
        <time>2026-07-11T07:39:07.000Z</time>
      </trkpt>
      <trkpt lat="46.23882" lon="15.0852">
        <ele>277.083342</ele>
        <time>2026-07-11T07:39:13.000Z</time>
      </trkpt>
      <trkpt lat="46.23881" lon="15.0851">
        <ele>277.120845</ele>
        <time>2026-07-11T07:39:25.000Z</time>
      </trkpt>
      <trkpt lat="46.23881" lon="15.08507">
        <ele>277.136204</ele>
        <time>2026-07-11T07:39:26.000Z</time>
      </trkpt>
      <trkpt lat="46.23874" lon="15.08483">
        <ele>277.238476</ele>
        <time>2026-07-11T07:39:32.000Z</time>
      </trkpt>
      <trkpt lat="46.23869" lon="15.08454">
        <ele>277.354961</ele>
        <time>2026-07-11T07:39:39.000Z</time>
      </trkpt>
      <trkpt lat="46.23863" lon="15.08419">
        <ele>277.4492</ele>
        <time>2026-07-11T07:39:47.000Z</time>
      </trkpt>
      <trkpt lat="46.23862" lon="15.08386">
        <ele>277.490051</ele>
        <time>2026-07-11T07:39:55.000Z</time>
      </trkpt>
      <trkpt lat="46.2386" lon="15.08351">
        <ele>277.532486</ele>
        <time>2026-07-11T07:40:04.000Z</time>
      </trkpt>
      <trkpt lat="46.23859" lon="15.08316">
        <ele>277.575765</ele>
        <time>2026-07-11T07:40:11.000Z</time>
      </trkpt>
      <trkpt lat="46.23859" lon="15.08281">
        <ele>277.618129</ele>
        <time>2026-07-11T07:40:18.000Z</time>
      </trkpt>
      <trkpt lat="46.23859" lon="15.08268">
        <ele>277.634123</ele>
        <time>2026-07-11T07:40:21.000Z</time>
      </trkpt>
      <trkpt lat="46.2386" lon="15.08241">
        <ele>277.667855</ele>
        <time>2026-07-11T07:40:28.000Z</time>
      </trkpt>
      <trkpt lat="46.2386" lon="15.08209">
        <ele>277.706688</ele>
        <time>2026-07-11T07:40:34.000Z</time>
      </trkpt>
      <trkpt lat="46.2386" lon="15.08198">
        <ele>277.720258</ele>
        <time>2026-07-11T07:40:36.000Z</time>
      </trkpt>
      <trkpt lat="46.23862" lon="15.08171">
        <ele>277.702522</ele>
        <time>2026-07-11T07:40:41.000Z</time>
      </trkpt>
      <trkpt lat="46.23863" lon="15.08136">
        <ele>277.43756</ele>
        <time>2026-07-11T07:40:48.000Z</time>
      </trkpt>
      <trkpt lat="46.2387" lon="15.0809">
        <ele>277.080151</ele>
        <time>2026-07-11T07:40:57.000Z</time>
      </trkpt>
      <trkpt lat="46.23876" lon="15.08046">
        <ele>276.746844</ele>
        <time>2026-07-11T07:41:06.000Z</time>
      </trkpt>
      <trkpt lat="46.23881" lon="15.08019">
        <ele>276.532</ele>
        <time>2026-07-11T07:41:12.000Z</time>
      </trkpt>
      <trkpt lat="46.23884" lon="15.08002">
        <ele>276.4009</ele>
        <time>2026-07-11T07:41:16.000Z</time>
      </trkpt>
      <trkpt lat="46.23886" lon="15.07987">
        <ele>276.285264</ele>
        <time>2026-07-11T07:41:19.000Z</time>
      </trkpt>
      <trkpt lat="46.2389" lon="15.07957">
        <ele>276.053715</ele>
        <time>2026-07-11T07:41:25.000Z</time>
      </trkpt>
      <trkpt lat="46.23892" lon="15.07943">
        <ele>275.942784</ele>
        <time>2026-07-11T07:41:28.000Z</time>
      </trkpt>
      <trkpt lat="46.239" lon="15.07899">
        <ele>275.898243</ele>
        <time>2026-07-11T07:41:37.000Z</time>
      </trkpt>
      <trkpt lat="46.23904" lon="15.07872">
        <ele>276.032036</ele>
        <time>2026-07-11T07:41:42.000Z</time>
      </trkpt>
      <trkpt lat="46.23908" lon="15.07851">
        <ele>276.13591</ele>
        <time>2026-07-11T07:41:46.000Z</time>
      </trkpt>
      <trkpt lat="46.23914" lon="15.07816">
        <ele>276.314916</ele>
        <time>2026-07-11T07:41:53.000Z</time>
      </trkpt>
      <trkpt lat="46.23918" lon="15.07787">
        <ele>276.457224</ele>
        <time>2026-07-11T07:41:58.000Z</time>
      </trkpt>
      <trkpt lat="46.23916" lon="15.07767">
        <ele>276.55425</ele>
        <time>2026-07-11T07:42:02.000Z</time>
      </trkpt>
      <trkpt lat="46.23916" lon="15.07756">
        <ele>276.608357</ele>
        <time>2026-07-11T07:42:04.000Z</time>
      </trkpt>
      <trkpt lat="46.23915" lon="15.07712">
        <ele>276.824437</ele>
        <time>2026-07-11T07:42:12.000Z</time>
      </trkpt>
      <trkpt lat="46.23915" lon="15.07681">
        <ele>276.975066</ele>
        <time>2026-07-11T07:42:18.000Z</time>
      </trkpt>
      <trkpt lat="46.23911" lon="15.07651">
        <ele>277.099865</ele>
        <time>2026-07-11T07:42:23.000Z</time>
      </trkpt>
      <trkpt lat="46.23918" lon="15.07641">
        <ele>277.149948</ele>
        <time>2026-07-11T07:42:26.000Z</time>
      </trkpt>
      <trkpt lat="46.23928" lon="15.0763">
        <ele>277.206319</ele>
        <time>2026-07-11T07:42:29.000Z</time>
      </trkpt>
      <trkpt lat="46.23931" lon="15.07624">
        <ele>277.230007</ele>
        <time>2026-07-11T07:42:31.000Z</time>
      </trkpt>
      <trkpt lat="46.23931" lon="15.0762">
        <ele>277.244145</ele>
        <time>2026-07-11T07:42:32.000Z</time>
      </trkpt>
      <trkpt lat="46.23928" lon="15.07612">
        <ele>277.274069</ele>
        <time>2026-07-11T07:42:34.000Z</time>
      </trkpt>
      <trkpt lat="46.23917" lon="15.07598">
        <ele>277.345341</ele>
        <time>2026-07-11T07:42:38.000Z</time>
      </trkpt>
      <trkpt lat="46.23912" lon="15.07592">
        <ele>277.37365</ele>
        <time>2026-07-11T07:42:40.000Z</time>
      </trkpt>
      <trkpt lat="46.23906" lon="15.07584">
        <ele>277.414901</ele>
        <time>2026-07-11T07:42:43.000Z</time>
      </trkpt>
      <trkpt lat="46.23902" lon="15.07579">
        <ele>277.439659</ele>
        <time>2026-07-11T07:42:45.000Z</time>
      </trkpt>
      <trkpt lat="46.23896" lon="15.07571">
        <ele>277.479418</ele>
        <time>2026-07-11T07:42:48.000Z</time>
      </trkpt>
      <trkpt lat="46.23886" lon="15.07556">
        <ele>277.546896</ele>
        <time>2026-07-11T07:42:53.000Z</time>
      </trkpt>
      <trkpt lat="46.23882" lon="15.0755">
        <ele>277.574447</ele>
        <time>2026-07-11T07:42:55.000Z</time>
      </trkpt>
      <trkpt lat="46.2388" lon="15.07527">
        <ele>277.651175</ele>
        <time>2026-07-11T07:43:00.000Z</time>
      </trkpt>
      <trkpt lat="46.23894" lon="15.07491">
        <ele>277.786188</ele>
        <time>2026-07-11T07:43:06.000Z</time>
      </trkpt>
      <trkpt lat="46.23911" lon="15.07462">
        <ele>277.890018</ele>
        <time>2026-07-11T07:43:12.000Z</time>
      </trkpt>
      <trkpt lat="46.23915" lon="15.07459">
        <ele>277.874212</ele>
        <time>2026-07-11T07:43:13.000Z</time>
      </trkpt>
      <trkpt lat="46.23918" lon="15.07456">
        <ele>277.857944</ele>
        <time>2026-07-11T07:43:14.000Z</time>
      </trkpt>
      <trkpt lat="46.23935" lon="15.0745">
        <ele>277.786933</ele>
        <time>2026-07-11T07:43:18.000Z</time>
      </trkpt>
      <trkpt lat="46.23944" lon="15.07447">
        <ele>277.748689</ele>
        <time>2026-07-11T07:43:20.000Z</time>
      </trkpt>
      <trkpt lat="46.23952" lon="15.0744">
        <ele>277.709362</ele>
        <time>2026-07-11T07:43:22.000Z</time>
      </trkpt>
      <trkpt lat="46.23956" lon="15.07435">
        <ele>277.689462</ele>
        <time>2026-07-11T07:43:23.000Z</time>
      </trkpt>
      <trkpt lat="46.23959" lon="15.0743">
        <ele>277.669606</ele>
        <time>2026-07-11T07:43:24.000Z</time>
      </trkpt>
      <trkpt lat="46.23969" lon="15.074">
        <ele>277.575003</ele>
        <time>2026-07-11T07:43:29.000Z</time>
      </trkpt>
      <trkpt lat="46.23974" lon="15.07388">
        <ele>277.536898</ele>
        <time>2026-07-11T07:43:31.000Z</time>
      </trkpt>
      <trkpt lat="46.23981" lon="15.0737">
        <ele>277.477493</ele>
        <time>2026-07-11T07:43:34.000Z</time>
      </trkpt>
      <trkpt lat="46.23992" lon="15.07341">
        <ele>277.383472</ele>
        <time>2026-07-11T07:43:39.000Z</time>
      </trkpt>
      <trkpt lat="46.2401" lon="15.07286">
        <ele>277.21267</ele>
        <time>2026-07-11T07:43:49.000Z</time>
      </trkpt>
      <trkpt lat="46.24016" lon="15.07245">
        <ele>277.212275</ele>
        <time>2026-07-11T07:43:56.000Z</time>
      </trkpt>
      <trkpt lat="46.24017" lon="15.07194">
        <ele>277.318982</ele>
        <time>2026-07-11T07:44:04.000Z</time>
      </trkpt>
      <trkpt lat="46.24012" lon="15.07144">
        <ele>277.426131</ele>
        <time>2026-07-11T07:44:12.000Z</time>
      </trkpt>
      <trkpt lat="46.24011" lon="15.07137">
        <ele>277.43957</ele>
        <time>2026-07-11T07:44:13.000Z</time>
      </trkpt>
      <trkpt lat="46.24" lon="15.07067">
        <ele>277.589476</ele>
        <time>2026-07-11T07:44:24.000Z</time>
      </trkpt>
      <trkpt lat="46.23994" lon="15.07015">
        <ele>277.701112</ele>
        <time>2026-07-11T07:44:32.000Z</time>
      </trkpt>
      <trkpt lat="46.23993" lon="15.07008">
        <ele>277.716071</ele>
        <time>2026-07-11T07:44:33.000Z</time>
      </trkpt>
      <trkpt lat="46.23989" lon="15.06982">
        <ele>277.781619</ele>
        <time>2026-07-11T07:44:37.000Z</time>
      </trkpt>
      <trkpt lat="46.23987" lon="15.06976">
        <ele>277.798588</ele>
        <time>2026-07-11T07:44:38.000Z</time>
      </trkpt>
      <trkpt lat="46.23983" lon="15.06949">
        <ele>277.865184</ele>
        <time>2026-07-11T07:44:42.000Z</time>
      </trkpt>
      <trkpt lat="46.2398" lon="15.06929">
        <ele>277.91637</ele>
        <time>2026-07-11T07:44:45.000Z</time>
      </trkpt>
      <trkpt lat="46.2397" lon="15.06867">
        <ele>278.072458</ele>
        <time>2026-07-11T07:44:54.000Z</time>
      </trkpt>
      <trkpt lat="46.23969" lon="15.0686">
        <ele>278.089898</ele>
        <time>2026-07-11T07:44:55.000Z</time>
      </trkpt>
      <trkpt lat="46.23966" lon="15.06812">
        <ele>278.208674</ele>
        <time>2026-07-11T07:45:02.000Z</time>
      </trkpt>
      <trkpt lat="46.23971" lon="15.06765">
        <ele>278.325843</ele>
        <time>2026-07-11T07:45:09.000Z</time>
      </trkpt>
      <trkpt lat="46.23973" lon="15.06759">
        <ele>278.342221</ele>
        <time>2026-07-11T07:45:10.000Z</time>
      </trkpt>
      <trkpt lat="46.23985" lon="15.06731">
        <ele>278.623211</ele>
        <time>2026-07-11T07:45:15.000Z</time>
      </trkpt>
      <trkpt lat="46.23996" lon="15.06711">
        <ele>278.845019</ele>
        <time>2026-07-11T07:45:19.000Z</time>
      </trkpt>
      <trkpt lat="46.24003" lon="15.06703">
        <ele>278.958065</ele>
        <time>2026-07-11T07:45:21.000Z</time>
      </trkpt>
      <trkpt lat="46.24018" lon="15.06687">
        <ele>279.185915</ele>
        <time>2026-07-11T07:45:25.000Z</time>
      </trkpt>
      <trkpt lat="46.24034" lon="15.06673">
        <ele>279.417685</ele>
        <time>2026-07-11T07:45:29.000Z</time>
      </trkpt>
      <trkpt lat="46.24043" lon="15.06667">
        <ele>279.535357</ele>
        <time>2026-07-11T07:45:31.000Z</time>
      </trkpt>
      <trkpt lat="46.24052" lon="15.06663">
        <ele>279.651301</ele>
        <time>2026-07-11T07:45:33.000Z</time>
      </trkpt>
      <trkpt lat="46.2406" lon="15.06661">
        <ele>279.763485</ele>
        <time>2026-07-11T07:45:35.000Z</time>
      </trkpt>
      <trkpt lat="46.24101" lon="15.06648">
        <ele>280.281554</ele>
        <time>2026-07-11T07:45:44.000Z</time>
      </trkpt>
      <trkpt lat="46.24122" lon="15.06623">
        <ele>280.592432</ele>
        <time>2026-07-11T07:45:50.000Z</time>
      </trkpt>
      <trkpt lat="46.24139" lon="15.06591">
        <ele>280.700207</ele>
        <time>2026-07-11T07:45:56.000Z</time>
      </trkpt>
      <trkpt lat="46.24144" lon="15.06579">
        <ele>280.737059</ele>
        <time>2026-07-11T07:45:58.000Z</time>
      </trkpt>
      <trkpt lat="46.24148" lon="15.06553">
        <ele>280.808133</ele>
        <time>2026-07-11T07:46:02.000Z</time>
      </trkpt>
      <trkpt lat="46.24155" lon="15.06494">
        <ele>280.964786</ele>
        <time>2026-07-11T07:46:11.000Z</time>
      </trkpt>
      <trkpt lat="46.24159" lon="15.06463">
        <ele>281.048705</ele>
        <time>2026-07-11T07:46:16.000Z</time>
      </trkpt>
      <trkpt lat="46.2416" lon="15.06457">
        <ele>281.06634</ele>
        <time>2026-07-11T07:46:17.000Z</time>
      </trkpt>
      <trkpt lat="46.24161" lon="15.0645">
        <ele>281.083564</ele>
        <time>2026-07-11T07:46:18.000Z</time>
      </trkpt>
      <trkpt lat="46.24167" lon="15.06419">
        <ele>281.16994</ele>
        <time>2026-07-11T07:46:23.000Z</time>
      </trkpt>
      <trkpt lat="46.24172" lon="15.064">
        <ele>281.223147</ele>
        <time>2026-07-11T07:46:26.000Z</time>
      </trkpt>
      <trkpt lat="46.24179" lon="15.06382">
        <ele>281.263484</ele>
        <time>2026-07-11T07:46:29.000Z</time>
      </trkpt>
      <trkpt lat="46.2419" lon="15.0636">
        <ele>281.194379</ele>
        <time>2026-07-11T07:46:33.000Z</time>
      </trkpt>
      <trkpt lat="46.24213" lon="15.06328">
        <ele>281.076479</ele>
        <time>2026-07-11T07:46:40.000Z</time>
      </trkpt>
      <trkpt lat="46.24217" lon="15.06317">
        <ele>281.04576</ele>
        <time>2026-07-11T07:46:42.000Z</time>
      </trkpt>
      <trkpt lat="46.2422" lon="15.06305">
        <ele>281.014334</ele>
        <time>2026-07-11T07:46:44.000Z</time>
      </trkpt>
      <trkpt lat="46.24222" lon="15.06254">
        <ele>280.885954</ele>
        <time>2026-07-11T07:46:52.000Z</time>
      </trkpt>
      <trkpt lat="46.2422" lon="15.06227">
        <ele>280.819818</ele>
        <time>2026-07-11T07:46:56.000Z</time>
      </trkpt>
      <trkpt lat="46.24218" lon="15.06199">
        <ele>280.749272</ele>
        <time>2026-07-11T07:47:00.000Z</time>
      </trkpt>
      <trkpt lat="46.24212" lon="15.06134">
        <ele>280.569917</ele>
        <time>2026-07-11T07:47:10.000Z</time>
      </trkpt>
      <trkpt lat="46.24211" lon="15.06115">
        <ele>280.499468</ele>
        <time>2026-07-11T07:47:13.000Z</time>
      </trkpt>
      <trkpt lat="46.24208" lon="15.06089">
        <ele>280.407949</ele>
        <time>2026-07-11T07:47:17.000Z</time>
      </trkpt>
      <trkpt lat="46.24206" lon="15.06057">
        <ele>280.292435</ele>
        <time>2026-07-11T07:47:24.000Z</time>
      </trkpt>
      <trkpt lat="46.24204" lon="15.0605">
        <ele>280.2624</ele>
        <time>2026-07-11T07:47:43.000Z</time>
      </trkpt>
      <trkpt lat="46.24203" lon="15.06046">
        <ele>280.248635</ele>
        <time>2026-07-11T07:47:44.000Z</time>
      </trkpt>
      <trkpt lat="46.24201" lon="15.06015">
        <ele>280.137521</ele>
        <time>2026-07-11T07:47:50.000Z</time>
      </trkpt>
      <trkpt lat="46.24196" lon="15.05967">
        <ele>279.965617</ele>
        <time>2026-07-11T07:47:57.000Z</time>
      </trkpt>
      <trkpt lat="46.24195" lon="15.0596">
        <ele>279.94012</ele>
        <time>2026-07-11T07:47:58.000Z</time>
      </trkpt>
      <trkpt lat="46.24194" lon="15.05953">
        <ele>279.914414</ele>
        <time>2026-07-11T07:47:59.000Z</time>
      </trkpt>
      <trkpt lat="46.24186" lon="15.05913">
        <ele>279.762621</ele>
        <time>2026-07-11T07:48:05.000Z</time>
      </trkpt>
      <trkpt lat="46.24185" lon="15.05906">
        <ele>279.73749</ele>
        <time>2026-07-11T07:48:06.000Z</time>
      </trkpt>
      <trkpt lat="46.24184" lon="15.05899">
        <ele>279.712481</ele>
        <time>2026-07-11T07:48:07.000Z</time>
      </trkpt>
      <trkpt lat="46.24179" lon="15.05851">
        <ele>280.693818</ele>
        <time>2026-07-11T07:48:14.000Z</time>
      </trkpt>
      <trkpt lat="46.24179" lon="15.05845">
        <ele>280.859567</ele>
        <time>2026-07-11T07:48:15.000Z</time>
      </trkpt>
      <trkpt lat="46.24182" lon="15.05831">
        <ele>281.213553</ele>
        <time>2026-07-11T07:48:17.000Z</time>
      </trkpt>
      <trkpt lat="46.24184" lon="15.05824">
        <ele>281.388146</ele>
        <time>2026-07-11T07:48:18.000Z</time>
      </trkpt>
      <trkpt lat="46.24202" lon="15.05772">
        <ele>282.82675</ele>
        <time>2026-07-11T07:48:27.000Z</time>
      </trkpt>
      <trkpt lat="46.24211" lon="15.05742">
        <ele>283.640091</ele>
        <time>2026-07-11T07:48:34.000Z</time>
      </trkpt>
      <trkpt lat="46.24218" lon="15.05711">
        <ele>284.44508</ele>
        <time>2026-07-11T07:48:41.000Z</time>
      </trkpt>
      <trkpt lat="46.24219" lon="15.0568">
        <ele>285.200692</ele>
        <time>2026-07-11T07:48:48.000Z</time>
      </trkpt>
      <trkpt lat="46.24217" lon="15.05661">
        <ele>285.679151</ele>
        <time>2026-07-11T07:48:53.000Z</time>
      </trkpt>
      <trkpt lat="46.24216" lon="15.05647">
        <ele>286.035511</ele>
        <time>2026-07-11T07:48:57.000Z</time>
      </trkpt>
      <trkpt lat="46.24216" lon="15.0564">
        <ele>286.25321</ele>
        <time>2026-07-11T07:48:59.000Z</time>
      </trkpt>
      <trkpt lat="46.24215" lon="15.05629">
        <ele>286.587654</ele>
        <time>2026-07-11T07:49:02.000Z</time>
      </trkpt>
      <trkpt lat="46.24215" lon="15.05618">
        <ele>286.953345</ele>
        <time>2026-07-11T07:49:05.000Z</time>
      </trkpt>
      <trkpt lat="46.24218" lon="15.056">
        <ele>287.521232</ele>
        <time>2026-07-11T07:49:10.000Z</time>
      </trkpt>
      <trkpt lat="46.2422" lon="15.05599">
        <ele>287.603223</ele>
        <time>2026-07-11T07:49:11.000Z</time>
      </trkpt>
      <trkpt lat="46.24223" lon="15.05599">
        <ele>287.764033</ele>
        <time>2026-07-11T07:49:13.000Z</time>
      </trkpt>
      <trkpt lat="46.24226" lon="15.056">
        <ele>287.922845</ele>
        <time>2026-07-11T07:49:15.000Z</time>
      </trkpt>
      <trkpt lat="46.24228" lon="15.05599">
        <ele>287.982912</ele>
        <time>2026-07-11T07:49:18.000Z</time>
      </trkpt>
      <trkpt lat="46.24231" lon="15.05591">
        <ele>288.274306</ele>
        <time>2026-07-11T07:49:25.000Z</time>
      </trkpt>
      <trkpt lat="46.24223" lon="15.05582">
        <ele>288.753135</ele>
        <time>2026-07-11T07:49:30.000Z</time>
      </trkpt>
      <trkpt lat="46.24217" lon="15.05579">
        <ele>289.008082</ele>
        <time>2026-07-11T07:49:35.000Z</time>
      </trkpt>
      <trkpt lat="46.24209" lon="15.05577">
        <ele>289.410508</ele>
        <time>2026-07-11T07:54:57.000Z</time>
      </trkpt>
      <trkpt lat="46.24207" lon="15.05577">
        <ele>289.493758</ele>
        <time>2026-07-11T07:54:58.000Z</time>
      </trkpt>
      <trkpt lat="46.24207" lon="15.05586">
        <ele>289.776607</ele>
        <time>2026-07-11T07:55:01.000Z</time>
      </trkpt>
      <trkpt lat="46.24212" lon="15.05596">
        <ele>290.171924</ele>
        <time>2026-07-11T07:55:04.000Z</time>
      </trkpt>
      <trkpt lat="46.24215" lon="15.05598">
        <ele>290.311453</ele>
        <time>2026-07-11T07:55:05.000Z</time>
      </trkpt>
      <trkpt lat="46.24226" lon="15.05598">
        <ele>290.835321</ele>
        <time>2026-07-11T07:55:09.000Z</time>
      </trkpt>
      <trkpt lat="46.24244" lon="15.05595">
        <ele>291.629259</ele>
        <time>2026-07-11T07:55:14.000Z</time>
      </trkpt>
      <trkpt lat="46.24248" lon="15.05595">
        <ele>291.813152</ele>
        <time>2026-07-11T07:55:15.000Z</time>
      </trkpt>
      <trkpt lat="46.24272" lon="15.05593">
        <ele>292.913899</ele>
        <time>2026-07-11T07:55:21.000Z</time>
      </trkpt>
      <trkpt lat="46.2429" lon="15.05587">
        <ele>293.764342</ele>
        <time>2026-07-11T07:55:26.000Z</time>
      </trkpt>
      <trkpt lat="46.24301" lon="15.05566">
        <ele>294.2535</ele>
        <time>2026-07-11T07:55:31.000Z</time>
      </trkpt>
      <trkpt lat="46.24303" lon="15.05562">
        <ele>294.180835</ele>
        <time>2026-07-11T07:55:32.000Z</time>
      </trkpt>
      <trkpt lat="46.2431" lon="15.05545">
        <ele>293.895686</ele>
        <time>2026-07-11T07:55:36.000Z</time>
      </trkpt>
      <trkpt lat="46.24315" lon="15.05531">
        <ele>293.676483</ele>
        <time>2026-07-11T07:55:39.000Z</time>
      </trkpt>
      <trkpt lat="46.24316" lon="15.05527">
        <ele>293.605671</ele>
        <time>2026-07-11T07:55:40.000Z</time>
      </trkpt>
      <trkpt lat="46.24324" lon="15.05487">
        <ele>293.016023</ele>
        <time>2026-07-11T07:55:48.000Z</time>
      </trkpt>
      <trkpt lat="46.24325" lon="15.05481">
        <ele>292.928387</ele>
        <time>2026-07-11T07:55:51.000Z</time>
      </trkpt>
      <trkpt lat="46.24325" lon="15.05481">
        <ele>292.918896</ele>
        <time>2026-07-11T07:55:52.000Z</time>
      </trkpt>
      <trkpt lat="46.24324" lon="15.05475">
        <ele>292.838806</ele>
        <time>2026-07-11T07:55:54.000Z</time>
      </trkpt>
      <trkpt lat="46.24325" lon="15.05467">
        <ele>292.721792</ele>
        <time>2026-07-11T07:55:56.000Z</time>
      </trkpt>
      <trkpt lat="46.24331" lon="15.05431">
        <ele>292.193618</ele>
        <time>2026-07-11T07:56:04.000Z</time>
      </trkpt>
      <trkpt lat="46.24339" lon="15.05401">
        <ele>291.738838</ele>
        <time>2026-07-11T07:56:10.000Z</time>
      </trkpt>
      <trkpt lat="46.2435" lon="15.05355">
        <ele>291.045246</ele>
        <time>2026-07-11T07:56:18.000Z</time>
      </trkpt>
      <trkpt lat="46.24351" lon="15.05349">
        <ele>290.95299</ele>
        <time>2026-07-11T07:56:19.000Z</time>
      </trkpt>
      <trkpt lat="46.24359" lon="15.05318">
        <ele>290.679039</ele>
        <time>2026-07-11T07:56:24.000Z</time>
      </trkpt>
      <trkpt lat="46.24361" lon="15.05313">
        <ele>290.691559</ele>
        <time>2026-07-11T07:56:25.000Z</time>
      </trkpt>
      <trkpt lat="46.24367" lon="15.05304">
        <ele>290.718612</ele>
        <time>2026-07-11T07:56:27.000Z</time>
      </trkpt>
      <trkpt lat="46.24371" lon="15.053">
        <ele>290.732273</ele>
        <time>2026-07-11T07:56:28.000Z</time>
      </trkpt>
      <trkpt lat="46.24377" lon="15.05292">
        <ele>290.758581</ele>
        <time>2026-07-11T07:56:30.000Z</time>
      </trkpt>
      <trkpt lat="46.2439" lon="15.0528">
        <ele>290.803928</ele>
        <time>2026-07-11T07:56:34.000Z</time>
      </trkpt>
      <trkpt lat="46.24403" lon="15.05271">
        <ele>290.848984</ele>
        <time>2026-07-11T07:56:38.000Z</time>
      </trkpt>
      <trkpt lat="46.24414" lon="15.05262">
        <ele>290.88846</ele>
        <time>2026-07-11T07:56:41.000Z</time>
      </trkpt>
      <trkpt lat="46.24435" lon="15.05245">
        <ele>290.961286</ele>
        <time>2026-07-11T07:56:46.000Z</time>
      </trkpt>
      <trkpt lat="46.24455" lon="15.05226">
        <ele>291.033473</ele>
        <time>2026-07-11T07:56:51.000Z</time>
      </trkpt>
      <trkpt lat="46.24462" lon="15.05219">
        <ele>291.060467</ele>
        <time>2026-07-11T07:56:53.000Z</time>
      </trkpt>
      <trkpt lat="46.24466" lon="15.05216">
        <ele>291.07409</ele>
        <time>2026-07-11T07:56:54.000Z</time>
      </trkpt>
      <trkpt lat="46.2447" lon="15.05212">
        <ele>291.087342</ele>
        <time>2026-07-11T07:56:55.000Z</time>
      </trkpt>
      <trkpt lat="46.24476" lon="15.05205">
        <ele>291.113459</ele>
        <time>2026-07-11T07:56:57.000Z</time>
      </trkpt>
      <trkpt lat="46.24494" lon="15.05189">
        <ele>291.175821</ele>
        <time>2026-07-11T07:57:02.000Z</time>
      </trkpt>
      <trkpt lat="46.24497" lon="15.05186">
        <ele>291.188471</ele>
        <time>2026-07-11T07:57:03.000Z</time>
      </trkpt>
      <trkpt lat="46.2451" lon="15.05174">
        <ele>291.317964</ele>
        <time>2026-07-11T07:57:07.000Z</time>
      </trkpt>
      <trkpt lat="46.24524" lon="15.05162">
        <ele>291.489973</ele>
        <time>2026-07-11T07:57:11.000Z</time>
      </trkpt>
      <trkpt lat="46.24556" lon="15.0513">
        <ele>291.907413</ele>
        <time>2026-07-11T07:57:21.000Z</time>
      </trkpt>
      <trkpt lat="46.24574" lon="15.05094">
        <ele>292.238814</ele>
        <time>2026-07-11T07:57:29.000Z</time>
      </trkpt>
      <trkpt lat="46.24589" lon="15.05062">
        <ele>292.52597</ele>
        <time>2026-07-11T07:57:37.000Z</time>
      </trkpt>
      <trkpt lat="46.24595" lon="15.05047">
        <ele>292.652711</ele>
        <time>2026-07-11T07:57:41.000Z</time>
      </trkpt>
      <trkpt lat="46.24602" lon="15.05015">
        <ele>292.905045</ele>
        <time>2026-07-11T07:57:48.000Z</time>
      </trkpt>
      <trkpt lat="46.24609" lon="15.04972">
        <ele>293.221383</ele>
        <time>2026-07-11T07:57:56.000Z</time>
      </trkpt>
      <trkpt lat="46.24614" lon="15.04944">
        <ele>293.403336</ele>
        <time>2026-07-11T07:58:01.000Z</time>
      </trkpt>
      <trkpt lat="46.24618" lon="15.04927">
        <ele>293.512295</ele>
        <time>2026-07-11T07:58:04.000Z</time>
      </trkpt>
      <trkpt lat="46.24625" lon="15.04884">
        <ele>293.786117</ele>
        <time>2026-07-11T07:58:12.000Z</time>
      </trkpt>
      <trkpt lat="46.24631" lon="15.04854">
        <ele>293.985571</ele>
        <time>2026-07-11T07:58:19.000Z</time>
      </trkpt>
      <trkpt lat="46.24635" lon="15.04822">
        <ele>294.185982</ele>
        <time>2026-07-11T07:58:26.000Z</time>
      </trkpt>
      <trkpt lat="46.24645" lon="15.04805">
        <ele>294.323659</ele>
        <time>2026-07-11T07:58:32.000Z</time>
      </trkpt>
      <trkpt lat="46.24648" lon="15.048">
        <ele>294.370863</ele>
        <time>2026-07-11T07:58:34.000Z</time>
      </trkpt>
      <trkpt lat="46.24655" lon="15.04785">
        <ele>294.481312</ele>
        <time>2026-07-11T07:58:39.000Z</time>
      </trkpt>
      <trkpt lat="46.24659" lon="15.04762">
        <ele>294.62659</ele>
        <time>2026-07-11T07:58:46.000Z</time>
      </trkpt>
      <trkpt lat="46.24659" lon="15.04759">
        <ele>294.64851</ele>
        <time>2026-07-11T07:58:47.000Z</time>
      </trkpt>
      <trkpt lat="46.24656" lon="15.0473">
        <ele>294.638831</ele>
        <time>2026-07-11T07:58:55.000Z</time>
      </trkpt>
      <trkpt lat="46.24644" lon="15.0471">
        <ele>294.306327</ele>
        <time>2026-07-11T07:59:00.000Z</time>
      </trkpt>
      <trkpt lat="46.24641" lon="15.04708">
        <ele>294.245841</ele>
        <time>2026-07-11T07:59:01.000Z</time>
      </trkpt>
      <trkpt lat="46.24623" lon="15.047">
        <ele>293.894865</ele>
        <time>2026-07-11T07:59:07.000Z</time>
      </trkpt>
      <trkpt lat="46.24607" lon="15.04694">
        <ele>293.587109</ele>
        <time>2026-07-11T07:59:12.000Z</time>
      </trkpt>
      <trkpt lat="46.24601" lon="15.04691">
        <ele>293.465616</ele>
        <time>2026-07-11T07:59:14.000Z</time>
      </trkpt>
      <trkpt lat="46.24598" lon="15.0469">
        <ele>293.404184</ele>
        <time>2026-07-11T07:59:15.000Z</time>
      </trkpt>
      <trkpt lat="46.24588" lon="15.04686">
        <ele>293.209954</ele>
        <time>2026-07-11T07:59:18.000Z</time>
      </trkpt>
      <trkpt lat="46.24577" lon="15.04687">
        <ele>293.009112</ele>
        <time>2026-07-11T07:59:21.000Z</time>
      </trkpt>
      <trkpt lat="46.24559" lon="15.04691">
        <ele>292.674927</ele>
        <time>2026-07-11T07:59:27.000Z</time>
      </trkpt>
      <trkpt lat="46.24539" lon="15.04707">
        <ele>292.251617</ele>
        <time>2026-07-11T07:59:34.000Z</time>
      </trkpt>
      <trkpt lat="46.24515" lon="15.04734">
        <ele>291.680801</ele>
        <time>2026-07-11T07:59:42.000Z</time>
      </trkpt>
      <trkpt lat="46.24502" lon="15.04751">
        <ele>291.455657</ele>
        <time>2026-07-11T07:59:46.000Z</time>
      </trkpt>
      <trkpt lat="46.24492" lon="15.04764">
        <ele>291.564807</ele>
        <time>2026-07-11T07:59:49.000Z</time>
      </trkpt>
      <trkpt lat="46.24489" lon="15.04768">
        <ele>291.601105</ele>
        <time>2026-07-11T07:59:50.000Z</time>
      </trkpt>
      <trkpt lat="46.24476" lon="15.04778">
        <ele>291.717737</ele>
        <time>2026-07-11T07:59:53.000Z</time>
      </trkpt>
      <trkpt lat="46.24468" lon="15.04785">
        <ele>291.792043</ele>
        <time>2026-07-11T07:59:55.000Z</time>
      </trkpt>
      <trkpt lat="46.24464" lon="15.04787">
        <ele>291.827959</ele>
        <time>2026-07-11T07:59:56.000Z</time>
      </trkpt>
      <trkpt lat="46.24437" lon="15.04802">
        <ele>292.061572</ele>
        <time>2026-07-11T08:00:02.000Z</time>
      </trkpt>
      <trkpt lat="46.24424" lon="15.04808">
        <ele>292.175536</ele>
        <time>2026-07-11T08:00:05.000Z</time>
      </trkpt>
      <trkpt lat="46.24393" lon="15.04817">
        <ele>292.435069</ele>
        <time>2026-07-11T08:00:12.000Z</time>
      </trkpt>
      <trkpt lat="46.2438" lon="15.04819">
        <ele>292.53798</ele>
        <time>2026-07-11T08:00:15.000Z</time>
      </trkpt>
      <trkpt lat="46.24376" lon="15.04819">
        <ele>292.569716</ele>
        <time>2026-07-11T08:00:16.000Z</time>
      </trkpt>
      <trkpt lat="46.24369" lon="15.04816">
        <ele>292.634455</ele>
        <time>2026-07-11T08:00:18.000Z</time>
      </trkpt>
      <trkpt lat="46.24357" lon="15.0481">
        <ele>292.735472</ele>
        <time>2026-07-11T08:00:21.000Z</time>
      </trkpt>
      <trkpt lat="46.24349" lon="15.04807">
        <ele>292.801141</ele>
        <time>2026-07-11T08:00:23.000Z</time>
      </trkpt>
      <trkpt lat="46.24345" lon="15.04806">
        <ele>292.832309</ele>
        <time>2026-07-11T08:00:24.000Z</time>
      </trkpt>
      <trkpt lat="46.24341" lon="15.04805">
        <ele>292.866647</ele>
        <time>2026-07-11T08:00:25.000Z</time>
      </trkpt>
      <trkpt lat="46.24329" lon="15.04805">
        <ele>292.797847</ele>
        <time>2026-07-11T08:00:28.000Z</time>
      </trkpt>
      <trkpt lat="46.2432" lon="15.04803">
        <ele>292.715131</ele>
        <time>2026-07-11T08:00:30.000Z</time>
      </trkpt>
      <trkpt lat="46.24313" lon="15.04798">
        <ele>292.638108</ele>
        <time>2026-07-11T08:00:32.000Z</time>
      </trkpt>
      <trkpt lat="46.24308" lon="15.04788">
        <ele>292.555999</ele>
        <time>2026-07-11T08:00:34.000Z</time>
      </trkpt>
      <trkpt lat="46.24306" lon="15.04775">
        <ele>292.472679</ele>
        <time>2026-07-11T08:00:36.000Z</time>
      </trkpt>
      <trkpt lat="46.243" lon="15.04737">
        <ele>292.213488</ele>
        <time>2026-07-11T08:00:42.000Z</time>
      </trkpt>
      <trkpt lat="46.24295" lon="15.0472">
        <ele>292.091407</ele>
        <time>2026-07-11T08:00:45.000Z</time>
      </trkpt>
      <trkpt lat="46.24289" lon="15.04702">
        <ele>291.964023</ele>
        <time>2026-07-11T08:00:48.000Z</time>
      </trkpt>
      <trkpt lat="46.24281" lon="15.04687">
        <ele>291.838701</ele>
        <time>2026-07-11T08:00:51.000Z</time>
      </trkpt>
      <trkpt lat="46.24276" lon="15.04677">
        <ele>291.756103</ele>
        <time>2026-07-11T08:00:53.000Z</time>
      </trkpt>
      <trkpt lat="46.24263" lon="15.04661">
        <ele>291.596963</ele>
        <time>2026-07-11T08:00:57.000Z</time>
      </trkpt>
      <trkpt lat="46.24248" lon="15.04645">
        <ele>291.417626</ele>
        <time>2026-07-11T08:01:01.000Z</time>
      </trkpt>
      <trkpt lat="46.24235" lon="15.04636">
        <ele>291.287864</ele>
        <time>2026-07-11T08:01:04.000Z</time>
      </trkpt>
      <trkpt lat="46.24218" lon="15.04629">
        <ele>291.488441</ele>
        <time>2026-07-11T08:01:08.000Z</time>
      </trkpt>
      <trkpt lat="46.24183" lon="15.04608">
        <ele>293.032865</ele>
        <time>2026-07-11T08:01:17.000Z</time>
      </trkpt>
      <trkpt lat="46.24175" lon="15.04603">
        <ele>293.374837</ele>
        <time>2026-07-11T08:01:19.000Z</time>
      </trkpt>
      <trkpt lat="46.24168" lon="15.04597">
        <ele>293.704197</ele>
        <time>2026-07-11T08:01:21.000Z</time>
      </trkpt>
      <trkpt lat="46.24165" lon="15.04594">
        <ele>293.867328</ele>
        <time>2026-07-11T08:01:22.000Z</time>
      </trkpt>
      <trkpt lat="46.24152" lon="15.04579">
        <ele>294.545182</ele>
        <time>2026-07-11T08:01:26.000Z</time>
      </trkpt>
      <trkpt lat="46.24149" lon="15.04575">
        <ele>294.713401</ele>
        <time>2026-07-11T08:01:27.000Z</time>
      </trkpt>
      <trkpt lat="46.24144" lon="15.04567">
        <ele>295.041585</ele>
        <time>2026-07-11T08:01:29.000Z</time>
      </trkpt>
      <trkpt lat="46.24131" lon="15.04544">
        <ele>295.870725</ele>
        <time>2026-07-11T08:01:34.000Z</time>
      </trkpt>
      <trkpt lat="46.24127" lon="15.04534">
        <ele>296.217325</ele>
        <time>2026-07-11T08:01:36.000Z</time>
      </trkpt>
      <trkpt lat="46.2412" lon="15.04499">
        <ele>297.237855</ele>
        <time>2026-07-11T08:01:42.000Z</time>
      </trkpt>
      <trkpt lat="46.24119" lon="15.04493">
        <ele>297.406639</ele>
        <time>2026-07-11T08:01:43.000Z</time>
      </trkpt>
      <trkpt lat="46.24116" lon="15.04482">
        <ele>297.747722</ele>
        <time>2026-07-11T08:01:45.000Z</time>
      </trkpt>
      <trkpt lat="46.24114" lon="15.04447">
        <ele>298.505962</ele>
        <time>2026-07-11T08:01:51.000Z</time>
      </trkpt>
      <trkpt lat="46.24114" lon="15.04441">
        <ele>298.451143</ele>
        <time>2026-07-11T08:01:52.000Z</time>
      </trkpt>
      <trkpt lat="46.24116" lon="15.04387">
        <ele>297.965342</ele>
        <time>2026-07-11T08:02:01.000Z</time>
      </trkpt>
      <trkpt lat="46.24117" lon="15.04363">
        <ele>297.739572</ele>
        <time>2026-07-11T08:02:05.000Z</time>
      </trkpt>
      <trkpt lat="46.24117" lon="15.04357">
        <ele>297.684753</ele>
        <time>2026-07-11T08:02:06.000Z</time>
      </trkpt>
      <trkpt lat="46.24117" lon="15.04345">
        <ele>297.574987</ele>
        <time>2026-07-11T08:02:08.000Z</time>
      </trkpt>
      <trkpt lat="46.24118" lon="15.04326">
        <ele>297.405445</ele>
        <time>2026-07-11T08:02:11.000Z</time>
      </trkpt>
      <trkpt lat="46.24121" lon="15.0427">
        <ele>296.894639</ele>
        <time>2026-07-11T08:02:20.000Z</time>
      </trkpt>
      <trkpt lat="46.24122" lon="15.0421">
        <ele>296.338783</ele>
        <time>2026-07-11T08:02:30.000Z</time>
      </trkpt>
      <trkpt lat="46.24122" lon="15.04204">
        <ele>296.284732</ele>
        <time>2026-07-11T08:02:31.000Z</time>
      </trkpt>
      <trkpt lat="46.24125" lon="15.04156">
        <ele>296.291232</ele>
        <time>2026-07-11T08:02:39.000Z</time>
      </trkpt>
      <trkpt lat="46.24125" lon="15.04144">
        <ele>296.322582</ele>
        <time>2026-07-11T08:02:41.000Z</time>
      </trkpt>
      <trkpt lat="46.24121" lon="15.04079">
        <ele>296.498831</ele>
        <time>2026-07-11T08:02:52.000Z</time>
      </trkpt>
      <trkpt lat="46.2412" lon="15.04066">
        <ele>296.531334</ele>
        <time>2026-07-11T08:02:54.000Z</time>
      </trkpt>
      <trkpt lat="46.24121" lon="15.04048">
        <ele>296.581461</ele>
        <time>2026-07-11T08:02:57.000Z</time>
      </trkpt>
      <trkpt lat="46.24122" lon="15.04017">
        <ele>296.665129</ele>
        <time>2026-07-11T08:03:02.000Z</time>
      </trkpt>
      <trkpt lat="46.24121" lon="15.0396">
        <ele>296.8155</ele>
        <time>2026-07-11T08:03:11.000Z</time>
      </trkpt>
      <trkpt lat="46.2412" lon="15.03948">
        <ele>296.849368</ele>
        <time>2026-07-11T08:03:13.000Z</time>
      </trkpt>
      <trkpt lat="46.24119" lon="15.03879">
        <ele>297.252135</ele>
        <time>2026-07-11T08:03:24.000Z</time>
      </trkpt>
      <trkpt lat="46.24121" lon="15.03836">
        <ele>297.538314</ele>
        <time>2026-07-11T08:03:31.000Z</time>
      </trkpt>
      <trkpt lat="46.24122" lon="15.03829">
        <ele>297.586446</ele>
        <time>2026-07-11T08:03:32.000Z</time>
      </trkpt>
      <trkpt lat="46.24123" lon="15.03825">
        <ele>297.619265</ele>
        <time>2026-07-11T08:03:33.000Z</time>
      </trkpt>
      <trkpt lat="46.24132" lon="15.03796">
        <ele>297.830797</ele>
        <time>2026-07-11T08:03:38.000Z</time>
      </trkpt>
      <trkpt lat="46.24134" lon="15.03792">
        <ele>297.862799</ele>
        <time>2026-07-11T08:03:39.000Z</time>
      </trkpt>
      <trkpt lat="46.24153" lon="15.03741">
        <ele>298.251262</ele>
        <time>2026-07-11T08:03:48.000Z</time>
      </trkpt>
      <trkpt lat="46.24155" lon="15.03736">
        <ele>298.284804</ele>
        <time>2026-07-11T08:03:49.000Z</time>
      </trkpt>
      <trkpt lat="46.24157" lon="15.03729">
        <ele>298.337338</ele>
        <time>2026-07-11T08:03:50.000Z</time>
      </trkpt>
      <trkpt lat="46.24163" lon="15.03705">
        <ele>298.504523</ele>
        <time>2026-07-11T08:03:54.000Z</time>
      </trkpt>
      <trkpt lat="46.24164" lon="15.03693">
        <ele>298.588887</ele>
        <time>2026-07-11T08:03:56.000Z</time>
      </trkpt>
      <trkpt lat="46.24164" lon="15.03649">
        <ele>298.722012</ele>
        <time>2026-07-11T08:04:03.000Z</time>
      </trkpt>
      <trkpt lat="46.24163" lon="15.03642">
        <ele>298.742321</ele>
        <time>2026-07-11T08:04:04.000Z</time>
      </trkpt>
      <trkpt lat="46.24155" lon="15.03585">
        <ele>298.892305</ele>
        <time>2026-07-11T08:04:13.000Z</time>
      </trkpt>
      <trkpt lat="46.24151" lon="15.03528">
        <ele>299.041002</ele>
        <time>2026-07-11T08:04:22.000Z</time>
      </trkpt>
      <trkpt lat="46.24151" lon="15.03522">
        <ele>299.056605</ele>
        <time>2026-07-11T08:04:23.000Z</time>
      </trkpt>
      <trkpt lat="46.24152" lon="15.03485">
        <ele>299.152886</ele>
        <time>2026-07-11T08:04:29.000Z</time>
      </trkpt>
      <trkpt lat="46.24155" lon="15.03441">
        <ele>299.266983</ele>
        <time>2026-07-11T08:04:36.000Z</time>
      </trkpt>
      <trkpt lat="46.24157" lon="15.03415">
        <ele>299.464639</ele>
        <time>2026-07-11T08:04:40.000Z</time>
      </trkpt>
      <trkpt lat="46.2416" lon="15.03403">
        <ele>299.604977</ele>
        <time>2026-07-11T08:04:42.000Z</time>
      </trkpt>
      <trkpt lat="46.24163" lon="15.03392">
        <ele>299.745664</ele>
        <time>2026-07-11T08:04:44.000Z</time>
      </trkpt>
      <trkpt lat="46.24167" lon="15.03381">
        <ele>299.889308</ele>
        <time>2026-07-11T08:04:46.000Z</time>
      </trkpt>
      <trkpt lat="46.24173" lon="15.0337">
        <ele>300.040934</ele>
        <time>2026-07-11T08:04:48.000Z</time>
      </trkpt>
      <trkpt lat="46.24191" lon="15.03342">
        <ele>300.480493</ele>
        <time>2026-07-11T08:04:54.000Z</time>
      </trkpt>
      <trkpt lat="46.24205" lon="15.03319">
        <ele>300.84075</ele>
        <time>2026-07-11T08:04:59.000Z</time>
      </trkpt>
      <trkpt lat="46.24211" lon="15.03307">
        <ele>300.996118</ele>
        <time>2026-07-11T08:05:01.000Z</time>
      </trkpt>
      <trkpt lat="46.24219" lon="15.03272">
        <ele>301.422363</ele>
        <time>2026-07-11T08:05:07.000Z</time>
      </trkpt>
      <trkpt lat="46.2422" lon="15.03265">
        <ele>301.510124</ele>
        <time>2026-07-11T08:05:08.000Z</time>
      </trkpt>
      <trkpt lat="46.24221" lon="15.03227">
        <ele>301.946568</ele>
        <time>2026-07-11T08:05:14.000Z</time>
      </trkpt>
      <trkpt lat="46.24219" lon="15.03188">
        <ele>302.354664</ele>
        <time>2026-07-11T08:05:20.000Z</time>
      </trkpt>
      <trkpt lat="46.24218" lon="15.03175">
        <ele>302.45494</ele>
        <time>2026-07-11T08:05:22.000Z</time>
      </trkpt>
      <trkpt lat="46.24219" lon="15.03162">
        <ele>302.558856</ele>
        <time>2026-07-11T08:05:24.000Z</time>
      </trkpt>
      <trkpt lat="46.24221" lon="15.0315">
        <ele>302.657868</ele>
        <time>2026-07-11T08:05:26.000Z</time>
      </trkpt>
      <trkpt lat="46.24228" lon="15.03119">
        <ele>302.915992</ele>
        <time>2026-07-11T08:05:31.000Z</time>
      </trkpt>
      <trkpt lat="46.24242" lon="15.03085">
        <ele>303.226954</ele>
        <time>2026-07-11T08:05:37.000Z</time>
      </trkpt>
      <trkpt lat="46.24245" lon="15.0308">
        <ele>303.279375</ele>
        <time>2026-07-11T08:05:38.000Z</time>
      </trkpt>
      <trkpt lat="46.24255" lon="15.03065">
        <ele>303.440326</ele>
        <time>2026-07-11T08:05:41.000Z</time>
      </trkpt>
      <trkpt lat="46.24264" lon="15.03051">
        <ele>303.592769</ele>
        <time>2026-07-11T08:05:44.000Z</time>
      </trkpt>
      <trkpt lat="46.24293" lon="15.02992">
        <ele>304.161036</ele>
        <time>2026-07-11T08:05:55.000Z</time>
      </trkpt>
      <trkpt lat="46.24302" lon="15.02948">
        <ele>304.300027</ele>
        <time>2026-07-11T08:06:02.000Z</time>
      </trkpt>
      <trkpt lat="46.24304" lon="15.02909">
        <ele>304.255178</ele>
        <time>2026-07-11T08:06:08.000Z</time>
      </trkpt>
      <trkpt lat="46.24304" lon="15.02896">
        <ele>304.240417</ele>
        <time>2026-07-11T08:06:10.000Z</time>
      </trkpt>
      <trkpt lat="46.24307" lon="15.02832">
        <ele>304.166666</ele>
        <time>2026-07-11T08:06:20.000Z</time>
      </trkpt>
      <trkpt lat="46.24308" lon="15.02824">
        <ele>304.157393</ele>
        <time>2026-07-11T08:06:21.000Z</time>
      </trkpt>
      <trkpt lat="46.24311" lon="15.02791">
        <ele>304.119831</ele>
        <time>2026-07-11T08:06:26.000Z</time>
      </trkpt>
      <trkpt lat="46.24315" lon="15.02732">
        <ele>304.051608</ele>
        <time>2026-07-11T08:06:35.000Z</time>
      </trkpt>
      <trkpt lat="46.2432" lon="15.02663">
        <ele>304.615169</ele>
        <time>2026-07-11T08:06:45.000Z</time>
      </trkpt>
      <trkpt lat="46.24321" lon="15.02657">
        <ele>304.68846</ele>
        <time>2026-07-11T08:06:46.000Z</time>
      </trkpt>
      <trkpt lat="46.24321" lon="15.02644">
        <ele>304.832344</ele>
        <time>2026-07-11T08:06:48.000Z</time>
      </trkpt>
      <trkpt lat="46.24319" lon="15.02638">
        <ele>304.90183</ele>
        <time>2026-07-11T08:06:49.000Z</time>
      </trkpt>
      <trkpt lat="46.24317" lon="15.02632">
        <ele>304.97312</ele>
        <time>2026-07-11T08:06:50.000Z</time>
      </trkpt>
      <trkpt lat="46.24308" lon="15.02619">
        <ele>305.188305</ele>
        <time>2026-07-11T08:06:53.000Z</time>
      </trkpt>
      <trkpt lat="46.24281" lon="15.02578">
        <ele>305.825832</ele>
        <time>2026-07-11T08:07:02.000Z</time>
      </trkpt>
      <trkpt lat="46.24268" lon="15.02538">
        <ele>306.32971</ele>
        <time>2026-07-11T08:07:09.000Z</time>
      </trkpt>
      <trkpt lat="46.24264" lon="15.02526">
        <ele>306.476326</ele>
        <time>2026-07-11T08:07:11.000Z</time>
      </trkpt>
      <trkpt lat="46.2425" lon="15.02493">
        <ele>306.90723</ele>
        <time>2026-07-11T08:07:17.000Z</time>
      </trkpt>
      <trkpt lat="46.24226" lon="15.02433">
        <ele>307.863648</ele>
        <time>2026-07-11T08:07:28.000Z</time>
      </trkpt>
      <trkpt lat="46.24216" lon="15.02404">
        <ele>308.320063</ele>
        <time>2026-07-11T08:07:33.000Z</time>
      </trkpt>
      <trkpt lat="46.24205" lon="15.02382">
        <ele>308.686283</ele>
        <time>2026-07-11T08:07:37.000Z</time>
      </trkpt>
      <trkpt lat="46.24202" lon="15.02377">
        <ele>308.780509</ele>
        <time>2026-07-11T08:07:38.000Z</time>
      </trkpt>
      <trkpt lat="46.2419" lon="15.02358">
        <ele>309.149185</ele>
        <time>2026-07-11T08:07:42.000Z</time>
      </trkpt>
      <trkpt lat="46.24157" lon="15.02304">
        <ele>310.143671</ele>
        <time>2026-07-11T08:07:53.000Z</time>
      </trkpt>
      <trkpt lat="46.24133" lon="15.02257">
        <ele>310.892772</ele>
        <time>2026-07-11T08:08:02.000Z</time>
      </trkpt>
      <trkpt lat="46.24114" lon="15.02218">
        <ele>311.453932</ele>
        <time>2026-07-11T08:08:10.000Z</time>
      </trkpt>
      <trkpt lat="46.24096" lon="15.02189">
        <ele>311.91109</ele>
        <time>2026-07-11T08:08:17.000Z</time>
      </trkpt>
      <trkpt lat="46.24085" lon="15.02155">
        <ele>312.339631</ele>
        <time>2026-07-11T08:08:24.000Z</time>
      </trkpt>
      <trkpt lat="46.24074" lon="15.0212">
        <ele>312.797802</ele>
        <time>2026-07-11T08:08:32.000Z</time>
      </trkpt>
      <trkpt lat="46.24058" lon="15.02084">
        <ele>313.286448</ele>
        <time>2026-07-11T08:08:40.000Z</time>
      </trkpt>
      <trkpt lat="46.24057" lon="15.0208">
        <ele>313.341194</ele>
        <time>2026-07-11T08:08:41.000Z</time>
      </trkpt>
      <trkpt lat="46.2405" lon="15.02059">
        <ele>313.620755</ele>
        <time>2026-07-11T08:08:47.000Z</time>
      </trkpt>
      <trkpt lat="46.24045" lon="15.02044">
        <ele>313.924325</ele>
        <time>2026-07-11T08:08:51.000Z</time>
      </trkpt>
      <trkpt lat="46.24042" lon="15.02042">
        <ele>313.997431</ele>
        <time>2026-07-11T08:08:52.000Z</time>
      </trkpt>
      <trkpt lat="46.2403" lon="15.02042">
        <ele>314.352443</ele>
        <time>2026-07-11T08:08:56.000Z</time>
      </trkpt>
      <trkpt lat="46.24019" lon="15.02044">
        <ele>314.659031</ele>
        <time>2026-07-11T08:09:01.000Z</time>
      </trkpt>
      <trkpt lat="46.24004" lon="15.0205">
        <ele>315.095551</ele>
        <time>2026-07-11T08:09:07.000Z</time>
      </trkpt>
      <trkpt lat="46.23993" lon="15.02059">
        <ele>315.430693</ele>
        <time>2026-07-11T08:09:11.000Z</time>
      </trkpt>
      <trkpt lat="46.23985" lon="15.02065">
        <ele>315.686339</ele>
        <time>2026-07-11T08:09:14.000Z</time>
      </trkpt>
      <trkpt lat="46.23968" lon="15.02067">
        <ele>316.170392</ele>
        <time>2026-07-11T08:09:20.000Z</time>
      </trkpt>
      <trkpt lat="46.23951" lon="15.02064">
        <ele>316.632321</ele>
        <time>2026-07-11T08:09:26.000Z</time>
      </trkpt>
      <trkpt lat="46.23922" lon="15.02054">
        <ele>317.469019</ele>
        <time>2026-07-11T08:09:35.000Z</time>
      </trkpt>
      <trkpt lat="46.23899" lon="15.02046">
        <ele>318.118819</ele>
        <time>2026-07-11T08:09:42.000Z</time>
      </trkpt>
      <trkpt lat="46.23876" lon="15.0204">
        <ele>318.690111</ele>
        <time>2026-07-11T08:09:49.000Z</time>
      </trkpt>
      <trkpt lat="46.23848" lon="15.02026">
        <ele>319.126532</ele>
        <time>2026-07-11T08:09:57.000Z</time>
      </trkpt>
      <trkpt lat="46.23837" lon="15.0202">
        <ele>319.299741</ele>
        <time>2026-07-11T08:10:00.000Z</time>
      </trkpt>
      <trkpt lat="46.23811" lon="15.02008">
        <ele>319.707171</ele>
        <time>2026-07-11T08:10:06.000Z</time>
      </trkpt>
      <trkpt lat="46.23789" lon="15.02">
        <ele>320.038297</ele>
        <time>2026-07-11T08:10:11.000Z</time>
      </trkpt>
      <trkpt lat="46.23782" lon="15.01994">
        <ele>320.160161</ele>
        <time>2026-07-11T08:10:13.000Z</time>
      </trkpt>
      <trkpt lat="46.23775" lon="15.01987">
        <ele>320.287537</ele>
        <time>2026-07-11T08:10:15.000Z</time>
      </trkpt>
      <trkpt lat="46.23764" lon="15.01968">
        <ele>320.537739</ele>
        <time>2026-07-11T08:10:19.000Z</time>
      </trkpt>
      <trkpt lat="46.23755" lon="15.0195">
        <ele>320.764461</ele>
        <time>2026-07-11T08:10:23.000Z</time>
      </trkpt>
      <trkpt lat="46.23742" lon="15.01932">
        <ele>321.029704</ele>
        <time>2026-07-11T08:10:27.000Z</time>
      </trkpt>
      <trkpt lat="46.23708" lon="15.01897">
        <ele>321.355521</ele>
        <time>2026-07-11T08:10:37.000Z</time>
      </trkpt>
      <trkpt lat="46.23701" lon="15.01891">
        <ele>321.384057</ele>
        <time>2026-07-11T08:10:39.000Z</time>
      </trkpt>
      <trkpt lat="46.23679" lon="15.0188">
        <ele>321.463752</ele>
        <time>2026-07-11T08:10:45.000Z</time>
      </trkpt>
      <trkpt lat="46.23654" lon="15.0187">
        <ele>321.553421</ele>
        <time>2026-07-11T08:10:52.000Z</time>
      </trkpt>
      <trkpt lat="46.23632" lon="15.01851">
        <ele>321.643162</ele>
        <time>2026-07-11T08:10:59.000Z</time>
      </trkpt>
      <trkpt lat="46.23611" lon="15.01827">
        <ele>321.73624</ele>
        <time>2026-07-11T08:11:07.000Z</time>
      </trkpt>
      <trkpt lat="46.23595" lon="15.01824">
        <ele>321.789818</ele>
        <time>2026-07-11T08:11:12.000Z</time>
      </trkpt>
      <trkpt lat="46.23571" lon="15.01824">
        <ele>321.872588</ele>
        <time>2026-07-11T08:11:20.000Z</time>
      </trkpt>
      <trkpt lat="46.23554" lon="15.01818">
        <ele>322.175477</ele>
        <time>2026-07-11T08:11:27.000Z</time>
      </trkpt>
      <trkpt lat="46.23535" lon="15.01802">
        <ele>322.634621</ele>
        <time>2026-07-11T08:11:34.000Z</time>
      </trkpt>
      <trkpt lat="46.23514" lon="15.01768">
        <ele>323.293876</ele>
        <time>2026-07-11T08:11:43.000Z</time>
      </trkpt>
      <trkpt lat="46.23495" lon="15.01726">
        <ele>324.010702</ele>
        <time>2026-07-11T08:11:52.000Z</time>
      </trkpt>
      <trkpt lat="46.23476" lon="15.01691">
        <ele>324.654571</ele>
        <time>2026-07-11T08:12:00.000Z</time>
      </trkpt>
      <trkpt lat="46.23468" lon="15.01668">
        <ele>325.040503</ele>
        <time>2026-07-11T08:12:06.000Z</time>
      </trkpt>
      <trkpt lat="46.2347" lon="15.01658">
        <ele>325.183694</ele>
        <time>2026-07-11T08:12:10.000Z</time>
      </trkpt>
      <trkpt lat="46.2347" lon="15.01658">
        <ele>325.183694</ele>
        <time>2026-07-11T08:12:11.000Z</time>
      </trkpt>
      <trkpt lat="46.23467" lon="15.01659">
        <ele>325.238072</ele>
        <time>2026-07-11T08:12:16.000Z</time>
      </trkpt>
      <trkpt lat="46.23466" lon="15.01663">
        <ele>325.306656</ele>
        <time>2026-07-11T08:12:18.000Z</time>
      </trkpt>
      <trkpt lat="46.23465" lon="15.01668">
        <ele>325.374955</ele>
        <time>2026-07-11T08:12:21.000Z</time>
      </trkpt>
      <trkpt lat="46.23468" lon="15.01669">
        <ele>325.427316</ele>
        <time>2026-07-11T08:12:23.000Z</time>
      </trkpt>
      <trkpt lat="46.23469" lon="15.01666">
        <ele>325.472589</ele>
        <time>2026-07-11T08:12:27.000Z</time>
      </trkpt>
      <trkpt lat="46.23468" lon="15.0166">
        <ele>325.562883</ele>
        <time>2026-07-11T08:12:35.000Z</time>
      </trkpt>
      <trkpt lat="46.23469" lon="15.01653">
        <ele>325.682061</ele>
        <time>2026-07-11T08:12:37.000Z</time>
      </trkpt>
      <trkpt lat="46.2347" lon="15.01644">
        <ele>326.024034</ele>
        <time>2026-07-11T08:12:39.000Z</time>
      </trkpt>
      <trkpt lat="46.23472" lon="15.01619">
        <ele>327.037448</ele>
        <time>2026-07-11T08:12:44.000Z</time>
      </trkpt>
      <trkpt lat="46.23473" lon="15.01592">
        <ele>328.080894</ele>
        <time>2026-07-11T08:12:49.000Z</time>
      </trkpt>
      <trkpt lat="46.23473" lon="15.01587">
        <ele>328.274299</ele>
        <time>2026-07-11T08:12:50.000Z</time>
      </trkpt>
      <trkpt lat="46.23472" lon="15.01578">
        <ele>328.657855</ele>
        <time>2026-07-11T08:12:52.000Z</time>
      </trkpt>
      <trkpt lat="46.23469" lon="15.0155">
        <ele>329.734337</ele>
        <time>2026-07-11T08:12:58.000Z</time>
      </trkpt>
      <trkpt lat="46.23461" lon="15.01521">
        <ele>330.980686</ele>
        <time>2026-07-11T08:13:05.000Z</time>
      </trkpt>
      <trkpt lat="46.23459" lon="15.01517">
        <ele>331.156132</ele>
        <time>2026-07-11T08:13:06.000Z</time>
      </trkpt>
      <trkpt lat="46.23447" lon="15.01491">
        <ele>332.395042</ele>
        <time>2026-07-11T08:13:14.000Z</time>
      </trkpt>
      <trkpt lat="46.23439" lon="15.01468">
        <ele>333.415881</ele>
        <time>2026-07-11T08:13:21.000Z</time>
      </trkpt>
      <trkpt lat="46.23425" lon="15.0147">
        <ele>334.205934</ele>
        <time>2026-07-11T08:13:26.000Z</time>
      </trkpt>
      <trkpt lat="46.23418" lon="15.01472">
        <ele>334.641929</ele>
        <time>2026-07-11T08:13:30.000Z</time>
      </trkpt>
      <trkpt lat="46.23417" lon="15.01473">
        <ele>334.726098</ele>
        <time>2026-07-11T08:13:31.000Z</time>
      </trkpt>
      <trkpt lat="46.23417" lon="15.01475">
        <ele>334.802363</ele>
        <time>2026-07-11T08:13:32.000Z</time>
      </trkpt>
      <trkpt lat="46.23421" lon="15.01475">
        <ele>334.990594</ele>
        <time>2026-07-11T08:13:34.000Z</time>
      </trkpt>
      <trkpt lat="46.23429" lon="15.01471">
        <ele>335.469034</ele>
        <time>2026-07-11T08:13:39.000Z</time>
      </trkpt>
      <trkpt lat="46.23429" lon="15.01471">
        <ele>335.486087</ele>
        <time>2026-07-11T08:13:40.000Z</time>
      </trkpt>
      <trkpt lat="46.23429" lon="15.01471">
        <ele>335.486087</ele>
        <time>2026-07-11T08:13:41.000Z</time>
      </trkpt>
      <trkpt lat="46.23433" lon="15.01473">
        <ele>335.713489</ele>
        <time>2026-07-11T08:14:08.000Z</time>
      </trkpt>
      <trkpt lat="46.23434" lon="15.01472">
        <ele>335.804059</ele>
        <time>2026-07-11T08:14:09.000Z</time>
      </trkpt>
      <trkpt lat="46.23434" lon="15.01472">
        <ele>335.827256</ele>
        <time>2026-07-11T08:14:10.000Z</time>
      </trkpt>
      <trkpt lat="46.23435" lon="15.01469">
        <ele>335.904199</ele>
        <time>2026-07-11T08:14:13.000Z</time>
      </trkpt>
      <trkpt lat="46.23436" lon="15.01469">
        <ele>335.909577</ele>
        <time>2026-07-11T08:14:15.000Z</time>
      </trkpt>
      <trkpt lat="46.23441" lon="15.0146">
        <ele>336.040686</ele>
        <time>2026-07-11T08:14:20.000Z</time>
      </trkpt>
      <trkpt lat="46.23435" lon="15.01471">
        <ele>336.199588</ele>
        <time>2026-07-11T08:15:28.000Z</time>
      </trkpt>
      <trkpt lat="46.23436" lon="15.0147">
        <ele>336.224189</ele>
        <time>2026-07-11T08:15:29.000Z</time>
      </trkpt>
      <trkpt lat="46.23439" lon="15.01466">
        <ele>336.287026</ele>
        <time>2026-07-11T08:15:31.000Z</time>
      </trkpt>
      <trkpt lat="46.2344" lon="15.01458">
        <ele>336.368644</ele>
        <time>2026-07-11T08:15:33.000Z</time>
      </trkpt>
      <trkpt lat="46.23439" lon="15.01447">
        <ele>336.497473</ele>
        <time>2026-07-11T08:15:38.000Z</time>
      </trkpt>
      <trkpt lat="46.23439" lon="15.01445">
        <ele>336.511639</ele>
        <time>2026-07-11T08:15:39.000Z</time>
      </trkpt>
      <trkpt lat="46.23436" lon="15.0144">
        <ele>336.588825</ele>
        <time>2026-07-11T08:15:42.000Z</time>
      </trkpt>
      <trkpt lat="46.23433" lon="15.01439">
        <ele>336.634834</ele>
        <time>2026-07-11T08:15:44.000Z</time>
      </trkpt>
      <trkpt lat="46.23431" lon="15.0144">
        <ele>336.675529</ele>
        <time>2026-07-11T08:15:46.000Z</time>
      </trkpt>
      <trkpt lat="46.23431" lon="15.01439">
        <ele>336.686873</ele>
        <time>2026-07-11T08:15:47.000Z</time>
      </trkpt>
      <trkpt lat="46.23432" lon="15.01438">
        <ele>336.704266</ele>
        <time>2026-07-11T08:15:50.000Z</time>
      </trkpt>
      <trkpt lat="46.23439" lon="15.01438">
        <ele>336.8114</ele>
        <time>2026-07-11T08:16:13.000Z</time>
      </trkpt>
      <trkpt lat="46.23441" lon="15.01438">
        <ele>336.83827</ele>
        <time>2026-07-11T08:16:15.000Z</time>
      </trkpt>
      <trkpt lat="46.2344" lon="15.01435">
        <ele>336.872293</ele>
        <time>2026-07-11T08:16:39.000Z</time>
      </trkpt>
      <trkpt lat="46.23438" lon="15.01435">
        <ele>336.897523</ele>
        <time>2026-07-11T08:16:40.000Z</time>
      </trkpt>
      <trkpt lat="46.23436" lon="15.01436">
        <ele>336.936044</ele>
        <time>2026-07-11T08:16:43.000Z</time>
      </trkpt>
      <trkpt lat="46.23438" lon="15.01433">
        <ele>336.979321</ele>
        <time>2026-07-11T08:17:44.000Z</time>
      </trkpt>
      <trkpt lat="46.23439" lon="15.01432">
        <ele>337.006368</ele>
        <time>2026-07-11T08:17:45.000Z</time>
      </trkpt>
      <trkpt lat="46.23441" lon="15.01432">
        <ele>337.03547</ele>
        <time>2026-07-11T08:17:47.000Z</time>
      </trkpt>
      <trkpt lat="46.23443" lon="15.01421">
        <ele>337.152295</ele>
        <time>2026-07-11T08:47:09.000Z</time>
      </trkpt>
      <trkpt lat="46.23442" lon="15.01422">
        <ele>337.171229</ele>
        <time>2026-07-11T08:47:10.000Z</time>
      </trkpt>
      <trkpt lat="46.2344" lon="15.01423">
        <ele>337.202016</ele>
        <time>2026-07-11T08:47:12.000Z</time>
      </trkpt>
      <trkpt lat="46.23439" lon="15.01424">
        <ele>337.22095</ele>
        <time>2026-07-11T08:47:13.000Z</time>
      </trkpt>
      <trkpt lat="46.23438" lon="15.01424">
        <ele>337.239116</ele>
        <time>2026-07-11T08:47:14.000Z</time>
      </trkpt>
      <trkpt lat="46.23435" lon="15.01427">
        <ele>337.293131</ele>
        <time>2026-07-11T08:47:16.000Z</time>
      </trkpt>
      <trkpt lat="46.2343" lon="15.0143">
        <ele>337.377825</ele>
        <time>2026-07-11T08:47:19.000Z</time>
      </trkpt>
      <trkpt lat="46.23429" lon="15.0143">
        <ele>337.391556</ele>
        <time>2026-07-11T08:47:20.000Z</time>
      </trkpt>
      <trkpt lat="46.23429" lon="15.01429">
        <ele>337.398655</ele>
        <time>2026-07-11T08:47:22.000Z</time>
      </trkpt>
      <trkpt lat="46.23437" lon="15.01431">
        <ele>337.525607</ele>
        <time>2026-07-11T08:48:40.000Z</time>
      </trkpt>
      <trkpt lat="46.23439" lon="15.0143">
        <ele>337.554973</ele>
        <time>2026-07-11T08:48:41.000Z</time>
      </trkpt>
      <trkpt lat="46.23444" lon="15.01425">
        <ele>337.662244</ele>
        <time>2026-07-11T08:48:45.000Z</time>
      </trkpt>
      <trkpt lat="46.23445" lon="15.01423">
        <ele>337.678454</ele>
        <time>2026-07-11T08:48:46.000Z</time>
      </trkpt>
      <trkpt lat="46.23446" lon="15.0142">
        <ele>337.724171</ele>
        <time>2026-07-11T08:48:50.000Z</time>
      </trkpt>
      <trkpt lat="46.23445" lon="15.01423">
        <ele>337.773464</ele>
        <time>2026-07-11T08:49:41.000Z</time>
      </trkpt>
      <trkpt lat="46.23444" lon="15.01423">
        <ele>337.785322</ele>
        <time>2026-07-11T08:49:42.000Z</time>
      </trkpt>
      <trkpt lat="46.23435" lon="15.01426">
        <ele>337.928823</ele>
        <time>2026-07-11T08:49:48.000Z</time>
      </trkpt>
      <trkpt lat="46.23432" lon="15.01428">
        <ele>337.974794</ele>
        <time>2026-07-11T08:49:51.000Z</time>
      </trkpt>
      <trkpt lat="46.23432" lon="15.01428">
        <ele>337.97952</ele>
        <time>2026-07-11T08:49:53.000Z</time>
      </trkpt>
      <trkpt lat="46.23432" lon="15.01428">
        <ele>337.97952</ele>
        <time>2026-07-11T08:49:55.000Z</time>
      </trkpt>
      <trkpt lat="46.2344" lon="15.01433">
        <ele>338.115562</ele>
        <time>2026-07-11T08:52:22.000Z</time>
      </trkpt>
      <trkpt lat="46.23439" lon="15.01434">
        <ele>338.133567</ele>
        <time>2026-07-11T08:52:23.000Z</time>
      </trkpt>
      <trkpt lat="46.23438" lon="15.01435">
        <ele>338.151729</ele>
        <time>2026-07-11T08:52:24.000Z</time>
      </trkpt>
      <trkpt lat="46.23438" lon="15.01437">
        <ele>338.174231</ele>
        <time>2026-07-11T08:52:25.000Z</time>
      </trkpt>
      <trkpt lat="46.23436" lon="15.01446">
        <ele>338.275494</ele>
        <time>2026-07-11T08:52:30.000Z</time>
      </trkpt>
      <trkpt lat="46.23437" lon="15.01452">
        <ele>338.350196</ele>
        <time>2026-07-11T08:52:33.000Z</time>
      </trkpt>
      <trkpt lat="46.2344" lon="15.0146">
        <ele>338.448084</ele>
        <time>2026-07-11T08:52:36.000Z</time>
      </trkpt>
      <trkpt lat="46.23442" lon="15.01462">
        <ele>338.49094</ele>
        <time>2026-07-11T08:52:37.000Z</time>
      </trkpt>
      <trkpt lat="46.23443" lon="15.01464">
        <ele>338.512454</ele>
        <time>2026-07-11T08:52:38.000Z</time>
      </trkpt>
      <trkpt lat="46.23455" lon="15.01462">
        <ele>338.707706</ele>
        <time>2026-07-11T08:52:43.000Z</time>
      </trkpt>
      <trkpt lat="46.23458" lon="15.0146">
        <ele>338.579579</ele>
        <time>2026-07-11T08:52:44.000Z</time>
      </trkpt>
      <trkpt lat="46.23465" lon="15.01458">
        <ele>338.230492</ele>
        <time>2026-07-11T08:52:46.000Z</time>
      </trkpt>
      <trkpt lat="46.23472" lon="15.01456">
        <ele>337.909782</ele>
        <time>2026-07-11T08:52:48.000Z</time>
      </trkpt>
      <trkpt lat="46.23493" lon="15.01451">
        <ele>336.845625</ele>
        <time>2026-07-11T08:52:54.000Z</time>
      </trkpt>
      <trkpt lat="46.23517" lon="15.01446">
        <ele>335.607949</ele>
        <time>2026-07-11T08:53:01.000Z</time>
      </trkpt>
      <trkpt lat="46.23552" lon="15.01436">
        <ele>333.847926</ele>
        <time>2026-07-11T08:53:10.000Z</time>
      </trkpt>
      <trkpt lat="46.23571" lon="15.01429">
        <ele>332.908341</ele>
        <time>2026-07-11T08:53:15.000Z</time>
      </trkpt>
      <trkpt lat="46.23585" lon="15.01423">
        <ele>332.168638</ele>
        <time>2026-07-11T08:53:19.000Z</time>
      </trkpt>
      <trkpt lat="46.23617" lon="15.01418">
        <ele>330.54958</ele>
        <time>2026-07-11T08:53:27.000Z</time>
      </trkpt>
      <trkpt lat="46.23638" lon="15.01421">
        <ele>329.553803</ele>
        <time>2026-07-11T08:53:32.000Z</time>
      </trkpt>
      <trkpt lat="46.2365" lon="15.01425">
        <ele>329.039753</ele>
        <time>2026-07-11T08:53:35.000Z</time>
      </trkpt>
      <trkpt lat="46.23675" lon="15.01439">
        <ele>327.966583</ele>
        <time>2026-07-11T08:53:41.000Z</time>
      </trkpt>
      <trkpt lat="46.23683" lon="15.01443">
        <ele>327.615908</ele>
        <time>2026-07-11T08:53:43.000Z</time>
      </trkpt>
      <trkpt lat="46.23688" lon="15.01443">
        <ele>327.430764</ele>
        <time>2026-07-11T08:53:44.000Z</time>
      </trkpt>
      <trkpt lat="46.23692" lon="15.01443">
        <ele>327.254574</ele>
        <time>2026-07-11T08:53:45.000Z</time>
      </trkpt>
      <trkpt lat="46.23709" lon="15.0144">
        <ele>326.560344</ele>
        <time>2026-07-11T08:53:49.000Z</time>
      </trkpt>
      <trkpt lat="46.23713" lon="15.01438">
        <ele>326.371504</ele>
        <time>2026-07-11T08:53:50.000Z</time>
      </trkpt>
      <trkpt lat="46.23751" lon="15.01408">
        <ele>324.620207</ele>
        <time>2026-07-11T08:53:59.000Z</time>
      </trkpt>
      <trkpt lat="46.23754" lon="15.01405">
        <ele>324.455516</ele>
        <time>2026-07-11T08:54:00.000Z</time>
      </trkpt>
      <trkpt lat="46.23764" lon="15.01392">
        <ele>323.904574</ele>
        <time>2026-07-11T08:54:03.000Z</time>
      </trkpt>
      <trkpt lat="46.23798" lon="15.01357">
        <ele>322.290753</ele>
        <time>2026-07-11T08:54:12.000Z</time>
      </trkpt>
      <trkpt lat="46.23832" lon="15.01323">
        <ele>321.238098</ele>
        <time>2026-07-11T08:54:21.000Z</time>
      </trkpt>
      <trkpt lat="46.23863" lon="15.01295">
        <ele>320.331045</ele>
        <time>2026-07-11T08:54:29.000Z</time>
      </trkpt>
      <trkpt lat="46.2387" lon="15.01289">
        <ele>320.110096</ele>
        <time>2026-07-11T08:54:33.000Z</time>
      </trkpt>
      <trkpt lat="46.23883" lon="15.01273">
        <ele>319.686563</ele>
        <time>2026-07-11T08:54:38.000Z</time>
      </trkpt>
      <trkpt lat="46.23902" lon="15.01254">
        <ele>319.110402</ele>
        <time>2026-07-11T08:54:42.000Z</time>
      </trkpt>
      <trkpt lat="46.23931" lon="15.01229">
        <ele>318.261118</ele>
        <time>2026-07-11T08:54:46.000Z</time>
      </trkpt>
      <trkpt lat="46.23972" lon="15.01194">
        <ele>316.725633</ele>
        <time>2026-07-11T08:54:51.000Z</time>
      </trkpt>
      <trkpt lat="46.23988" lon="15.0118">
        <ele>316.094608</ele>
        <time>2026-07-11T08:54:53.000Z</time>
      </trkpt>
      <trkpt lat="46.24037" lon="15.01138">
        <ele>314.101648</ele>
        <time>2026-07-11T08:55:00.000Z</time>
      </trkpt>
      <trkpt lat="46.24075" lon="15.01108">
        <ele>312.581344</ele>
        <time>2026-07-11T08:55:06.000Z</time>
      </trkpt>
      <trkpt lat="46.24122" lon="15.01064">
        <ele>310.766839</ele>
        <time>2026-07-11T08:55:14.000Z</time>
      </trkpt>
      <trkpt lat="46.24171" lon="15.01021">
        <ele>309.01121</ele>
        <time>2026-07-11T08:55:22.000Z</time>
      </trkpt>
      <trkpt lat="46.24177" lon="15.01016">
        <ele>308.792616</ele>
        <time>2026-07-11T08:55:23.000Z</time>
      </trkpt>
      <trkpt lat="46.24188" lon="15.01006">
        <ele>308.388146</ele>
        <time>2026-07-11T08:55:25.000Z</time>
      </trkpt>
      <trkpt lat="46.24194" lon="15.01">
        <ele>308.183755</ele>
        <time>2026-07-11T08:55:26.000Z</time>
      </trkpt>
      <trkpt lat="46.24203" lon="15.00985">
        <ele>307.758887</ele>
        <time>2026-07-11T08:55:28.000Z</time>
      </trkpt>
      <trkpt lat="46.24214" lon="15.00948">
        <ele>306.907016</ele>
        <time>2026-07-11T08:55:32.000Z</time>
      </trkpt>
      <trkpt lat="46.24221" lon="15.00877">
        <ele>305.834107</ele>
        <time>2026-07-11T08:55:39.000Z</time>
      </trkpt>
      <trkpt lat="46.2422" lon="15.00857">
        <ele>305.659311</ele>
        <time>2026-07-11T08:55:41.000Z</time>
      </trkpt>
      <trkpt lat="46.24216" lon="15.00828">
        <ele>305.406053</ele>
        <time>2026-07-11T08:55:44.000Z</time>
      </trkpt>
      <trkpt lat="46.24209" lon="15.00788">
        <ele>305.051994</ele>
        <time>2026-07-11T08:55:49.000Z</time>
      </trkpt>
      <trkpt lat="46.24206" lon="15.00757">
        <ele>304.780913</ele>
        <time>2026-07-11T08:55:54.000Z</time>
      </trkpt>
      <trkpt lat="46.24204" lon="15.00733">
        <ele>304.572055</ele>
        <time>2026-07-11T08:55:58.000Z</time>
      </trkpt>
      <trkpt lat="46.24204" lon="15.00713">
        <ele>304.404723</ele>
        <time>2026-07-11T08:56:01.000Z</time>
      </trkpt>
      <trkpt lat="46.24204" lon="15.00701">
        <ele>304.296063</ele>
        <time>2026-07-11T08:56:03.000Z</time>
      </trkpt>
      <trkpt lat="46.24203" lon="15.00662">
        <ele>303.962073</ele>
        <time>2026-07-11T08:56:09.000Z</time>
      </trkpt>
      <trkpt lat="46.24205" lon="15.00639">
        <ele>303.881676</ele>
        <time>2026-07-11T08:56:12.000Z</time>
      </trkpt>
      <trkpt lat="46.24213" lon="15.00585">
        <ele>303.82864</ele>
        <time>2026-07-11T08:56:19.000Z</time>
      </trkpt>
      <trkpt lat="46.24218" lon="15.0054">
        <ele>303.784904</ele>
        <time>2026-07-11T08:56:26.000Z</time>
      </trkpt>
      <trkpt lat="46.24219" lon="15.00502">
        <ele>303.749486</ele>
        <time>2026-07-11T08:56:32.000Z</time>
      </trkpt>
      <trkpt lat="46.24219" lon="15.00496">
        <ele>303.743477</ele>
        <time>2026-07-11T08:56:33.000Z</time>
      </trkpt>
      <trkpt lat="46.24214" lon="15.00461">
        <ele>303.709178</ele>
        <time>2026-07-11T08:56:39.000Z</time>
      </trkpt>
      <trkpt lat="46.24212" lon="15.00455">
        <ele>303.703328</ele>
        <time>2026-07-11T08:56:40.000Z</time>
      </trkpt>
      <trkpt lat="46.24207" lon="15.00439">
        <ele>303.686643</ele>
        <time>2026-07-11T08:56:43.000Z</time>
      </trkpt>
      <trkpt lat="46.24205" lon="15.00428">
        <ele>303.675626</ele>
        <time>2026-07-11T08:56:45.000Z</time>
      </trkpt>
      <trkpt lat="46.24205" lon="15.00422">
        <ele>303.6701</ele>
        <time>2026-07-11T08:56:46.000Z</time>
      </trkpt>
      <trkpt lat="46.24206" lon="15.00416">
        <ele>303.66452</ele>
        <time>2026-07-11T08:56:47.000Z</time>
      </trkpt>
      <trkpt lat="46.24208" lon="15.004">
        <ele>303.649301</ele>
        <time>2026-07-11T08:56:50.000Z</time>
      </trkpt>
      <trkpt lat="46.24212" lon="15.00386">
        <ele>303.883487</ele>
        <time>2026-07-11T08:56:53.000Z</time>
      </trkpt>
      <trkpt lat="46.24216" lon="15.0036">
        <ele>304.283479</ele>
        <time>2026-07-11T08:56:59.000Z</time>
      </trkpt>
      <trkpt lat="46.24215" lon="15.00342">
        <ele>304.557084</ele>
        <time>2026-07-11T08:57:04.000Z</time>
      </trkpt>
      <trkpt lat="46.24205" lon="15.00322">
        <ele>304.936971</ele>
        <time>2026-07-11T08:57:10.000Z</time>
      </trkpt>
      <trkpt lat="46.24187" lon="15.00302">
        <ele>305.428858</ele>
        <time>2026-07-11T08:57:17.000Z</time>
      </trkpt>
      <trkpt lat="46.24181" lon="15.00297">
        <ele>305.569596</ele>
        <time>2026-07-11T08:57:19.000Z</time>
      </trkpt>
      <trkpt lat="46.24163" lon="15.00282">
        <ele>306.032418</ele>
        <time>2026-07-11T08:57:26.000Z</time>
      </trkpt>
      <trkpt lat="46.24159" lon="15.00277">
        <ele>306.133755</ele>
        <time>2026-07-11T08:57:30.000Z</time>
      </trkpt>
      <trkpt lat="46.24159" lon="15.00277">
        <ele>306.133755</ele>
        <time>2026-07-11T08:57:31.000Z</time>
      </trkpt>
      <trkpt lat="46.24166" lon="15.00274">
        <ele>306.282186</ele>
        <time>2026-07-11T08:57:58.000Z</time>
      </trkpt>
      <trkpt lat="46.24169" lon="15.00275">
        <ele>306.340891</ele>
        <time>2026-07-11T08:58:00.000Z</time>
      </trkpt>
      <trkpt lat="46.24173" lon="15.00275">
        <ele>306.435696</ele>
        <time>2026-07-11T08:58:03.000Z</time>
      </trkpt>
      <trkpt lat="46.24175" lon="15.00275">
        <ele>306.481915</ele>
        <time>2026-07-11T08:58:05.000Z</time>
      </trkpt>
      <trkpt lat="46.24176" lon="15.00276">
        <ele>306.507568</ele>
        <time>2026-07-11T08:58:06.000Z</time>
      </trkpt>
      <trkpt lat="46.24178" lon="15.00276">
        <ele>306.557457</ele>
        <time>2026-07-11T08:58:08.000Z</time>
      </trkpt>
      <trkpt lat="46.24181" lon="15.00278">
        <ele>306.620769</ele>
        <time>2026-07-11T08:58:11.000Z</time>
      </trkpt>
      <trkpt lat="46.24182" lon="15.00278">
        <ele>306.642641</ele>
        <time>2026-07-11T08:58:13.000Z</time>
      </trkpt>
      <trkpt lat="46.24177" lon="15.00277">
        <ele>306.754292</ele>
        <time>2026-07-11T08:58:49.000Z</time>
      </trkpt>
      <trkpt lat="46.24176" lon="15.00277">
        <ele>306.773989</ele>
        <time>2026-07-11T08:58:50.000Z</time>
      </trkpt>
      <trkpt lat="46.24175" lon="15.00277">
        <ele>306.795861</ele>
        <time>2026-07-11T08:58:51.000Z</time>
      </trkpt>
      <trkpt lat="46.24171" lon="15.00276">
        <ele>306.886834</ele>
        <time>2026-07-11T08:58:54.000Z</time>
      </trkpt>
      <trkpt lat="46.24169" lon="15.00276">
        <ele>306.928403</ele>
        <time>2026-07-11T08:58:55.000Z</time>
      </trkpt>
      <trkpt lat="46.24161" lon="15.00273">
        <ele>307.11952</ele>
        <time>2026-07-11T08:59:02.000Z</time>
      </trkpt>
      <trkpt lat="46.2416" lon="15.00273">
        <ele>307.128248</ele>
        <time>2026-07-11T08:59:03.000Z</time>
      </trkpt>
      <trkpt lat="46.24155" lon="15.00271">
        <ele>307.242669</ele>
        <time>2026-07-11T09:03:40.000Z</time>
      </trkpt>
      <trkpt lat="46.24154" lon="15.00269">
        <ele>307.279913</ele>
        <time>2026-07-11T09:03:41.000Z</time>
      </trkpt>
      <trkpt lat="46.24153" lon="15.00267">
        <ele>307.315944</ele>
        <time>2026-07-11T09:03:42.000Z</time>
      </trkpt>
      <trkpt lat="46.24148" lon="15.0025">
        <ele>307.581677</ele>
        <time>2026-07-11T09:03:48.000Z</time>
      </trkpt>
      <trkpt lat="46.24146" lon="15.00238">
        <ele>307.693381</ele>
        <time>2026-07-11T09:03:51.000Z</time>
      </trkpt>
      <trkpt lat="46.24142" lon="15.0022">
        <ele>307.860896</ele>
        <time>2026-07-11T09:03:55.000Z</time>
      </trkpt>
      <trkpt lat="46.24143" lon="15.00196">
        <ele>308.07528</ele>
        <time>2026-07-11T09:04:00.000Z</time>
      </trkpt>
      <trkpt lat="46.24144" lon="15.00191">
        <ele>308.121028</ele>
        <time>2026-07-11T09:04:01.000Z</time>
      </trkpt>
      <trkpt lat="46.24146" lon="15.00172">
        <ele>308.298672</ele>
        <time>2026-07-11T09:04:05.000Z</time>
      </trkpt>
      <trkpt lat="46.24149" lon="15.00152">
        <ele>308.477841</ele>
        <time>2026-07-11T09:04:09.000Z</time>
      </trkpt>
      <trkpt lat="46.2415" lon="15.00132">
        <ele>308.651598</ele>
        <time>2026-07-11T09:04:13.000Z</time>
      </trkpt>
      <trkpt lat="46.2415" lon="15.00118">
        <ele>308.784909</ele>
        <time>2026-07-11T09:04:16.000Z</time>
      </trkpt>
      <trkpt lat="46.24144" lon="15.00088">
        <ele>309.0569</ele>
        <time>2026-07-11T09:04:22.000Z</time>
      </trkpt>
      <trkpt lat="46.24139" lon="15.00056">
        <ele>309.349066</ele>
        <time>2026-07-11T09:04:28.000Z</time>
      </trkpt>
      <trkpt lat="46.24138" lon="15.00045">
        <ele>309.445637</ele>
        <time>2026-07-11T09:04:30.000Z</time>
      </trkpt>
      <trkpt lat="46.24138" lon="15.00009">
        <ele>309.768357</ele>
        <time>2026-07-11T09:04:38.000Z</time>
      </trkpt>
      <trkpt lat="46.24137" lon="15.00001">
        <ele>309.842437</ele>
        <time>2026-07-11T09:04:40.000Z</time>
      </trkpt>
      <trkpt lat="46.24139" lon="14.9998">
        <ele>310.248274</ele>
        <time>2026-07-11T09:04:45.000Z</time>
      </trkpt>
      <trkpt lat="46.24142" lon="14.99951">
        <ele>310.918177</ele>
        <time>2026-07-11T09:04:52.000Z</time>
      </trkpt>
      <trkpt lat="46.24144" lon="14.99938">
        <ele>311.220615</ele>
        <time>2026-07-11T09:04:55.000Z</time>
      </trkpt>
      <trkpt lat="46.24147" lon="14.99919">
        <ele>311.654101</ele>
        <time>2026-07-11T09:04:59.000Z</time>
      </trkpt>
      <trkpt lat="46.24155" lon="14.99873">
        <ele>312.739088</ele>
        <time>2026-07-11T09:05:08.000Z</time>
      </trkpt>
      <trkpt lat="46.2416" lon="14.99842">
        <ele>313.456265</ele>
        <time>2026-07-11T09:05:14.000Z</time>
      </trkpt>
      <trkpt lat="46.24161" lon="14.99837">
        <ele>313.571528</ele>
        <time>2026-07-11T09:05:15.000Z</time>
      </trkpt>
      <trkpt lat="46.24162" lon="14.99832">
        <ele>313.697812</ele>
        <time>2026-07-11T09:05:16.000Z</time>
      </trkpt>
      <trkpt lat="46.24163" lon="14.9979">
        <ele>314.662876</ele>
        <time>2026-07-11T09:05:24.000Z</time>
      </trkpt>
      <trkpt lat="46.2416" lon="14.99768">
        <ele>315.159863</ele>
        <time>2026-07-11T09:05:28.000Z</time>
      </trkpt>
      <trkpt lat="46.24157" lon="14.99747">
        <ele>315.653414</ele>
        <time>2026-07-11T09:05:32.000Z</time>
      </trkpt>
      <trkpt lat="46.24154" lon="14.99712">
        <ele>315.819426</ele>
        <time>2026-07-11T09:05:39.000Z</time>
      </trkpt>
      <trkpt lat="46.24154" lon="14.99707">
        <ele>315.822328</ele>
        <time>2026-07-11T09:05:40.000Z</time>
      </trkpt>
      <trkpt lat="46.24158" lon="14.9967">
        <ele>315.842523</ele>
        <time>2026-07-11T09:05:47.000Z</time>
      </trkpt>
      <trkpt lat="46.24161" lon="14.99626">
        <ele>315.866674</ele>
        <time>2026-07-11T09:05:55.000Z</time>
      </trkpt>
      <trkpt lat="46.24161" lon="14.99586">
        <ele>315.888557</ele>
        <time>2026-07-11T09:06:02.000Z</time>
      </trkpt>
      <trkpt lat="46.24155" lon="14.99551">
        <ele>315.908444</ele>
        <time>2026-07-11T09:06:09.000Z</time>
      </trkpt>
      <trkpt lat="46.24155" lon="14.99546">
        <ele>315.910877</ele>
        <time>2026-07-11T09:06:10.000Z</time>
      </trkpt>
      <trkpt lat="46.24154" lon="14.99542">
        <ele>315.913378</ele>
        <time>2026-07-11T09:06:11.000Z</time>
      </trkpt>
      <trkpt lat="46.24146" lon="14.9951">
        <ele>315.931738</ele>
        <time>2026-07-11T09:06:18.000Z</time>
      </trkpt>
      <trkpt lat="46.24144" lon="14.99474">
        <ele>315.945168</ele>
        <time>2026-07-11T09:06:25.000Z</time>
      </trkpt>
      <trkpt lat="46.24146" lon="14.99447">
        <ele>315.943158</ele>
        <time>2026-07-11T09:06:30.000Z</time>
      </trkpt>
      <trkpt lat="46.24147" lon="14.99427">
        <ele>315.941677</ele>
        <time>2026-07-11T09:06:33.000Z</time>
      </trkpt>
      <trkpt lat="46.24151" lon="14.99404">
        <ele>315.939945</ele>
        <time>2026-07-11T09:06:36.000Z</time>
      </trkpt>
      <trkpt lat="46.24156" lon="14.9939">
        <ele>315.938744</ele>
        <time>2026-07-11T09:06:38.000Z</time>
      </trkpt>
      <trkpt lat="46.24162" lon="14.99378">
        <ele>315.937639</ele>
        <time>2026-07-11T09:06:40.000Z</time>
      </trkpt>
      <trkpt lat="46.24168" lon="14.99367">
        <ele>315.936626</ele>
        <time>2026-07-11T09:06:42.000Z</time>
      </trkpt>
      <trkpt lat="46.24172" lon="14.99362">
        <ele>315.936085</ele>
        <time>2026-07-11T09:06:43.000Z</time>
      </trkpt>
      <trkpt lat="46.24175" lon="14.99358">
        <ele>315.935575</ele>
        <time>2026-07-11T09:06:44.000Z</time>
      </trkpt>
      <trkpt lat="46.24179" lon="14.99353">
        <ele>315.935062</ele>
        <time>2026-07-11T09:06:45.000Z</time>
      </trkpt>
      <trkpt lat="46.24188" lon="14.9934">
        <ele>315.93367</ele>
        <time>2026-07-11T09:06:48.000Z</time>
      </trkpt>
      <trkpt lat="46.24203" lon="14.99319">
        <ele>315.931452</ele>
        <time>2026-07-11T09:06:53.000Z</time>
      </trkpt>
      <trkpt lat="46.24206" lon="14.99315">
        <ele>315.931007</ele>
        <time>2026-07-11T09:06:54.000Z</time>
      </trkpt>
      <trkpt lat="46.24225" lon="14.99295">
        <ele>315.928471</ele>
        <time>2026-07-11T09:07:00.000Z</time>
      </trkpt>
      <trkpt lat="46.24236" lon="14.99287">
        <ele>315.927143</ele>
        <time>2026-07-11T09:07:03.000Z</time>
      </trkpt>
      <trkpt lat="46.24239" lon="14.99283">
        <ele>315.926677</ele>
        <time>2026-07-11T09:07:04.000Z</time>
      </trkpt>
      <trkpt lat="46.24246" lon="14.99275">
        <ele>316.01359</ele>
        <time>2026-07-11T09:07:06.000Z</time>
      </trkpt>
      <trkpt lat="46.24266" lon="14.99234">
        <ele>316.370562</ele>
        <time>2026-07-11T09:07:14.000Z</time>
      </trkpt>
      <trkpt lat="46.24273" lon="14.99209">
        <ele>316.56829</ele>
        <time>2026-07-11T09:07:19.000Z</time>
      </trkpt>
      <trkpt lat="46.24277" lon="14.99196">
        <ele>316.667861</ele>
        <time>2026-07-11T09:07:22.000Z</time>
      </trkpt>
      <trkpt lat="46.24282" lon="14.9917">
        <ele>316.864222</ele>
        <time>2026-07-11T09:07:28.000Z</time>
      </trkpt>
      <trkpt lat="46.2429" lon="14.99135">
        <ele>317.125917</ele>
        <time>2026-07-11T09:07:36.000Z</time>
      </trkpt>
      <trkpt lat="46.24295" lon="14.99093">
        <ele>317.434679</ele>
        <time>2026-07-11T09:07:45.000Z</time>
      </trkpt>
      <trkpt lat="46.24298" lon="14.99074">
        <ele>317.574972</ele>
        <time>2026-07-11T09:07:49.000Z</time>
      </trkpt>
      <trkpt lat="46.24301" lon="14.9906">
        <ele>317.682179</ele>
        <time>2026-07-11T09:07:52.000Z</time>
      </trkpt>
      <trkpt lat="46.24303" lon="14.9905">
        <ele>317.755038</ele>
        <time>2026-07-11T09:07:54.000Z</time>
      </trkpt>
      <trkpt lat="46.24303" lon="14.9904">
        <ele>317.81971</ele>
        <time>2026-07-11T09:07:56.000Z</time>
      </trkpt>
      <trkpt lat="46.24306" lon="14.9903">
        <ele>317.88196</ele>
        <time>2026-07-11T09:07:58.000Z</time>
      </trkpt>
      <trkpt lat="46.24309" lon="14.9902">
        <ele>317.947264</ele>
        <time>2026-07-11T09:08:00.000Z</time>
      </trkpt>
      <trkpt lat="46.24311" lon="14.9901">
        <ele>318.00895</ele>
        <time>2026-07-11T09:08:02.000Z</time>
      </trkpt>
      <trkpt lat="46.24317" lon="14.98985">
        <ele>318.165895</ele>
        <time>2026-07-11T09:08:07.000Z</time>
      </trkpt>
      <trkpt lat="46.2432" lon="14.9897">
        <ele>318.259943</ele>
        <time>2026-07-11T09:08:10.000Z</time>
      </trkpt>
      <trkpt lat="46.24323" lon="14.9896">
        <ele>318.32245</ele>
        <time>2026-07-11T09:08:12.000Z</time>
      </trkpt>
      <trkpt lat="46.24324" lon="14.98955">
        <ele>318.353292</ele>
        <time>2026-07-11T09:08:13.000Z</time>
      </trkpt>
      <trkpt lat="46.24324" lon="14.9895">
        <ele>318.383123</ele>
        <time>2026-07-11T09:08:14.000Z</time>
      </trkpt>
      <trkpt lat="46.24325" lon="14.98945">
        <ele>318.411385</ele>
        <time>2026-07-11T09:08:15.000Z</time>
      </trkpt>
      <trkpt lat="46.24327" lon="14.98936">
        <ele>318.468337</ele>
        <time>2026-07-11T09:08:17.000Z</time>
      </trkpt>
      <trkpt lat="46.24328" lon="14.98931">
        <ele>318.49545</ele>
        <time>2026-07-11T09:08:18.000Z</time>
      </trkpt>
      <trkpt lat="46.24331" lon="14.98917">
        <ele>318.581606</ele>
        <time>2026-07-11T09:08:21.000Z</time>
      </trkpt>
      <trkpt lat="46.24336" lon="14.98892">
        <ele>318.735066</ele>
        <time>2026-07-11T09:08:26.000Z</time>
      </trkpt>
      <trkpt lat="46.24342" lon="14.98862">
        <ele>318.921135</ele>
        <time>2026-07-11T09:08:32.000Z</time>
      </trkpt>
      <trkpt lat="46.24346" lon="14.98841">
        <ele>319.045893</ele>
        <time>2026-07-11T09:08:36.000Z</time>
      </trkpt>
      <trkpt lat="46.24348" lon="14.98831">
        <ele>319.11048</ele>
        <time>2026-07-11T09:08:38.000Z</time>
      </trkpt>
      <trkpt lat="46.2435" lon="14.9882">
        <ele>319.178921</ele>
        <time>2026-07-11T09:08:40.000Z</time>
      </trkpt>
      <trkpt lat="46.24358" lon="14.9878">
        <ele>319.279192</ele>
        <time>2026-07-11T09:08:47.000Z</time>
      </trkpt>
      <trkpt lat="46.24363" lon="14.9877">
        <ele>319.246954</ele>
        <time>2026-07-11T09:08:49.000Z</time>
      </trkpt>
      <trkpt lat="46.24369" lon="14.98762">
        <ele>319.214227</ele>
        <time>2026-07-11T09:08:51.000Z</time>
      </trkpt>
      <trkpt lat="46.24381" lon="14.98753">
        <ele>319.162583</ele>
        <time>2026-07-11T09:08:54.000Z</time>
      </trkpt>
      <trkpt lat="46.24415" lon="14.98737">
        <ele>319.022255</ele>
        <time>2026-07-11T09:09:02.000Z</time>
      </trkpt>
      <trkpt lat="46.24425" lon="14.98725">
        <ele>318.972987</ele>
        <time>2026-07-11T09:09:05.000Z</time>
      </trkpt>
      <trkpt lat="46.24428" lon="14.98721">
        <ele>318.957491</ele>
        <time>2026-07-11T09:09:06.000Z</time>
      </trkpt>
      <trkpt lat="46.2443" lon="14.98716">
        <ele>318.941592</ele>
        <time>2026-07-11T09:09:07.000Z</time>
      </trkpt>
      <trkpt lat="46.24438" lon="14.98688">
        <ele>318.861744</ele>
        <time>2026-07-11T09:09:12.000Z</time>
      </trkpt>
      <trkpt lat="46.2444" lon="14.98683">
        <ele>318.845892</ele>
        <time>2026-07-11T09:09:13.000Z</time>
      </trkpt>
      <trkpt lat="46.24442" lon="14.98678">
        <ele>318.830152</ele>
        <time>2026-07-11T09:09:14.000Z</time>
      </trkpt>
      <trkpt lat="46.24456" lon="14.98645">
        <ele>318.724279</ele>
        <time>2026-07-11T09:09:21.000Z</time>
      </trkpt>
      <trkpt lat="46.24474" lon="14.98604">
        <ele>318.68179</ele>
        <time>2026-07-11T09:09:29.000Z</time>
      </trkpt>
      <trkpt lat="46.24476" lon="14.98598">
        <ele>318.71174</ele>
        <time>2026-07-11T09:09:30.000Z</time>
      </trkpt>
      <trkpt lat="46.24485" lon="14.98576">
        <ele>318.835999</ele>
        <time>2026-07-11T09:09:34.000Z</time>
      </trkpt>
      <trkpt lat="46.24492" lon="14.98552">
        <ele>318.966522</ele>
        <time>2026-07-11T09:09:38.000Z</time>
      </trkpt>
      <trkpt lat="46.24493" lon="14.98521">
        <ele>319.118401</ele>
        <time>2026-07-11T09:09:43.000Z</time>
      </trkpt>
      <trkpt lat="46.24493" lon="14.98515">
        <ele>319.148311</ele>
        <time>2026-07-11T09:09:44.000Z</time>
      </trkpt>
      <trkpt lat="46.24493" lon="14.98496">
        <ele>319.240991</ele>
        <time>2026-07-11T09:09:47.000Z</time>
      </trkpt>
      <trkpt lat="46.24493" lon="14.98483">
        <ele>319.304277</ele>
        <time>2026-07-11T09:09:49.000Z</time>
      </trkpt>
      <trkpt lat="46.24493" lon="14.9847">
        <ele>319.368053</ele>
        <time>2026-07-11T09:09:51.000Z</time>
      </trkpt>
      <trkpt lat="46.24491" lon="14.98445">
        <ele>319.492837</ele>
        <time>2026-07-11T09:09:55.000Z</time>
      </trkpt>
      <trkpt lat="46.24491" lon="14.98438">
        <ele>319.527649</ele>
        <time>2026-07-11T09:09:56.000Z</time>
      </trkpt>
      <trkpt lat="46.2449" lon="14.9842">
        <ele>319.617031</ele>
        <time>2026-07-11T09:09:59.000Z</time>
      </trkpt>
      <trkpt lat="46.24493" lon="14.98372">
        <ele>319.850286</ele>
        <time>2026-07-11T09:10:06.000Z</time>
      </trkpt>
      <trkpt lat="46.24494" lon="14.98366">
        <ele>319.881816</ele>
        <time>2026-07-11T09:10:07.000Z</time>
      </trkpt>
      <trkpt lat="46.24506" lon="14.98316">
        <ele>320.27327</ele>
        <time>2026-07-11T09:10:15.000Z</time>
      </trkpt>
      <trkpt lat="46.24516" lon="14.98268">
        <ele>320.65327</ele>
        <time>2026-07-11T09:10:23.000Z</time>
      </trkpt>
      <trkpt lat="46.24523" lon="14.98216">
        <ele>321.056248</ele>
        <time>2026-07-11T09:10:31.000Z</time>
      </trkpt>
      <trkpt lat="46.24523" lon="14.9821">
        <ele>321.103501</ele>
        <time>2026-07-11T09:10:32.000Z</time>
      </trkpt>
      <trkpt lat="46.2452" lon="14.98198">
        <ele>321.19964</ele>
        <time>2026-07-11T09:10:34.000Z</time>
      </trkpt>
      <trkpt lat="46.24517" lon="14.98187">
        <ele>321.289236</ele>
        <time>2026-07-11T09:10:36.000Z</time>
      </trkpt>
      <trkpt lat="46.24513" lon="14.98182">
        <ele>321.340475</ele>
        <time>2026-07-11T09:10:37.000Z</time>
      </trkpt>
      <trkpt lat="46.24497" lon="14.98146">
        <ele>321.667105</ele>
        <time>2026-07-11T09:10:44.000Z</time>
      </trkpt>
      <trkpt lat="46.24495" lon="14.98135">
        <ele>321.756936</ele>
        <time>2026-07-11T09:10:46.000Z</time>
      </trkpt>
      <trkpt lat="46.24492" lon="14.98117">
        <ele>321.876027</ele>
        <time>2026-07-11T09:10:49.000Z</time>
      </trkpt>
      <trkpt lat="46.24491" lon="14.98111">
        <ele>321.870568</ele>
        <time>2026-07-11T09:10:50.000Z</time>
      </trkpt>
      <trkpt lat="46.24492" lon="14.98104">
        <ele>321.865085</ele>
        <time>2026-07-11T09:10:51.000Z</time>
      </trkpt>
      <trkpt lat="46.24496" lon="14.98093">
        <ele>321.853817</ele>
        <time>2026-07-11T09:10:53.000Z</time>
      </trkpt>
      <trkpt lat="46.24498" lon="14.98088">
        <ele>321.84806</ele>
        <time>2026-07-11T09:10:54.000Z</time>
      </trkpt>
      <trkpt lat="46.24502" lon="14.98084">
        <ele>321.842197</ele>
        <time>2026-07-11T09:10:55.000Z</time>
      </trkpt>
      <trkpt lat="46.24511" lon="14.98082">
        <ele>321.831051</ele>
        <time>2026-07-11T09:10:57.000Z</time>
      </trkpt>
      <trkpt lat="46.24519" lon="14.98085">
        <ele>321.819905</ele>
        <time>2026-07-11T09:10:59.000Z</time>
      </trkpt>
      <trkpt lat="46.24533" lon="14.9809">
        <ele>321.802087</ele>
        <time>2026-07-11T09:11:02.000Z</time>
      </trkpt>
      <trkpt lat="46.24551" lon="14.98088">
        <ele>321.778547</ele>
        <time>2026-07-11T09:11:06.000Z</time>
      </trkpt>
      <trkpt lat="46.24564" lon="14.98085">
        <ele>321.761399</ele>
        <time>2026-07-11T09:11:09.000Z</time>
      </trkpt>
      <trkpt lat="46.24598" lon="14.98065">
        <ele>321.71416</ele>
        <time>2026-07-11T09:11:17.000Z</time>
      </trkpt>
      <trkpt lat="46.24611" lon="14.98054">
        <ele>321.694047</ele>
        <time>2026-07-11T09:11:20.000Z</time>
      </trkpt>
      <trkpt lat="46.24619" lon="14.98045">
        <ele>321.681693</ele>
        <time>2026-07-11T09:11:22.000Z</time>
      </trkpt>
      <trkpt lat="46.24625" lon="14.98031">
        <ele>321.666778</ele>
        <time>2026-07-11T09:11:24.000Z</time>
      </trkpt>
      <trkpt lat="46.24627" lon="14.98018">
        <ele>321.654728</ele>
        <time>2026-07-11T09:11:26.000Z</time>
      </trkpt>
      <trkpt lat="46.24628" lon="14.98001">
        <ele>321.600166</ele>
        <time>2026-07-11T09:11:28.000Z</time>
      </trkpt>
      <trkpt lat="46.24633" lon="14.97988">
        <ele>321.497567</ele>
        <time>2026-07-11T09:11:30.000Z</time>
      </trkpt>
      <trkpt lat="46.24638" lon="14.97981">
        <ele>321.434175</ele>
        <time>2026-07-11T09:11:31.000Z</time>
      </trkpt>
      <trkpt lat="46.24648" lon="14.97971">
        <ele>321.321833</ele>
        <time>2026-07-11T09:11:33.000Z</time>
      </trkpt>
      <trkpt lat="46.2467" lon="14.97957">
        <ele>321.100376</ele>
        <time>2026-07-11T09:11:37.000Z</time>
      </trkpt>
      <trkpt lat="46.2468" lon="14.97952">
        <ele>320.993458</ele>
        <time>2026-07-11T09:11:39.000Z</time>
      </trkpt>
      <trkpt lat="46.24691" lon="14.9795">
        <ele>320.896408</ele>
        <time>2026-07-11T09:11:41.000Z</time>
      </trkpt>
      <trkpt lat="46.24695" lon="14.97952">
        <ele>320.85024</ele>
        <time>2026-07-11T09:11:42.000Z</time>
      </trkpt>
      <trkpt lat="46.247" lon="14.97954">
        <ele>320.805453</ele>
        <time>2026-07-11T09:11:43.000Z</time>
      </trkpt>
      <trkpt lat="46.24717" lon="14.97968">
        <ele>320.621134</ele>
        <time>2026-07-11T09:11:47.000Z</time>
      </trkpt>
      <trkpt lat="46.24742" lon="14.98001">
        <ele>320.302981</ele>
        <time>2026-07-11T09:11:53.000Z</time>
      </trkpt>
      <trkpt lat="46.24751" lon="14.98007">
        <ele>320.202724</ele>
        <time>2026-07-11T09:11:55.000Z</time>
      </trkpt>
      <trkpt lat="46.24756" lon="14.98008">
        <ele>320.155419</ele>
        <time>2026-07-11T09:11:56.000Z</time>
      </trkpt>
      <trkpt lat="46.24761" lon="14.98008">
        <ele>320.108277</ele>
        <time>2026-07-11T09:11:57.000Z</time>
      </trkpt>
      <trkpt lat="46.24781" lon="14.98003">
        <ele>319.989957</ele>
        <time>2026-07-11T09:12:01.000Z</time>
      </trkpt>
      <trkpt lat="46.248" lon="14.97994">
        <ele>320.219417</ele>
        <time>2026-07-11T09:12:05.000Z</time>
      </trkpt>
      <trkpt lat="46.24817" lon="14.97989">
        <ele>320.435052</ele>
        <time>2026-07-11T09:12:09.000Z</time>
      </trkpt>
      <trkpt lat="46.24836" lon="14.97986">
        <ele>320.654239</ele>
        <time>2026-07-11T09:12:13.000Z</time>
      </trkpt>
      <trkpt lat="46.24845" lon="14.97987">
        <ele>320.764358</ele>
        <time>2026-07-11T09:12:15.000Z</time>
      </trkpt>
      <trkpt lat="46.24855" lon="14.97988">
        <ele>320.875546</ele>
        <time>2026-07-11T09:12:17.000Z</time>
      </trkpt>
      <trkpt lat="46.24877" lon="14.97994">
        <ele>321.145134</ele>
        <time>2026-07-11T09:12:22.000Z</time>
      </trkpt>
      <trkpt lat="46.24886" lon="14.97996">
        <ele>321.255114</ele>
        <time>2026-07-11T09:12:24.000Z</time>
      </trkpt>
      <trkpt lat="46.24904" lon="14.97994">
        <ele>321.465756</ele>
        <time>2026-07-11T09:12:28.000Z</time>
      </trkpt>
      <trkpt lat="46.24921" lon="14.97995">
        <ele>321.670116</ele>
        <time>2026-07-11T09:12:33.000Z</time>
      </trkpt>
      <trkpt lat="46.24934" lon="14.97997">
        <ele>321.820879</ele>
        <time>2026-07-11T09:12:38.000Z</time>
      </trkpt>
      <trkpt lat="46.24937" lon="14.97996">
        <ele>321.856538</ele>
        <time>2026-07-11T09:12:39.000Z</time>
      </trkpt>
      <trkpt lat="46.2494" lon="14.97994">
        <ele>321.893864</ele>
        <time>2026-07-11T09:12:40.000Z</time>
      </trkpt>
      <trkpt lat="46.24942" lon="14.97984">
        <ele>321.978189</ele>
        <time>2026-07-11T09:12:42.000Z</time>
      </trkpt>
      <trkpt lat="46.24946" lon="14.97968">
        <ele>322.120526</ele>
        <time>2026-07-11T09:12:45.000Z</time>
      </trkpt>
      <trkpt lat="46.24949" lon="14.97958">
        <ele>322.219362</ele>
        <time>2026-07-11T09:12:47.000Z</time>
      </trkpt>
      <trkpt lat="46.2495" lon="14.97953">
        <ele>322.266398</ele>
        <time>2026-07-11T09:12:48.000Z</time>
      </trkpt>
      <trkpt lat="46.24951" lon="14.97948">
        <ele>322.311879</ele>
        <time>2026-07-11T09:12:49.000Z</time>
      </trkpt>
      <trkpt lat="46.24956" lon="14.97933">
        <ele>322.454199</ele>
        <time>2026-07-11T09:12:52.000Z</time>
      </trkpt>
      <trkpt lat="46.24963" lon="14.97919">
        <ele>322.613569</ele>
        <time>2026-07-11T09:12:55.000Z</time>
      </trkpt>
      <trkpt lat="46.2497" lon="14.97904">
        <ele>322.775116</ele>
        <time>2026-07-11T09:12:58.000Z</time>
      </trkpt>
      <trkpt lat="46.24983" lon="14.97863">
        <ele>323.166559</ele>
        <time>2026-07-11T09:13:05.000Z</time>
      </trkpt>
      <trkpt lat="46.24986" lon="14.97853">
        <ele>323.264486</ele>
        <time>2026-07-11T09:13:07.000Z</time>
      </trkpt>
      <trkpt lat="46.24999" lon="14.97808">
        <ele>323.696774</ele>
        <time>2026-07-11T09:13:15.000Z</time>
      </trkpt>
      <trkpt lat="46.25011" lon="14.97778">
        <ele>324.006077</ele>
        <time>2026-07-11T09:13:21.000Z</time>
      </trkpt>
      <trkpt lat="46.25017" lon="14.9777">
        <ele>324.112203</ele>
        <time>2026-07-11T09:13:23.000Z</time>
      </trkpt>
      <trkpt lat="46.25023" lon="14.97762">
        <ele>324.220183</ele>
        <time>2026-07-11T09:13:25.000Z</time>
      </trkpt>
      <trkpt lat="46.25026" lon="14.97757">
        <ele>324.272931</ele>
        <time>2026-07-11T09:13:26.000Z</time>
      </trkpt>
      <trkpt lat="46.25035" lon="14.97744">
        <ele>324.447728</ele>
        <time>2026-07-11T09:13:29.000Z</time>
      </trkpt>
      <trkpt lat="46.2504" lon="14.97735">
        <ele>324.560392</ele>
        <time>2026-07-11T09:13:31.000Z</time>
      </trkpt>
      <trkpt lat="46.25048" lon="14.97708">
        <ele>324.842769</ele>
        <time>2026-07-11T09:13:36.000Z</time>
      </trkpt>
      <trkpt lat="46.25049" lon="14.97701">
        <ele>324.912161</ele>
        <time>2026-07-11T09:13:37.000Z</time>
      </trkpt>
      <trkpt lat="46.25053" lon="14.97661">
        <ele>325.296484</ele>
        <time>2026-07-11T09:13:44.000Z</time>
      </trkpt>
      <trkpt lat="46.25053" lon="14.97657">
        <ele>325.341821</ele>
        <time>2026-07-11T09:13:45.000Z</time>
      </trkpt>
      <trkpt lat="46.25057" lon="14.97631">
        <ele>325.597498</ele>
        <time>2026-07-11T09:13:50.000Z</time>
      </trkpt>
      <trkpt lat="46.2507" lon="14.97617">
        <ele>325.823721</ele>
        <time>2026-07-11T09:13:54.000Z</time>
      </trkpt>
      <trkpt lat="46.25102" lon="14.9759">
        <ele>326.347301</ele>
        <time>2026-07-11T09:14:03.000Z</time>
      </trkpt>
      <trkpt lat="46.25122" lon="14.97566">
        <ele>326.703437</ele>
        <time>2026-07-11T09:14:09.000Z</time>
      </trkpt>
      <trkpt lat="46.25134" lon="14.9755">
        <ele>326.950865</ele>
        <time>2026-07-11T09:14:13.000Z</time>
      </trkpt>
      <trkpt lat="46.25142" lon="14.97543">
        <ele>327.155779</ele>
        <time>2026-07-11T09:14:15.000Z</time>
      </trkpt>
      <trkpt lat="46.25145" lon="14.97541">
        <ele>327.235057</ele>
        <time>2026-07-11T09:14:16.000Z</time>
      </trkpt>
      <trkpt lat="46.2516" lon="14.97532">
        <ele>327.60197</ele>
        <time>2026-07-11T09:14:20.000Z</time>
      </trkpt>
      <trkpt lat="46.25165" lon="14.9753">
        <ele>327.716319</ele>
        <time>2026-07-11T09:14:21.000Z</time>
      </trkpt>
      <trkpt lat="46.25172" lon="14.97528">
        <ele>327.879115</ele>
        <time>2026-07-11T09:14:23.000Z</time>
      </trkpt>
      <trkpt lat="46.2518" lon="14.97526">
        <ele>328.053169</ele>
        <time>2026-07-11T09:14:25.000Z</time>
      </trkpt>
      <trkpt lat="46.25213" lon="14.97523">
        <ele>328.788244</ele>
        <time>2026-07-11T09:14:33.000Z</time>
      </trkpt>
      <trkpt lat="46.25229" lon="14.97521">
        <ele>329.154394</ele>
        <time>2026-07-11T09:14:37.000Z</time>
      </trkpt>
      <trkpt lat="46.25237" lon="14.97521">
        <ele>329.326707</ele>
        <time>2026-07-11T09:14:39.000Z</time>
      </trkpt>
      <trkpt lat="46.25245" lon="14.97521">
        <ele>329.514711</ele>
        <time>2026-07-11T09:14:41.000Z</time>
      </trkpt>
      <trkpt lat="46.25268" lon="14.97521">
        <ele>330.029336</ele>
        <time>2026-07-11T09:14:46.000Z</time>
      </trkpt>
      <trkpt lat="46.25291" lon="14.97522">
        <ele>330.544233</ele>
        <time>2026-07-11T09:14:51.000Z</time>
      </trkpt>
      <trkpt lat="46.25309" lon="14.9752">
        <ele>330.997086</ele>
        <time>2026-07-11T09:14:55.000Z</time>
      </trkpt>
      <trkpt lat="46.25314" lon="14.9752">
        <ele>331.260632</ele>
        <time>2026-07-11T09:14:56.000Z</time>
      </trkpt>
      <trkpt lat="46.25332" lon="14.97519">
        <ele>332.304022</ele>
        <time>2026-07-11T09:15:00.000Z</time>
      </trkpt>
      <trkpt lat="46.25337" lon="14.97519">
        <ele>332.539462</ele>
        <time>2026-07-11T09:15:01.000Z</time>
      </trkpt>
      <trkpt lat="46.25351" lon="14.97521">
        <ele>333.349582</ele>
        <time>2026-07-11T09:15:05.000Z</time>
      </trkpt>
      <trkpt lat="46.2536" lon="14.97516">
        <ele>333.896464</ele>
        <time>2026-07-11T09:15:08.000Z</time>
      </trkpt>
      <trkpt lat="46.25362" lon="14.97513">
        <ele>334.067447</ele>
        <time>2026-07-11T09:15:09.000Z</time>
      </trkpt>
      <trkpt lat="46.25363" lon="14.97504">
        <ele>334.425479</ele>
        <time>2026-07-11T09:15:11.000Z</time>
      </trkpt>
      <trkpt lat="46.25362" lon="14.97499">
        <ele>334.625043</ele>
        <time>2026-07-11T09:15:12.000Z</time>
      </trkpt>
      <trkpt lat="46.2536" lon="14.97496">
        <ele>334.777085</ele>
        <time>2026-07-11T09:15:13.000Z</time>
      </trkpt>
      <trkpt lat="46.25354" lon="14.97492">
        <ele>335.133976</ele>
        <time>2026-07-11T09:15:15.000Z</time>
      </trkpt>
      <trkpt lat="46.2533" lon="14.9748">
        <ele>336.542666</ele>
        <time>2026-07-11T09:15:22.000Z</time>
      </trkpt>
      <trkpt lat="46.25328" lon="14.97477">
        <ele>336.71365</ele>
        <time>2026-07-11T09:15:23.000Z</time>
      </trkpt>
      <trkpt lat="46.25326" lon="14.9747">
        <ele>337.025028</ele>
        <time>2026-07-11T09:15:25.000Z</time>
      </trkpt>
      <trkpt lat="46.25325" lon="14.97462">
        <ele>337.321491</ele>
        <time>2026-07-11T09:15:27.000Z</time>
      </trkpt>
      <trkpt lat="46.25326" lon="14.97442">
        <ele>338.116496</ele>
        <time>2026-07-11T09:15:33.000Z</time>
      </trkpt>
      <trkpt lat="46.25325" lon="14.97425">
        <ele>338.740703</ele>
        <time>2026-07-11T09:15:38.000Z</time>
      </trkpt>
      <trkpt lat="46.25326" lon="14.97418">
        <ele>339.017298</ele>
        <time>2026-07-11T09:15:40.000Z</time>
      </trkpt>
      <trkpt lat="46.25326" lon="14.97409">
        <ele>339.374563</ele>
        <time>2026-07-11T09:15:43.000Z</time>
      </trkpt>
      <trkpt lat="46.25327" lon="14.97398">
        <ele>339.808963</ele>
        <time>2026-07-11T09:15:47.000Z</time>
      </trkpt>
      <trkpt lat="46.25328" lon="14.97382">
        <ele>340.432125</ele>
        <time>2026-07-11T09:15:53.000Z</time>
      </trkpt>
      <trkpt lat="46.25329" lon="14.97363">
        <ele>340.826036</ele>
        <time>2026-07-11T09:16:00.000Z</time>
      </trkpt>
      <trkpt lat="46.2533" lon="14.97361">
        <ele>340.733936</ele>
        <time>2026-07-11T09:16:01.000Z</time>
      </trkpt>
      <trkpt lat="46.25332" lon="14.97355">
        <ele>340.427455</ele>
        <time>2026-07-11T09:16:04.000Z</time>
      </trkpt>
      <trkpt lat="46.25332" lon="14.97354">
        <ele>340.398427</ele>
        <time>2026-07-11T09:16:06.000Z</time>
      </trkpt>
      <trkpt lat="46.25328" lon="14.97362">
        <ele>339.995425</ele>
        <time>2026-07-11T09:16:40.000Z</time>
      </trkpt>
      <trkpt lat="46.25327" lon="14.97366">
        <ele>339.811224</ele>
        <time>2026-07-11T09:16:41.000Z</time>
      </trkpt>
      <trkpt lat="46.25324" lon="14.97381">
        <ele>339.143767</ele>
        <time>2026-07-11T09:16:44.000Z</time>
      </trkpt>
      <trkpt lat="46.25323" lon="14.97421">
        <ele>337.495644</ele>
        <time>2026-07-11T09:16:50.000Z</time>
      </trkpt>
      <trkpt lat="46.25324" lon="14.97462">
        <ele>335.80269</ele>
        <time>2026-07-11T09:16:57.000Z</time>
      </trkpt>
      <trkpt lat="46.25323" lon="14.97464">
        <ele>335.708359</ele>
        <time>2026-07-11T09:16:58.000Z</time>
      </trkpt>
      <trkpt lat="46.2532" lon="14.97467">
        <ele>335.479658</ele>
        <time>2026-07-11T09:17:00.000Z</time>
      </trkpt>
      <trkpt lat="46.25318" lon="14.97467">
        <ele>335.371393</ele>
        <time>2026-07-11T09:17:01.000Z</time>
      </trkpt>
      <trkpt lat="46.25316" lon="14.97464">
        <ele>335.166648</ele>
        <time>2026-07-11T09:17:03.000Z</time>
      </trkpt>
      <trkpt lat="46.25311" lon="14.97453">
        <ele>334.664916</ele>
        <time>2026-07-11T09:17:06.000Z</time>
      </trkpt>
      <trkpt lat="46.25298" lon="14.97427">
        <ele>333.30018</ele>
        <time>2026-07-11T09:17:11.000Z</time>
      </trkpt>
      <trkpt lat="46.25288" lon="14.97405">
        <ele>332.232472</ele>
        <time>2026-07-11T09:17:14.000Z</time>
      </trkpt>
      <trkpt lat="46.25277" lon="14.97385">
        <ele>331.176899</ele>
        <time>2026-07-11T09:17:17.000Z</time>
      </trkpt>
      <trkpt lat="46.25273" lon="14.9738">
        <ele>330.818153</ele>
        <time>2026-07-11T09:17:18.000Z</time>
      </trkpt>
      <trkpt lat="46.25259" lon="14.97365">
        <ele>330.076064</ele>
        <time>2026-07-11T09:17:21.000Z</time>
      </trkpt>
      <trkpt lat="46.2524" lon="14.97336">
        <ele>329.474934</ele>
        <time>2026-07-11T09:17:27.000Z</time>
      </trkpt>
      <trkpt lat="46.25235" lon="14.97326">
        <ele>329.284915</ele>
        <time>2026-07-11T09:17:29.000Z</time>
      </trkpt>
      <trkpt lat="46.25229" lon="14.97317">
        <ele>329.098669</ele>
        <time>2026-07-11T09:17:31.000Z</time>
      </trkpt>
      <trkpt lat="46.25223" lon="14.97308">
        <ele>328.919207</ele>
        <time>2026-07-11T09:17:33.000Z</time>
      </trkpt>
      <trkpt lat="46.25207" lon="14.97281">
        <ele>328.381256</ele>
        <time>2026-07-11T09:17:39.000Z</time>
      </trkpt>
      <trkpt lat="46.25195" lon="14.97253">
        <ele>327.892688</ele>
        <time>2026-07-11T09:17:45.000Z</time>
      </trkpt>
      <trkpt lat="46.2519" lon="14.9722">
        <ele>327.402823</ele>
        <time>2026-07-11T09:17:51.000Z</time>
      </trkpt>
      <trkpt lat="46.2519" lon="14.97215">
        <ele>327.323741</ele>
        <time>2026-07-11T09:17:52.000Z</time>
      </trkpt>
      <trkpt lat="46.2519" lon="14.97194">
        <ele>327.006969</ele>
        <time>2026-07-11T09:17:56.000Z</time>
      </trkpt>
      <trkpt lat="46.2519" lon="14.97183">
        <ele>326.849331</ele>
        <time>2026-07-11T09:17:58.000Z</time>
      </trkpt>
      <trkpt lat="46.25191" lon="14.97173">
        <ele>326.699069</ele>
        <time>2026-07-11T09:18:00.000Z</time>
      </trkpt>
      <trkpt lat="46.25191" lon="14.97168">
        <ele>326.629139</ele>
        <time>2026-07-11T09:18:01.000Z</time>
      </trkpt>
      <trkpt lat="46.25192" lon="14.97163">
        <ele>326.553021</ele>
        <time>2026-07-11T09:18:02.000Z</time>
      </trkpt>
      <trkpt lat="46.25193" lon="14.97148">
        <ele>326.351735</ele>
        <time>2026-07-11T09:18:05.000Z</time>
      </trkpt>
      <trkpt lat="46.25192" lon="14.97119">
        <ele>326.438028</ele>
        <time>2026-07-11T09:18:10.000Z</time>
      </trkpt>
      <trkpt lat="46.25181" lon="14.97082">
        <ele>326.561398</ele>
        <time>2026-07-11T09:18:17.000Z</time>
      </trkpt>
      <trkpt lat="46.25162" lon="14.97049">
        <ele>326.691233</ele>
        <time>2026-07-11T09:18:24.000Z</time>
      </trkpt>
      <trkpt lat="46.25159" lon="14.97045">
        <ele>326.710879</ele>
        <time>2026-07-11T09:18:25.000Z</time>
      </trkpt>
      <trkpt lat="46.2514" lon="14.97026">
        <ele>326.810448</ele>
        <time>2026-07-11T09:18:30.000Z</time>
      </trkpt>
      <trkpt lat="46.25134" lon="14.97017">
        <ele>326.849975</ele>
        <time>2026-07-11T09:18:32.000Z</time>
      </trkpt>
      <trkpt lat="46.2513" lon="14.97006">
        <ele>326.88733</ele>
        <time>2026-07-11T09:18:34.000Z</time>
      </trkpt>
      <trkpt lat="46.2513" lon="14.96987">
        <ele>326.943365</ele>
        <time>2026-07-11T09:18:37.000Z</time>
      </trkpt>
      <trkpt lat="46.25131" lon="14.96975">
        <ele>326.980528</ele>
        <time>2026-07-11T09:18:39.000Z</time>
      </trkpt>
      <trkpt lat="46.25132" lon="14.96944">
        <ele>327.075228</ele>
        <time>2026-07-11T09:18:44.000Z</time>
      </trkpt>
      <trkpt lat="46.25132" lon="14.96925">
        <ele>327.134004</ele>
        <time>2026-07-11T09:18:47.000Z</time>
      </trkpt>
      <trkpt lat="46.2513" lon="14.96892">
        <ele>327.118333</ele>
        <time>2026-07-11T09:18:52.000Z</time>
      </trkpt>
      <trkpt lat="46.25127" lon="14.96879">
        <ele>327.109913</ele>
        <time>2026-07-11T09:18:54.000Z</time>
      </trkpt>
      <trkpt lat="46.25113" lon="14.96843">
        <ele>327.085318</ele>
        <time>2026-07-11T09:19:00.000Z</time>
      </trkpt>
      <trkpt lat="46.25108" lon="14.96833">
        <ele>327.077276</ele>
        <time>2026-07-11T09:19:02.000Z</time>
      </trkpt>
      <trkpt lat="46.25093" lon="14.96807">
        <ele>327.056915</ele>
        <time>2026-07-11T09:19:07.000Z</time>
      </trkpt>
      <trkpt lat="46.25091" lon="14.96802">
        <ele>327.053045</ele>
        <time>2026-07-11T09:19:08.000Z</time>
      </trkpt>
      <trkpt lat="46.25086" lon="14.96785">
        <ele>327.041829</ele>
        <time>2026-07-11T09:19:11.000Z</time>
      </trkpt>
      <trkpt lat="46.25083" lon="14.96773">
        <ele>327.033985</ele>
        <time>2026-07-11T09:19:13.000Z</time>
      </trkpt>
      <trkpt lat="46.25081" lon="14.96766">
        <ele>327.029977</ele>
        <time>2026-07-11T09:19:14.000Z</time>
      </trkpt>
      <trkpt lat="46.25075" lon="14.96742">
        <ele>327.01409</ele>
        <time>2026-07-11T09:19:18.000Z</time>
      </trkpt>
      <trkpt lat="46.25068" lon="14.96714">
        <ele>326.995742</ele>
        <time>2026-07-11T09:19:23.000Z</time>
      </trkpt>
      <trkpt lat="46.25057" lon="14.96669">
        <ele>327.172277</ele>
        <time>2026-07-11T09:19:31.000Z</time>
      </trkpt>
      <trkpt lat="46.25047" lon="14.9663">
        <ele>327.559325</ele>
        <time>2026-07-11T09:19:38.000Z</time>
      </trkpt>
      <trkpt lat="46.25044" lon="14.96619">
        <ele>327.670446</ele>
        <time>2026-07-11T09:19:40.000Z</time>
      </trkpt>
      <trkpt lat="46.25035" lon="14.96586">
        <ele>328.005205</ele>
        <time>2026-07-11T09:19:46.000Z</time>
      </trkpt>
      <trkpt lat="46.25032" lon="14.96574">
        <ele>328.123256</ele>
        <time>2026-07-11T09:19:48.000Z</time>
      </trkpt>
      <trkpt lat="46.25029" lon="14.96561">
        <ele>328.248043</ele>
        <time>2026-07-11T09:19:50.000Z</time>
      </trkpt>
      <trkpt lat="46.25016" lon="14.96515">
        <ele>328.715141</ele>
        <time>2026-07-11T09:19:58.000Z</time>
      </trkpt>
      <trkpt lat="46.25012" lon="14.96502">
        <ele>328.849951</ele>
        <time>2026-07-11T09:20:01.000Z</time>
      </trkpt>
      <trkpt lat="46.2501" lon="14.965">
        <ele>328.883265</ele>
        <time>2026-07-11T09:20:02.000Z</time>
      </trkpt>
      <trkpt lat="46.25007" lon="14.965">
        <ele>328.921328</ele>
        <time>2026-07-11T09:20:03.000Z</time>
      </trkpt>
      <trkpt lat="46.25001" lon="14.96505">
        <ele>329.013641</ele>
        <time>2026-07-11T09:20:05.000Z</time>
      </trkpt>
      <trkpt lat="46.24985" lon="14.96522">
        <ele>329.286614</ele>
        <time>2026-07-11T09:20:10.000Z</time>
      </trkpt>
      <trkpt lat="46.24978" lon="14.96529">
        <ele>329.397896</ele>
        <time>2026-07-11T09:20:12.000Z</time>
      </trkpt>
      <trkpt lat="46.24971" lon="14.96535">
        <ele>329.377033</ele>
        <time>2026-07-11T09:20:14.000Z</time>
      </trkpt>
      <trkpt lat="46.24959" lon="14.96543">
        <ele>329.315499</ele>
        <time>2026-07-11T09:20:17.000Z</time>
      </trkpt>
      <trkpt lat="46.24951" lon="14.96547">
        <ele>329.273847</ele>
        <time>2026-07-11T09:20:19.000Z</time>
      </trkpt>
      <trkpt lat="46.24939" lon="14.96551">
        <ele>329.214233</ele>
        <time>2026-07-11T09:20:22.000Z</time>
      </trkpt>
      <trkpt lat="46.24931" lon="14.9655">
        <ele>329.17223</ele>
        <time>2026-07-11T09:20:24.000Z</time>
      </trkpt>
      <trkpt lat="46.24927" lon="14.96546">
        <ele>329.150008</ele>
        <time>2026-07-11T09:20:25.000Z</time>
      </trkpt>
      <trkpt lat="46.24925" lon="14.96541">
        <ele>329.128745</ele>
        <time>2026-07-11T09:20:26.000Z</time>
      </trkpt>
      <trkpt lat="46.24922" lon="14.96528">
        <ele>329.084793</ele>
        <time>2026-07-11T09:20:28.000Z</time>
      </trkpt>
      <trkpt lat="46.2491" lon="14.96481">
        <ele>328.916808</ele>
        <time>2026-07-11T09:20:36.000Z</time>
      </trkpt>
      <trkpt lat="46.24908" lon="14.96476">
        <ele>328.896281</ele>
        <time>2026-07-11T09:20:37.000Z</time>
      </trkpt>
      <trkpt lat="46.24901" lon="14.9646">
        <ele>328.834976</ele>
        <time>2026-07-11T09:20:40.000Z</time>
      </trkpt>
      <trkpt lat="46.24897" lon="14.9645">
        <ele>328.794395</ele>
        <time>2026-07-11T09:20:42.000Z</time>
      </trkpt>
      <trkpt lat="46.24873" lon="14.96409">
        <ele>328.613849</ele>
        <time>2026-07-11T09:20:51.000Z</time>
      </trkpt>
      <trkpt lat="46.24846" lon="14.96362">
        <ele>328.461833</ele>
        <time>2026-07-11T09:21:00.000Z</time>
      </trkpt>
      <trkpt lat="46.24825" lon="14.9634">
        <ele>328.386235</ele>
        <time>2026-07-11T09:21:06.000Z</time>
      </trkpt>
      <trkpt lat="46.24798" lon="14.96325">
        <ele>328.303108</ele>
        <time>2026-07-11T09:21:13.000Z</time>
      </trkpt>
      <trkpt lat="46.24776" lon="14.96311">
        <ele>328.235317</ele>
        <time>2026-07-11T09:21:19.000Z</time>
      </trkpt>
      <trkpt lat="46.24754" lon="14.9628">
        <ele>328.14653</ele>
        <time>2026-07-11T09:21:27.000Z</time>
      </trkpt>
      <trkpt lat="46.24746" lon="14.96249">
        <ele>328.080474</ele>
        <time>2026-07-11T09:21:33.000Z</time>
      </trkpt>
      <trkpt lat="46.24747" lon="14.96206">
        <ele>328.410811</ele>
        <time>2026-07-11T09:21:40.000Z</time>
      </trkpt>
      <trkpt lat="46.24737" lon="14.96167">
        <ele>329.639292</ele>
        <time>2026-07-11T09:21:47.000Z</time>
      </trkpt>
      <trkpt lat="46.24718" lon="14.96127">
        <ele>331.081545</ele>
        <time>2026-07-11T09:21:55.000Z</time>
      </trkpt>
      <trkpt lat="46.24695" lon="14.9609">
        <ele>332.551416</ele>
        <time>2026-07-11T09:22:03.000Z</time>
      </trkpt>
      <trkpt lat="46.24672" lon="14.96042">
        <ele>334.261369</ele>
        <time>2026-07-11T09:22:12.000Z</time>
      </trkpt>
      <trkpt lat="46.24662" lon="14.96007">
        <ele>335.386186</ele>
        <time>2026-07-11T09:22:18.000Z</time>
      </trkpt>
      <trkpt lat="46.24649" lon="14.95967">
        <ele>336.463675</ele>
        <time>2026-07-11T09:22:25.000Z</time>
      </trkpt>
      <trkpt lat="46.24643" lon="14.95951">
        <ele>336.864196</ele>
        <time>2026-07-11T09:22:28.000Z</time>
      </trkpt>
      <trkpt lat="46.24635" lon="14.95937">
        <ele>337.264374</ele>
        <time>2026-07-11T09:22:31.000Z</time>
      </trkpt>
      <trkpt lat="46.24616" lon="14.95887">
        <ele>338.56082</ele>
        <time>2026-07-11T09:22:40.000Z</time>
      </trkpt>
      <trkpt lat="46.24606" lon="14.95839">
        <ele>339.688849</ele>
        <time>2026-07-11T09:22:48.000Z</time>
      </trkpt>
      <trkpt lat="46.24598" lon="14.95799">
        <ele>340.634321</ele>
        <time>2026-07-11T09:22:55.000Z</time>
      </trkpt>
      <trkpt lat="46.24588" lon="14.95744">
        <ele>341.587662</ele>
        <time>2026-07-11T09:23:04.000Z</time>
      </trkpt>
      <trkpt lat="46.24582" lon="14.95713">
        <ele>341.633183</ele>
        <time>2026-07-11T09:23:09.000Z</time>
      </trkpt>
      <trkpt lat="46.2458" lon="14.95694">
        <ele>341.659715</ele>
        <time>2026-07-11T09:23:12.000Z</time>
      </trkpt>
      <trkpt lat="46.24574" lon="14.9564">
        <ele>341.737004</ele>
        <time>2026-07-11T09:23:20.000Z</time>
      </trkpt>
      <trkpt lat="46.24572" lon="14.95629">
        <ele>341.752949</ele>
        <time>2026-07-11T09:23:22.000Z</time>
      </trkpt>
      <trkpt lat="46.24566" lon="14.95598">
        <ele>341.799015</ele>
        <time>2026-07-11T09:23:27.000Z</time>
      </trkpt>
      <trkpt lat="46.24565" lon="14.95585">
        <ele>341.817467</ele>
        <time>2026-07-11T09:23:29.000Z</time>
      </trkpt>
      <trkpt lat="46.24561" lon="14.95553">
        <ele>341.862408</ele>
        <time>2026-07-11T09:23:34.000Z</time>
      </trkpt>
      <trkpt lat="46.24562" lon="14.95505">
        <ele>341.931115</ele>
        <time>2026-07-11T09:23:41.000Z</time>
      </trkpt>
      <trkpt lat="46.24563" lon="14.9546">
        <ele>342.200321</ele>
        <time>2026-07-11T09:23:48.000Z</time>
      </trkpt>
      <trkpt lat="46.24563" lon="14.95453">
        <ele>342.242035</ele>
        <time>2026-07-11T09:23:49.000Z</time>
      </trkpt>
      <trkpt lat="46.24567" lon="14.95419">
        <ele>342.45408</ele>
        <time>2026-07-11T09:23:54.000Z</time>
      </trkpt>
      <trkpt lat="46.24569" lon="14.95413">
        <ele>342.494664</ele>
        <time>2026-07-11T09:23:55.000Z</time>
      </trkpt>
      <trkpt lat="46.24576" lon="14.9539">
        <ele>342.647466</ele>
        <time>2026-07-11T09:23:59.000Z</time>
      </trkpt>
      <trkpt lat="46.24581" lon="14.9538">
        <ele>342.723747</ele>
        <time>2026-07-11T09:24:01.000Z</time>
      </trkpt>
      <trkpt lat="46.24585" lon="14.95369">
        <ele>342.797916</ele>
        <time>2026-07-11T09:24:03.000Z</time>
      </trkpt>
      <trkpt lat="46.24597" lon="14.95342">
        <ele>342.994552</ele>
        <time>2026-07-11T09:24:08.000Z</time>
      </trkpt>
      <trkpt lat="46.24597" lon="14.95329">
        <ele>343.074972</ele>
        <time>2026-07-11T09:24:10.000Z</time>
      </trkpt>
      <trkpt lat="46.24595" lon="14.95315">
        <ele>343.161277</ele>
        <time>2026-07-11T09:24:12.000Z</time>
      </trkpt>
      <trkpt lat="46.24582" lon="14.95288">
        <ele>343.36313</ele>
        <time>2026-07-11T09:24:17.000Z</time>
      </trkpt>
      <trkpt lat="46.24579" lon="14.95282">
        <ele>343.403548</ele>
        <time>2026-07-11T09:24:18.000Z</time>
      </trkpt>
      <trkpt lat="46.24567" lon="14.95264">
        <ele>343.55407</ele>
        <time>2026-07-11T09:24:22.000Z</time>
      </trkpt>
      <trkpt lat="46.24559" lon="14.95256">
        <ele>343.612585</ele>
        <time>2026-07-11T09:24:24.000Z</time>
      </trkpt>
      <trkpt lat="46.24544" lon="14.95244">
        <ele>343.720427</ele>
        <time>2026-07-11T09:24:29.000Z</time>
      </trkpt>
      <trkpt lat="46.24542" lon="14.95242">
        <ele>343.73306</ele>
        <time>2026-07-11T09:24:33.000Z</time>
      </trkpt>
      <trkpt lat="46.24539" lon="14.95239">
        <ele>343.757244</ele>
        <time>2026-07-11T09:24:36.000Z</time>
      </trkpt>
      <trkpt lat="46.24538" lon="14.95237">
        <ele>343.770971</ele>
        <time>2026-07-11T09:24:37.000Z</time>
      </trkpt>
      <trkpt lat="46.24531" lon="14.95232">
        <ele>343.8166</ele>
        <time>2026-07-11T09:24:40.000Z</time>
      </trkpt>
      <trkpt lat="46.24527" lon="14.95241">
        <ele>343.862053</ele>
        <time>2026-07-11T09:24:44.000Z</time>
      </trkpt>
      <trkpt lat="46.24525" lon="14.95243">
        <ele>343.87562</ele>
        <time>2026-07-11T09:24:46.000Z</time>
      </trkpt>
      <trkpt lat="46.24522" lon="14.95244">
        <ele>343.896489</ele>
        <time>2026-07-11T09:24:48.000Z</time>
      </trkpt>
      <trkpt lat="46.24521" lon="14.95244">
        <ele>343.900355</ele>
        <time>2026-07-11T09:24:49.000Z</time>
      </trkpt>
      <trkpt lat="46.24521" lon="14.95244">
        <ele>343.901118</ele>
        <time>2026-07-11T09:24:51.000Z</time>
      </trkpt>
      <trkpt lat="46.24521" lon="14.95251">
        <ele>343.931086</ele>
        <time>2026-07-11T09:24:58.000Z</time>
      </trkpt>
      <trkpt lat="46.24523" lon="14.95251">
        <ele>343.941215</ele>
        <time>2026-07-11T09:24:59.000Z</time>
      </trkpt>
      <trkpt lat="46.24524" lon="14.9525">
        <ele>343.951434</ele>
        <time>2026-07-11T09:25:00.000Z</time>
      </trkpt>
      <trkpt lat="46.2453" lon="14.95238">
        <ele>344.011074</ele>
        <time>2026-07-11T09:25:04.000Z</time>
      </trkpt>
      <trkpt lat="46.2453" lon="14.9523">
        <ele>344.047553</ele>
        <time>2026-07-11T09:25:06.000Z</time>
      </trkpt>
      <trkpt lat="46.24525" lon="14.95223">
        <ele>344.088107</ele>
        <time>2026-07-11T09:25:08.000Z</time>
      </trkpt>
      <trkpt lat="46.24508" lon="14.952">
        <ele>344.233523</ele>
        <time>2026-07-11T09:25:15.000Z</time>
      </trkpt>
      <trkpt lat="46.24504" lon="14.95193">
        <ele>344.275576</ele>
        <time>2026-07-11T09:25:17.000Z</time>
      </trkpt>
      <trkpt lat="46.24484" lon="14.95168">
        <ele>344.440771</ele>
        <time>2026-07-11T09:25:24.000Z</time>
      </trkpt>
      <trkpt lat="46.24472" lon="14.95153">
        <ele>344.543037</ele>
        <time>2026-07-11T09:25:28.000Z</time>
      </trkpt>
      <trkpt lat="46.2446" lon="14.95136">
        <ele>344.646426</ele>
        <time>2026-07-11T09:25:32.000Z</time>
      </trkpt>
      <trkpt lat="46.24455" lon="14.95128">
        <ele>344.724376</ele>
        <time>2026-07-11T09:25:34.000Z</time>
      </trkpt>
      <trkpt lat="46.24441" lon="14.95106">
        <ele>344.952534</ele>
        <time>2026-07-11T09:25:39.000Z</time>
      </trkpt>
      <trkpt lat="46.24432" lon="14.9509">
        <ele>345.101948</ele>
        <time>2026-07-11T09:25:42.000Z</time>
      </trkpt>
      <trkpt lat="46.2443" lon="14.95085">
        <ele>345.147137</ele>
        <time>2026-07-11T09:25:43.000Z</time>
      </trkpt>
      <trkpt lat="46.24414" lon="14.95042">
        <ele>345.518513</ele>
        <time>2026-07-11T09:25:51.000Z</time>
      </trkpt>
      <trkpt lat="46.24412" lon="14.95037">
        <ele>345.564911</ele>
        <time>2026-07-11T09:25:52.000Z</time>
      </trkpt>
      <trkpt lat="46.24398" lon="14.95006">
        <ele>345.844112</ele>
        <time>2026-07-11T09:25:58.000Z</time>
      </trkpt>
      <trkpt lat="46.24388" lon="14.94989">
        <ele>346.019339</ele>
        <time>2026-07-11T09:26:02.000Z</time>
      </trkpt>
      <trkpt lat="46.24376" lon="14.94972">
        <ele>346.201445</ele>
        <time>2026-07-11T09:26:06.000Z</time>
      </trkpt>
      <trkpt lat="46.24374" lon="14.94967">
        <ele>346.246481</ele>
        <time>2026-07-11T09:26:07.000Z</time>
      </trkpt>
      <trkpt lat="46.24359" lon="14.94944">
        <ele>346.488102</ele>
        <time>2026-07-11T09:26:12.000Z</time>
      </trkpt>
      <trkpt lat="46.24331" lon="14.94916">
        <ele>346.962786</ele>
        <time>2026-07-11T09:26:20.000Z</time>
      </trkpt>
      <trkpt lat="46.24298" lon="14.9489">
        <ele>347.574782</ele>
        <time>2026-07-11T09:26:29.000Z</time>
      </trkpt>
      <trkpt lat="46.24276" lon="14.94871">
        <ele>347.977969</ele>
        <time>2026-07-11T09:26:35.000Z</time>
      </trkpt>
      <trkpt lat="46.2427" lon="14.94863">
        <ele>348.117458</ele>
        <time>2026-07-11T09:26:37.000Z</time>
      </trkpt>
      <trkpt lat="46.24241" lon="14.94826">
        <ele>348.733348</ele>
        <time>2026-07-11T09:26:46.000Z</time>
      </trkpt>
      <trkpt lat="46.24227" lon="14.94808">
        <ele>349.043711</ele>
        <time>2026-07-11T09:26:51.000Z</time>
      </trkpt>
      <trkpt lat="46.2422" lon="14.94804">
        <ele>349.158075</ele>
        <time>2026-07-11T09:26:53.000Z</time>
      </trkpt>
      <trkpt lat="46.24203" lon="14.94802">
        <ele>349.432866</ele>
        <time>2026-07-11T09:26:58.000Z</time>
      </trkpt>
      <trkpt lat="46.24188" lon="14.94812">
        <ele>349.865192</ele>
        <time>2026-07-11T09:27:03.000Z</time>
      </trkpt>
      <trkpt lat="46.24183" lon="14.94817">
        <ele>350.061579</ele>
        <time>2026-07-11T09:27:05.000Z</time>
      </trkpt>
      <trkpt lat="46.2417" lon="14.9483">
        <ele>350.5769</ele>
        <time>2026-07-11T09:27:10.000Z</time>
      </trkpt>
      <trkpt lat="46.24163" lon="14.94836">
        <ele>350.844296</ele>
        <time>2026-07-11T09:27:13.000Z</time>
      </trkpt>
      <trkpt lat="46.24151" lon="14.94844">
        <ele>351.245273</ele>
        <time>2026-07-11T09:27:17.000Z</time>
      </trkpt>
      <trkpt lat="46.24134" lon="14.94847">
        <ele>351.816044</ele>
        <time>2026-07-11T09:27:23.000Z</time>
      </trkpt>
      <trkpt lat="46.24115" lon="14.94844">
        <ele>352.428341</ele>
        <time>2026-07-11T09:27:29.000Z</time>
      </trkpt>
      <trkpt lat="46.24082" lon="14.94831">
        <ele>353.520163</ele>
        <time>2026-07-11T09:27:38.000Z</time>
      </trkpt>
      <trkpt lat="46.24047" lon="14.94822">
        <ele>354.660081</ele>
        <time>2026-07-11T09:27:46.000Z</time>
      </trkpt>
      <trkpt lat="46.24027" lon="14.94821">
        <ele>355.313577</ele>
        <time>2026-07-11T09:27:51.000Z</time>
      </trkpt>
      <trkpt lat="46.24015" lon="14.9482">
        <ele>355.220041</ele>
        <time>2026-07-11T09:27:54.000Z</time>
      </trkpt>
      <trkpt lat="46.23992" lon="14.94815">
        <ele>354.997323</ele>
        <time>2026-07-11T09:28:00.000Z</time>
      </trkpt>
      <trkpt lat="46.23977" lon="14.94812">
        <ele>354.845734</ele>
        <time>2026-07-11T09:28:04.000Z</time>
      </trkpt>
      <trkpt lat="46.23967" lon="14.94809">
        <ele>354.753781</ele>
        <time>2026-07-11T09:28:07.000Z</time>
      </trkpt>
      <trkpt lat="46.23966" lon="14.94808">
        <ele>354.737264</ele>
        <time>2026-07-11T09:28:08.000Z</time>
      </trkpt>
      <trkpt lat="46.23965" lon="14.94808">
        <ele>354.730601</ele>
        <time>2026-07-11T09:28:11.000Z</time>
      </trkpt>
      <trkpt lat="46.23958" lon="14.9481">
        <ele>354.665716</ele>
        <time>2026-07-11T09:28:27.000Z</time>
      </trkpt>
      <trkpt lat="46.23945" lon="14.94819">
        <ele>354.524121</ele>
        <time>2026-07-11T09:28:31.000Z</time>
      </trkpt>
      <trkpt lat="46.23941" lon="14.94824">
        <ele>354.476115</ele>
        <time>2026-07-11T09:28:32.000Z</time>
      </trkpt>
      <trkpt lat="46.23937" lon="14.9483">
        <ele>354.421625</ele>
        <time>2026-07-11T09:28:33.000Z</time>
      </trkpt>
      <trkpt lat="46.23928" lon="14.94847">
        <ele>354.277833</ele>
        <time>2026-07-11T09:28:36.000Z</time>
      </trkpt>
      <trkpt lat="46.23921" lon="14.94852">
        <ele>354.197782</ele>
        <time>2026-07-11T09:28:38.000Z</time>
      </trkpt>
      <trkpt lat="46.23917" lon="14.94853">
        <ele>354.163089</ele>
        <time>2026-07-11T09:28:39.000Z</time>
      </trkpt>
      <trkpt lat="46.239" lon="14.94843">
        <ele>353.983673</ele>
        <time>2026-07-11T09:28:44.000Z</time>
      </trkpt>
      <trkpt lat="46.23866" lon="14.94824">
        <ele>353.63494</ele>
        <time>2026-07-11T09:28:52.000Z</time>
      </trkpt>
      <trkpt lat="46.23822" lon="14.948">
        <ele>353.739822</ele>
        <time>2026-07-11T09:29:03.000Z</time>
      </trkpt>
      <trkpt lat="46.23818" lon="14.94798">
        <ele>353.753788</ele>
        <time>2026-07-11T09:29:04.000Z</time>
      </trkpt>
      <trkpt lat="46.23767" lon="14.94778">
        <ele>353.927292</ele>
        <time>2026-07-11T09:29:16.000Z</time>
      </trkpt>
      <trkpt lat="46.23759" lon="14.94775">
        <ele>353.956156</ele>
        <time>2026-07-11T09:29:18.000Z</time>
      </trkpt>
      <trkpt lat="46.23741" lon="14.9477">
        <ele>354.014782</ele>
        <time>2026-07-11T09:29:22.000Z</time>
      </trkpt>
      <trkpt lat="46.23737" lon="14.94768">
        <ele>354.029456</ele>
        <time>2026-07-11T09:29:23.000Z</time>
      </trkpt>
      <trkpt lat="46.23686" lon="14.94751">
        <ele>354.140195</ele>
        <time>2026-07-11T09:29:35.000Z</time>
      </trkpt>
      <trkpt lat="46.2364" lon="14.94733">
        <ele>353.570237</ele>
        <time>2026-07-11T09:29:46.000Z</time>
      </trkpt>
      <trkpt lat="46.23627" lon="14.94729">
        <ele>353.415026</ele>
        <time>2026-07-11T09:29:49.000Z</time>
      </trkpt>
      <trkpt lat="46.23596" lon="14.94715">
        <ele>353.027783</ele>
        <time>2026-07-11T09:29:56.000Z</time>
      </trkpt>
      <trkpt lat="46.23559" lon="14.94697">
        <ele>352.550393</ele>
        <time>2026-07-11T09:30:05.000Z</time>
      </trkpt>
      <trkpt lat="46.23519" lon="14.94677">
        <ele>352.052298</ele>
        <time>2026-07-11T09:30:15.000Z</time>
      </trkpt>
      <trkpt lat="46.23492" lon="14.9466">
        <ele>352.798659</ele>
        <time>2026-07-11T09:30:22.000Z</time>
      </trkpt>
      <trkpt lat="46.23461" lon="14.94641">
        <ele>353.702571</ele>
        <time>2026-07-11T09:30:30.000Z</time>
      </trkpt>
      <trkpt lat="46.23458" lon="14.94638">
        <ele>353.818647</ele>
        <time>2026-07-11T09:30:31.000Z</time>
      </trkpt>
      <trkpt lat="46.23428" lon="14.94621">
        <ele>354.68848</ele>
        <time>2026-07-11T09:30:39.000Z</time>
      </trkpt>
      <trkpt lat="46.23424" lon="14.94619">
        <ele>354.799694</ele>
        <time>2026-07-11T09:30:40.000Z</time>
      </trkpt>
      <trkpt lat="46.23403" lon="14.94608">
        <ele>355.417656</ele>
        <time>2026-07-11T09:30:46.000Z</time>
      </trkpt>
      <trkpt lat="46.23385" lon="14.94597">
        <ele>355.928293</ele>
        <time>2026-07-11T09:30:51.000Z</time>
      </trkpt>
      <trkpt lat="46.23349" lon="14.94579">
        <ele>356.898707</ele>
        <time>2026-07-11T09:31:01.000Z</time>
      </trkpt>
      <trkpt lat="46.2333" lon="14.94568">
        <ele>356.61547</ele>
        <time>2026-07-11T09:31:06.000Z</time>
      </trkpt>
      <trkpt lat="46.23319" lon="14.94561">
        <ele>356.443496</ele>
        <time>2026-07-11T09:31:09.000Z</time>
      </trkpt>
      <trkpt lat="46.23297" lon="14.9455">
        <ele>356.123459</ele>
        <time>2026-07-11T09:31:15.000Z</time>
      </trkpt>
      <trkpt lat="46.23286" lon="14.94545">
        <ele>355.959767</ele>
        <time>2026-07-11T09:31:18.000Z</time>
      </trkpt>
      <trkpt lat="46.23255" lon="14.9453">
        <ele>355.509792</ele>
        <time>2026-07-11T09:31:26.000Z</time>
      </trkpt>
      <trkpt lat="46.23231" lon="14.94522">
        <ele>355.158645</ele>
        <time>2026-07-11T09:31:32.000Z</time>
      </trkpt>
      <trkpt lat="46.2322" lon="14.94518">
        <ele>354.998726</ele>
        <time>2026-07-11T09:31:35.000Z</time>
      </trkpt>
      <trkpt lat="46.23182" lon="14.94506">
        <ele>354.456721</ele>
        <time>2026-07-11T09:31:45.000Z</time>
      </trkpt>
      <trkpt lat="46.23156" lon="14.94495">
        <ele>355.77047</ele>
        <time>2026-07-11T09:31:52.000Z</time>
      </trkpt>
      <trkpt lat="46.23125" lon="14.9448">
        <ele>357.576092</ele>
        <time>2026-07-11T09:32:00.000Z</time>
      </trkpt>
      <trkpt lat="46.23102" lon="14.94473">
        <ele>358.899746</ele>
        <time>2026-07-11T09:32:06.000Z</time>
      </trkpt>
      <trkpt lat="46.2307" lon="14.94459">
        <ele>360.755216</ele>
        <time>2026-07-11T09:32:14.000Z</time>
      </trkpt>
      <trkpt lat="46.23029" lon="14.94442">
        <ele>363.125362</ele>
        <time>2026-07-11T09:32:24.000Z</time>
      </trkpt>
      <trkpt lat="46.22996" lon="14.94429">
        <ele>364.645219</ele>
        <time>2026-07-11T09:32:32.000Z</time>
      </trkpt>
      <trkpt lat="46.22954" lon="14.94412">
        <ele>365.370617</ele>
        <time>2026-07-11T09:32:42.000Z</time>
      </trkpt>
      <trkpt lat="46.22924" lon="14.94403">
        <ele>365.888343</ele>
        <time>2026-07-11T09:32:49.000Z</time>
      </trkpt>
      <trkpt lat="46.22919" lon="14.94401">
        <ele>365.961813</ele>
        <time>2026-07-11T09:32:50.000Z</time>
      </trkpt>
      <trkpt lat="46.22915" lon="14.944">
        <ele>366.034572</ele>
        <time>2026-07-11T09:32:51.000Z</time>
      </trkpt>
      <trkpt lat="46.22898" lon="14.94394">
        <ele>366.332774</ele>
        <time>2026-07-11T09:32:55.000Z</time>
      </trkpt>
      <trkpt lat="46.22885" lon="14.94387">
        <ele>366.558524</ele>
        <time>2026-07-11T09:32:58.000Z</time>
      </trkpt>
      <trkpt lat="46.22855" lon="14.94372">
        <ele>367.089654</ele>
        <time>2026-07-11T09:33:05.000Z</time>
      </trkpt>
      <trkpt lat="46.22843" lon="14.94366">
        <ele>367.295848</ele>
        <time>2026-07-11T09:33:08.000Z</time>
      </trkpt>
      <trkpt lat="46.22811" lon="14.94352">
        <ele>367.669465</ele>
        <time>2026-07-11T09:33:16.000Z</time>
      </trkpt>
      <trkpt lat="46.22804" lon="14.94349">
        <ele>367.741951</ele>
        <time>2026-07-11T09:33:18.000Z</time>
      </trkpt>
      <trkpt lat="46.22798" lon="14.94341">
        <ele>367.810009</ele>
        <time>2026-07-11T09:33:20.000Z</time>
      </trkpt>
      <trkpt lat="46.22797" lon="14.94336">
        <ele>367.845186</ele>
        <time>2026-07-11T09:33:21.000Z</time>
      </trkpt>
      <trkpt lat="46.22796" lon="14.94301">
        <ele>368.064346</ele>
        <time>2026-07-11T09:33:27.000Z</time>
      </trkpt>
      <trkpt lat="46.22789" lon="14.94267">
        <ele>368.287629</ele>
        <time>2026-07-11T09:33:33.000Z</time>
      </trkpt>
      <trkpt lat="46.22774" lon="14.94238">
        <ele>368.513979</ele>
        <time>2026-07-11T09:33:39.000Z</time>
      </trkpt>
      <trkpt lat="46.22769" lon="14.94229">
        <ele>368.589311</ele>
        <time>2026-07-11T09:33:41.000Z</time>
      </trkpt>
      <trkpt lat="46.22747" lon="14.94184">
        <ele>368.930774</ele>
        <time>2026-07-11T09:33:50.000Z</time>
      </trkpt>
      <trkpt lat="46.22735" lon="14.9414">
        <ele>368.945609</ele>
        <time>2026-07-11T09:33:58.000Z</time>
      </trkpt>
      <trkpt lat="46.22732" lon="14.94092">
        <ele>368.652705</ele>
        <time>2026-07-11T09:34:06.000Z</time>
      </trkpt>
      <trkpt lat="46.22734" lon="14.94018">
        <ele>368.201121</ele>
        <time>2026-07-11T09:34:18.000Z</time>
      </trkpt>
      <trkpt lat="46.22734" lon="14.94006">
        <ele>368.125458</ele>
        <time>2026-07-11T09:34:20.000Z</time>
      </trkpt>
      <trkpt lat="46.22734" lon="14.93987">
        <ele>368.013214</ele>
        <time>2026-07-11T09:34:23.000Z</time>
      </trkpt>
      <trkpt lat="46.22733" lon="14.93982">
        <ele>367.977734</ele>
        <time>2026-07-11T09:34:24.000Z</time>
      </trkpt>
      <trkpt lat="46.22734" lon="14.93939">
        <ele>367.715388</ele>
        <time>2026-07-11T09:34:31.000Z</time>
      </trkpt>
      <trkpt lat="46.22734" lon="14.93926">
        <ele>367.64096</ele>
        <time>2026-07-11T09:34:33.000Z</time>
      </trkpt>
      <trkpt lat="46.22734" lon="14.93878">
        <ele>367.994303</ele>
        <time>2026-07-11T09:34:41.000Z</time>
      </trkpt>
      <trkpt lat="46.22729" lon="14.93817">
        <ele>369.211642</ele>
        <time>2026-07-11T09:34:51.000Z</time>
      </trkpt>
      <trkpt lat="46.22717" lon="14.93765">
        <ele>370.297144</ele>
        <time>2026-07-11T09:35:00.000Z</time>
      </trkpt>
      <trkpt lat="46.22698" lon="14.93703">
        <ele>371.630182</ele>
        <time>2026-07-11T09:35:11.000Z</time>
      </trkpt>
      <trkpt lat="46.22681" lon="14.93652">
        <ele>372.661784</ele>
        <time>2026-07-11T09:35:20.000Z</time>
      </trkpt>
      <trkpt lat="46.22664" lon="14.93596">
        <ele>372.952231</ele>
        <time>2026-07-11T09:35:30.000Z</time>
      </trkpt>
      <trkpt lat="46.22653" lon="14.93542">
        <ele>373.223407</ele>
        <time>2026-07-11T09:35:39.000Z</time>
      </trkpt>
      <trkpt lat="46.22642" lon="14.93474">
        <ele>373.552377</ele>
        <time>2026-07-11T09:35:50.000Z</time>
      </trkpt>
      <trkpt lat="46.22632" lon="14.93421">
        <ele>373.816366</ele>
        <time>2026-07-11T09:35:59.000Z</time>
      </trkpt>
      <trkpt lat="46.22625" lon="14.93364">
        <ele>373.795556</ele>
        <time>2026-07-11T09:36:08.000Z</time>
      </trkpt>
      <trkpt lat="46.22615" lon="14.93302">
        <ele>373.690609</ele>
        <time>2026-07-11T09:36:18.000Z</time>
      </trkpt>
      <trkpt lat="46.22603" lon="14.93237">
        <ele>373.579558</ele>
        <time>2026-07-11T09:36:29.000Z</time>
      </trkpt>
      <trkpt lat="46.22591" lon="14.93185">
        <ele>373.488703</ele>
        <time>2026-07-11T09:36:38.000Z</time>
      </trkpt>
      <trkpt lat="46.22576" lon="14.93126">
        <ele>374.105882</ele>
        <time>2026-07-11T09:36:48.000Z</time>
      </trkpt>
      <trkpt lat="46.22562" lon="14.93076">
        <ele>375.162059</ele>
        <time>2026-07-11T09:36:56.000Z</time>
      </trkpt>
      <trkpt lat="46.22544" lon="14.93021">
        <ele>376.362732</ele>
        <time>2026-07-11T09:37:05.000Z</time>
      </trkpt>
      <trkpt lat="46.22519" lon="14.92947">
        <ele>377.975577</ele>
        <time>2026-07-11T09:37:17.000Z</time>
      </trkpt>
      <trkpt lat="46.22517" lon="14.92941">
        <ele>378.101747</ele>
        <time>2026-07-11T09:37:18.000Z</time>
      </trkpt>
      <trkpt lat="46.22499" lon="14.92886">
        <ele>379.418925</ele>
        <time>2026-07-11T09:37:27.000Z</time>
      </trkpt>
      <trkpt lat="46.22482" lon="14.92832">
        <ele>380.770847</ele>
        <time>2026-07-11T09:37:36.000Z</time>
      </trkpt>
      <trkpt lat="46.22465" lon="14.92778">
        <ele>382.119505</ele>
        <time>2026-07-11T09:37:45.000Z</time>
      </trkpt>
      <trkpt lat="46.22459" lon="14.92741">
        <ele>382.995025</ele>
        <time>2026-07-11T09:37:51.000Z</time>
      </trkpt>
      <trkpt lat="46.22458" lon="14.92727">
        <ele>383.294389</ele>
        <time>2026-07-11T09:37:53.000Z</time>
      </trkpt>
      <trkpt lat="46.22454" lon="14.92675">
        <ele>384.463899</ele>
        <time>2026-07-11T09:38:01.000Z</time>
      </trkpt>
      <trkpt lat="46.22452" lon="14.92598">
        <ele>385.462845</ele>
        <time>2026-07-11T09:38:13.000Z</time>
      </trkpt>
      <trkpt lat="46.22449" lon="14.92558">
        <ele>385.985016</ele>
        <time>2026-07-11T09:38:19.000Z</time>
      </trkpt>
      <trkpt lat="46.22447" lon="14.92546">
        <ele>386.140798</ele>
        <time>2026-07-11T09:38:21.000Z</time>
      </trkpt>
      <trkpt lat="46.22436" lon="14.92492">
        <ele>386.867768</ele>
        <time>2026-07-11T09:38:30.000Z</time>
      </trkpt>
      <trkpt lat="46.2243" lon="14.92463">
        <ele>387.255955</ele>
        <time>2026-07-11T09:38:35.000Z</time>
      </trkpt>
      <trkpt lat="46.22428" lon="14.92452">
        <ele>387.410815</ele>
        <time>2026-07-11T09:38:37.000Z</time>
      </trkpt>
      <trkpt lat="46.22423" lon="14.92436">
        <ele>387.639104</ele>
        <time>2026-07-11T09:38:40.000Z</time>
      </trkpt>
      <trkpt lat="46.22417" lon="14.9242">
        <ele>387.877709</ele>
        <time>2026-07-11T09:38:43.000Z</time>
      </trkpt>
      <trkpt lat="46.22415" lon="14.92409">
        <ele>388.065484</ele>
        <time>2026-07-11T09:38:45.000Z</time>
      </trkpt>
      <trkpt lat="46.22408" lon="14.92371">
        <ele>388.692647</ele>
        <time>2026-07-11T09:38:52.000Z</time>
      </trkpt>
      <trkpt lat="46.22406" lon="14.92355">
        <ele>388.955241</ele>
        <time>2026-07-11T09:38:55.000Z</time>
      </trkpt>
      <trkpt lat="46.224" lon="14.92305">
        <ele>389.778396</ele>
        <time>2026-07-11T09:39:04.000Z</time>
      </trkpt>
      <trkpt lat="46.22396" lon="14.92246">
        <ele>390.724965</ele>
        <time>2026-07-11T09:39:14.000Z</time>
      </trkpt>
      <trkpt lat="46.22396" lon="14.9221">
        <ele>391.298924</ele>
        <time>2026-07-11T09:39:20.000Z</time>
      </trkpt>
      <trkpt lat="46.22395" lon="14.92188">
        <ele>391.664245</ele>
        <time>2026-07-11T09:39:24.000Z</time>
      </trkpt>
      <trkpt lat="46.22397" lon="14.92164">
        <ele>391.892453</ele>
        <time>2026-07-11T09:39:28.000Z</time>
      </trkpt>
      <trkpt lat="46.22402" lon="14.92092">
        <ele>390.607692</ele>
        <time>2026-07-11T09:39:39.000Z</time>
      </trkpt>
      <trkpt lat="46.22404" lon="14.92032">
        <ele>389.536921</ele>
        <time>2026-07-11T09:39:48.000Z</time>
      </trkpt>
      <trkpt lat="46.22408" lon="14.91956">
        <ele>388.173038</ele>
        <time>2026-07-11T09:39:59.000Z</time>
      </trkpt>
      <trkpt lat="46.22408" lon="14.91948">
        <ele>388.041356</ele>
        <time>2026-07-11T09:40:00.000Z</time>
      </trkpt>
      <trkpt lat="46.2241" lon="14.91905">
        <ele>387.302346</ele>
        <time>2026-07-11T09:40:06.000Z</time>
      </trkpt>
      <trkpt lat="46.22411" lon="14.91861">
        <ele>386.815229</ele>
        <time>2026-07-11T09:40:12.000Z</time>
      </trkpt>
      <trkpt lat="46.22411" lon="14.91832">
        <ele>386.497908</ele>
        <time>2026-07-11T09:40:16.000Z</time>
      </trkpt>
      <trkpt lat="46.22408" lon="14.91812">
        <ele>386.266497</ele>
        <time>2026-07-11T09:40:19.000Z</time>
      </trkpt>
      <trkpt lat="46.22407" lon="14.91798">
        <ele>386.107646</ele>
        <time>2026-07-11T09:40:21.000Z</time>
      </trkpt>
      <trkpt lat="46.22401" lon="14.91771">
        <ele>385.798824</ele>
        <time>2026-07-11T09:40:25.000Z</time>
      </trkpt>
      <trkpt lat="46.22388" lon="14.91717">
        <ele>385.156797</ele>
        <time>2026-07-11T09:40:33.000Z</time>
      </trkpt>
      <trkpt lat="46.22371" lon="14.91674">
        <ele>384.612641</ele>
        <time>2026-07-11T09:40:40.000Z</time>
      </trkpt>
      <trkpt lat="46.22367" lon="14.91669">
        <ele>384.526833</ele>
        <time>2026-07-11T09:40:41.000Z</time>
      </trkpt>
      <trkpt lat="46.22343" lon="14.91631">
        <ele>385.228036</ele>
        <time>2026-07-11T09:40:48.000Z</time>
      </trkpt>
      <trkpt lat="46.22322" lon="14.91602">
        <ele>385.929782</ele>
        <time>2026-07-11T09:40:54.000Z</time>
      </trkpt>
      <trkpt lat="46.22298" lon="14.91576">
        <ele>386.642675</ele>
        <time>2026-07-11T09:41:00.000Z</time>
      </trkpt>
      <trkpt lat="46.22287" lon="14.91561">
        <ele>386.997972</ele>
        <time>2026-07-11T09:41:03.000Z</time>
      </trkpt>
      <trkpt lat="46.22267" lon="14.9153">
        <ele>387.711997</ele>
        <time>2026-07-11T09:41:09.000Z</time>
      </trkpt>
      <trkpt lat="46.22264" lon="14.91524">
        <ele>387.815469</ele>
        <time>2026-07-11T09:41:10.000Z</time>
      </trkpt>
      <trkpt lat="46.22244" lon="14.91493">
        <ele>388.530873</ele>
        <time>2026-07-11T09:41:16.000Z</time>
      </trkpt>
      <trkpt lat="46.22241" lon="14.91487">
        <ele>388.643705</ele>
        <time>2026-07-11T09:41:17.000Z</time>
      </trkpt>
      <trkpt lat="46.2222" lon="14.91441">
        <ele>390.322187</ele>
        <time>2026-07-11T09:41:25.000Z</time>
      </trkpt>
      <trkpt lat="46.22191" lon="14.91374">
        <ele>392.872124</ele>
        <time>2026-07-11T09:41:36.000Z</time>
      </trkpt>
      <trkpt lat="46.22167" lon="14.91326">
        <ele>394.772646</ele>
        <time>2026-07-11T09:41:44.000Z</time>
      </trkpt>
      <trkpt lat="46.22142" lon="14.91273">
        <ele>396.826593</ele>
        <time>2026-07-11T09:41:53.000Z</time>
      </trkpt>
      <trkpt lat="46.22121" lon="14.91232">
        <ele>397.549791</ele>
        <time>2026-07-11T09:42:01.000Z</time>
      </trkpt>
      <trkpt lat="46.22118" lon="14.91228">
        <ele>397.613013</ele>
        <time>2026-07-11T09:42:02.000Z</time>
      </trkpt>
      <trkpt lat="46.22112" lon="14.91219">
        <ele>397.73563</ele>
        <time>2026-07-11T09:42:04.000Z</time>
      </trkpt>
      <trkpt lat="46.22101" lon="14.91207">
        <ele>397.930708</ele>
        <time>2026-07-11T09:42:07.000Z</time>
      </trkpt>
      <trkpt lat="46.22086" lon="14.91194">
        <ele>398.180406</ele>
        <time>2026-07-11T09:42:11.000Z</time>
      </trkpt>
      <trkpt lat="46.22074" lon="14.91186">
        <ele>398.365095</ele>
        <time>2026-07-11T09:42:14.000Z</time>
      </trkpt>
      <trkpt lat="46.2207" lon="14.91183">
        <ele>398.425675</ele>
        <time>2026-07-11T09:42:15.000Z</time>
      </trkpt>
      <trkpt lat="46.22057" lon="14.91178">
        <ele>398.613872</ele>
        <time>2026-07-11T09:42:18.000Z</time>
      </trkpt>
      <trkpt lat="46.22052" lon="14.91177">
        <ele>398.67983</ele>
        <time>2026-07-11T09:42:19.000Z</time>
      </trkpt>
      <trkpt lat="46.22024" lon="14.91159">
        <ele>399.113909</ele>
        <time>2026-07-11T09:42:26.000Z</time>
      </trkpt>
      <trkpt lat="46.21991" lon="14.91136">
        <ele>399.628207</ele>
        <time>2026-07-11T09:42:34.000Z</time>
      </trkpt>
      <trkpt lat="46.21967" lon="14.91112">
        <ele>399.880181</ele>
        <time>2026-07-11T09:42:41.000Z</time>
      </trkpt>
      <trkpt lat="46.21947" lon="14.91085">
        <ele>400.087661</ele>
        <time>2026-07-11T09:42:47.000Z</time>
      </trkpt>
      <trkpt lat="46.21937" lon="14.91072">
        <ele>400.196517</ele>
        <time>2026-07-11T09:42:50.000Z</time>
      </trkpt>
      <trkpt lat="46.21902" lon="14.91028">
        <ele>400.55544</ele>
        <time>2026-07-11T09:43:00.000Z</time>
      </trkpt>
      <trkpt lat="46.21868" lon="14.90988">
        <ele>400.894145</ele>
        <time>2026-07-11T09:43:09.000Z</time>
      </trkpt>
      <trkpt lat="46.21842" lon="14.90957">
        <ele>401.282827</ele>
        <time>2026-07-11T09:43:16.000Z</time>
      </trkpt>
      <trkpt lat="46.21832" lon="14.90944">
        <ele>401.578256</ele>
        <time>2026-07-11T09:43:19.000Z</time>
      </trkpt>
      <trkpt lat="46.2182" lon="14.90925">
        <ele>401.947871</ele>
        <time>2026-07-11T09:43:23.000Z</time>
      </trkpt>
      <trkpt lat="46.2181" lon="14.90911">
        <ele>402.236796</ele>
        <time>2026-07-11T09:43:26.000Z</time>
      </trkpt>
      <trkpt lat="46.21795" lon="14.90891">
        <ele>402.675518</ele>
        <time>2026-07-11T09:43:30.000Z</time>
      </trkpt>
      <trkpt lat="46.21769" lon="14.90846">
        <ele>403.538967</ele>
        <time>2026-07-11T09:43:38.000Z</time>
      </trkpt>
      <trkpt lat="46.21745" lon="14.908">
        <ele>404.375427</ele>
        <time>2026-07-11T09:43:46.000Z</time>
      </trkpt>
      <trkpt lat="46.21728" lon="14.90754">
        <ele>405.197772</ele>
        <time>2026-07-11T09:43:53.000Z</time>
      </trkpt>
      <trkpt lat="46.21721" lon="14.90704">
        <ele>406.154524</ele>
        <time>2026-07-11T09:44:00.000Z</time>
      </trkpt>
      <trkpt lat="46.21717" lon="14.9064">
        <ele>407.354421</ele>
        <time>2026-07-11T09:44:09.000Z</time>
      </trkpt>
      <trkpt lat="46.21705" lon="14.90577">
        <ele>408.552572</ele>
        <time>2026-07-11T09:44:18.000Z</time>
      </trkpt>
      <trkpt lat="46.21696" lon="14.90515">
        <ele>409.712671</ele>
        <time>2026-07-11T09:44:27.000Z</time>
      </trkpt>
      <trkpt lat="46.21692" lon="14.90494">
        <ele>409.833976</ele>
        <time>2026-07-11T09:44:30.000Z</time>
      </trkpt>
      <trkpt lat="46.21685" lon="14.90452">
        <ele>410.076827</ele>
        <time>2026-07-11T09:44:36.000Z</time>
      </trkpt>
      <trkpt lat="46.21683" lon="14.90438">
        <ele>410.156365</ele>
        <time>2026-07-11T09:44:38.000Z</time>
      </trkpt>
      <trkpt lat="46.2168" lon="14.9041">
        <ele>410.315902</ele>
        <time>2026-07-11T09:44:42.000Z</time>
      </trkpt>
      <trkpt lat="46.21667" lon="14.90349">
        <ele>410.676413</ele>
        <time>2026-07-11T09:44:51.000Z</time>
      </trkpt>
      <trkpt lat="46.21652" lon="14.90279">
        <ele>411.086866</ele>
        <time>2026-07-11T09:45:01.000Z</time>
      </trkpt>
      <trkpt lat="46.21639" lon="14.90226">
        <ele>411.910464</ele>
        <time>2026-07-11T09:45:09.000Z</time>
      </trkpt>
      <trkpt lat="46.21622" lon="14.9015">
        <ele>413.272693</ele>
        <time>2026-07-11T09:45:20.000Z</time>
      </trkpt>
      <trkpt lat="46.21618" lon="14.90116">
        <ele>413.860667</ele>
        <time>2026-07-11T09:45:25.000Z</time>
      </trkpt>
      <trkpt lat="46.21617" lon="14.90095">
        <ele>414.209178</ele>
        <time>2026-07-11T09:45:28.000Z</time>
      </trkpt>
      <trkpt lat="46.21615" lon="14.90024">
        <ele>415.420955</ele>
        <time>2026-07-11T09:45:38.000Z</time>
      </trkpt>
      <trkpt lat="46.21607" lon="14.8997">
        <ele>416.163349</ele>
        <time>2026-07-11T09:45:46.000Z</time>
      </trkpt>
      <trkpt lat="46.21606" lon="14.89932">
        <ele>416.643301</ele>
        <time>2026-07-11T09:45:52.000Z</time>
      </trkpt>
      <trkpt lat="46.21606" lon="14.8992">
        <ele>416.788791</ele>
        <time>2026-07-11T09:45:54.000Z</time>
      </trkpt>
      <trkpt lat="46.21606" lon="14.89915">
        <ele>416.859858</ele>
        <time>2026-07-11T09:45:55.000Z</time>
      </trkpt>
      <trkpt lat="46.21608" lon="14.89897">
        <ele>417.08453</ele>
        <time>2026-07-11T09:45:58.000Z</time>
      </trkpt>
      <trkpt lat="46.21608" lon="14.89891">
        <ele>417.15993</ele>
        <time>2026-07-11T09:45:59.000Z</time>
      </trkpt>
      <trkpt lat="46.21617" lon="14.89843">
        <ele>417.786782</ele>
        <time>2026-07-11T09:46:07.000Z</time>
      </trkpt>
      <trkpt lat="46.21624" lon="14.89791">
        <ele>418.445539</ele>
        <time>2026-07-11T09:46:15.000Z</time>
      </trkpt>
      <trkpt lat="46.21624" lon="14.89785">
        <ele>418.529585</ele>
        <time>2026-07-11T09:46:16.000Z</time>
      </trkpt>
      <trkpt lat="46.21624" lon="14.89737">
        <ele>419.057665</ele>
        <time>2026-07-11T09:46:23.000Z</time>
      </trkpt>
      <trkpt lat="46.21628" lon="14.89671">
        <ele>419.685837</ele>
        <time>2026-07-11T09:46:33.000Z</time>
      </trkpt>
      <trkpt lat="46.21634" lon="14.89619">
        <ele>420.178859</ele>
        <time>2026-07-11T09:46:41.000Z</time>
      </trkpt>
      <trkpt lat="46.21634" lon="14.89613">
        <ele>420.239375</ele>
        <time>2026-07-11T09:46:42.000Z</time>
      </trkpt>
      <trkpt lat="46.21635" lon="14.89599">
        <ele>420.369514</ele>
        <time>2026-07-11T09:46:44.000Z</time>
      </trkpt>
      <trkpt lat="46.21636" lon="14.89573">
        <ele>420.615728</ele>
        <time>2026-07-11T09:46:48.000Z</time>
      </trkpt>
      <trkpt lat="46.21641" lon="14.89512">
        <ele>421.192892</ele>
        <time>2026-07-11T09:46:57.000Z</time>
      </trkpt>
      <trkpt lat="46.21641" lon="14.89498">
        <ele>421.31552</ele>
        <time>2026-07-11T09:46:59.000Z</time>
      </trkpt>
      <trkpt lat="46.2164" lon="14.89477">
        <ele>421.35265</ele>
        <time>2026-07-11T09:47:02.000Z</time>
      </trkpt>
      <trkpt lat="46.21641" lon="14.89464">
        <ele>421.377161</ele>
        <time>2026-07-11T09:47:04.000Z</time>
      </trkpt>
      <trkpt lat="46.21642" lon="14.89395">
        <ele>421.500365</ele>
        <time>2026-07-11T09:47:14.000Z</time>
      </trkpt>
      <trkpt lat="46.21642" lon="14.89347">
        <ele>421.587885</ele>
        <time>2026-07-11T09:47:21.000Z</time>
      </trkpt>
      <trkpt lat="46.21643" lon="14.89285">
        <ele>421.699911</ele>
        <time>2026-07-11T09:47:30.000Z</time>
      </trkpt>
      <trkpt lat="46.21642" lon="14.89231">
        <ele>421.890952</ele>
        <time>2026-07-11T09:47:38.000Z</time>
      </trkpt>
      <trkpt lat="46.21644" lon="14.89164">
        <ele>422.732705</ele>
        <time>2026-07-11T09:47:48.000Z</time>
      </trkpt>
      <trkpt lat="46.2165" lon="14.89099">
        <ele>423.552327</ele>
        <time>2026-07-11T09:47:58.000Z</time>
      </trkpt>
      <trkpt lat="46.21652" lon="14.89086">
        <ele>423.719668</ele>
        <time>2026-07-11T09:48:00.000Z</time>
      </trkpt>
      <trkpt lat="46.21657" lon="14.89053">
        <ele>424.139075</ele>
        <time>2026-07-11T09:48:05.000Z</time>
      </trkpt>
      <trkpt lat="46.2166" lon="14.89009">
        <ele>424.695932</ele>
        <time>2026-07-11T09:48:12.000Z</time>
      </trkpt>
      <trkpt lat="46.21663" lon="14.88962">
        <ele>425.488399</ele>
        <time>2026-07-11T09:48:21.000Z</time>
      </trkpt>
      <trkpt lat="46.21658" lon="14.88945">
        <ele>425.92128</ele>
        <time>2026-07-11T09:48:25.000Z</time>
      </trkpt>
      <trkpt lat="46.21646" lon="14.88941">
        <ele>426.351366</ele>
        <time>2026-07-11T09:48:29.000Z</time>
      </trkpt>
      <trkpt lat="46.21623" lon="14.88939">
        <ele>427.143109</ele>
        <time>2026-07-11T09:48:34.000Z</time>
      </trkpt>
      <trkpt lat="46.21606" lon="14.88937">
        <ele>427.729407</ele>
        <time>2026-07-11T09:48:38.000Z</time>
      </trkpt>
      <trkpt lat="46.21599" lon="14.88937">
        <ele>427.960511</ele>
        <time>2026-07-11T09:48:40.000Z</time>
      </trkpt>
      <trkpt lat="46.2158" lon="14.88936">
        <ele>428.59558</ele>
        <time>2026-07-11T09:48:46.000Z</time>
      </trkpt>
      <trkpt lat="46.21572" lon="14.88935">
        <ele>428.886525</ele>
        <time>2026-07-11T09:48:51.000Z</time>
      </trkpt>
      <trkpt lat="46.21566" lon="14.88937">
        <ele>429.084127</ele>
        <time>2026-07-11T09:50:30.000Z</time>
      </trkpt>
      <trkpt lat="46.21564" lon="14.88937">
        <ele>429.152658</ele>
        <time>2026-07-11T09:50:31.000Z</time>
      </trkpt>
      <trkpt lat="46.2155" lon="14.88935">
        <ele>429.6239</ele>
        <time>2026-07-11T09:50:36.000Z</time>
      </trkpt>
      <trkpt lat="46.21536" lon="14.88936">
        <ele>430.107729</ele>
        <time>2026-07-11T09:50:40.000Z</time>
      </trkpt>
      <trkpt lat="46.21529" lon="14.88936">
        <ele>430.362305</ele>
        <time>2026-07-11T09:50:42.000Z</time>
      </trkpt>
      <trkpt lat="46.21525" lon="14.88936">
        <ele>430.474535</ele>
        <time>2026-07-11T09:50:43.000Z</time>
      </trkpt>
      <trkpt lat="46.21503" lon="14.88929">
        <ele>431.239188</ele>
        <time>2026-07-11T09:50:50.000Z</time>
      </trkpt>
      <trkpt lat="46.2149" lon="14.88914">
        <ele>431.721517</ele>
        <time>2026-07-11T09:50:55.000Z</time>
      </trkpt>
      <trkpt lat="46.21476" lon="14.88881">
        <ele>432.491834</ele>
        <time>2026-07-11T09:51:02.000Z</time>
      </trkpt>
      <trkpt lat="46.21468" lon="14.88844">
        <ele>433.265924</ele>
        <time>2026-07-11T09:51:08.000Z</time>
      </trkpt>
      <trkpt lat="46.21466" lon="14.88831">
        <ele>433.526154</ele>
        <time>2026-07-11T09:51:10.000Z</time>
      </trkpt>
      <trkpt lat="46.21463" lon="14.88787">
        <ele>434.426476</ele>
        <time>2026-07-11T09:51:17.000Z</time>
      </trkpt>
      <trkpt lat="46.21461" lon="14.88748">
        <ele>435.197507</ele>
        <time>2026-07-11T09:51:24.000Z</time>
      </trkpt>
      <trkpt lat="46.21458" lon="14.88738">
        <ele>435.410627</ele>
        <time>2026-07-11T09:51:27.000Z</time>
      </trkpt>
      <trkpt lat="46.21458" lon="14.88738">
        <ele>435.43176</ele>
        <time>2026-07-11T09:51:28.000Z</time>
      </trkpt>
      <trkpt lat="46.21463" lon="14.88731">
        <ele>435.641719</ele>
        <time>2026-07-11T09:55:41.000Z</time>
      </trkpt>
      <trkpt lat="46.21463" lon="14.88728">
        <ele>435.697871</ele>
        <time>2026-07-11T09:55:42.000Z</time>
      </trkpt>
      <trkpt lat="46.21461" lon="14.88712">
        <ele>436.026478</ele>
        <time>2026-07-11T09:55:47.000Z</time>
      </trkpt>
      <trkpt lat="46.21458" lon="14.88693">
        <ele>436.422831</ele>
        <time>2026-07-11T09:55:53.000Z</time>
      </trkpt>
      <trkpt lat="46.21455" lon="14.88674">
        <ele>436.914433</ele>
        <time>2026-07-11T09:55:59.000Z</time>
      </trkpt>
      <trkpt lat="46.21454" lon="14.88671">
        <ele>436.994804</ele>
        <time>2026-07-11T09:56:00.000Z</time>
      </trkpt>
      <trkpt lat="46.2145" lon="14.88645">
        <ele>437.636251</ele>
        <time>2026-07-11T09:56:07.000Z</time>
      </trkpt>
      <trkpt lat="46.2145" lon="14.88642">
        <ele>437.72861</ele>
        <time>2026-07-11T09:56:08.000Z</time>
      </trkpt>
      <trkpt lat="46.21449" lon="14.88622">
        <ele>438.216965</ele>
        <time>2026-07-11T09:56:13.000Z</time>
      </trkpt>
      <trkpt lat="46.2145" lon="14.88609">
        <ele>438.517194</ele>
        <time>2026-07-11T09:56:16.000Z</time>
      </trkpt>
      <trkpt lat="46.21452" lon="14.88571">
        <ele>439.465251</ele>
        <time>2026-07-11T09:56:25.000Z</time>
      </trkpt>
      <trkpt lat="46.21453" lon="14.88544">
        <ele>440.114504</ele>
        <time>2026-07-11T09:56:32.000Z</time>
      </trkpt>
      <trkpt lat="46.21454" lon="14.8854">
        <ele>440.218912</ele>
        <time>2026-07-11T09:56:33.000Z</time>
      </trkpt>
      <trkpt lat="46.21452" lon="14.88521">
        <ele>440.698933</ele>
        <time>2026-07-11T09:56:39.000Z</time>
      </trkpt>
      <trkpt lat="46.21452" lon="14.88515">
        <ele>440.848377</ele>
        <time>2026-07-11T09:56:43.000Z</time>
      </trkpt>
      <trkpt lat="46.21457" lon="14.88515">
        <ele>441.032551</ele>
        <time>2026-07-11T10:00:06.000Z</time>
      </trkpt>
      <trkpt lat="46.2146" lon="14.88511">
        <ele>441.177477</ele>
        <time>2026-07-11T10:00:08.000Z</time>
      </trkpt>
      <trkpt lat="46.21464" lon="14.88502">
        <ele>441.436058</ele>
        <time>2026-07-11T10:00:12.000Z</time>
      </trkpt>
      <trkpt lat="46.21464" lon="14.88498">
        <ele>441.536754</ele>
        <time>2026-07-11T10:00:13.000Z</time>
      </trkpt>
      <trkpt lat="46.21463" lon="14.88494">
        <ele>441.646813</ele>
        <time>2026-07-11T10:00:14.000Z</time>
      </trkpt>
      <trkpt lat="46.21461" lon="14.88491">
        <ele>441.741505</ele>
        <time>2026-07-11T10:00:15.000Z</time>
      </trkpt>
      <trkpt lat="46.2146" lon="14.88489">
        <ele>441.811203</ele>
        <time>2026-07-11T10:00:16.000Z</time>
      </trkpt>
      <trkpt lat="46.21458" lon="14.88488">
        <ele>441.903045</ele>
        <time>2026-07-11T10:00:17.000Z</time>
      </trkpt>
      <trkpt lat="46.21448" lon="14.88484">
        <ele>442.271072</ele>
        <time>2026-07-11T10:00:23.000Z</time>
      </trkpt>
      <trkpt lat="46.21447" lon="14.88486">
        <ele>442.327668</ele>
        <time>2026-07-11T10:00:25.000Z</time>
      </trkpt>
      <trkpt lat="46.21452" lon="14.88485">
        <ele>442.505776</ele>
        <time>2026-07-11T10:00:43.000Z</time>
      </trkpt>
      <trkpt lat="46.21453" lon="14.88485">
        <ele>442.559391</ele>
        <time>2026-07-11T10:00:44.000Z</time>
      </trkpt>
      <trkpt lat="46.21457" lon="14.88487">
        <ele>442.711103</ele>
        <time>2026-07-11T10:00:46.000Z</time>
      </trkpt>
      <trkpt lat="46.21467" lon="14.88487">
        <ele>442.772538</ele>
        <time>2026-07-11T10:00:49.000Z</time>
      </trkpt>
      <trkpt lat="46.21473" lon="14.88484">
        <ele>442.815527</ele>
        <time>2026-07-11T10:00:51.000Z</time>
      </trkpt>
      <trkpt lat="46.21478" lon="14.88479">
        <ele>442.851902</ele>
        <time>2026-07-11T10:00:53.000Z</time>
      </trkpt>
      <trkpt lat="46.21485" lon="14.88471">
        <ele>442.905624</ele>
        <time>2026-07-11T10:00:56.000Z</time>
      </trkpt>
      <trkpt lat="46.2149" lon="14.88461">
        <ele>442.955033</ele>
        <time>2026-07-11T10:00:59.000Z</time>
      </trkpt>
      <trkpt lat="46.21492" lon="14.88459">
        <ele>442.972035</ele>
        <time>2026-07-11T10:01:00.000Z</time>
      </trkpt>
      <trkpt lat="46.21496" lon="14.88448">
        <ele>443.022907</ele>
        <time>2026-07-11T10:01:04.000Z</time>
      </trkpt>
      <trkpt lat="46.21504" lon="14.8843">
        <ele>443.111773</ele>
        <time>2026-07-11T10:01:09.000Z</time>
      </trkpt>
      <trkpt lat="46.21514" lon="14.88401">
        <ele>443.246438</ele>
        <time>2026-07-11T10:01:18.000Z</time>
      </trkpt>
      <trkpt lat="46.21524" lon="14.88368">
        <ele>443.395007</ele>
        <time>2026-07-11T10:01:26.000Z</time>
      </trkpt>
      <trkpt lat="46.21534" lon="14.88329">
        <ele>443.564463</ele>
        <time>2026-07-11T10:01:35.000Z</time>
      </trkpt>
      <trkpt lat="46.21537" lon="14.88318">
        <ele>443.615552</ele>
        <time>2026-07-11T10:01:38.000Z</time>
      </trkpt>
      <trkpt lat="46.2154" lon="14.88304">
        <ele>443.677238</ele>
        <time>2026-07-11T10:01:42.000Z</time>
      </trkpt>
      <trkpt lat="46.21545" lon="14.88278">
        <ele>443.787988</ele>
        <time>2026-07-11T10:01:49.000Z</time>
      </trkpt>
      <trkpt lat="46.2155" lon="14.88246">
        <ele>444.190541</ele>
        <time>2026-07-11T10:01:58.000Z</time>
      </trkpt>
      <trkpt lat="46.21552" lon="14.88226">
        <ele>444.44171</ele>
        <time>2026-07-11T10:02:03.000Z</time>
      </trkpt>
      <trkpt lat="46.21554" lon="14.88211">
        <ele>444.639102</ele>
        <time>2026-07-11T10:02:07.000Z</time>
      </trkpt>
      <trkpt lat="46.21555" lon="14.88199">
        <ele>444.786772</ele>
        <time>2026-07-11T10:02:10.000Z</time>
      </trkpt>
      <trkpt lat="46.21558" lon="14.8817">
        <ele>445.155773</ele>
        <time>2026-07-11T10:02:18.000Z</time>
      </trkpt>
      <trkpt lat="46.2156" lon="14.88155">
        <ele>445.350125</ele>
        <time>2026-07-11T10:02:22.000Z</time>
      </trkpt>
      <trkpt lat="46.21562" lon="14.88137">
        <ele>445.585749</ele>
        <time>2026-07-11T10:02:27.000Z</time>
      </trkpt>
      <trkpt lat="46.21565" lon="14.88107">
        <ele>445.961299</ele>
        <time>2026-07-11T10:02:35.000Z</time>
      </trkpt>
      <trkpt lat="46.21566" lon="14.881">
        <ele>446.051354</ele>
        <time>2026-07-11T10:02:37.000Z</time>
      </trkpt>
      <trkpt lat="46.21566" lon="14.88097">
        <ele>446.095857</ele>
        <time>2026-07-11T10:02:38.000Z</time>
      </trkpt>
      <trkpt lat="46.21567" lon="14.88089">
        <ele>446.187167</ele>
        <time>2026-07-11T10:02:40.000Z</time>
      </trkpt>
      <trkpt lat="46.21569" lon="14.88065">
        <ele>446.496414</ele>
        <time>2026-07-11T10:02:47.000Z</time>
      </trkpt>
      <trkpt lat="46.21576" lon="14.88051">
        <ele>446.714369</ele>
        <time>2026-07-11T10:02:52.000Z</time>
      </trkpt>
      <trkpt lat="46.21578" lon="14.88048">
        <ele>446.774695</ele>
        <time>2026-07-11T10:02:53.000Z</time>
      </trkpt>
      <trkpt lat="46.21592" lon="14.88033">
        <ele>447.079085</ele>
        <time>2026-07-11T10:02:59.000Z</time>
      </trkpt>
      <trkpt lat="46.21592" lon="14.88002">
        <ele>447.342719</ele>
        <time>2026-07-11T10:03:04.000Z</time>
      </trkpt>
      <trkpt lat="46.21591" lon="14.87974">
        <ele>447.584314</ele>
        <time>2026-07-11T10:03:08.000Z</time>
      </trkpt>
      <trkpt lat="46.21591" lon="14.87946">
        <ele>447.825462</ele>
        <time>2026-07-11T10:03:12.000Z</time>
      </trkpt>
      <trkpt lat="46.21591" lon="14.8789">
        <ele>448.307749</ele>
        <time>2026-07-11T10:03:21.000Z</time>
      </trkpt>
      <trkpt lat="46.21591" lon="14.87868">
        <ele>448.499971</ele>
        <time>2026-07-11T10:03:25.000Z</time>
      </trkpt>
      <trkpt lat="46.21591" lon="14.87852">
        <ele>448.633074</ele>
        <time>2026-07-11T10:03:28.000Z</time>
      </trkpt>
      <trkpt lat="46.2159" lon="14.87808">
        <ele>449.013279</ele>
        <time>2026-07-11T10:03:37.000Z</time>
      </trkpt>
      <trkpt lat="46.21589" lon="14.87767">
        <ele>449.418511</ele>
        <time>2026-07-11T10:03:46.000Z</time>
      </trkpt>
      <trkpt lat="46.21589" lon="14.8772">
        <ele>450.170802</ele>
        <time>2026-07-11T10:03:56.000Z</time>
      </trkpt>
      <trkpt lat="46.21588" lon="14.87715">
        <ele>450.250438</ele>
        <time>2026-07-11T10:03:57.000Z</time>
      </trkpt>
      <trkpt lat="46.21588" lon="14.87679">
        <ele>450.821837</ele>
        <time>2026-07-11T10:04:04.000Z</time>
      </trkpt>
      <trkpt lat="46.21588" lon="14.87654">
        <ele>451.22545</ele>
        <time>2026-07-11T10:04:09.000Z</time>
      </trkpt>
      <trkpt lat="46.21589" lon="14.87603">
        <ele>452.048188</ele>
        <time>2026-07-11T10:04:19.000Z</time>
      </trkpt>
      <trkpt lat="46.21597" lon="14.87554">
        <ele>452.843503</ele>
        <time>2026-07-11T10:04:28.000Z</time>
      </trkpt>
      <trkpt lat="46.21604" lon="14.87507">
        <ele>453.480035</ele>
        <time>2026-07-11T10:04:36.000Z</time>
      </trkpt>
      <trkpt lat="46.21608" lon="14.87452">
        <ele>453.57224</ele>
        <time>2026-07-11T10:04:44.000Z</time>
      </trkpt>
      <trkpt lat="46.21606" lon="14.87421">
        <ele>453.622481</ele>
        <time>2026-07-11T10:04:48.000Z</time>
      </trkpt>
      <trkpt lat="46.21604" lon="14.87398">
        <ele>453.660864</ele>
        <time>2026-07-11T10:04:51.000Z</time>
      </trkpt>
      <trkpt lat="46.21591" lon="14.87357">
        <ele>453.734975</ele>
        <time>2026-07-11T10:04:57.000Z</time>
      </trkpt>
      <trkpt lat="46.21588" lon="14.8735">
        <ele>453.747548</ele>
        <time>2026-07-11T10:04:58.000Z</time>
      </trkpt>
      <trkpt lat="46.21565" lon="14.87309">
        <ele>453.834536</ele>
        <time>2026-07-11T10:05:05.000Z</time>
      </trkpt>
      <trkpt lat="46.21538" lon="14.87265">
        <ele>454.272124</ele>
        <time>2026-07-11T10:05:13.000Z</time>
      </trkpt>
      <trkpt lat="46.21525" lon="14.87228">
        <ele>454.950135</ele>
        <time>2026-07-11T10:05:19.000Z</time>
      </trkpt>
      <trkpt lat="46.21519" lon="14.87197">
        <ele>455.481447</ele>
        <time>2026-07-11T10:05:24.000Z</time>
      </trkpt>
      <trkpt lat="46.21517" lon="14.87184">
        <ele>455.683615</ele>
        <time>2026-07-11T10:05:26.000Z</time>
      </trkpt>
      <trkpt lat="46.21512" lon="14.87143">
        <ele>456.367814</ele>
        <time>2026-07-11T10:05:33.000Z</time>
      </trkpt>
      <trkpt lat="46.21504" lon="14.87096">
        <ele>457.149296</ele>
        <time>2026-07-11T10:05:41.000Z</time>
      </trkpt>
      <trkpt lat="46.21494" lon="14.8705">
        <ele>457.917309</ele>
        <time>2026-07-11T10:05:49.000Z</time>
      </trkpt>
      <trkpt lat="46.21482" lon="14.87011">
        <ele>458.52594</ele>
        <time>2026-07-11T10:05:56.000Z</time>
      </trkpt>
      <trkpt lat="46.21481" lon="14.87006">
        <ele>458.611117</ele>
        <time>2026-07-11T10:05:57.000Z</time>
      </trkpt>
      <trkpt lat="46.21479" lon="14.87">
        <ele>458.695851</ele>
        <time>2026-07-11T10:05:58.000Z</time>
      </trkpt>
      <trkpt lat="46.2147" lon="14.86972">
        <ele>459.117497</ele>
        <time>2026-07-11T10:06:03.000Z</time>
      </trkpt>
      <trkpt lat="46.21466" lon="14.86961">
        <ele>459.290458</ele>
        <time>2026-07-11T10:06:05.000Z</time>
      </trkpt>
      <trkpt lat="46.21461" lon="14.86944">
        <ele>459.538848</ele>
        <time>2026-07-11T10:06:08.000Z</time>
      </trkpt>
      <trkpt lat="46.21457" lon="14.86934">
        <ele>459.706339</ele>
        <time>2026-07-11T10:06:10.000Z</time>
      </trkpt>
      <trkpt lat="46.21453" lon="14.86923">
        <ele>459.871789</ele>
        <time>2026-07-11T10:06:12.000Z</time>
      </trkpt>
      <trkpt lat="46.2145" lon="14.86912">
        <ele>460.040612</ele>
        <time>2026-07-11T10:06:14.000Z</time>
      </trkpt>
      <trkpt lat="46.21436" lon="14.86867">
        <ele>460.704429</ele>
        <time>2026-07-11T10:06:22.000Z</time>
      </trkpt>
      <trkpt lat="46.21427" lon="14.86835">
        <ele>461.185196</ele>
        <time>2026-07-11T10:06:28.000Z</time>
      </trkpt>
      <trkpt lat="46.21426" lon="14.86829">
        <ele>461.268555</ele>
        <time>2026-07-11T10:06:29.000Z</time>
      </trkpt>
      <trkpt lat="46.2142" lon="14.86784">
        <ele>461.861752</ele>
        <time>2026-07-11T10:06:37.000Z</time>
      </trkpt>
      <trkpt lat="46.21418" lon="14.86728">
        <ele>462.511133</ele>
        <time>2026-07-11T10:06:47.000Z</time>
      </trkpt>
      <trkpt lat="46.21418" lon="14.86682">
        <ele>463.034445</ele>
        <time>2026-07-11T10:06:55.000Z</time>
      </trkpt>
      <trkpt lat="46.21413" lon="14.8662">
        <ele>463.75064</ele>
        <time>2026-07-11T10:07:06.000Z</time>
      </trkpt>
      <trkpt lat="46.21409" lon="14.86572">
        <ele>464.314173</ele>
        <time>2026-07-11T10:07:15.000Z</time>
      </trkpt>
      <trkpt lat="46.21407" lon="14.86529">
        <ele>464.930119</ele>
        <time>2026-07-11T10:07:23.000Z</time>
      </trkpt>
      <trkpt lat="46.21408" lon="14.86469">
        <ele>466.158761</ele>
        <time>2026-07-11T10:07:34.000Z</time>
      </trkpt>
      <trkpt lat="46.21413" lon="14.8642">
        <ele>467.165037</ele>
        <time>2026-07-11T10:07:43.000Z</time>
      </trkpt>
      <trkpt lat="46.21416" lon="14.86369">
        <ele>468.210732</ele>
        <time>2026-07-11T10:07:52.000Z</time>
      </trkpt>
      <trkpt lat="46.21419" lon="14.86319">
        <ele>469.232338</ele>
        <time>2026-07-11T10:08:01.000Z</time>
      </trkpt>
      <trkpt lat="46.21415" lon="14.86258">
        <ele>470.447343</ele>
        <time>2026-07-11T10:08:12.000Z</time>
      </trkpt>
      <trkpt lat="46.21412" lon="14.86209">
        <ele>471.35466</ele>
        <time>2026-07-11T10:08:21.000Z</time>
      </trkpt>
      <trkpt lat="46.21417" lon="14.86157">
        <ele>472.318701</ele>
        <time>2026-07-11T10:08:30.000Z</time>
      </trkpt>
      <trkpt lat="46.21419" lon="14.86113">
        <ele>473.13532</ele>
        <time>2026-07-11T10:08:38.000Z</time>
      </trkpt>
      <trkpt lat="46.21414" lon="14.86069">
        <ele>473.968552</ele>
        <time>2026-07-11T10:08:46.000Z</time>
      </trkpt>
      <trkpt lat="46.21404" lon="14.86033">
        <ele>474.686948</ele>
        <time>2026-07-11T10:08:53.000Z</time>
      </trkpt>
      <trkpt lat="46.2139" lon="14.85994">
        <ele>475.612407</ele>
        <time>2026-07-11T10:09:01.000Z</time>
      </trkpt>
      <trkpt lat="46.21376" lon="14.85949">
        <ele>476.675951</ele>
        <time>2026-07-11T10:09:11.000Z</time>
      </trkpt>
      <trkpt lat="46.21374" lon="14.85915">
        <ele>477.414213</ele>
        <time>2026-07-11T10:09:18.000Z</time>
      </trkpt>
      <trkpt lat="46.21377" lon="14.85879">
        <ele>478.189502</ele>
        <time>2026-07-11T10:09:25.000Z</time>
      </trkpt>
      <trkpt lat="46.21381" lon="14.85844">
        <ele>478.951765</ele>
        <time>2026-07-11T10:09:32.000Z</time>
      </trkpt>
      <trkpt lat="46.21383" lon="14.85829">
        <ele>479.280927</ele>
        <time>2026-07-11T10:09:35.000Z</time>
      </trkpt>
      <trkpt lat="46.21385" lon="14.85799">
        <ele>479.948452</ele>
        <time>2026-07-11T10:09:41.000Z</time>
      </trkpt>
      <trkpt lat="46.21385" lon="14.85788">
        <ele>480.174789</ele>
        <time>2026-07-11T10:09:43.000Z</time>
      </trkpt>
      <trkpt lat="46.21384" lon="14.85761">
        <ele>480.545949</ele>
        <time>2026-07-11T10:09:48.000Z</time>
      </trkpt>
      <trkpt lat="46.21383" lon="14.8571">
        <ele>481.008655</ele>
        <time>2026-07-11T10:09:57.000Z</time>
      </trkpt>
      <trkpt lat="46.21381" lon="14.85665">
        <ele>481.412152</ele>
        <time>2026-07-11T10:10:05.000Z</time>
      </trkpt>
      <trkpt lat="46.21381" lon="14.85609">
        <ele>481.9218</ele>
        <time>2026-07-11T10:10:15.000Z</time>
      </trkpt>
      <trkpt lat="46.21386" lon="14.85559">
        <ele>482.384418</ele>
        <time>2026-07-11T10:10:25.000Z</time>
      </trkpt>
      <trkpt lat="46.21396" lon="14.85515">
        <ele>482.830034</ele>
        <time>2026-07-11T10:10:33.000Z</time>
      </trkpt>
      <trkpt lat="46.21412" lon="14.85476">
        <ele>483.367205</ele>
        <time>2026-07-11T10:10:41.000Z</time>
      </trkpt>
      <trkpt lat="46.21422" lon="14.85453">
        <ele>483.684047</ele>
        <time>2026-07-11T10:10:46.000Z</time>
      </trkpt>
      <trkpt lat="46.21442" lon="14.85412">
        <ele>484.274167</ele>
        <time>2026-07-11T10:10:55.000Z</time>
      </trkpt>
      <trkpt lat="46.21457" lon="14.85382">
        <ele>484.714382</ele>
        <time>2026-07-11T10:11:02.000Z</time>
      </trkpt>
      <trkpt lat="46.21464" lon="14.85363">
        <ele>484.964279</ele>
        <time>2026-07-11T10:11:06.000Z</time>
      </trkpt>
      <trkpt lat="46.21467" lon="14.85343">
        <ele>485.208785</ele>
        <time>2026-07-11T10:11:10.000Z</time>
      </trkpt>
      <trkpt lat="46.21467" lon="14.85331">
        <ele>485.345068</ele>
        <time>2026-07-11T10:11:12.000Z</time>
      </trkpt>
      <trkpt lat="46.21468" lon="14.85326">
        <ele>485.409698</ele>
        <time>2026-07-11T10:11:13.000Z</time>
      </trkpt>
      <trkpt lat="46.21469" lon="14.85286">
        <ele>485.864539</ele>
        <time>2026-07-11T10:11:20.000Z</time>
      </trkpt>
      <trkpt lat="46.2147" lon="14.85238">
        <ele>486.23786</ele>
        <time>2026-07-11T10:11:28.000Z</time>
      </trkpt>
      <trkpt lat="46.21473" lon="14.8521">
        <ele>486.466068</ele>
        <time>2026-07-11T10:11:33.000Z</time>
      </trkpt>
      <trkpt lat="46.21471" lon="14.8518">
        <ele>486.704265</ele>
        <time>2026-07-11T10:11:38.000Z</time>
      </trkpt>
      <trkpt lat="46.21473" lon="14.85147">
        <ele>486.965526</ele>
        <time>2026-07-11T10:11:44.000Z</time>
      </trkpt>
      <trkpt lat="46.21472" lon="14.85113">
        <ele>487.233425</ele>
        <time>2026-07-11T10:11:51.000Z</time>
      </trkpt>
      <trkpt lat="46.21473" lon="14.85085">
        <ele>487.450057</ele>
        <time>2026-07-11T10:11:57.000Z</time>
      </trkpt>
      <trkpt lat="46.21474" lon="14.85081">
        <ele>487.485415</ele>
        <time>2026-07-11T10:11:58.000Z</time>
      </trkpt>
      <trkpt lat="46.21474" lon="14.85035">
        <ele>487.846831</ele>
        <time>2026-07-11T10:12:08.000Z</time>
      </trkpt>
      <trkpt lat="46.21475" lon="14.84992">
        <ele>488.842602</ele>
        <time>2026-07-11T10:12:17.000Z</time>
      </trkpt>
      <trkpt lat="46.21473" lon="14.84955">
        <ele>489.752321</ele>
        <time>2026-07-11T10:12:24.000Z</time>
      </trkpt>
      <trkpt lat="46.21468" lon="14.84901">
        <ele>491.079552</ele>
        <time>2026-07-11T10:12:34.000Z</time>
      </trkpt>
      <trkpt lat="46.21462" lon="14.84849">
        <ele>492.388824</ele>
        <time>2026-07-11T10:12:44.000Z</time>
      </trkpt>
      <trkpt lat="46.21457" lon="14.84794">
        <ele>493.735476</ele>
        <time>2026-07-11T10:12:54.000Z</time>
      </trkpt>
      <trkpt lat="46.21462" lon="14.84743">
        <ele>495.344694</ele>
        <time>2026-07-11T10:13:03.000Z</time>
      </trkpt>
      <trkpt lat="46.21465" lon="14.84726">
        <ele>495.961919</ele>
        <time>2026-07-11T10:13:06.000Z</time>
      </trkpt>
      <trkpt lat="46.21469" lon="14.84715">
        <ele>496.390015</ele>
        <time>2026-07-11T10:13:08.000Z</time>
      </trkpt>
      <trkpt lat="46.21478" lon="14.84681">
        <ele>497.673606</ele>
        <time>2026-07-11T10:13:14.000Z</time>
      </trkpt>
      <trkpt lat="46.21496" lon="14.84656">
        <ele>498.917892</ele>
        <time>2026-07-11T10:13:20.000Z</time>
      </trkpt>
      <trkpt lat="46.2152" lon="14.84616">
        <ele>500.771973</ele>
        <time>2026-07-11T10:13:30.000Z</time>
      </trkpt>
      <trkpt lat="46.21535" lon="14.84593">
        <ele>501.889799</ele>
        <time>2026-07-11T10:13:37.000Z</time>
      </trkpt>
      <trkpt lat="46.21546" lon="14.84579">
        <ele>502.658161</ele>
        <time>2026-07-11T10:13:42.000Z</time>
      </trkpt>
      <trkpt lat="46.21566" lon="14.84551">
        <ele>504.043631</ele>
        <time>2026-07-11T10:13:51.000Z</time>
      </trkpt>
      <trkpt lat="46.21574" lon="14.84536">
        <ele>504.662156</ele>
        <time>2026-07-11T10:13:55.000Z</time>
      </trkpt>
      <trkpt lat="46.21582" lon="14.84522">
        <ele>505.291407</ele>
        <time>2026-07-11T10:13:59.000Z</time>
      </trkpt>
      <trkpt lat="46.21597" lon="14.8449">
        <ele>506.604315</ele>
        <time>2026-07-11T10:14:08.000Z</time>
      </trkpt>
      <trkpt lat="46.21611" lon="14.84462">
        <ele>507.777755</ele>
        <time>2026-07-11T10:14:16.000Z</time>
      </trkpt>
      <trkpt lat="46.21622" lon="14.84433">
        <ele>508.912429</ele>
        <time>2026-07-11T10:14:24.000Z</time>
      </trkpt>
      <trkpt lat="46.21625" lon="14.84426">
        <ele>509.192121</ele>
        <time>2026-07-11T10:14:26.000Z</time>
      </trkpt>
      <trkpt lat="46.21636" lon="14.84392">
        <ele>510.469131</ele>
        <time>2026-07-11T10:14:35.000Z</time>
      </trkpt>
      <trkpt lat="46.21645" lon="14.84354">
        <ele>511.809748</ele>
        <time>2026-07-11T10:14:44.000Z</time>
      </trkpt>
      <trkpt lat="46.21647" lon="14.84315">
        <ele>513.670951</ele>
        <time>2026-07-11T10:14:53.000Z</time>
      </trkpt>
      <trkpt lat="46.21644" lon="14.84289">
        <ele>515.061217</ele>
        <time>2026-07-11T10:14:59.000Z</time>
      </trkpt>
      <trkpt lat="46.21639" lon="14.84257">
        <ele>516.769906</ele>
        <time>2026-07-11T10:15:07.000Z</time>
      </trkpt>
      <trkpt lat="46.21631" lon="14.84235">
        <ele>518.077718</ele>
        <time>2026-07-11T10:15:13.000Z</time>
      </trkpt>
      <trkpt lat="46.21624" lon="14.84216">
        <ele>519.229028</ele>
        <time>2026-07-11T10:15:19.000Z</time>
      </trkpt>
      <trkpt lat="46.21619" lon="14.84207">
        <ele>519.829834</ele>
        <time>2026-07-11T10:15:22.000Z</time>
      </trkpt>
      <trkpt lat="46.21612" lon="14.84193">
        <ele>520.784432</ele>
        <time>2026-07-11T10:15:27.000Z</time>
      </trkpt>
      <trkpt lat="46.21597" lon="14.84164">
        <ele>522.681024</ele>
        <time>2026-07-11T10:15:36.000Z</time>
      </trkpt>
      <trkpt lat="46.21585" lon="14.84141">
        <ele>524.228905</ele>
        <time>2026-07-11T10:15:43.000Z</time>
      </trkpt>
      <trkpt lat="46.2157" lon="14.84104">
        <ele>525.621283</ele>
        <time>2026-07-11T10:15:52.000Z</time>
      </trkpt>
      <trkpt lat="46.21565" lon="14.84086">
        <ele>525.13088</ele>
        <time>2026-07-11T10:15:56.000Z</time>
      </trkpt>
      <trkpt lat="46.21563" lon="14.84069">
        <ele>524.679481</ele>
        <time>2026-07-11T10:16:00.000Z</time>
      </trkpt>
      <trkpt lat="46.21562" lon="14.84041">
        <ele>523.97644</ele>
        <time>2026-07-11T10:16:05.000Z</time>
      </trkpt>
      <trkpt lat="46.21562" lon="14.84035">
        <ele>523.822913</ele>
        <time>2026-07-11T10:16:06.000Z</time>
      </trkpt>
      <trkpt lat="46.2157" lon="14.83991">
        <ele>522.687007</ele>
        <time>2026-07-11T10:16:12.000Z</time>
      </trkpt>
      <trkpt lat="46.21581" lon="14.83935">
        <ele>521.203442</ele>
        <time>2026-07-11T10:16:18.000Z</time>
      </trkpt>
      <trkpt lat="46.21586" lon="14.83903">
        <ele>520.389413</ele>
        <time>2026-07-11T10:16:21.000Z</time>
      </trkpt>
      <trkpt lat="46.21589" lon="14.83881">
        <ele>519.831066</ele>
        <time>2026-07-11T10:16:23.000Z</time>
      </trkpt>
      <trkpt lat="46.2159" lon="14.8387">
        <ele>519.549142</ele>
        <time>2026-07-11T10:16:24.000Z</time>
      </trkpt>
      <trkpt lat="46.21595" lon="14.83842">
        <ele>519.280643</ele>
        <time>2026-07-11T10:16:27.000Z</time>
      </trkpt>
      <trkpt lat="46.21601" lon="14.83796">
        <ele>519.163882</ele>
        <time>2026-07-11T10:16:32.000Z</time>
      </trkpt>
      <trkpt lat="46.21607" lon="14.83746">
        <ele>519.039644</ele>
        <time>2026-07-11T10:16:39.000Z</time>
      </trkpt>
      <trkpt lat="46.21612" lon="14.83705">
        <ele>518.938032</ele>
        <time>2026-07-11T10:16:46.000Z</time>
      </trkpt>
      <trkpt lat="46.21611" lon="14.8366">
        <ele>518.825422</ele>
        <time>2026-07-11T10:16:54.000Z</time>
      </trkpt>
      <trkpt lat="46.21606" lon="14.83618">
        <ele>518.720062</ele>
        <time>2026-07-11T10:17:02.000Z</time>
      </trkpt>
      <trkpt lat="46.21603" lon="14.83585">
        <ele>519.468518</ele>
        <time>2026-07-11T10:17:09.000Z</time>
      </trkpt>
      <trkpt lat="46.216" lon="14.83557">
        <ele>520.588019</ele>
        <time>2026-07-11T10:17:16.000Z</time>
      </trkpt>
      <trkpt lat="46.21594" lon="14.83519">
        <ele>522.058593</ele>
        <time>2026-07-11T10:17:25.000Z</time>
      </trkpt>
      <trkpt lat="46.2159" lon="14.83495">
        <ele>523.019763</ele>
        <time>2026-07-11T10:17:31.000Z</time>
      </trkpt>
      <trkpt lat="46.21588" lon="14.83483">
        <ele>523.506925</ele>
        <time>2026-07-11T10:17:34.000Z</time>
      </trkpt>
      <trkpt lat="46.21579" lon="14.83445">
        <ele>525.043738</ele>
        <time>2026-07-11T10:17:43.000Z</time>
      </trkpt>
      <trkpt lat="46.21569" lon="14.83417">
        <ele>526.251749</ele>
        <time>2026-07-11T10:17:50.000Z</time>
      </trkpt>
      <trkpt lat="46.21558" lon="14.83387">
        <ele>527.573606</ele>
        <time>2026-07-11T10:17:58.000Z</time>
      </trkpt>
      <trkpt lat="46.21544" lon="14.83352">
        <ele>529.026656</ele>
        <time>2026-07-11T10:18:07.000Z</time>
      </trkpt>
      <trkpt lat="46.21532" lon="14.83321">
        <ele>529.954262</ele>
        <time>2026-07-11T10:18:15.000Z</time>
      </trkpt>
      <trkpt lat="46.21517" lon="14.83284">
        <ele>531.115889</ele>
        <time>2026-07-11T10:18:25.000Z</time>
      </trkpt>
      <trkpt lat="46.215" lon="14.83241">
        <ele>532.422319</ele>
        <time>2026-07-11T10:18:36.000Z</time>
      </trkpt>
      <trkpt lat="46.21493" lon="14.83202">
        <ele>533.501938</ele>
        <time>2026-07-11T10:18:45.000Z</time>
      </trkpt>
      <trkpt lat="46.21492" lon="14.83145">
        <ele>535.0288</ele>
        <time>2026-07-11T10:18:57.000Z</time>
      </trkpt>
      <trkpt lat="46.21495" lon="14.83109">
        <ele>535.739004</ele>
        <time>2026-07-11T10:19:05.000Z</time>
      </trkpt>
      <trkpt lat="46.21499" lon="14.83065">
        <ele>536.046942</ele>
        <time>2026-07-11T10:19:15.000Z</time>
      </trkpt>
      <trkpt lat="46.21504" lon="14.83029">
        <ele>536.294333</ele>
        <time>2026-07-11T10:19:23.000Z</time>
      </trkpt>
      <trkpt lat="46.21507" lon="14.83002">
        <ele>536.481287</ele>
        <time>2026-07-11T10:19:29.000Z</time>
      </trkpt>
      <trkpt lat="46.21511" lon="14.82971">
        <ele>536.697397</ele>
        <time>2026-07-11T10:19:36.000Z</time>
      </trkpt>
      <trkpt lat="46.21518" lon="14.82923">
        <ele>537.030525</ele>
        <time>2026-07-11T10:19:47.000Z</time>
      </trkpt>
      <trkpt lat="46.21517" lon="14.82885">
        <ele>537.284226</ele>
        <time>2026-07-11T10:19:55.000Z</time>
      </trkpt>
      <trkpt lat="46.21513" lon="14.8285">
        <ele>537.75863</ele>
        <time>2026-07-11T10:20:03.000Z</time>
      </trkpt>
      <trkpt lat="46.21507" lon="14.82826">
        <ele>538.322835</ele>
        <time>2026-07-11T10:20:09.000Z</time>
      </trkpt>
      <trkpt lat="46.21497" lon="14.82792">
        <ele>539.121774</ele>
        <time>2026-07-11T10:20:17.000Z</time>
      </trkpt>
      <trkpt lat="46.21488" lon="14.82763">
        <ele>539.83457</ele>
        <time>2026-07-11T10:20:24.000Z</time>
      </trkpt>
      <trkpt lat="46.21476" lon="14.82722">
        <ele>540.814067</ele>
        <time>2026-07-11T10:20:34.000Z</time>
      </trkpt>
      <trkpt lat="46.21469" lon="14.82696">
        <ele>541.431437</ele>
        <time>2026-07-11T10:20:40.000Z</time>
      </trkpt>
      <trkpt lat="46.21463" lon="14.82649">
        <ele>542.476059</ele>
        <time>2026-07-11T10:20:50.000Z</time>
      </trkpt>
      <trkpt lat="46.21461" lon="14.82618">
        <ele>543.198534</ele>
        <time>2026-07-11T10:20:57.000Z</time>
      </trkpt>
      <trkpt lat="46.2146" lon="14.82586">
        <ele>544.186313</ele>
        <time>2026-07-11T10:21:04.000Z</time>
      </trkpt>
      <trkpt lat="46.21463" lon="14.82551">
        <ele>545.329307</ele>
        <time>2026-07-11T10:21:12.000Z</time>
      </trkpt>
      <trkpt lat="46.21466" lon="14.82529">
        <ele>546.034193</ele>
        <time>2026-07-11T10:21:17.000Z</time>
      </trkpt>
      <trkpt lat="46.21469" lon="14.82509">
        <ele>546.698482</ele>
        <time>2026-07-11T10:21:22.000Z</time>
      </trkpt>
      <trkpt lat="46.21477" lon="14.82479">
        <ele>547.709191</ele>
        <time>2026-07-11T10:21:29.000Z</time>
      </trkpt>
      <trkpt lat="46.21488" lon="14.82432">
        <ele>549.281582</ele>
        <time>2026-07-11T10:21:40.000Z</time>
      </trkpt>
      <trkpt lat="46.21501" lon="14.82386">
        <ele>550.85345</ele>
        <time>2026-07-11T10:21:51.000Z</time>
      </trkpt>
      <trkpt lat="46.2151" lon="14.82353">
        <ele>551.706162</ele>
        <time>2026-07-11T10:21:59.000Z</time>
      </trkpt>
      <trkpt lat="46.21517" lon="14.82324">
        <ele>552.232229</ele>
        <time>2026-07-11T10:22:06.000Z</time>
      </trkpt>
      <trkpt lat="46.21523" lon="14.82294">
        <ele>552.759461</ele>
        <time>2026-07-11T10:22:13.000Z</time>
      </trkpt>
      <trkpt lat="46.2153" lon="14.82257">
        <ele>553.406244</ele>
        <time>2026-07-11T10:22:21.000Z</time>
      </trkpt>
      <trkpt lat="46.21532" lon="14.82225">
        <ele>553.938313</ele>
        <time>2026-07-11T10:22:28.000Z</time>
      </trkpt>
      <trkpt lat="46.21531" lon="14.82198">
        <ele>554.406997</ele>
        <time>2026-07-11T10:22:34.000Z</time>
      </trkpt>
      <trkpt lat="46.21529" lon="14.82172">
        <ele>554.848843</ele>
        <time>2026-07-11T10:22:40.000Z</time>
      </trkpt>
      <trkpt lat="46.21526" lon="14.82153">
        <ele>555.175551</ele>
        <time>2026-07-11T10:22:44.000Z</time>
      </trkpt>
      <trkpt lat="46.21524" lon="14.82127">
        <ele>555.60599</ele>
        <time>2026-07-11T10:22:50.000Z</time>
      </trkpt>
      <trkpt lat="46.21524" lon="14.82088">
        <ele>556.962314</ele>
        <time>2026-07-11T10:22:59.000Z</time>
      </trkpt>
      <trkpt lat="46.21525" lon="14.82049">
        <ele>558.548093</ele>
        <time>2026-07-11T10:23:08.000Z</time>
      </trkpt>
      <trkpt lat="46.21524" lon="14.82013">
        <ele>560.031433</ele>
        <time>2026-07-11T10:23:16.000Z</time>
      </trkpt>
      <trkpt lat="46.21521" lon="14.81978">
        <ele>561.464354</ele>
        <time>2026-07-11T10:23:24.000Z</time>
      </trkpt>
      <trkpt lat="46.21518" lon="14.81954">
        <ele>562.495153</ele>
        <time>2026-07-11T10:23:30.000Z</time>
      </trkpt>
      <trkpt lat="46.21511" lon="14.81917">
        <ele>564.064874</ele>
        <time>2026-07-11T10:23:39.000Z</time>
      </trkpt>
      <trkpt lat="46.21506" lon="14.8189">
        <ele>565.201558</ele>
        <time>2026-07-11T10:23:46.000Z</time>
      </trkpt>
      <trkpt lat="46.21502" lon="14.81855">
        <ele>566.675261</ele>
        <time>2026-07-11T10:23:55.000Z</time>
      </trkpt>
      <trkpt lat="46.21499" lon="14.81826">
        <ele>567.935934</ele>
        <time>2026-07-11T10:24:02.000Z</time>
      </trkpt>
      <trkpt lat="46.21498" lon="14.81808">
        <ele>568.681343</ele>
        <time>2026-07-11T10:24:07.000Z</time>
      </trkpt>
      <trkpt lat="46.21496" lon="14.81793">
        <ele>569.327787</ele>
        <time>2026-07-11T10:24:12.000Z</time>
      </trkpt>
      <trkpt lat="46.21497" lon="14.81791">
        <ele>569.441977</ele>
        <time>2026-07-11T10:24:13.000Z</time>
      </trkpt>
      <trkpt lat="46.21496" lon="14.81788">
        <ele>569.565953</ele>
        <time>2026-07-11T10:24:14.000Z</time>
      </trkpt>
      <trkpt lat="46.21493" lon="14.81774">
        <ele>570.200108</ele>
        <time>2026-07-11T10:24:17.000Z</time>
      </trkpt>
      <trkpt lat="46.21491" lon="14.81753">
        <ele>571.10645</ele>
        <time>2026-07-11T10:24:22.000Z</time>
      </trkpt>
      <trkpt lat="46.21487" lon="14.81733">
        <ele>571.985147</ele>
        <time>2026-07-11T10:24:27.000Z</time>
      </trkpt>
      <trkpt lat="46.21484" lon="14.81709">
        <ele>573.05878</ele>
        <time>2026-07-11T10:24:34.000Z</time>
      </trkpt>
      <trkpt lat="46.2148" lon="14.81687">
        <ele>574.010132</ele>
        <time>2026-07-11T10:24:40.000Z</time>
      </trkpt>
      <trkpt lat="46.21477" lon="14.81669">
        <ele>574.790669</ele>
        <time>2026-07-11T10:24:45.000Z</time>
      </trkpt>
      <trkpt lat="46.21475" lon="14.81644">
        <ele>575.906067</ele>
        <time>2026-07-11T10:24:54.000Z</time>
      </trkpt>
      <trkpt lat="46.2147" lon="14.81617">
        <ele>577.07161</ele>
        <time>2026-07-11T10:25:02.000Z</time>
      </trkpt>
      <trkpt lat="46.21465" lon="14.81593">
        <ele>578.566353</ele>
        <time>2026-07-11T10:25:10.000Z</time>
      </trkpt>
      <trkpt lat="46.21458" lon="14.81568">
        <ele>580.477828</ele>
        <time>2026-07-11T10:25:19.000Z</time>
      </trkpt>
      <trkpt lat="46.21453" lon="14.81544">
        <ele>582.254112</ele>
        <time>2026-07-11T10:25:27.000Z</time>
      </trkpt>
      <trkpt lat="46.21449" lon="14.81523">
        <ele>583.847139</ele>
        <time>2026-07-11T10:25:34.000Z</time>
      </trkpt>
      <trkpt lat="46.21448" lon="14.815">
        <ele>585.46124</ele>
        <time>2026-07-11T10:25:42.000Z</time>
      </trkpt>
      <trkpt lat="46.21447" lon="14.81483">
        <ele>586.719268</ele>
        <time>2026-07-11T10:25:48.000Z</time>
      </trkpt>
      <trkpt lat="46.21445" lon="14.81461">
        <ele>588.30779</ele>
        <time>2026-07-11T10:25:56.000Z</time>
      </trkpt>
      <trkpt lat="46.21442" lon="14.81434">
        <ele>590.244289</ele>
        <time>2026-07-11T10:26:06.000Z</time>
      </trkpt>
      <trkpt lat="46.21443" lon="14.81416">
        <ele>591.529135</ele>
        <time>2026-07-11T10:26:13.000Z</time>
      </trkpt>
      <trkpt lat="46.2144" lon="14.814">
        <ele>592.710646</ele>
        <time>2026-07-11T10:26:20.000Z</time>
      </trkpt>
      <trkpt lat="46.21439" lon="14.81397">
        <ele>592.975129</ele>
        <time>2026-07-11T10:26:21.000Z</time>
      </trkpt>
      <trkpt lat="46.21439" lon="14.81383">
        <ele>593.949253</ele>
        <time>2026-07-11T10:26:27.000Z</time>
      </trkpt>
      <trkpt lat="46.21437" lon="14.81365">
        <ele>595.222933</ele>
        <time>2026-07-11T10:26:34.000Z</time>
      </trkpt>
      <trkpt lat="46.21437" lon="14.81363">
        <ele>595.429349</ele>
        <time>2026-07-11T10:26:35.000Z</time>
      </trkpt>
      <trkpt lat="46.21435" lon="14.81343">
        <ele>596.844448</ele>
        <time>2026-07-11T10:26:43.000Z</time>
      </trkpt>
      <trkpt lat="46.21435" lon="14.8134">
        <ele>597.037415</ele>
        <time>2026-07-11T10:26:44.000Z</time>
      </trkpt>
      <trkpt lat="46.21435" lon="14.81332">
        <ele>597.589451</ele>
        <time>2026-07-11T10:26:47.000Z</time>
      </trkpt>
      <trkpt lat="46.21434" lon="14.81329">
        <ele>597.818635</ele>
        <time>2026-07-11T10:26:48.000Z</time>
      </trkpt>
      <trkpt lat="46.21426" lon="14.8131">
        <ele>599.308356</ele>
        <time>2026-07-11T10:26:55.000Z</time>
      </trkpt>
      <trkpt lat="46.21424" lon="14.81302">
        <ele>599.877485</ele>
        <time>2026-07-11T10:26:58.000Z</time>
      </trkpt>
      <trkpt lat="46.21423" lon="14.81296">
        <ele>600.320228</ele>
        <time>2026-07-11T10:27:00.000Z</time>
      </trkpt>
      <trkpt lat="46.21422" lon="14.81278">
        <ele>601.538435</ele>
        <time>2026-07-11T10:27:07.000Z</time>
      </trkpt>
      <trkpt lat="46.21421" lon="14.81253">
        <ele>603.305856</ele>
        <time>2026-07-11T10:27:17.000Z</time>
      </trkpt>
      <trkpt lat="46.21419" lon="14.81235">
        <ele>604.509919</ele>
        <time>2026-07-11T10:27:24.000Z</time>
      </trkpt>
      <trkpt lat="46.21416" lon="14.81221">
        <ele>605.560849</ele>
        <time>2026-07-11T10:27:30.000Z</time>
      </trkpt>
      <trkpt lat="46.21415" lon="14.81199">
        <ele>607.084419</ele>
        <time>2026-07-11T10:27:38.000Z</time>
      </trkpt>
      <trkpt lat="46.21412" lon="14.81175">
        <ele>608.754444</ele>
        <time>2026-07-11T10:27:47.000Z</time>
      </trkpt>
      <trkpt lat="46.21409" lon="14.81153">
        <ele>610.315168</ele>
        <time>2026-07-11T10:27:55.000Z</time>
      </trkpt>
      <trkpt lat="46.21407" lon="14.81134">
        <ele>611.573465</ele>
        <time>2026-07-11T10:28:02.000Z</time>
      </trkpt>
      <trkpt lat="46.21407" lon="14.8111">
        <ele>613.259953</ele>
        <time>2026-07-11T10:28:11.000Z</time>
      </trkpt>
      <trkpt lat="46.21407" lon="14.81081">
        <ele>615.389156</ele>
        <time>2026-07-11T10:28:22.000Z</time>
      </trkpt>
      <trkpt lat="46.21407" lon="14.81073">
        <ele>616.022481</ele>
        <time>2026-07-11T10:28:25.000Z</time>
      </trkpt>
      <trkpt lat="46.21408" lon="14.81058">
        <ele>617.164233</ele>
        <time>2026-07-11T10:28:31.000Z</time>
      </trkpt>
      <trkpt lat="46.2141" lon="14.81034">
        <ele>619.001131</ele>
        <time>2026-07-11T10:28:40.000Z</time>
      </trkpt>
      <trkpt lat="46.2141" lon="14.81012">
        <ele>620.688973</ele>
        <time>2026-07-11T10:28:48.000Z</time>
      </trkpt>
      <trkpt lat="46.21409" lon="14.80996">
        <ele>621.924883</ele>
        <time>2026-07-11T10:28:54.000Z</time>
      </trkpt>
      <trkpt lat="46.21409" lon="14.80994">
        <ele>622.125506</ele>
        <time>2026-07-11T10:28:55.000Z</time>
      </trkpt>
      <trkpt lat="46.2141" lon="14.80978">
        <ele>623.336933</ele>
        <time>2026-07-11T10:29:01.000Z</time>
      </trkpt>
      <trkpt lat="46.2141" lon="14.80963">
        <ele>624.472152</ele>
        <time>2026-07-11T10:29:07.000Z</time>
      </trkpt>
      <trkpt lat="46.21413" lon="14.80947">
        <ele>625.761355</ele>
        <time>2026-07-11T10:29:13.000Z</time>
      </trkpt>
      <trkpt lat="46.21413" lon="14.80926">
        <ele>627.357127</ele>
        <time>2026-07-11T10:29:20.000Z</time>
      </trkpt>
      <trkpt lat="46.21414" lon="14.80912">
        <ele>628.499326</ele>
        <time>2026-07-11T10:29:26.000Z</time>
      </trkpt>
      <trkpt lat="46.21414" lon="14.80909">
        <ele>628.699948</ele>
        <time>2026-07-11T10:29:27.000Z</time>
      </trkpt>
      <trkpt lat="46.21407" lon="14.80894">
        <ele>630.038012</ele>
        <time>2026-07-11T10:29:32.000Z</time>
      </trkpt>
      <trkpt lat="46.21399" lon="14.80869">
        <ele>632.195113</ele>
        <time>2026-07-11T10:29:43.000Z</time>
      </trkpt>
      <trkpt lat="46.21398" lon="14.80867">
        <ele>632.390317</ele>
        <time>2026-07-11T10:29:44.000Z</time>
      </trkpt>
      <trkpt lat="46.21394" lon="14.80859">
        <ele>633.176002</ele>
        <time>2026-07-11T10:29:48.000Z</time>
      </trkpt>
      <trkpt lat="46.21388" lon="14.80843">
        <ele>634.655881</ele>
        <time>2026-07-11T10:29:55.000Z</time>
      </trkpt>
      <trkpt lat="46.21381" lon="14.80823">
        <ele>636.649262</ele>
        <time>2026-07-11T10:30:02.000Z</time>
      </trkpt>
      <trkpt lat="46.21381" lon="14.80812">
        <ele>637.649025</ele>
        <time>2026-07-11T10:30:07.000Z</time>
      </trkpt>
      <trkpt lat="46.2138" lon="14.80788">
        <ele>639.756389</ele>
        <time>2026-07-11T10:30:14.000Z</time>
      </trkpt>
      <trkpt lat="46.21381" lon="14.80785">
        <ele>640.046562</ele>
        <time>2026-07-11T10:30:18.000Z</time>
      </trkpt>
      <trkpt lat="46.21382" lon="14.80779">
        <ele>640.574098</ele>
        <time>2026-07-11T10:30:42.000Z</time>
      </trkpt>
      <trkpt lat="46.21382" lon="14.80777">
        <ele>640.788649</ele>
        <time>2026-07-11T10:30:43.000Z</time>
      </trkpt>
      <trkpt lat="46.21382" lon="14.80763">
        <ele>642.003955</ele>
        <time>2026-07-11T10:30:48.000Z</time>
      </trkpt>
      <trkpt lat="46.21383" lon="14.80754">
        <ele>642.845875</ele>
        <time>2026-07-11T10:30:52.000Z</time>
      </trkpt>
      <trkpt lat="46.21387" lon="14.80746">
        <ele>643.690855</ele>
        <time>2026-07-11T10:30:56.000Z</time>
      </trkpt>
      <trkpt lat="46.21395" lon="14.80732">
        <ele>645.337692</ele>
        <time>2026-07-11T10:31:03.000Z</time>
      </trkpt>
      <trkpt lat="46.21403" lon="14.80725">
        <ele>646.559375</ele>
        <time>2026-07-11T10:31:08.000Z</time>
      </trkpt>
      <trkpt lat="46.21404" lon="14.80724">
        <ele>646.7739</ele>
        <time>2026-07-11T10:31:09.000Z</time>
      </trkpt>
      <trkpt lat="46.21406" lon="14.80723">
        <ele>646.962213</ele>
        <time>2026-07-11T10:31:10.000Z</time>
      </trkpt>
      <trkpt lat="46.21412" lon="14.80724">
        <ele>647.791441</ele>
        <time>2026-07-11T10:31:14.000Z</time>
      </trkpt>
      <trkpt lat="46.21421" lon="14.80729">
        <ele>649.03765</ele>
        <time>2026-07-11T10:31:21.000Z</time>
      </trkpt>
      <trkpt lat="46.21423" lon="14.8073">
        <ele>649.240922</ele>
        <time>2026-07-11T10:31:22.000Z</time>
      </trkpt>
      <trkpt lat="46.21428" lon="14.80732">
        <ele>649.989995</ele>
        <time>2026-07-11T10:31:25.000Z</time>
      </trkpt>
      <trkpt lat="46.21429" lon="14.80733">
        <ele>650.13627</ele>
        <time>2026-07-11T10:31:26.000Z</time>
      </trkpt>
      <trkpt lat="46.21442" lon="14.80735">
        <ele>651.758092</ele>
        <time>2026-07-11T10:31:33.000Z</time>
      </trkpt>
      <trkpt lat="46.21457" lon="14.80734">
        <ele>653.744123</ele>
        <time>2026-07-11T10:31:40.000Z</time>
      </trkpt>
      <trkpt lat="46.2147" lon="14.80723">
        <ele>655.720724</ele>
        <time>2026-07-11T10:31:47.000Z</time>
      </trkpt>
      <trkpt lat="46.21479" lon="14.80707">
        <ele>657.388159</ele>
        <time>2026-07-11T10:31:54.000Z</time>
      </trkpt>
      <trkpt lat="46.21484" lon="14.80692">
        <ele>657.981057</ele>
        <time>2026-07-11T10:32:00.000Z</time>
      </trkpt>
      <trkpt lat="46.21488" lon="14.80679">
        <ele>658.47525</ele>
        <time>2026-07-11T10:32:05.000Z</time>
      </trkpt>
      <trkpt lat="46.21489" lon="14.80676">
        <ele>658.602932</ele>
        <time>2026-07-11T10:32:06.000Z</time>
      </trkpt>
      <trkpt lat="46.215" lon="14.80659">
        <ele>659.399933</ele>
        <time>2026-07-11T10:32:13.000Z</time>
      </trkpt>
      <trkpt lat="46.21501" lon="14.80657">
        <ele>659.517875</ele>
        <time>2026-07-11T10:32:14.000Z</time>
      </trkpt>
      <trkpt lat="46.21504" lon="14.80647">
        <ele>659.899147</ele>
        <time>2026-07-11T10:32:18.000Z</time>
      </trkpt>
      <trkpt lat="46.21507" lon="14.80632">
        <ele>660.469429</ele>
        <time>2026-07-11T10:32:26.000Z</time>
      </trkpt>
      <trkpt lat="46.21512" lon="14.80622">
        <ele>660.915208</ele>
        <time>2026-07-11T10:32:31.000Z</time>
      </trkpt>
      <trkpt lat="46.21514" lon="14.8062">
        <ele>661.009769</ele>
        <time>2026-07-11T10:32:32.000Z</time>
      </trkpt>
      <trkpt lat="46.21523" lon="14.80595">
        <ele>662.001177</ele>
        <time>2026-07-11T10:32:43.000Z</time>
      </trkpt>
      <trkpt lat="46.21529" lon="14.80578">
        <ele>662.672824</ele>
        <time>2026-07-11T10:32:50.000Z</time>
      </trkpt>
      <trkpt lat="46.21532" lon="14.80554">
        <ele>663.522282</ele>
        <time>2026-07-11T10:32:58.000Z</time>
      </trkpt>
      <trkpt lat="46.21535" lon="14.80541">
        <ele>664.006011</ele>
        <time>2026-07-11T10:33:02.000Z</time>
      </trkpt>
      <trkpt lat="46.21536" lon="14.8053">
        <ele>664.422618</ele>
        <time>2026-07-11T10:33:07.000Z</time>
      </trkpt>
      <trkpt lat="46.21535" lon="14.8051">
        <ele>665.132637</ele>
        <time>2026-07-11T10:33:14.000Z</time>
      </trkpt>
      <trkpt lat="46.21533" lon="14.805">
        <ele>665.505858</ele>
        <time>2026-07-11T10:33:18.000Z</time>
      </trkpt>
      <trkpt lat="46.21533" lon="14.80497">
        <ele>665.612149</ele>
        <time>2026-07-11T10:33:19.000Z</time>
      </trkpt>
      <trkpt lat="46.21534" lon="14.80495">
        <ele>665.70671</ele>
        <time>2026-07-11T10:33:20.000Z</time>
      </trkpt>
      <trkpt lat="46.21533" lon="14.80493">
        <ele>665.770738</ele>
        <time>2026-07-11T10:33:23.000Z</time>
      </trkpt>
      <trkpt lat="46.21526" lon="14.80461">
        <ele>665.934309</ele>
        <time>2026-07-11T10:35:34.000Z</time>
      </trkpt>
      <trkpt lat="46.21525" lon="14.8046">
        <ele>665.895879</ele>
        <time>2026-07-11T10:35:35.000Z</time>
      </trkpt>
      <trkpt lat="46.21526" lon="14.80461">
        <ele>665.834015</ele>
        <time>2026-07-11T10:35:36.000Z</time>
      </trkpt>
      <trkpt lat="46.21527" lon="14.80462">
        <ele>665.76267</ele>
        <time>2026-07-11T10:35:37.000Z</time>
      </trkpt>
      <trkpt lat="46.21528" lon="14.80463">
        <ele>665.71702</ele>
        <time>2026-07-11T10:35:38.000Z</time>
      </trkpt>
      <trkpt lat="46.21533" lon="14.80466">
        <ele>665.338171</ele>
        <time>2026-07-11T10:37:26.000Z</time>
      </trkpt>
      <trkpt lat="46.21533" lon="14.80459">
        <ele>665.007295</ele>
        <time>2026-07-11T10:45:15.000Z</time>
      </trkpt>
      <trkpt lat="46.21534" lon="14.80456">
        <ele>664.884485</ele>
        <time>2026-07-11T10:45:16.000Z</time>
      </trkpt>
      <trkpt lat="46.21534" lon="14.80452">
        <ele>664.719357</ele>
        <time>2026-07-11T10:45:17.000Z</time>
      </trkpt>
      <trkpt lat="46.21535" lon="14.80423">
        <ele>663.527282</ele>
        <time>2026-07-11T10:45:22.000Z</time>
      </trkpt>
      <trkpt lat="46.21535" lon="14.80384">
        <ele>661.897756</ele>
        <time>2026-07-11T10:45:26.000Z</time>
      </trkpt>
      <trkpt lat="46.21534" lon="14.80333">
        <ele>659.756845</ele>
        <time>2026-07-11T10:45:30.000Z</time>
      </trkpt>
      <trkpt lat="46.2153" lon="14.8029">
        <ele>657.91143</ele>
        <time>2026-07-11T10:45:33.000Z</time>
      </trkpt>
      <trkpt lat="46.21526" lon="14.80262">
        <ele>656.749652</ele>
        <time>2026-07-11T10:45:35.000Z</time>
      </trkpt>
      <trkpt lat="46.2152" lon="14.80221">
        <ele>654.599631</ele>
        <time>2026-07-11T10:45:38.000Z</time>
      </trkpt>
      <trkpt lat="46.21518" lon="14.80207">
        <ele>653.679392</ele>
        <time>2026-07-11T10:45:39.000Z</time>
      </trkpt>
      <trkpt lat="46.21517" lon="14.80179">
        <ele>651.838852</ele>
        <time>2026-07-11T10:45:41.000Z</time>
      </trkpt>
      <trkpt lat="46.21521" lon="14.80122">
        <ele>648.066295</ele>
        <time>2026-07-11T10:45:45.000Z</time>
      </trkpt>
      <trkpt lat="46.21535" lon="14.80067">
        <ele>644.149345</ele>
        <time>2026-07-11T10:45:49.000Z</time>
      </trkpt>
      <trkpt lat="46.21559" lon="14.79997">
        <ele>639.015276</ele>
        <time>2026-07-11T10:45:54.000Z</time>
      </trkpt>
      <trkpt lat="46.21569" lon="14.79952">
        <ele>636.094721</ele>
        <time>2026-07-11T10:45:57.000Z</time>
      </trkpt>
      <trkpt lat="46.2158" lon="14.79874">
        <ele>631.308459</ele>
        <time>2026-07-11T10:46:02.000Z</time>
      </trkpt>
      <trkpt lat="46.21581" lon="14.79857">
        <ele>630.332032</ele>
        <time>2026-07-11T10:46:03.000Z</time>
      </trkpt>
      <trkpt lat="46.21586" lon="14.79791">
        <ele>626.304838</ele>
        <time>2026-07-11T10:46:07.000Z</time>
      </trkpt>
      <trkpt lat="46.21588" lon="14.79761">
        <ele>624.507582</ele>
        <time>2026-07-11T10:46:09.000Z</time>
      </trkpt>
      <trkpt lat="46.21592" lon="14.79673">
        <ele>618.549754</ele>
        <time>2026-07-11T10:46:14.000Z</time>
      </trkpt>
      <trkpt lat="46.21593" lon="14.79651">
        <ele>616.972513</ele>
        <time>2026-07-11T10:46:15.000Z</time>
      </trkpt>
      <trkpt lat="46.21593" lon="14.79633">
        <ele>615.664567</ele>
        <time>2026-07-11T10:46:16.000Z</time>
      </trkpt>
      <trkpt lat="46.21597" lon="14.79581">
        <ele>611.91944</ele>
        <time>2026-07-11T10:46:19.000Z</time>
      </trkpt>
      <trkpt lat="46.21598" lon="14.79562">
        <ele>610.568327</ele>
        <time>2026-07-11T10:46:20.000Z</time>
      </trkpt>
      <trkpt lat="46.21611" lon="14.79483">
        <ele>604.806338</ele>
        <time>2026-07-11T10:46:24.000Z</time>
      </trkpt>
      <trkpt lat="46.21616" lon="14.79464">
        <ele>603.542378</ele>
        <time>2026-07-11T10:46:25.000Z</time>
      </trkpt>
      <trkpt lat="46.21638" lon="14.79388">
        <ele>598.709043</ele>
        <time>2026-07-11T10:46:29.000Z</time>
      </trkpt>
      <trkpt lat="46.21661" lon="14.79337">
        <ele>595.157882</ele>
        <time>2026-07-11T10:46:32.000Z</time>
      </trkpt>
      <trkpt lat="46.21669" lon="14.79324">
        <ele>594.108948</ele>
        <time>2026-07-11T10:46:33.000Z</time>
      </trkpt>
      <trkpt lat="46.21678" lon="14.79312">
        <ele>593.086163</ele>
        <time>2026-07-11T10:46:34.000Z</time>
      </trkpt>
      <trkpt lat="46.21698" lon="14.79294">
        <ele>591.087752</ele>
        <time>2026-07-11T10:46:36.000Z</time>
      </trkpt>
      <trkpt lat="46.2171" lon="14.79287">
        <ele>590.073799</ele>
        <time>2026-07-11T10:46:37.000Z</time>
      </trkpt>
      <trkpt lat="46.2174" lon="14.79271">
        <ele>588.161434</ele>
        <time>2026-07-11T10:46:40.000Z</time>
      </trkpt>
      <trkpt lat="46.2177" lon="14.79253">
        <ele>586.711371</ele>
        <time>2026-07-11T10:46:43.000Z</time>
      </trkpt>
      <trkpt lat="46.21779" lon="14.79244">
        <ele>586.221386</ele>
        <time>2026-07-11T10:46:44.000Z</time>
      </trkpt>
      <trkpt lat="46.21811" lon="14.792">
        <ele>584.225134</ele>
        <time>2026-07-11T10:46:48.000Z</time>
      </trkpt>
      <trkpt lat="46.21853" lon="14.7914">
        <ele>581.557592</ele>
        <time>2026-07-11T10:46:53.000Z</time>
      </trkpt>
      <trkpt lat="46.21875" lon="14.79118">
        <ele>580.243223</ele>
        <time>2026-07-11T10:46:55.000Z</time>
      </trkpt>
      <trkpt lat="46.21886" lon="14.79109">
        <ele>579.620601</ele>
        <time>2026-07-11T10:46:56.000Z</time>
      </trkpt>
      <trkpt lat="46.21916" lon="14.79081">
        <ele>577.762018</ele>
        <time>2026-07-11T10:46:59.000Z</time>
      </trkpt>
      <trkpt lat="46.21924" lon="14.79069">
        <ele>577.154177</ele>
        <time>2026-07-11T10:47:00.000Z</time>
      </trkpt>
      <trkpt lat="46.21932" lon="14.79056">
        <ele>576.550397</ele>
        <time>2026-07-11T10:47:01.000Z</time>
      </trkpt>
      <trkpt lat="46.21949" lon="14.79015">
        <ele>574.812943</ele>
        <time>2026-07-11T10:47:04.000Z</time>
      </trkpt>
      <trkpt lat="46.21979" lon="14.78937">
        <ele>571.635314</ele>
        <time>2026-07-11T10:47:10.000Z</time>
      </trkpt>
      <trkpt lat="46.22007" lon="14.78867">
        <ele>569.591739</ele>
        <time>2026-07-11T10:47:16.000Z</time>
      </trkpt>
      <trkpt lat="46.22012" lon="14.78855">
        <ele>569.257847</ele>
        <time>2026-07-11T10:47:17.000Z</time>
      </trkpt>
      <trkpt lat="46.22037" lon="14.78782">
        <ele>567.211248</ele>
        <time>2026-07-11T10:47:23.000Z</time>
      </trkpt>
      <trkpt lat="46.22041" lon="14.7877">
        <ele>566.873096</ele>
        <time>2026-07-11T10:47:24.000Z</time>
      </trkpt>
      <trkpt lat="46.22062" lon="14.78697">
        <ele>564.868897</ele>
        <time>2026-07-11T10:47:30.000Z</time>
      </trkpt>
      <trkpt lat="46.22069" lon="14.78673">
        <ele>564.166042</ele>
        <time>2026-07-11T10:47:32.000Z</time>
      </trkpt>
      <trkpt lat="46.22082" lon="14.78624">
        <ele>562.798832</ele>
        <time>2026-07-11T10:47:36.000Z</time>
      </trkpt>
      <trkpt lat="46.22089" lon="14.78599">
        <ele>562.091078</ele>
        <time>2026-07-11T10:47:38.000Z</time>
      </trkpt>
      <trkpt lat="46.2211" lon="14.78538">
        <ele>560.274675</ele>
        <time>2026-07-11T10:47:43.000Z</time>
      </trkpt>
      <trkpt lat="46.22123" lon="14.78515">
        <ele>559.514723</ele>
        <time>2026-07-11T10:47:45.000Z</time>
      </trkpt>
      <trkpt lat="46.22137" lon="14.78493">
        <ele>558.731063</ele>
        <time>2026-07-11T10:47:47.000Z</time>
      </trkpt>
      <trkpt lat="46.2218" lon="14.78428">
        <ele>556.475345</ele>
        <time>2026-07-11T10:47:53.000Z</time>
      </trkpt>
      <trkpt lat="46.22187" lon="14.78417">
        <ele>556.106718</ele>
        <time>2026-07-11T10:47:54.000Z</time>
      </trkpt>
      <trkpt lat="46.22208" lon="14.78385">
        <ele>555.017234</ele>
        <time>2026-07-11T10:47:57.000Z</time>
      </trkpt>
      <trkpt lat="46.2222" lon="14.78361">
        <ele>554.273189</ele>
        <time>2026-07-11T10:47:59.000Z</time>
      </trkpt>
      <trkpt lat="46.22229" lon="14.78335">
        <ele>553.533239</ele>
        <time>2026-07-11T10:48:01.000Z</time>
      </trkpt>
      <trkpt lat="46.22236" lon="14.78304">
        <ele>552.750049</ele>
        <time>2026-07-11T10:48:03.000Z</time>
      </trkpt>
      <trkpt lat="46.22245" lon="14.78263">
        <ele>551.739873</ele>
        <time>2026-07-11T10:48:06.000Z</time>
      </trkpt>
      <trkpt lat="46.22247" lon="14.78233">
        <ele>551.255642</ele>
        <time>2026-07-11T10:48:08.000Z</time>
      </trkpt>
      <trkpt lat="46.22253" lon="14.7815">
        <ele>549.90869</ele>
        <time>2026-07-11T10:48:14.000Z</time>
      </trkpt>
      <trkpt lat="46.22252" lon="14.78136">
        <ele>549.685844</ele>
        <time>2026-07-11T10:48:15.000Z</time>
      </trkpt>
      <trkpt lat="46.22246" lon="14.78058">
        <ele>548.41647</ele>
        <time>2026-07-11T10:48:21.000Z</time>
      </trkpt>
      <trkpt lat="46.22237" lon="14.77985">
        <ele>547.572542</ele>
        <time>2026-07-11T10:48:27.000Z</time>
      </trkpt>
      <trkpt lat="46.22231" lon="14.77973">
        <ele>547.523873</ele>
        <time>2026-07-11T10:48:28.000Z</time>
      </trkpt>
      <trkpt lat="46.22221" lon="14.77953">
        <ele>547.441415</ele>
        <time>2026-07-11T10:48:30.000Z</time>
      </trkpt>
      <trkpt lat="46.2218" lon="14.77889">
        <ele>547.150905</ele>
        <time>2026-07-11T10:48:37.000Z</time>
      </trkpt>
      <trkpt lat="46.2217" lon="14.77872">
        <ele>547.074586</ele>
        <time>2026-07-11T10:48:39.000Z</time>
      </trkpt>
      <trkpt lat="46.22142" lon="14.7782">
        <ele>546.853281</ele>
        <time>2026-07-11T10:48:45.000Z</time>
      </trkpt>
      <trkpt lat="46.22116" lon="14.77772">
        <ele>545.055527</ele>
        <time>2026-07-11T10:48:50.000Z</time>
      </trkpt>
      <trkpt lat="46.22107" lon="14.77753">
        <ele>544.137387</ele>
        <time>2026-07-11T10:48:52.000Z</time>
      </trkpt>
      <trkpt lat="46.22102" lon="14.77744">
        <ele>543.683392</ele>
        <time>2026-07-11T10:48:53.000Z</time>
      </trkpt>
      <trkpt lat="46.22084" lon="14.77684">
        <ele>541.045675</ele>
        <time>2026-07-11T10:48:59.000Z</time>
      </trkpt>
      <trkpt lat="46.22068" lon="14.77609">
        <ele>537.924355</ele>
        <time>2026-07-11T10:49:06.000Z</time>
      </trkpt>
      <trkpt lat="46.22056" lon="14.77557">
        <ele>535.821271</ele>
        <time>2026-07-11T10:49:11.000Z</time>
      </trkpt>
      <trkpt lat="46.22041" lon="14.77487">
        <ele>533.223869</ele>
        <time>2026-07-11T10:49:18.000Z</time>
      </trkpt>
      <trkpt lat="46.22038" lon="14.77476">
        <ele>532.830827</ele>
        <time>2026-07-11T10:49:19.000Z</time>
      </trkpt>
      <trkpt lat="46.22032" lon="14.77443">
        <ele>531.595165</ele>
        <time>2026-07-11T10:49:22.000Z</time>
      </trkpt>
      <trkpt lat="46.22022" lon="14.77395">
        <ele>529.841136</ele>
        <time>2026-07-11T10:49:26.000Z</time>
      </trkpt>
      <trkpt lat="46.22006" lon="14.77312">
        <ele>526.857075</ele>
        <time>2026-07-11T10:49:33.000Z</time>
      </trkpt>
      <trkpt lat="46.22001" lon="14.77288">
        <ele>526.114922</ele>
        <time>2026-07-11T10:49:35.000Z</time>
      </trkpt>
      <trkpt lat="46.21994" lon="14.77253">
        <ele>525.019405</ele>
        <time>2026-07-11T10:49:38.000Z</time>
      </trkpt>
      <trkpt lat="46.21986" lon="14.77207">
        <ele>523.594884</ele>
        <time>2026-07-11T10:49:42.000Z</time>
      </trkpt>
      <trkpt lat="46.21981" lon="14.77184">
        <ele>522.867186</ele>
        <time>2026-07-11T10:49:44.000Z</time>
      </trkpt>
      <trkpt lat="46.21973" lon="14.77137">
        <ele>521.403455</ele>
        <time>2026-07-11T10:49:48.000Z</time>
      </trkpt>
      <trkpt lat="46.21969" lon="14.77099">
        <ele>520.250021</ele>
        <time>2026-07-11T10:49:51.000Z</time>
      </trkpt>
      <trkpt lat="46.21964" lon="14.77021">
        <ele>518.741822</ele>
        <time>2026-07-11T10:49:57.000Z</time>
      </trkpt>
      <trkpt lat="46.21963" lon="14.77008">
        <ele>518.569793</ele>
        <time>2026-07-11T10:49:58.000Z</time>
      </trkpt>
      <trkpt lat="46.21954" lon="14.76945">
        <ele>517.728559</ele>
        <time>2026-07-11T10:50:03.000Z</time>
      </trkpt>
      <trkpt lat="46.2195" lon="14.76921">
        <ele>517.409176</ele>
        <time>2026-07-11T10:50:05.000Z</time>
      </trkpt>
      <trkpt lat="46.21937" lon="14.76838">
        <ele>516.281048</ele>
        <time>2026-07-11T10:50:12.000Z</time>
      </trkpt>
      <trkpt lat="46.21924" lon="14.76753">
        <ele>515.470637</ele>
        <time>2026-07-11T10:50:19.000Z</time>
      </trkpt>
      <trkpt lat="46.21914" lon="14.76671">
        <ele>514.808836</ele>
        <time>2026-07-11T10:50:26.000Z</time>
      </trkpt>
      <trkpt lat="46.21907" lon="14.76607">
        <ele>514.29489</ele>
        <time>2026-07-11T10:50:32.000Z</time>
      </trkpt>
      <trkpt lat="46.21903" lon="14.76576">
        <ele>514.0484</ele>
        <time>2026-07-11T10:50:35.000Z</time>
      </trkpt>
      <trkpt lat="46.21898" lon="14.76522">
        <ele>513.875175</ele>
        <time>2026-07-11T10:50:40.000Z</time>
      </trkpt>
      <trkpt lat="46.21896" lon="14.765">
        <ele>513.847381</ele>
        <time>2026-07-11T10:50:42.000Z</time>
      </trkpt>
      <trkpt lat="46.21893" lon="14.76444">
        <ele>513.777523</ele>
        <time>2026-07-11T10:50:47.000Z</time>
      </trkpt>
      <trkpt lat="46.21894" lon="14.76423">
        <ele>513.750326</ele>
        <time>2026-07-11T10:50:49.000Z</time>
      </trkpt>
      <trkpt lat="46.21897" lon="14.76344">
        <ele>513.652998</ele>
        <time>2026-07-11T10:50:57.000Z</time>
      </trkpt>
      <trkpt lat="46.2189" lon="14.76287">
        <ele>513.664634</ele>
        <time>2026-07-11T10:51:03.000Z</time>
      </trkpt>
      <trkpt lat="46.21883" lon="14.76226">
        <ele>513.940275</ele>
        <time>2026-07-11T10:51:10.000Z</time>
      </trkpt>
      <trkpt lat="46.21882" lon="14.76209">
        <ele>514.015753</ele>
        <time>2026-07-11T10:51:12.000Z</time>
      </trkpt>
      <trkpt lat="46.21882" lon="14.76191">
        <ele>514.095498</ele>
        <time>2026-07-11T10:51:14.000Z</time>
      </trkpt>
      <trkpt lat="46.21883" lon="14.76173">
        <ele>514.177749</ele>
        <time>2026-07-11T10:51:16.000Z</time>
      </trkpt>
      <trkpt lat="46.21889" lon="14.76112">
        <ele>514.449709</ele>
        <time>2026-07-11T10:51:23.000Z</time>
      </trkpt>
      <trkpt lat="46.2189" lon="14.76104">
        <ele>514.482712</ele>
        <time>2026-07-11T10:51:24.000Z</time>
      </trkpt>
      <trkpt lat="46.21894" lon="14.76067">
        <ele>514.649675</ele>
        <time>2026-07-11T10:51:29.000Z</time>
      </trkpt>
      <trkpt lat="46.21894" lon="14.76052">
        <ele>514.717461</ele>
        <time>2026-07-11T10:51:31.000Z</time>
      </trkpt>
      <trkpt lat="46.21892" lon="14.76037">
        <ele>514.506097</ele>
        <time>2026-07-11T10:51:33.000Z</time>
      </trkpt>
      <trkpt lat="46.2189" lon="14.7603">
        <ele>514.249568</ele>
        <time>2026-07-11T10:51:34.000Z</time>
      </trkpt>
      <trkpt lat="46.21886" lon="14.76021">
        <ele>513.89214</ele>
        <time>2026-07-11T10:51:35.000Z</time>
      </trkpt>
      <trkpt lat="46.21878" lon="14.76005">
        <ele>513.263064</ele>
        <time>2026-07-11T10:51:37.000Z</time>
      </trkpt>
      <trkpt lat="46.21852" lon="14.75946">
        <ele>510.967261</ele>
        <time>2026-07-11T10:51:43.000Z</time>
      </trkpt>
      <trkpt lat="46.21831" lon="14.75884">
        <ele>508.695461</ele>
        <time>2026-07-11T10:51:48.000Z</time>
      </trkpt>
      <trkpt lat="46.21818" lon="14.75808">
        <ele>506.140473</ele>
        <time>2026-07-11T10:51:53.000Z</time>
      </trkpt>
      <trkpt lat="46.21815" lon="14.75794">
        <ele>505.75342</ele>
        <time>2026-07-11T10:51:54.000Z</time>
      </trkpt>
      <trkpt lat="46.21801" lon="14.75712">
        <ele>503.477664</ele>
        <time>2026-07-11T10:52:00.000Z</time>
      </trkpt>
      <trkpt lat="46.21795" lon="14.75671">
        <ele>502.353951</ele>
        <time>2026-07-11T10:52:03.000Z</time>
      </trkpt>
      <trkpt lat="46.21785" lon="14.75605">
        <ele>500.549939</ele>
        <time>2026-07-11T10:52:08.000Z</time>
      </trkpt>
      <trkpt lat="46.21782" lon="14.7558">
        <ele>499.852629</ele>
        <time>2026-07-11T10:52:10.000Z</time>
      </trkpt>
      <trkpt lat="46.21781" lon="14.75567">
        <ele>499.5134</ele>
        <time>2026-07-11T10:52:11.000Z</time>
      </trkpt>
      <trkpt lat="46.21781" lon="14.75517">
        <ele>498.760704</ele>
        <time>2026-07-11T10:52:15.000Z</time>
      </trkpt>
      <trkpt lat="46.21783" lon="14.75505">
        <ele>498.6115</ele>
        <time>2026-07-11T10:52:16.000Z</time>
      </trkpt>
      <trkpt lat="46.21797" lon="14.75433">
        <ele>497.738581</ele>
        <time>2026-07-11T10:52:22.000Z</time>
      </trkpt>
      <trkpt lat="46.21819" lon="14.75359">
        <ele>496.778888</ele>
        <time>2026-07-11T10:52:29.000Z</time>
      </trkpt>
      <trkpt lat="46.21832" lon="14.75294">
        <ele>495.919638</ele>
        <time>2026-07-11T10:52:35.000Z</time>
      </trkpt>
      <trkpt lat="46.21837" lon="14.75224">
        <ele>494.800645</ele>
        <time>2026-07-11T10:52:41.000Z</time>
      </trkpt>
      <trkpt lat="46.21836" lon="14.7516">
        <ele>493.782694</ele>
        <time>2026-07-11T10:52:46.000Z</time>
      </trkpt>
      <trkpt lat="46.21833" lon="14.75076">
        <ele>492.433039</ele>
        <time>2026-07-11T10:52:52.000Z</time>
      </trkpt>
      <trkpt lat="46.21832" lon="14.75062">
        <ele>492.209293</ele>
        <time>2026-07-11T10:52:53.000Z</time>
      </trkpt>
      <trkpt lat="46.21829" lon="14.74979">
        <ele>490.230548</ele>
        <time>2026-07-11T10:52:59.000Z</time>
      </trkpt>
      <trkpt lat="46.21828" lon="14.74951">
        <ele>489.524033</ele>
        <time>2026-07-11T10:53:01.000Z</time>
      </trkpt>
      <trkpt lat="46.21829" lon="14.7487">
        <ele>487.50399</ele>
        <time>2026-07-11T10:53:07.000Z</time>
      </trkpt>
      <trkpt lat="46.21834" lon="14.74792">
        <ele>485.544909</ele>
        <time>2026-07-11T10:53:13.000Z</time>
      </trkpt>
      <trkpt lat="46.21835" lon="14.74767">
        <ele>485.154746</ele>
        <time>2026-07-11T10:53:15.000Z</time>
      </trkpt>
      <trkpt lat="46.2184" lon="14.7468">
        <ele>483.931784</ele>
        <time>2026-07-11T10:53:22.000Z</time>
      </trkpt>
      <trkpt lat="46.21843" lon="14.74631">
        <ele>483.235975</ele>
        <time>2026-07-11T10:53:26.000Z</time>
      </trkpt>
      <trkpt lat="46.21849" lon="14.74546">
        <ele>482.033942</ele>
        <time>2026-07-11T10:53:33.000Z</time>
      </trkpt>
      <trkpt lat="46.21851" lon="14.74521">
        <ele>481.746718</ele>
        <time>2026-07-11T10:53:35.000Z</time>
      </trkpt>
      <trkpt lat="46.2186" lon="14.74433">
        <ele>481.114882</ele>
        <time>2026-07-11T10:53:42.000Z</time>
      </trkpt>
      <trkpt lat="46.21862" lon="14.74407">
        <ele>480.929181</ele>
        <time>2026-07-11T10:53:44.000Z</time>
      </trkpt>
      <trkpt lat="46.21861" lon="14.74344">
        <ele>480.480354</ele>
        <time>2026-07-11T10:53:49.000Z</time>
      </trkpt>
      <trkpt lat="46.21859" lon="14.74305">
        <ele>480.206977</ele>
        <time>2026-07-11T10:53:52.000Z</time>
      </trkpt>
      <trkpt lat="46.21854" lon="14.7423">
        <ele>479.559439</ele>
        <time>2026-07-11T10:53:58.000Z</time>
      </trkpt>
      <trkpt lat="46.21852" lon="14.74218">
        <ele>479.439503</ele>
        <time>2026-07-11T10:53:59.000Z</time>
      </trkpt>
      <trkpt lat="46.21838" lon="14.74134">
        <ele>478.616281</ele>
        <time>2026-07-11T10:54:06.000Z</time>
      </trkpt>
      <trkpt lat="46.21821" lon="14.7405">
        <ele>477.776109</ele>
        <time>2026-07-11T10:54:13.000Z</time>
      </trkpt>
      <trkpt lat="46.21818" lon="14.74038">
        <ele>477.654996</ele>
        <time>2026-07-11T10:54:14.000Z</time>
      </trkpt>
      <trkpt lat="46.21807" lon="14.73978">
        <ele>476.654112</ele>
        <time>2026-07-11T10:54:19.000Z</time>
      </trkpt>
      <trkpt lat="46.21791" lon="14.73897">
        <ele>475.099209</ele>
        <time>2026-07-11T10:54:26.000Z</time>
      </trkpt>
      <trkpt lat="46.21768" lon="14.7382">
        <ele>473.552124</ele>
        <time>2026-07-11T10:54:33.000Z</time>
      </trkpt>
      <trkpt lat="46.21747" lon="14.73753">
        <ele>472.394905</ele>
        <time>2026-07-11T10:54:39.000Z</time>
      </trkpt>
      <trkpt lat="46.21737" lon="14.73734">
        <ele>472.146209</ele>
        <time>2026-07-11T10:54:41.000Z</time>
      </trkpt>
      <trkpt lat="46.21724" lon="14.73713">
        <ele>471.841525</ele>
        <time>2026-07-11T10:54:44.000Z</time>
      </trkpt>
      <trkpt lat="46.21721" lon="14.73705">
        <ele>471.757223</ele>
        <time>2026-07-11T10:54:45.000Z</time>
      </trkpt>
      <trkpt lat="46.21719" lon="14.73698">
        <ele>471.673406</ele>
        <time>2026-07-11T10:54:46.000Z</time>
      </trkpt>
      <trkpt lat="46.21717" lon="14.73683">
        <ele>471.50807</ele>
        <time>2026-07-11T10:54:48.000Z</time>
      </trkpt>
      <trkpt lat="46.21715" lon="14.73675">
        <ele>471.424252</ele>
        <time>2026-07-11T10:54:49.000Z</time>
      </trkpt>
      <trkpt lat="46.21713" lon="14.73667">
        <ele>471.338371</ele>
        <time>2026-07-11T10:54:50.000Z</time>
      </trkpt>
      <trkpt lat="46.21702" lon="14.7363">
        <ele>470.918688</ele>
        <time>2026-07-11T10:54:55.000Z</time>
      </trkpt>
      <trkpt lat="46.21695" lon="14.73599">
        <ele>470.573034</ele>
        <time>2026-07-11T10:54:59.000Z</time>
      </trkpt>
      <trkpt lat="46.21692" lon="14.73577">
        <ele>470.329752</ele>
        <time>2026-07-11T10:55:02.000Z</time>
      </trkpt>
      <trkpt lat="46.21682" lon="14.7352">
        <ele>470.143493</ele>
        <time>2026-07-11T10:55:10.000Z</time>
      </trkpt>
      <trkpt lat="46.21678" lon="14.73501">
        <ele>470.326034</ele>
        <time>2026-07-11T10:55:13.000Z</time>
      </trkpt>
      <trkpt lat="46.21677" lon="14.73495">
        <ele>470.385698</ele>
        <time>2026-07-11T10:55:14.000Z</time>
      </trkpt>
      <trkpt lat="46.21672" lon="14.73477">
        <ele>470.567856</ele>
        <time>2026-07-11T10:55:17.000Z</time>
      </trkpt>
      <trkpt lat="46.21667" lon="14.73453">
        <ele>470.813406</ele>
        <time>2026-07-11T10:55:21.000Z</time>
      </trkpt>
      <trkpt lat="46.21663" lon="14.73435">
        <ele>470.994661</ele>
        <time>2026-07-11T10:55:24.000Z</time>
      </trkpt>
      <trkpt lat="46.21658" lon="14.73418">
        <ele>471.171056</ele>
        <time>2026-07-11T10:55:27.000Z</time>
      </trkpt>
      <trkpt lat="46.2165" lon="14.73402">
        <ele>471.361108</ele>
        <time>2026-07-11T10:55:30.000Z</time>
      </trkpt>
      <trkpt lat="46.21642" lon="14.73394">
        <ele>471.488343</ele>
        <time>2026-07-11T10:55:32.000Z</time>
      </trkpt>
      <trkpt lat="46.21631" lon="14.73385">
        <ele>471.670687</ele>
        <time>2026-07-11T10:55:35.000Z</time>
      </trkpt>
      <trkpt lat="46.21598" lon="14.73355">
        <ele>472.201892</ele>
        <time>2026-07-11T10:55:42.000Z</time>
      </trkpt>
      <trkpt lat="46.2158" lon="14.73338">
        <ele>472.210541</ele>
        <time>2026-07-11T10:55:45.000Z</time>
      </trkpt>
      <trkpt lat="46.21568" lon="14.73324">
        <ele>471.561239</ele>
        <time>2026-07-11T10:55:47.000Z</time>
      </trkpt>
      <trkpt lat="46.21555" lon="14.73308">
        <ele>470.893864</ele>
        <time>2026-07-11T10:55:49.000Z</time>
      </trkpt>
      <trkpt lat="46.21539" lon="14.73283">
        <ele>469.920121</ele>
        <time>2026-07-11T10:55:52.000Z</time>
      </trkpt>
      <trkpt lat="46.21534" lon="14.73273">
        <ele>469.597398</ele>
        <time>2026-07-11T10:55:53.000Z</time>
      </trkpt>
      <trkpt lat="46.21516" lon="14.73218">
        <ele>467.91232</ele>
        <time>2026-07-11T10:55:58.000Z</time>
      </trkpt>
      <trkpt lat="46.21507" lon="14.73201">
        <ele>467.312124</ele>
        <time>2026-07-11T10:56:00.000Z</time>
      </trkpt>
      <trkpt lat="46.21497" lon="14.73188">
        <ele>466.77178</ele>
        <time>2026-07-11T10:56:02.000Z</time>
      </trkpt>
      <trkpt lat="46.21485" lon="14.73175">
        <ele>466.158757</ele>
        <time>2026-07-11T10:56:04.000Z</time>
      </trkpt>
      <trkpt lat="46.2148" lon="14.73169">
        <ele>465.897941</ele>
        <time>2026-07-11T10:56:05.000Z</time>
      </trkpt>
      <trkpt lat="46.21472" lon="14.73154">
        <ele>465.380133</ele>
        <time>2026-07-11T10:56:07.000Z</time>
      </trkpt>
      <trkpt lat="46.21468" lon="14.73138">
        <ele>465.080303</ele>
        <time>2026-07-11T10:56:09.000Z</time>
      </trkpt>
      <trkpt lat="46.21464" lon="14.73123">
        <ele>464.925656</ele>
        <time>2026-07-11T10:56:11.000Z</time>
      </trkpt>
      <trkpt lat="46.21463" lon="14.73119">
        <ele>464.875561</ele>
        <time>2026-07-11T10:56:12.000Z</time>
      </trkpt>
      <trkpt lat="46.2146" lon="14.73102">
        <ele>464.703304</ele>
        <time>2026-07-11T10:56:15.000Z</time>
      </trkpt>
      <trkpt lat="46.2146" lon="14.73091">
        <ele>464.587053</ele>
        <time>2026-07-11T10:56:17.000Z</time>
      </trkpt>
      <trkpt lat="46.21464" lon="14.73079">
        <ele>464.457165</ele>
        <time>2026-07-11T10:56:19.000Z</time>
      </trkpt>
      <trkpt lat="46.21466" lon="14.73073">
        <ele>464.384066</ele>
        <time>2026-07-11T10:56:20.000Z</time>
      </trkpt>
      <trkpt lat="46.21478" lon="14.73044">
        <ele>464.047878</ele>
        <time>2026-07-11T10:56:24.000Z</time>
      </trkpt>
      <trkpt lat="46.21498" lon="14.72993">
        <ele>463.447604</ele>
        <time>2026-07-11T10:56:30.000Z</time>
      </trkpt>
      <trkpt lat="46.21517" lon="14.72937">
        <ele>462.813074</ele>
        <time>2026-07-11T10:56:36.000Z</time>
      </trkpt>
      <trkpt lat="46.21531" lon="14.72893">
        <ele>462.239782</ele>
        <time>2026-07-11T10:56:41.000Z</time>
      </trkpt>
      <trkpt lat="46.21537" lon="14.72864">
        <ele>461.814038</ele>
        <time>2026-07-11T10:56:44.000Z</time>
      </trkpt>
      <trkpt lat="46.21553" lon="14.72803">
        <ele>460.898166</ele>
        <time>2026-07-11T10:56:50.000Z</time>
      </trkpt>
      <trkpt lat="46.21574" lon="14.72727">
        <ele>459.750048</ele>
        <time>2026-07-11T10:56:57.000Z</time>
      </trkpt>
      <trkpt lat="46.21581" lon="14.72691">
        <ele>459.233087</ele>
        <time>2026-07-11T10:57:00.000Z</time>
      </trkpt>
      <trkpt lat="46.21591" lon="14.72631">
        <ele>458.315951</ele>
        <time>2026-07-11T10:57:05.000Z</time>
      </trkpt>
      <trkpt lat="46.21596" lon="14.72595">
        <ele>457.748021</ele>
        <time>2026-07-11T10:57:08.000Z</time>
      </trkpt>
      <trkpt lat="46.21603" lon="14.72546">
        <ele>456.99276</ele>
        <time>2026-07-11T10:57:12.000Z</time>
      </trkpt>
      <trkpt lat="46.21612" lon="14.72467">
        <ele>455.751659</ele>
        <time>2026-07-11T10:57:19.000Z</time>
      </trkpt>
      <trkpt lat="46.21612" lon="14.72456">
        <ele>455.584347</ele>
        <time>2026-07-11T10:57:20.000Z</time>
      </trkpt>
      <trkpt lat="46.21612" lon="14.72407">
        <ele>454.984447</ele>
        <time>2026-07-11T10:57:24.000Z</time>
      </trkpt>
      <trkpt lat="46.21613" lon="14.72396">
        <ele>455.132472</ele>
        <time>2026-07-11T10:57:25.000Z</time>
      </trkpt>
      <trkpt lat="46.21616" lon="14.7236">
        <ele>455.585319</ele>
        <time>2026-07-11T10:57:28.000Z</time>
      </trkpt>
      <trkpt lat="46.21622" lon="14.72328">
        <ele>455.988571</ele>
        <time>2026-07-11T10:57:31.000Z</time>
      </trkpt>
      <trkpt lat="46.21625" lon="14.72287">
        <ele>456.514092</ele>
        <time>2026-07-11T10:57:35.000Z</time>
      </trkpt>
      <trkpt lat="46.21626" lon="14.72277">
        <ele>456.63382</ele>
        <time>2026-07-11T10:57:36.000Z</time>
      </trkpt>
      <trkpt lat="46.21625" lon="14.72232">
        <ele>457.203542</ele>
        <time>2026-07-11T10:57:41.000Z</time>
      </trkpt>
      <trkpt lat="46.21629" lon="14.72178">
        <ele>457.880888</ele>
        <time>2026-07-11T10:57:47.000Z</time>
      </trkpt>
      <trkpt lat="46.21628" lon="14.72149">
        <ele>458.104268</ele>
        <time>2026-07-11T10:57:50.000Z</time>
      </trkpt>
      <trkpt lat="46.21625" lon="14.72139">
        <ele>457.974927</ele>
        <time>2026-07-11T10:57:51.000Z</time>
      </trkpt>
      <trkpt lat="46.21613" lon="14.72088">
        <ele>457.312066</ele>
        <time>2026-07-11T10:57:56.000Z</time>
      </trkpt>
      <trkpt lat="46.2161" lon="14.72077">
        <ele>457.169782</ele>
        <time>2026-07-11T10:57:57.000Z</time>
      </trkpt>
      <trkpt lat="46.21607" lon="14.72053">
        <ele>456.869394</ele>
        <time>2026-07-11T10:57:59.000Z</time>
      </trkpt>
      <trkpt lat="46.21608" lon="14.72029">
        <ele>456.573121</ele>
        <time>2026-07-11T10:58:01.000Z</time>
      </trkpt>
      <trkpt lat="46.21612" lon="14.72008">
        <ele>456.303076</ele>
        <time>2026-07-11T10:58:03.000Z</time>
      </trkpt>
      <trkpt lat="46.21619" lon="14.71982">
        <ele>455.967173</ele>
        <time>2026-07-11T10:58:05.000Z</time>
      </trkpt>
      <trkpt lat="46.21644" lon="14.71916">
        <ele>455.048424</ele>
        <time>2026-07-11T10:58:11.000Z</time>
      </trkpt>
      <trkpt lat="46.21658" lon="14.71873">
        <ele>454.091949</ele>
        <time>2026-07-11T10:58:15.000Z</time>
      </trkpt>
      <trkpt lat="46.21662" lon="14.7185">
        <ele>453.58817</ele>
        <time>2026-07-11T10:58:17.000Z</time>
      </trkpt>
      <trkpt lat="46.21674" lon="14.71764">
        <ele>451.769458</ele>
        <time>2026-07-11T10:58:24.000Z</time>
      </trkpt>
      <trkpt lat="46.21689" lon="14.71685">
        <ele>450.07175</ele>
        <time>2026-07-11T10:58:31.000Z</time>
      </trkpt>
      <trkpt lat="46.21689" lon="14.71637">
        <ele>449.446159</ele>
        <time>2026-07-11T10:58:35.000Z</time>
      </trkpt>
      <trkpt lat="46.21688" lon="14.71626">
        <ele>449.382449</ele>
        <time>2026-07-11T10:58:36.000Z</time>
      </trkpt>
      <trkpt lat="46.21681" lon="14.71592">
        <ele>449.19454</ele>
        <time>2026-07-11T10:58:39.000Z</time>
      </trkpt>
      <trkpt lat="46.21666" lon="14.71517">
        <ele>448.777421</ele>
        <time>2026-07-11T10:58:46.000Z</time>
      </trkpt>
      <trkpt lat="46.21664" lon="14.71506">
        <ele>448.720789</ele>
        <time>2026-07-11T10:58:47.000Z</time>
      </trkpt>
      <trkpt lat="46.21661" lon="14.71466">
        <ele>448.502331</ele>
        <time>2026-07-11T10:58:51.000Z</time>
      </trkpt>
      <trkpt lat="46.21662" lon="14.71455">
        <ele>448.446584</ele>
        <time>2026-07-11T10:58:52.000Z</time>
      </trkpt>
      <trkpt lat="46.21663" lon="14.71445">
        <ele>448.389537</ele>
        <time>2026-07-11T10:58:53.000Z</time>
      </trkpt>
      <trkpt lat="46.21668" lon="14.71401">
        <ele>448.274902</ele>
        <time>2026-07-11T10:58:57.000Z</time>
      </trkpt>
      <trkpt lat="46.21671" lon="14.7139">
        <ele>448.424637</ele>
        <time>2026-07-11T10:58:58.000Z</time>
      </trkpt>
      <trkpt lat="46.21681" lon="14.71334">
        <ele>449.205203</ele>
        <time>2026-07-11T10:59:03.000Z</time>
      </trkpt>
      <trkpt lat="46.21699" lon="14.71283">
        <ele>449.956407</ele>
        <time>2026-07-11T10:59:08.000Z</time>
      </trkpt>
      <trkpt lat="46.21711" lon="14.71259">
        <ele>450.349421</ele>
        <time>2026-07-11T10:59:11.000Z</time>
      </trkpt>
      <trkpt lat="46.21721" lon="14.71246">
        <ele>450.619253</ele>
        <time>2026-07-11T10:59:13.000Z</time>
      </trkpt>
      <trkpt lat="46.21727" lon="14.7124">
        <ele>450.756875</ele>
        <time>2026-07-11T10:59:14.000Z</time>
      </trkpt>
      <trkpt lat="46.21752" lon="14.71222">
        <ele>451.290388</ele>
        <time>2026-07-11T10:59:18.000Z</time>
      </trkpt>
      <trkpt lat="46.21784" lon="14.71192">
        <ele>451.609934</ele>
        <time>2026-07-11T10:59:24.000Z</time>
      </trkpt>
      <trkpt lat="46.21804" lon="14.71154">
        <ele>451.546707</ele>
        <time>2026-07-11T10:59:30.000Z</time>
      </trkpt>
      <trkpt lat="46.2182" lon="14.711">
        <ele>451.469902</ele>
        <time>2026-07-11T10:59:37.000Z</time>
      </trkpt>
      <trkpt lat="46.21831" lon="14.71059">
        <ele>451.412453</ele>
        <time>2026-07-11T10:59:42.000Z</time>
      </trkpt>
      <trkpt lat="46.21838" lon="14.71036">
        <ele>451.379034</ele>
        <time>2026-07-11T10:59:45.000Z</time>
      </trkpt>
      <trkpt lat="46.21855" lon="14.70973">
        <ele>451.241098</ele>
        <time>2026-07-11T10:59:53.000Z</time>
      </trkpt>
      <trkpt lat="46.21857" lon="14.70948">
        <ele>451.091719</ele>
        <time>2026-07-11T10:59:56.000Z</time>
      </trkpt>
      <trkpt lat="46.21857" lon="14.70932">
        <ele>450.995079</ele>
        <time>2026-07-11T10:59:58.000Z</time>
      </trkpt>
      <trkpt lat="46.2185" lon="14.70879">
        <ele>450.678234</ele>
        <time>2026-07-11T11:00:05.000Z</time>
      </trkpt>
      <trkpt lat="46.21839" lon="14.70812">
        <ele>450.272405</ele>
        <time>2026-07-11T11:00:14.000Z</time>
      </trkpt>
      <trkpt lat="46.21831" lon="14.70767">
        <ele>449.998797</ele>
        <time>2026-07-11T11:00:20.000Z</time>
      </trkpt>
      <trkpt lat="46.21831" lon="14.70757">
        <ele>449.941838</ele>
        <time>2026-07-11T11:00:21.000Z</time>
      </trkpt>
      <trkpt lat="46.21829" lon="14.70742">
        <ele>449.85289</ele>
        <time>2026-07-11T11:00:23.000Z</time>
      </trkpt>
      <trkpt lat="46.21827" lon="14.70709">
        <ele>449.852714</ele>
        <time>2026-07-11T11:00:27.000Z</time>
      </trkpt>
      <trkpt lat="46.21821" lon="14.70655">
        <ele>450.064959</ele>
        <time>2026-07-11T11:00:33.000Z</time>
      </trkpt>
      <trkpt lat="46.21818" lon="14.70626">
        <ele>450.179766</ele>
        <time>2026-07-11T11:00:36.000Z</time>
      </trkpt>
      <trkpt lat="46.21817" lon="14.70602">
        <ele>450.276618</ele>
        <time>2026-07-11T11:00:39.000Z</time>
      </trkpt>
      <trkpt lat="46.21813" lon="14.70544">
        <ele>450.504439</ele>
        <time>2026-07-11T11:00:46.000Z</time>
      </trkpt>
      <trkpt lat="46.21807" lon="14.7049">
        <ele>450.720006</ele>
        <time>2026-07-11T11:00:53.000Z</time>
      </trkpt>
      <trkpt lat="46.21802" lon="14.7046">
        <ele>450.80701</ele>
        <time>2026-07-11T11:00:57.000Z</time>
      </trkpt>
      <trkpt lat="46.21795" lon="14.70441">
        <ele>450.830091</ele>
        <time>2026-07-11T11:01:00.000Z</time>
      </trkpt>
      <trkpt lat="46.21793" lon="14.70432">
        <ele>450.840074</ele>
        <time>2026-07-11T11:01:01.000Z</time>
      </trkpt>
      <trkpt lat="46.21787" lon="14.70392">
        <ele>450.88405</ele>
        <time>2026-07-11T11:01:06.000Z</time>
      </trkpt>
      <trkpt lat="46.21785" lon="14.70377">
        <ele>450.900525</ele>
        <time>2026-07-11T11:01:08.000Z</time>
      </trkpt>
      <trkpt lat="46.2178" lon="14.70344">
        <ele>450.936917</ele>
        <time>2026-07-11T11:01:12.000Z</time>
      </trkpt>
      <trkpt lat="46.21777" lon="14.70287">
        <ele>450.998036</ele>
        <time>2026-07-11T11:01:19.000Z</time>
      </trkpt>
      <trkpt lat="46.21778" lon="14.70261">
        <ele>451.025559</ele>
        <time>2026-07-11T11:01:22.000Z</time>
      </trkpt>
      <trkpt lat="46.21778" lon="14.70252">
        <ele>451.035114</ele>
        <time>2026-07-11T11:01:23.000Z</time>
      </trkpt>
      <trkpt lat="46.21778" lon="14.70243">
        <ele>451.044765</ele>
        <time>2026-07-11T11:01:24.000Z</time>
      </trkpt>
      <trkpt lat="46.2178" lon="14.70193">
        <ele>450.255684</ele>
        <time>2026-07-11T11:01:29.000Z</time>
      </trkpt>
      <trkpt lat="46.21785" lon="14.70172">
        <ele>449.529185</ele>
        <time>2026-07-11T11:01:31.000Z</time>
      </trkpt>
      <trkpt lat="46.21791" lon="14.70149">
        <ele>448.723437</ele>
        <time>2026-07-11T11:01:33.000Z</time>
      </trkpt>
      <trkpt lat="46.21795" lon="14.70124">
        <ele>447.879385</ele>
        <time>2026-07-11T11:01:35.000Z</time>
      </trkpt>
      <trkpt lat="46.21795" lon="14.70098">
        <ele>447.010833</ele>
        <time>2026-07-11T11:01:37.000Z</time>
      </trkpt>
      <trkpt lat="46.21799" lon="14.70031">
        <ele>444.756493</ele>
        <time>2026-07-11T11:01:42.000Z</time>
      </trkpt>
      <trkpt lat="46.21802" lon="14.70018">
        <ele>444.317652</ele>
        <time>2026-07-11T11:01:43.000Z</time>
      </trkpt>
      <trkpt lat="46.2181" lon="14.69995">
        <ele>443.440604</ele>
        <time>2026-07-11T11:01:45.000Z</time>
      </trkpt>
      <trkpt lat="46.21816" lon="14.69985">
        <ele>443.001362</ele>
        <time>2026-07-11T11:01:46.000Z</time>
      </trkpt>
      <trkpt lat="46.21822" lon="14.69975">
        <ele>442.571703</ele>
        <time>2026-07-11T11:01:47.000Z</time>
      </trkpt>
      <trkpt lat="46.21837" lon="14.6996">
        <ele>441.99105</ele>
        <time>2026-07-11T11:01:49.000Z</time>
      </trkpt>
      <trkpt lat="46.21852" lon="14.69953">
        <ele>441.516559</ele>
        <time>2026-07-11T11:01:51.000Z</time>
      </trkpt>
      <trkpt lat="46.21862" lon="14.6995">
        <ele>441.213562</ele>
        <time>2026-07-11T11:01:52.000Z</time>
      </trkpt>
      <trkpt lat="46.21879" lon="14.69942">
        <ele>440.679828</ele>
        <time>2026-07-11T11:01:54.000Z</time>
      </trkpt>
      <trkpt lat="46.21893" lon="14.69927">
        <ele>440.161319</ele>
        <time>2026-07-11T11:01:56.000Z</time>
      </trkpt>
      <trkpt lat="46.21907" lon="14.69897">
        <ele>439.425633</ele>
        <time>2026-07-11T11:01:59.000Z</time>
      </trkpt>
      <trkpt lat="46.21923" lon="14.69859">
        <ele>438.506363</ele>
        <time>2026-07-11T11:02:03.000Z</time>
      </trkpt>
      <trkpt lat="46.21948" lon="14.69823">
        <ele>437.475062</ele>
        <time>2026-07-11T11:02:08.000Z</time>
      </trkpt>
      <trkpt lat="46.21967" lon="14.69798">
        <ele>437.023557</ele>
        <time>2026-07-11T11:02:12.000Z</time>
      </trkpt>
      <trkpt lat="46.21971" lon="14.69792">
        <ele>436.986785</ele>
        <time>2026-07-11T11:02:13.000Z</time>
      </trkpt>
      <trkpt lat="46.21975" lon="14.69785">
        <ele>436.949698</ele>
        <time>2026-07-11T11:02:14.000Z</time>
      </trkpt>
      <trkpt lat="46.21986" lon="14.6976">
        <ele>436.829198</ele>
        <time>2026-07-11T11:02:17.000Z</time>
      </trkpt>
      <trkpt lat="46.22002" lon="14.69703">
        <ele>436.570923</ele>
        <time>2026-07-11T11:02:23.000Z</time>
      </trkpt>
      <trkpt lat="46.22009" lon="14.69687">
        <ele>436.492089</ele>
        <time>2026-07-11T11:02:25.000Z</time>
      </trkpt>
      <trkpt lat="46.22028" lon="14.69651">
        <ele>436.306622</ele>
        <time>2026-07-11T11:02:29.000Z</time>
      </trkpt>
      <trkpt lat="46.22054" lon="14.69619">
        <ele>436.101076</ele>
        <time>2026-07-11T11:02:34.000Z</time>
      </trkpt>
      <trkpt lat="46.22066" lon="14.6961">
        <ele>436.030132</ele>
        <time>2026-07-11T11:02:36.000Z</time>
      </trkpt>
      <trkpt lat="46.22085" lon="14.69599">
        <ele>436.187317</ele>
        <time>2026-07-11T11:02:39.000Z</time>
      </trkpt>
      <trkpt lat="46.22132" lon="14.69578">
        <ele>436.577064</ele>
        <time>2026-07-11T11:02:47.000Z</time>
      </trkpt>
      <trkpt lat="46.22137" lon="14.69575">
        <ele>436.619526</ele>
        <time>2026-07-11T11:02:48.000Z</time>
      </trkpt>
      <trkpt lat="46.22152" lon="14.69565">
        <ele>436.747558</ele>
        <time>2026-07-11T11:02:51.000Z</time>
      </trkpt>
      <trkpt lat="46.22162" lon="14.69557">
        <ele>436.833763</ele>
        <time>2026-07-11T11:02:53.000Z</time>
      </trkpt>
      <trkpt lat="46.22176" lon="14.69542">
        <ele>436.973771</ele>
        <time>2026-07-11T11:02:56.000Z</time>
      </trkpt>
      <trkpt lat="46.2221" lon="14.69498">
        <ele>437.332911</ele>
        <time>2026-07-11T11:03:04.000Z</time>
      </trkpt>
      <trkpt lat="46.22245" lon="14.69452">
        <ele>437.198848</ele>
        <time>2026-07-11T11:03:12.000Z</time>
      </trkpt>
      <trkpt lat="46.2228" lon="14.69404">
        <ele>436.867312</ele>
        <time>2026-07-11T11:03:20.000Z</time>
      </trkpt>
      <trkpt lat="46.2232" lon="14.69351">
        <ele>436.493415</ele>
        <time>2026-07-11T11:03:29.000Z</time>
      </trkpt>
      <trkpt lat="46.22324" lon="14.69344">
        <ele>436.450219</ele>
        <time>2026-07-11T11:03:30.000Z</time>
      </trkpt>
      <trkpt lat="46.22354" lon="14.69302">
        <ele>436.168302</ele>
        <time>2026-07-11T11:03:37.000Z</time>
      </trkpt>
      <trkpt lat="46.22369" lon="14.69287">
        <ele>436.069899</ele>
        <time>2026-07-11T11:03:40.000Z</time>
      </trkpt>
      <trkpt lat="46.22386" lon="14.69273">
        <ele>435.962674</ele>
        <time>2026-07-11T11:03:43.000Z</time>
      </trkpt>
      <trkpt lat="46.22409" lon="14.69253">
        <ele>435.818281</ele>
        <time>2026-07-11T11:03:47.000Z</time>
      </trkpt>
      <trkpt lat="46.2242" lon="14.69242">
        <ele>435.745947</ele>
        <time>2026-07-11T11:03:49.000Z</time>
      </trkpt>
      <trkpt lat="46.22425" lon="14.69235">
        <ele>435.708562</ele>
        <time>2026-07-11T11:03:50.000Z</time>
      </trkpt>
      <trkpt lat="46.22436" lon="14.69215">
        <ele>435.614</ele>
        <time>2026-07-11T11:03:53.000Z</time>
      </trkpt>
      <trkpt lat="46.22441" lon="14.69202">
        <ele>435.560068</ele>
        <time>2026-07-11T11:03:54.000Z</time>
      </trkpt>
      <trkpt lat="46.22448" lon="14.69175">
        <ele>435.452914</ele>
        <time>2026-07-11T11:03:57.000Z</time>
      </trkpt>
      <trkpt lat="46.22449" lon="14.69166">
        <ele>435.414835</ele>
        <time>2026-07-11T11:03:58.000Z</time>
      </trkpt>
      <trkpt lat="46.22464" lon="14.69084">
        <ele>434.804462</ele>
        <time>2026-07-11T11:04:06.000Z</time>
      </trkpt>
      <trkpt lat="46.2247" lon="14.69031">
        <ele>434.115825</ele>
        <time>2026-07-11T11:04:11.000Z</time>
      </trkpt>
      <trkpt lat="46.22473" lon="14.68997">
        <ele>433.687912</ele>
        <time>2026-07-11T11:04:14.000Z</time>
      </trkpt>
      <trkpt lat="46.22477" lon="14.6891">
        <ele>432.580489</ele>
        <time>2026-07-11T11:04:22.000Z</time>
      </trkpt>
      <trkpt lat="46.22477" lon="14.689">
        <ele>432.446564</ele>
        <time>2026-07-11T11:04:23.000Z</time>
      </trkpt>
      <trkpt lat="46.22477" lon="14.68889">
        <ele>432.310183</ele>
        <time>2026-07-11T11:04:24.000Z</time>
      </trkpt>
      <trkpt lat="46.22478" lon="14.68834">
        <ele>431.617667</ele>
        <time>2026-07-11T11:04:29.000Z</time>
      </trkpt>
      <trkpt lat="46.22478" lon="14.6881">
        <ele>431.338259</ele>
        <time>2026-07-11T11:04:31.000Z</time>
      </trkpt>
      <trkpt lat="46.22478" lon="14.68787">
        <ele>431.062512</ele>
        <time>2026-07-11T11:04:33.000Z</time>
      </trkpt>
      <trkpt lat="46.22476" lon="14.68704">
        <ele>430.051703</ele>
        <time>2026-07-11T11:04:40.000Z</time>
      </trkpt>
      <trkpt lat="46.22472" lon="14.68618">
        <ele>429.024255</ele>
        <time>2026-07-11T11:04:47.000Z</time>
      </trkpt>
      <trkpt lat="46.22472" lon="14.6857">
        <ele>428.753015</ele>
        <time>2026-07-11T11:04:51.000Z</time>
      </trkpt>
      <trkpt lat="46.22476" lon="14.68487">
        <ele>428.670095</ele>
        <time>2026-07-11T11:04:58.000Z</time>
      </trkpt>
      <trkpt lat="46.22493" lon="14.68421">
        <ele>428.599864</ele>
        <time>2026-07-11T11:05:04.000Z</time>
      </trkpt>
      <trkpt lat="46.22517" lon="14.68344">
        <ele>428.540725</ele>
        <time>2026-07-11T11:05:11.000Z</time>
      </trkpt>
      <trkpt lat="46.22537" lon="14.68267">
        <ele>428.774456</ele>
        <time>2026-07-11T11:05:18.000Z</time>
      </trkpt>
      <trkpt lat="46.2254" lon="14.68257">
        <ele>428.805434</ele>
        <time>2026-07-11T11:05:19.000Z</time>
      </trkpt>
      <trkpt lat="46.22548" lon="14.68228">
        <ele>428.89722</ele>
        <time>2026-07-11T11:05:22.000Z</time>
      </trkpt>
      <trkpt lat="46.22557" lon="14.68211">
        <ele>428.959568</ele>
        <time>2026-07-11T11:05:24.000Z</time>
      </trkpt>
      <trkpt lat="46.2257" lon="14.68198">
        <ele>429.023489</ele>
        <time>2026-07-11T11:05:26.000Z</time>
      </trkpt>
      <trkpt lat="46.22583" lon="14.68187">
        <ele>429.087311</ele>
        <time>2026-07-11T11:05:28.000Z</time>
      </trkpt>
      <trkpt lat="46.22593" lon="14.68169">
        <ele>429.152549</ele>
        <time>2026-07-11T11:05:30.000Z</time>
      </trkpt>
      <trkpt lat="46.22595" lon="14.68158">
        <ele>429.185793</ele>
        <time>2026-07-11T11:05:31.000Z</time>
      </trkpt>
      <trkpt lat="46.22601" lon="14.6811">
        <ele>429.161522</ele>
        <time>2026-07-11T11:05:35.000Z</time>
      </trkpt>
      <trkpt lat="46.2261" lon="14.68027">
        <ele>428.714295</ele>
        <time>2026-07-11T11:05:42.000Z</time>
      </trkpt>
      <trkpt lat="46.22613" lon="14.67951">
        <ele>428.311409</ele>
        <time>2026-07-11T11:05:49.000Z</time>
      </trkpt>
      <trkpt lat="46.22614" lon="14.67876">
        <ele>427.909138</ele>
        <time>2026-07-11T11:05:56.000Z</time>
      </trkpt>
      <trkpt lat="46.22614" lon="14.67853">
        <ele>427.68163</ele>
        <time>2026-07-11T11:05:58.000Z</time>
      </trkpt>
      <trkpt lat="46.22614" lon="14.67773">
        <ele>426.753331</ele>
        <time>2026-07-11T11:06:05.000Z</time>
      </trkpt>
      <trkpt lat="46.22614" lon="14.67761">
        <ele>426.622319</ele>
        <time>2026-07-11T11:06:06.000Z</time>
      </trkpt>
      <trkpt lat="46.22611" lon="14.67674">
        <ele>425.620586</ele>
        <time>2026-07-11T11:06:14.000Z</time>
      </trkpt>
      <trkpt lat="46.22611" lon="14.67664">
        <ele>425.503402</ele>
        <time>2026-07-11T11:06:15.000Z</time>
      </trkpt>
      <trkpt lat="46.22605" lon="14.67605">
        <ele>424.946461</ele>
        <time>2026-07-11T11:06:21.000Z</time>
      </trkpt>
      <trkpt lat="46.226" lon="14.67577">
        <ele>425.147775</ele>
        <time>2026-07-11T11:06:24.000Z</time>
      </trkpt>
      <trkpt lat="46.22592" lon="14.67521">
        <ele>425.550391</ele>
        <time>2026-07-11T11:06:30.000Z</time>
      </trkpt>
      <trkpt lat="46.22588" lon="14.67484">
        <ele>425.813403</ele>
        <time>2026-07-11T11:06:34.000Z</time>
      </trkpt>
      <trkpt lat="46.22588" lon="14.67457">
        <ele>426.003605</ele>
        <time>2026-07-11T11:06:37.000Z</time>
      </trkpt>
      <trkpt lat="46.2259" lon="14.6739">
        <ele>426.477627</ele>
        <time>2026-07-11T11:06:45.000Z</time>
      </trkpt>
      <trkpt lat="46.22601" lon="14.67326">
        <ele>426.814006</ele>
        <time>2026-07-11T11:06:53.000Z</time>
      </trkpt>
      <trkpt lat="46.22606" lon="14.67266">
        <ele>426.989006</ele>
        <time>2026-07-11T11:07:00.000Z</time>
      </trkpt>
      <trkpt lat="46.22606" lon="14.67257">
        <ele>427.014305</ele>
        <time>2026-07-11T11:07:01.000Z</time>
      </trkpt>
      <trkpt lat="46.22598" lon="14.67202">
        <ele>427.173295</ele>
        <time>2026-07-11T11:07:07.000Z</time>
      </trkpt>
      <trkpt lat="46.22594" lon="14.67165">
        <ele>427.283158</ele>
        <time>2026-07-11T11:07:11.000Z</time>
      </trkpt>
      <trkpt lat="46.22596" lon="14.67146">
        <ele>427.337408</ele>
        <time>2026-07-11T11:07:13.000Z</time>
      </trkpt>
      <trkpt lat="46.22597" lon="14.67137">
        <ele>427.364499</ele>
        <time>2026-07-11T11:07:14.000Z</time>
      </trkpt>
      <trkpt lat="46.22604" lon="14.6711">
        <ele>427.446463</ele>
        <time>2026-07-11T11:07:17.000Z</time>
      </trkpt>
      <trkpt lat="46.2263" lon="14.67047">
        <ele>427.179204</ele>
        <time>2026-07-11T11:07:24.000Z</time>
      </trkpt>
      <trkpt lat="46.22662" lon="14.66979">
        <ele>426.802897</ele>
        <time>2026-07-11T11:07:31.000Z</time>
      </trkpt>
      <trkpt lat="46.22694" lon="14.66911">
        <ele>426.428475</ele>
        <time>2026-07-11T11:07:38.000Z</time>
      </trkpt>
      <trkpt lat="46.22698" lon="14.66902">
        <ele>426.375225</ele>
        <time>2026-07-11T11:07:39.000Z</time>
      </trkpt>
      <trkpt lat="46.22731" lon="14.66835">
        <ele>425.961311</ele>
        <time>2026-07-11T11:07:46.000Z</time>
      </trkpt>
      <trkpt lat="46.22749" lon="14.66812">
        <ele>425.779492</ele>
        <time>2026-07-11T11:07:49.000Z</time>
      </trkpt>
      <trkpt lat="46.22756" lon="14.66806">
        <ele>425.718171</ele>
        <time>2026-07-11T11:07:50.000Z</time>
      </trkpt>
      <trkpt lat="46.22784" lon="14.6679">
        <ele>425.493371</ele>
        <time>2026-07-11T11:07:54.000Z</time>
      </trkpt>
      <trkpt lat="46.22791" lon="14.66788">
        <ele>425.439394</ele>
        <time>2026-07-11T11:07:55.000Z</time>
      </trkpt>
      <trkpt lat="46.22835" lon="14.66774">
        <ele>425.097069</ele>
        <time>2026-07-11T11:08:02.000Z</time>
      </trkpt>
      <trkpt lat="46.22887" lon="14.66753">
        <ele>425.762525</ele>
        <time>2026-07-11T11:08:11.000Z</time>
      </trkpt>
      <trkpt lat="46.22929" lon="14.66736">
        <ele>426.927221</ele>
        <time>2026-07-11T11:08:19.000Z</time>
      </trkpt>
      <trkpt lat="46.22972" lon="14.66726">
        <ele>428.068487</ele>
        <time>2026-07-11T11:08:27.000Z</time>
      </trkpt>
      <trkpt lat="46.23022" lon="14.66725">
        <ele>429.403431</ele>
        <time>2026-07-11T11:08:37.000Z</time>
      </trkpt>
      <trkpt lat="46.23064" lon="14.66729">
        <ele>430.852155</ele>
        <time>2026-07-11T11:08:46.000Z</time>
      </trkpt>
      <trkpt lat="46.23106" lon="14.66732">
        <ele>432.409627</ele>
        <time>2026-07-11T11:08:55.000Z</time>
      </trkpt>
      <trkpt lat="46.2315" lon="14.66736">
        <ele>434.049631</ele>
        <time>2026-07-11T11:09:05.000Z</time>
      </trkpt>
      <trkpt lat="46.2317" lon="14.66734">
        <ele>434.796868</ele>
        <time>2026-07-11T11:09:10.000Z</time>
      </trkpt>
      <trkpt lat="46.23178" lon="14.6673">
        <ele>435.089974</ele>
        <time>2026-07-11T11:09:12.000Z</time>
      </trkpt>
      <trkpt lat="46.23182" lon="14.66728">
        <ele>435.240137</ele>
        <time>2026-07-11T11:09:13.000Z</time>
      </trkpt>
      <trkpt lat="46.23189" lon="14.66722">
        <ele>435.553056</ele>
        <time>2026-07-11T11:09:15.000Z</time>
      </trkpt>
      <trkpt lat="46.232" lon="14.66714">
        <ele>436.01016</ele>
        <time>2026-07-11T11:09:18.000Z</time>
      </trkpt>
      <trkpt lat="46.23215" lon="14.66704">
        <ele>436.571903</ele>
        <time>2026-07-11T11:09:22.000Z</time>
      </trkpt>
      <trkpt lat="46.23229" lon="14.66695">
        <ele>437.061662</ele>
        <time>2026-07-11T11:09:26.000Z</time>
      </trkpt>
      <trkpt lat="46.23255" lon="14.6668">
        <ele>437.964071</ele>
        <time>2026-07-11T11:09:33.000Z</time>
      </trkpt>
      <trkpt lat="46.23291" lon="14.66666">
        <ele>439.176837</ele>
        <time>2026-07-11T11:09:43.000Z</time>
      </trkpt>
      <trkpt lat="46.2332" lon="14.66656">
        <ele>440.117052</ele>
        <time>2026-07-11T11:09:51.000Z</time>
      </trkpt>
      <trkpt lat="46.23327" lon="14.66654">
        <ele>440.334887</ele>
        <time>2026-07-11T11:09:53.000Z</time>
      </trkpt>
      <trkpt lat="46.23359" lon="14.66645">
        <ele>441.39184</ele>
        <time>2026-07-11T11:10:03.000Z</time>
      </trkpt>
      <trkpt lat="46.2339" lon="14.66637">
        <ele>442.283694</ele>
        <time>2026-07-11T11:10:12.000Z</time>
      </trkpt>
      <trkpt lat="46.2341" lon="14.66626">
        <ele>442.675622</ele>
        <time>2026-07-11T11:10:18.000Z</time>
      </trkpt>
      <trkpt lat="46.23414" lon="14.66623">
        <ele>442.753191</ele>
        <time>2026-07-11T11:10:19.000Z</time>
      </trkpt>
      <trkpt lat="46.23422" lon="14.66615">
        <ele>442.93704</ele>
        <time>2026-07-11T11:10:22.000Z</time>
      </trkpt>
      <trkpt lat="46.23432" lon="14.666">
        <ele>443.201147</ele>
        <time>2026-07-11T11:10:26.000Z</time>
      </trkpt>
      <trkpt lat="46.23446" lon="14.66561">
        <ele>443.744959</ele>
        <time>2026-07-11T11:10:34.000Z</time>
      </trkpt>
      <trkpt lat="46.23457" lon="14.66533">
        <ele>444.148608</ele>
        <time>2026-07-11T11:10:40.000Z</time>
      </trkpt>
      <trkpt lat="46.23467" lon="14.66508">
        <ele>444.514615</ele>
        <time>2026-07-11T11:10:45.000Z</time>
      </trkpt>
      <trkpt lat="46.23476" lon="14.66469">
        <ele>445.029332</ele>
        <time>2026-07-11T11:10:50.000Z</time>
      </trkpt>
      <trkpt lat="46.23487" lon="14.66421">
        <ele>444.483916</ele>
        <time>2026-07-11T11:10:55.000Z</time>
      </trkpt>
      <trkpt lat="46.23505" lon="14.66352">
        <ele>441.281542</ele>
        <time>2026-07-11T11:11:01.000Z</time>
      </trkpt>
      <trkpt lat="46.23511" lon="14.66281">
        <ele>438.185434</ele>
        <time>2026-07-11T11:11:06.000Z</time>
      </trkpt>
      <trkpt lat="46.23514" lon="14.66198">
        <ele>434.565968</ele>
        <time>2026-07-11T11:11:12.000Z</time>
      </trkpt>
      <trkpt lat="46.23509" lon="14.66123">
        <ele>431.152887</ele>
        <time>2026-07-11T11:11:17.000Z</time>
      </trkpt>
      <trkpt lat="46.235" lon="14.66033">
        <ele>426.977993</ele>
        <time>2026-07-11T11:11:23.000Z</time>
      </trkpt>
      <trkpt lat="46.23497" lon="14.66018">
        <ele>426.293081</ele>
        <time>2026-07-11T11:11:24.000Z</time>
      </trkpt>
      <trkpt lat="46.23487" lon="14.65993">
        <ele>424.952835</ele>
        <time>2026-07-11T11:11:26.000Z</time>
      </trkpt>
      <trkpt lat="46.2348" lon="14.65982">
        <ele>424.292801</ele>
        <time>2026-07-11T11:11:27.000Z</time>
      </trkpt>
      <trkpt lat="46.23473" lon="14.65972">
        <ele>423.648465</ele>
        <time>2026-07-11T11:11:28.000Z</time>
      </trkpt>
      <trkpt lat="46.23457" lon="14.65957">
        <ele>422.394653</ele>
        <time>2026-07-11T11:11:30.000Z</time>
      </trkpt>
      <trkpt lat="46.23411" lon="14.65914">
        <ele>421.583318</ele>
        <time>2026-07-11T11:11:36.000Z</time>
      </trkpt>
      <trkpt lat="46.23396" lon="14.659">
        <ele>421.372497</ele>
        <time>2026-07-11T11:11:38.000Z</time>
      </trkpt>
      <trkpt lat="46.23355" lon="14.6586">
        <ele>420.784335</ele>
        <time>2026-07-11T11:11:44.000Z</time>
      </trkpt>
      <trkpt lat="46.23323" lon="14.6583">
        <ele>420.327659</ele>
        <time>2026-07-11T11:11:49.000Z</time>
      </trkpt>
      <trkpt lat="46.23304" lon="14.65812">
        <ele>420.057062</ele>
        <time>2026-07-11T11:11:52.000Z</time>
      </trkpt>
      <trkpt lat="46.23287" lon="14.65795">
        <ele>419.965439</ele>
        <time>2026-07-11T11:11:55.000Z</time>
      </trkpt>
      <trkpt lat="46.23249" lon="14.65753">
        <ele>419.755788</ele>
        <time>2026-07-11T11:12:01.000Z</time>
      </trkpt>
      <trkpt lat="46.23239" lon="14.65736">
        <ele>419.687993</ele>
        <time>2026-07-11T11:12:03.000Z</time>
      </trkpt>
      <trkpt lat="46.23233" lon="14.65716">
        <ele>419.619635</ele>
        <time>2026-07-11T11:12:05.000Z</time>
      </trkpt>
      <trkpt lat="46.23224" lon="14.65663">
        <ele>419.456403</ele>
        <time>2026-07-11T11:12:10.000Z</time>
      </trkpt>
      <trkpt lat="46.23222" lon="14.65591">
        <ele>419.077422</ele>
        <time>2026-07-11T11:12:17.000Z</time>
      </trkpt>
      <trkpt lat="46.23225" lon="14.65521">
        <ele>417.807754</ele>
        <time>2026-07-11T11:12:24.000Z</time>
      </trkpt>
      <trkpt lat="46.2323" lon="14.65466">
        <ele>416.795519</ele>
        <time>2026-07-11T11:12:30.000Z</time>
      </trkpt>
      <trkpt lat="46.23233" lon="14.65406">
        <ele>415.70573</ele>
        <time>2026-07-11T11:12:36.000Z</time>
      </trkpt>
      <trkpt lat="46.23239" lon="14.65376">
        <ele>415.131856</ele>
        <time>2026-07-11T11:12:39.000Z</time>
      </trkpt>
      <trkpt lat="46.23246" lon="14.65324">
        <ele>414.024729</ele>
        <time>2026-07-11T11:12:44.000Z</time>
      </trkpt>
      <trkpt lat="46.23255" lon="14.65247">
        <ele>411.990207</ele>
        <time>2026-07-11T11:12:52.000Z</time>
      </trkpt>
      <trkpt lat="46.23256" lon="14.65228">
        <ele>411.504243</ele>
        <time>2026-07-11T11:12:54.000Z</time>
      </trkpt>
      <trkpt lat="46.23259" lon="14.65181">
        <ele>410.273831</ele>
        <time>2026-07-11T11:12:59.000Z</time>
      </trkpt>
      <trkpt lat="46.23259" lon="14.65171">
        <ele>410.017409</ele>
        <time>2026-07-11T11:13:00.000Z</time>
      </trkpt>
      <trkpt lat="46.23256" lon="14.6515">
        <ele>409.474009</ele>
        <time>2026-07-11T11:13:02.000Z</time>
      </trkpt>
      <trkpt lat="46.23252" lon="14.6513">
        <ele>408.919743</ele>
        <time>2026-07-11T11:13:04.000Z</time>
      </trkpt>
      <trkpt lat="46.23236" lon="14.65067">
        <ele>407.449819</ele>
        <time>2026-07-11T11:13:10.000Z</time>
      </trkpt>
      <trkpt lat="46.2322" lon="14.65004">
        <ele>406.421414</ele>
        <time>2026-07-11T11:13:16.000Z</time>
      </trkpt>
      <trkpt lat="46.23217" lon="14.64995">
        <ele>406.261289</ele>
        <time>2026-07-11T11:13:17.000Z</time>
      </trkpt>
      <trkpt lat="46.23201" lon="14.6493">
        <ele>405.212893</ele>
        <time>2026-07-11T11:13:24.000Z</time>
      </trkpt>
      <trkpt lat="46.23193" lon="14.64876">
        <ele>404.353833</ele>
        <time>2026-07-11T11:13:30.000Z</time>
      </trkpt>
      <trkpt lat="46.23186" lon="14.6482">
        <ele>403.560883</ele>
        <time>2026-07-11T11:13:36.000Z</time>
      </trkpt>
      <trkpt lat="46.23182" lon="14.64782">
        <ele>403.092343</ele>
        <time>2026-07-11T11:13:40.000Z</time>
      </trkpt>
      <trkpt lat="46.23166" lon="14.64712">
        <ele>402.198414</ele>
        <time>2026-07-11T11:13:47.000Z</time>
      </trkpt>
      <trkpt lat="46.23141" lon="14.64647">
        <ele>401.296794</ele>
        <time>2026-07-11T11:13:54.000Z</time>
      </trkpt>
      <trkpt lat="46.23132" lon="14.64619">
        <ele>400.920644</ele>
        <time>2026-07-11T11:13:57.000Z</time>
      </trkpt>
      <trkpt lat="46.23129" lon="14.64599">
        <ele>400.668784</ele>
        <time>2026-07-11T11:13:59.000Z</time>
      </trkpt>
      <trkpt lat="46.23126" lon="14.64525">
        <ele>400.092325</ele>
        <time>2026-07-11T11:14:06.000Z</time>
      </trkpt>
      <trkpt lat="46.23124" lon="14.64503">
        <ele>399.925471</ele>
        <time>2026-07-11T11:14:08.000Z</time>
      </trkpt>
      <trkpt lat="46.2312" lon="14.64483">
        <ele>399.76449</ele>
        <time>2026-07-11T11:14:10.000Z</time>
      </trkpt>
      <trkpt lat="46.23116" lon="14.64474">
        <ele>399.67821</ele>
        <time>2026-07-11T11:14:11.000Z</time>
      </trkpt>
      <trkpt lat="46.23092" lon="14.64422">
        <ele>399.19284</ele>
        <time>2026-07-11T11:14:17.000Z</time>
      </trkpt>
      <trkpt lat="46.23087" lon="14.64402">
        <ele>399.028157</ele>
        <time>2026-07-11T11:14:19.000Z</time>
      </trkpt>
      <trkpt lat="46.23086" lon="14.64392">
        <ele>398.945359</ele>
        <time>2026-07-11T11:14:20.000Z</time>
      </trkpt>
      <trkpt lat="46.23087" lon="14.64381">
        <ele>398.862561</ele>
        <time>2026-07-11T11:14:21.000Z</time>
      </trkpt>
      <trkpt lat="46.23092" lon="14.6436">
        <ele>398.68801</ele>
        <time>2026-07-11T11:14:23.000Z</time>
      </trkpt>
      <trkpt lat="46.23103" lon="14.6433">
        <ele>397.870403</ele>
        <time>2026-07-11T11:14:26.000Z</time>
      </trkpt>
      <trkpt lat="46.23105" lon="14.64309">
        <ele>397.305532</ele>
        <time>2026-07-11T11:14:28.000Z</time>
      </trkpt>
      <trkpt lat="46.23101" lon="14.64288">
        <ele>396.719647</ele>
        <time>2026-07-11T11:14:30.000Z</time>
      </trkpt>
      <trkpt lat="46.23096" lon="14.64279">
        <ele>396.414641</ele>
        <time>2026-07-11T11:14:31.000Z</time>
      </trkpt>
      <trkpt lat="46.23091" lon="14.64271">
        <ele>396.128745</ele>
        <time>2026-07-11T11:14:32.000Z</time>
      </trkpt>
      <trkpt lat="46.23073" lon="14.6425">
        <ele>395.25353</ele>
        <time>2026-07-11T11:14:35.000Z</time>
      </trkpt>
      <trkpt lat="46.23063" lon="14.64235">
        <ele>394.68058</ele>
        <time>2026-07-11T11:14:37.000Z</time>
      </trkpt>
      <trkpt lat="46.23049" lon="14.64208">
        <ele>393.807791</ele>
        <time>2026-07-11T11:14:40.000Z</time>
      </trkpt>
      <trkpt lat="46.23045" lon="14.64199">
        <ele>393.503508</ele>
        <time>2026-07-11T11:14:41.000Z</time>
      </trkpt>
      <trkpt lat="46.23036" lon="14.64167">
        <ele>392.592058</ele>
        <time>2026-07-11T11:14:44.000Z</time>
      </trkpt>
      <trkpt lat="46.23033" lon="14.64156">
        <ele>392.28696</ele>
        <time>2026-07-11T11:14:45.000Z</time>
      </trkpt>
      <trkpt lat="46.23018" lon="14.6408">
        <ele>391.968606</ele>
        <time>2026-07-11T11:14:52.000Z</time>
      </trkpt>
      <trkpt lat="46.23016" lon="14.6407">
        <ele>392.010156</ele>
        <time>2026-07-11T11:14:53.000Z</time>
      </trkpt>
      <trkpt lat="46.23006" lon="14.64003">
        <ele>392.268066</ele>
        <time>2026-07-11T11:14:59.000Z</time>
      </trkpt>
      <trkpt lat="46.23008" lon="14.63982">
        <ele>392.349455</ele>
        <time>2026-07-11T11:15:01.000Z</time>
      </trkpt>
      <trkpt lat="46.23013" lon="14.63962">
        <ele>392.428348</ele>
        <time>2026-07-11T11:15:03.000Z</time>
      </trkpt>
      <trkpt lat="46.23029" lon="14.63919">
        <ele>392.616675</ele>
        <time>2026-07-11T11:15:08.000Z</time>
      </trkpt>
      <trkpt lat="46.23055" lon="14.63866">
        <ele>393.302828</ele>
        <time>2026-07-11T11:15:15.000Z</time>
      </trkpt>
      <trkpt lat="46.23058" lon="14.63859">
        <ele>393.451174</ele>
        <time>2026-07-11T11:15:16.000Z</time>
      </trkpt>
      <trkpt lat="46.23061" lon="14.63851">
        <ele>393.601701</ele>
        <time>2026-07-11T11:15:17.000Z</time>
      </trkpt>
      <trkpt lat="46.23068" lon="14.63827">
        <ele>394.048838</ele>
        <time>2026-07-11T11:15:20.000Z</time>
      </trkpt>
      <trkpt lat="46.2307" lon="14.63818">
        <ele>394.208792</ele>
        <time>2026-07-11T11:15:21.000Z</time>
      </trkpt>
      <trkpt lat="46.23072" lon="14.63801">
        <ele>394.508543</ele>
        <time>2026-07-11T11:15:23.000Z</time>
      </trkpt>
      <trkpt lat="46.23071" lon="14.63783">
        <ele>394.811478</ele>
        <time>2026-07-11T11:15:25.000Z</time>
      </trkpt>
      <trkpt lat="46.2307" lon="14.63774">
        <ele>394.963071</ele>
        <time>2026-07-11T11:15:26.000Z</time>
      </trkpt>
      <trkpt lat="46.23056" lon="14.63707">
        <ele>396.164532</ele>
        <time>2026-07-11T11:15:34.000Z</time>
      </trkpt>
      <trkpt lat="46.23032" lon="14.63644">
        <ele>397.149884</ele>
        <time>2026-07-11T11:15:42.000Z</time>
      </trkpt>
      <trkpt lat="46.23024" lon="14.63621">
        <ele>397.144387</ele>
        <time>2026-07-11T11:15:45.000Z</time>
      </trkpt>
      <trkpt lat="46.2302" lon="14.63606">
        <ele>397.141046</ele>
        <time>2026-07-11T11:15:47.000Z</time>
      </trkpt>
      <trkpt lat="46.23016" lon="14.6359">
        <ele>397.137484</ele>
        <time>2026-07-11T11:15:49.000Z</time>
      </trkpt>
      <trkpt lat="46.23013" lon="14.63572">
        <ele>397.133571</ele>
        <time>2026-07-11T11:15:51.000Z</time>
      </trkpt>
      <trkpt lat="46.23" lon="14.63507">
        <ele>397.119323</ele>
        <time>2026-07-11T11:15:59.000Z</time>
      </trkpt>
      <trkpt lat="46.22989" lon="14.63435">
        <ele>397.103897</ele>
        <time>2026-07-11T11:16:08.000Z</time>
      </trkpt>
      <trkpt lat="46.22981" lon="14.63391">
        <ele>396.983041</ele>
        <time>2026-07-11T11:16:14.000Z</time>
      </trkpt>
      <trkpt lat="46.22967" lon="14.63343">
        <ele>396.644889</ele>
        <time>2026-07-11T11:16:20.000Z</time>
      </trkpt>
      <trkpt lat="46.22955" lon="14.63306">
        <ele>396.377903</ele>
        <time>2026-07-11T11:16:25.000Z</time>
      </trkpt>
      <trkpt lat="46.22952" lon="14.63297">
        <ele>396.312142</ele>
        <time>2026-07-11T11:16:26.000Z</time>
      </trkpt>
      <trkpt lat="46.22926" lon="14.6322">
        <ele>395.758948</ele>
        <time>2026-07-11T11:16:36.000Z</time>
      </trkpt>
      <trkpt lat="46.22911" lon="14.6317">
        <ele>395.397249</ele>
        <time>2026-07-11T11:16:43.000Z</time>
      </trkpt>
      <trkpt lat="46.22906" lon="14.63152">
        <ele>395.271176</ele>
        <time>2026-07-11T11:16:45.000Z</time>
      </trkpt>
      <trkpt lat="46.22891" lon="14.63101">
        <ele>394.896858</ele>
        <time>2026-07-11T11:16:52.000Z</time>
      </trkpt>
      <trkpt lat="46.22889" lon="14.63094">
        <ele>394.842492</ele>
        <time>2026-07-11T11:16:53.000Z</time>
      </trkpt>
      <trkpt lat="46.22874" lon="14.6304">
        <ele>394.448652</ele>
        <time>2026-07-11T11:17:00.000Z</time>
      </trkpt>
      <trkpt lat="46.22869" lon="14.63025">
        <ele>394.33507</ele>
        <time>2026-07-11T11:17:02.000Z</time>
      </trkpt>
      <trkpt lat="46.22858" lon="14.62966">
        <ele>393.925169</ele>
        <time>2026-07-11T11:17:09.000Z</time>
      </trkpt>
      <trkpt lat="46.22856" lon="14.62906">
        <ele>393.58199</ele>
        <time>2026-07-11T11:17:16.000Z</time>
      </trkpt>
      <trkpt lat="46.22862" lon="14.62825">
        <ele>393.301654</ele>
        <time>2026-07-11T11:17:25.000Z</time>
      </trkpt>
      <trkpt lat="46.22863" lon="14.62816">
        <ele>393.271885</ele>
        <time>2026-07-11T11:17:26.000Z</time>
      </trkpt>
      <trkpt lat="46.22874" lon="14.62761">
        <ele>393.075845</ele>
        <time>2026-07-11T11:17:33.000Z</time>
      </trkpt>
      <trkpt lat="46.2288" lon="14.62742">
        <ele>393.002568</ele>
        <time>2026-07-11T11:17:36.000Z</time>
      </trkpt>
      <trkpt lat="46.22884" lon="14.62732">
        <ele>392.963998</ele>
        <time>2026-07-11T11:17:38.000Z</time>
      </trkpt>
      <trkpt lat="46.22888" lon="14.62719">
        <ele>392.913024</ele>
        <time>2026-07-11T11:17:42.000Z</time>
      </trkpt>
      <trkpt lat="46.22888" lon="14.62718">
        <ele>392.907561</ele>
        <time>2026-07-11T11:17:45.000Z</time>
      </trkpt>
      <trkpt lat="46.22888" lon="14.62712">
        <ele>392.889053</ele>
        <time>2026-07-11T11:18:18.000Z</time>
      </trkpt>
      <trkpt lat="46.22888" lon="14.6271">
        <ele>392.880706</ele>
        <time>2026-07-11T11:18:19.000Z</time>
      </trkpt>
      <trkpt lat="46.22887" lon="14.62704">
        <ele>392.859693</ele>
        <time>2026-07-11T11:18:21.000Z</time>
      </trkpt>
      <trkpt lat="46.22886" lon="14.62686">
        <ele>392.79979</ele>
        <time>2026-07-11T11:18:25.000Z</time>
      </trkpt>
      <trkpt lat="46.22886" lon="14.6268">
        <ele>392.779884</ele>
        <time>2026-07-11T11:18:26.000Z</time>
      </trkpt>
      <trkpt lat="46.22885" lon="14.62662">
        <ele>392.787692</ele>
        <time>2026-07-11T11:18:29.000Z</time>
      </trkpt>
      <trkpt lat="46.22882" lon="14.62636">
        <ele>392.858534</ele>
        <time>2026-07-11T11:18:33.000Z</time>
      </trkpt>
      <trkpt lat="46.22877" lon="14.62587">
        <ele>392.989946</ele>
        <time>2026-07-11T11:18:40.000Z</time>
      </trkpt>
      <trkpt lat="46.22875" lon="14.62574">
        <ele>393.025596</ele>
        <time>2026-07-11T11:18:42.000Z</time>
      </trkpt>
      <trkpt lat="46.22868" lon="14.62509">
        <ele>393.201949</ele>
        <time>2026-07-11T11:18:51.000Z</time>
      </trkpt>
      <trkpt lat="46.22867" lon="14.62487">
        <ele>393.262491</ele>
        <time>2026-07-11T11:18:54.000Z</time>
      </trkpt>
      <trkpt lat="46.22864" lon="14.62453">
        <ele>393.353281</ele>
        <time>2026-07-11T11:18:58.000Z</time>
      </trkpt>
      <trkpt lat="46.22863" lon="14.62397">
        <ele>392.977257</ele>
        <time>2026-07-11T11:19:04.000Z</time>
      </trkpt>
      <trkpt lat="46.22866" lon="14.62331">
        <ele>391.295777</ele>
        <time>2026-07-11T11:19:10.000Z</time>
      </trkpt>
      <trkpt lat="46.22864" lon="14.6227">
        <ele>389.765234</ele>
        <time>2026-07-11T11:19:15.000Z</time>
      </trkpt>
      <trkpt lat="46.22851" lon="14.62212">
        <ele>388.218634</ele>
        <time>2026-07-11T11:19:20.000Z</time>
      </trkpt>
      <trkpt lat="46.22839" lon="14.62174">
        <ele>387.168491</ele>
        <time>2026-07-11T11:19:23.000Z</time>
      </trkpt>
      <trkpt lat="46.22834" lon="14.62152">
        <ele>386.620021</ele>
        <time>2026-07-11T11:19:25.000Z</time>
      </trkpt>
      <trkpt lat="46.22815" lon="14.62093">
        <ele>385.176798</ele>
        <time>2026-07-11T11:19:30.000Z</time>
      </trkpt>
      <trkpt lat="46.22807" lon="14.62073">
        <ele>384.65214</ele>
        <time>2026-07-11T11:19:32.000Z</time>
      </trkpt>
      <trkpt lat="46.22775" lon="14.62009">
        <ele>382.893311</ele>
        <time>2026-07-11T11:19:39.000Z</time>
      </trkpt>
      <trkpt lat="46.22755" lon="14.61964">
        <ele>381.718653</ele>
        <time>2026-07-11T11:19:44.000Z</time>
      </trkpt>
      <trkpt lat="46.22743" lon="14.61939">
        <ele>381.064106</ele>
        <time>2026-07-11T11:19:47.000Z</time>
      </trkpt>
      <trkpt lat="46.22729" lon="14.61903">
        <ele>380.5128</ele>
        <time>2026-07-11T11:19:52.000Z</time>
      </trkpt>
      <trkpt lat="46.22716" lon="14.61872">
        <ele>380.03834</ele>
        <time>2026-07-11T11:19:58.000Z</time>
      </trkpt>
      <trkpt lat="46.22699" lon="14.61835">
        <ele>379.443879</ele>
        <time>2026-07-11T11:20:05.000Z</time>
      </trkpt>
      <trkpt lat="46.22683" lon="14.61797">
        <ele>378.8517</ele>
        <time>2026-07-11T11:20:11.000Z</time>
      </trkpt>
      <trkpt lat="46.22665" lon="14.61749">
        <ele>378.137253</ele>
        <time>2026-07-11T11:20:19.000Z</time>
      </trkpt>
      <trkpt lat="46.22652" lon="14.61711">
        <ele>377.754899</ele>
        <time>2026-07-11T11:20:27.000Z</time>
      </trkpt>
      <trkpt lat="46.22643" lon="14.61688">
        <ele>378.164224</ele>
        <time>2026-07-11T11:20:32.000Z</time>
      </trkpt>
      <trkpt lat="46.22639" lon="14.61675">
        <ele>378.388676</ele>
        <time>2026-07-11T11:20:34.000Z</time>
      </trkpt>
      <trkpt lat="46.22637" lon="14.61663">
        <ele>378.585777</ele>
        <time>2026-07-11T11:20:36.000Z</time>
      </trkpt>
      <trkpt lat="46.22634" lon="14.61649">
        <ele>378.812777</ele>
        <time>2026-07-11T11:20:38.000Z</time>
      </trkpt>
      <trkpt lat="46.22627" lon="14.6162">
        <ele>379.293939</ele>
        <time>2026-07-11T11:20:43.000Z</time>
      </trkpt>
      <trkpt lat="46.22625" lon="14.61609">
        <ele>379.476931</ele>
        <time>2026-07-11T11:20:45.000Z</time>
      </trkpt>
      <trkpt lat="46.22613" lon="14.61566">
        <ele>380.214405</ele>
        <time>2026-07-11T11:20:52.000Z</time>
      </trkpt>
      <trkpt lat="46.22613" lon="14.6156">
        <ele>380.308835</ele>
        <time>2026-07-11T11:20:53.000Z</time>
      </trkpt>
      <trkpt lat="46.22614" lon="14.61555">
        <ele>380.383222</ele>
        <time>2026-07-11T11:20:54.000Z</time>
      </trkpt>
      <trkpt lat="46.2262" lon="14.61548">
        <ele>380.564839</ele>
        <time>2026-07-11T11:20:56.000Z</time>
      </trkpt>
      <trkpt lat="46.22653" lon="14.61539">
        <ele>381.32464</ele>
        <time>2026-07-11T11:21:04.000Z</time>
      </trkpt>
      <trkpt lat="46.22681" lon="14.61527">
        <ele>381.722161</ele>
        <time>2026-07-11T11:21:11.000Z</time>
      </trkpt>
      <trkpt lat="46.22703" lon="14.61519">
        <ele>381.667807</ele>
        <time>2026-07-11T11:21:17.000Z</time>
      </trkpt>
      <trkpt lat="46.22706" lon="14.61517">
        <ele>381.658772</ele>
        <time>2026-07-11T11:21:18.000Z</time>
      </trkpt>
      <trkpt lat="46.22707" lon="14.6151">
        <ele>381.647299</ele>
        <time>2026-07-11T11:21:20.000Z</time>
      </trkpt>
      <trkpt lat="46.22703" lon="14.61509">
        <ele>381.636785</ele>
        <time>2026-07-11T11:21:22.000Z</time>
      </trkpt>
      <trkpt lat="46.227" lon="14.6151">
        <ele>381.630609</ele>
        <time>2026-07-11T11:21:23.000Z</time>
      </trkpt>
      <trkpt lat="46.22681" lon="14.61518">
        <ele>381.581774</ele>
        <time>2026-07-11T11:21:29.000Z</time>
      </trkpt>
      <trkpt lat="46.22661" lon="14.61527">
        <ele>381.532521</ele>
        <time>2026-07-11T11:21:35.000Z</time>
      </trkpt>
      <trkpt lat="46.22632" lon="14.61539">
        <ele>381.457873</ele>
        <time>2026-07-11T11:21:43.000Z</time>
      </trkpt>
      <trkpt lat="46.22614" lon="14.61545">
        <ele>381.413384</ele>
        <time>2026-07-11T11:21:48.000Z</time>
      </trkpt>
      <trkpt lat="46.22611" lon="14.61544">
        <ele>381.406937</ele>
        <time>2026-07-11T11:21:49.000Z</time>
      </trkpt>
      <trkpt lat="46.22609" lon="14.61542">
        <ele>381.400147</ele>
        <time>2026-07-11T11:21:50.000Z</time>
      </trkpt>
      <trkpt lat="46.22601" lon="14.61531">
        <ele>381.374064</ele>
        <time>2026-07-11T11:21:53.000Z</time>
      </trkpt>
      <trkpt lat="46.22584" lon="14.61503">
        <ele>381.305734</ele>
        <time>2026-07-11T11:22:00.000Z</time>
      </trkpt>
      <trkpt lat="46.22575" lon="14.61491">
        <ele>381.201134</ele>
        <time>2026-07-11T11:22:04.000Z</time>
      </trkpt>
      <trkpt lat="46.22573" lon="14.61489">
        <ele>381.181603</ele>
        <time>2026-07-11T11:22:05.000Z</time>
      </trkpt>
      <trkpt lat="46.22569" lon="14.61468">
        <ele>381.04844</ele>
        <time>2026-07-11T11:22:11.000Z</time>
      </trkpt>
      <trkpt lat="46.22573" lon="14.61443">
        <ele>380.897413</ele>
        <time>2026-07-11T11:22:16.000Z</time>
      </trkpt>
      <trkpt lat="46.22577" lon="14.61427">
        <ele>380.793248</ele>
        <time>2026-07-11T11:22:21.000Z</time>
      </trkpt>
      <trkpt lat="46.22581" lon="14.61402">
        <ele>380.637843</ele>
        <time>2026-07-11T11:22:28.000Z</time>
      </trkpt>
      <trkpt lat="46.22583" lon="14.61381">
        <ele>380.507667</ele>
        <time>2026-07-11T11:22:34.000Z</time>
      </trkpt>
      <trkpt lat="46.22589" lon="14.61356">
        <ele>380.351581</ele>
        <time>2026-07-11T11:22:42.000Z</time>
      </trkpt>
      <trkpt lat="46.22589" lon="14.61353">
        <ele>380.332081</ele>
        <time>2026-07-11T11:22:43.000Z</time>
      </trkpt>
      <trkpt lat="46.22589" lon="14.61336">
        <ele>380.231144</ele>
        <time>2026-07-11T11:22:47.000Z</time>
      </trkpt>
      <trkpt lat="46.22589" lon="14.61304">
        <ele>380.033682</ele>
        <time>2026-07-11T11:22:54.000Z</time>
      </trkpt>
      <trkpt lat="46.22588" lon="14.61275">
        <ele>379.859149</ele>
        <time>2026-07-11T11:23:00.000Z</time>
      </trkpt>
      <trkpt lat="46.22587" lon="14.61252">
        <ele>379.865215</ele>
        <time>2026-07-11T11:23:05.000Z</time>
      </trkpt>
      <trkpt lat="46.22587" lon="14.61247">
        <ele>380.090738</ele>
        <time>2026-07-11T11:23:06.000Z</time>
      </trkpt>
      <trkpt lat="46.22585" lon="14.61217">
        <ele>381.270163</ele>
        <time>2026-07-11T11:23:13.000Z</time>
      </trkpt>
      <trkpt lat="46.22586" lon="14.61197">
        <ele>382.079418</ele>
        <time>2026-07-11T11:23:19.000Z</time>
      </trkpt>
      <trkpt lat="46.22586" lon="14.6119">
        <ele>382.38874</ele>
        <time>2026-07-11T11:23:22.000Z</time>
      </trkpt>
      <trkpt lat="46.22586" lon="14.61184">
        <ele>382.609368</ele>
        <time>2026-07-11T11:23:25.000Z</time>
      </trkpt>
      <trkpt lat="46.22586" lon="14.61183">
        <ele>382.651068</ele>
        <time>2026-07-11T11:23:26.000Z</time>
      </trkpt>
      <trkpt lat="46.22577" lon="14.61181">
        <ele>383.159012</ele>
        <time>2026-07-11T11:23:33.000Z</time>
      </trkpt>
      <trkpt lat="46.22573" lon="14.61179">
        <ele>383.441787</ele>
        <time>2026-07-11T11:23:35.000Z</time>
      </trkpt>
      <trkpt lat="46.22568" lon="14.61179">
        <ele>383.690903</ele>
        <time>2026-07-11T11:23:37.000Z</time>
      </trkpt>
      <trkpt lat="46.22566" lon="14.61183">
        <ele>383.866649</ele>
        <time>2026-07-11T11:23:39.000Z</time>
      </trkpt>
      <trkpt lat="46.22566" lon="14.61183">
        <ele>383.895282</ele>
        <time>2026-07-11T11:23:42.000Z</time>
      </trkpt>
      <trkpt lat="46.22569" lon="14.61178">
        <ele>384.155569</ele>
        <time>2026-07-11T11:25:13.000Z</time>
      </trkpt>
      <trkpt lat="46.22565" lon="14.61169">
        <ele>384.566351</ele>
        <time>2026-07-11T11:25:19.000Z</time>
      </trkpt>
      <trkpt lat="46.22565" lon="14.61166">
        <ele>384.686668</ele>
        <time>2026-07-11T11:25:21.000Z</time>
      </trkpt>
      <trkpt lat="46.22565" lon="14.61165">
        <ele>384.737781</ele>
        <time>2026-07-11T11:25:22.000Z</time>
      </trkpt>
      <trkpt lat="46.2256" lon="14.6116">
        <ele>385.066447</ele>
        <time>2026-07-11T11:25:30.000Z</time>
      </trkpt>
      <trkpt lat="46.22555" lon="14.61157">
        <ele>385.405924</ele>
        <time>2026-07-11T11:25:32.000Z</time>
      </trkpt>
      <trkpt lat="46.22539" lon="14.61154">
        <ele>386.336038</ele>
        <time>2026-07-11T11:25:37.000Z</time>
      </trkpt>
      <trkpt lat="46.22533" lon="14.61152">
        <ele>386.693677</ele>
        <time>2026-07-11T11:25:39.000Z</time>
      </trkpt>
      <trkpt lat="46.22513" lon="14.61147">
        <ele>387.873282</ele>
        <time>2026-07-11T11:25:46.000Z</time>
      </trkpt>
      <trkpt lat="46.22505" lon="14.61145">
        <ele>388.30427</ele>
        <time>2026-07-11T11:25:49.000Z</time>
      </trkpt>
      <trkpt lat="46.22497" lon="14.61132">
        <ele>388.997882</ele>
        <time>2026-07-11T11:25:54.000Z</time>
      </trkpt>
      <trkpt lat="46.22494" lon="14.61128">
        <ele>389.218905</ele>
        <time>2026-07-11T11:25:57.000Z</time>
      </trkpt>
      <trkpt lat="46.22494" lon="14.61128">
        <ele>389.24241</ele>
        <time>2026-07-11T11:25:59.000Z</time>
      </trkpt>
      <trkpt lat="46.22491" lon="14.61124">
        <ele>389.48012</ele>
        <time>2026-07-11T11:26:29.000Z</time>
      </trkpt>
      <trkpt lat="46.22487" lon="14.61109">
        <ele>390.129109</ele>
        <time>2026-07-11T11:26:34.000Z</time>
      </trkpt>
      <trkpt lat="46.22475" lon="14.61091">
        <ele>389.849788</ele>
        <time>2026-07-11T11:26:40.000Z</time>
      </trkpt>
      <trkpt lat="46.22459" lon="14.61069">
        <ele>389.429071</ele>
        <time>2026-07-11T11:26:47.000Z</time>
      </trkpt>
      <trkpt lat="46.22452" lon="14.61057">
        <ele>389.221489</ele>
        <time>2026-07-11T11:26:51.000Z</time>
      </trkpt>
      <trkpt lat="46.22448" lon="14.61051">
        <ele>389.112626</ele>
        <time>2026-07-11T11:26:54.000Z</time>
      </trkpt>
      <trkpt lat="46.22444" lon="14.61044">
        <ele>389.00155</ele>
        <time>2026-07-11T11:26:58.000Z</time>
      </trkpt>
      <trkpt lat="46.22444" lon="14.61044">
        <ele>388.991336</ele>
        <time>2026-07-11T11:26:59.000Z</time>
      </trkpt>
      <trkpt lat="46.22444" lon="14.61044">
        <ele>388.991336</ele>
        <time>2026-07-11T11:27:00.000Z</time>
      </trkpt>
      <trkpt lat="46.22442" lon="14.61049">
        <ele>388.912261</ele>
        <time>2026-07-11T11:28:34.000Z</time>
      </trkpt>
      <trkpt lat="46.22441" lon="14.61047">
        <ele>388.877722</ele>
        <time>2026-07-11T11:28:35.000Z</time>
      </trkpt>
      <trkpt lat="46.22441" lon="14.61043">
        <ele>388.826847</ele>
        <time>2026-07-11T11:28:37.000Z</time>
      </trkpt>
      <trkpt lat="46.22441" lon="14.61042">
        <ele>388.818154</ele>
        <time>2026-07-11T11:28:39.000Z</time>
      </trkpt>
      <trkpt lat="46.22438" lon="14.61039">
        <ele>388.744736</ele>
        <time>2026-07-11T11:29:26.000Z</time>
      </trkpt>
      <trkpt lat="46.22435" lon="14.61033">
        <ele>388.641595</ele>
        <time>2026-07-11T11:29:28.000Z</time>
      </trkpt>
      <trkpt lat="46.22421" lon="14.61007">
        <ele>388.219459</ele>
        <time>2026-07-11T11:29:34.000Z</time>
      </trkpt>
      <trkpt lat="46.22419" lon="14.61002">
        <ele>388.136806</ele>
        <time>2026-07-11T11:29:35.000Z</time>
      </trkpt>
      <trkpt lat="46.22416" lon="14.60997">
        <ele>388.054856</ele>
        <time>2026-07-11T11:29:36.000Z</time>
      </trkpt>
      <trkpt lat="46.22402" lon="14.60971">
        <ele>387.632719</ele>
        <time>2026-07-11T11:29:41.000Z</time>
      </trkpt>
      <trkpt lat="46.2239" lon="14.6094">
        <ele>387.160219</ele>
        <time>2026-07-11T11:29:47.000Z</time>
      </trkpt>
      <trkpt lat="46.22386" lon="14.60931">
        <ele>387.020593</ele>
        <time>2026-07-11T11:29:49.000Z</time>
      </trkpt>
      <trkpt lat="46.22365" lon="14.60886">
        <ele>385.792268</ele>
        <time>2026-07-11T11:29:58.000Z</time>
      </trkpt>
      <trkpt lat="46.22362" lon="14.60882">
        <ele>385.643579</ele>
        <time>2026-07-11T11:29:59.000Z</time>
      </trkpt>
      <trkpt lat="46.22351" lon="14.60863">
        <ele>384.919301</ele>
        <time>2026-07-11T11:30:04.000Z</time>
      </trkpt>
      <trkpt lat="46.22346" lon="14.60855">
        <ele>384.636958</ele>
        <time>2026-07-11T11:30:06.000Z</time>
      </trkpt>
      <trkpt lat="46.22329" lon="14.60837">
        <ele>383.75078</ele>
        <time>2026-07-11T11:30:12.000Z</time>
      </trkpt>
      <trkpt lat="46.22309" lon="14.60821">
        <ele>382.823958</ele>
        <time>2026-07-11T11:30:19.000Z</time>
      </trkpt>
      <trkpt lat="46.22302" lon="14.60816">
        <ele>382.521258</ele>
        <time>2026-07-11T11:30:23.000Z</time>
      </trkpt>
      <trkpt lat="46.2229" lon="14.60808">
        <ele>381.994227</ele>
        <time>2026-07-11T11:30:27.000Z</time>
      </trkpt>
      <trkpt lat="46.22261" lon="14.60784">
        <ele>380.635106</ele>
        <time>2026-07-11T11:30:34.000Z</time>
      </trkpt>
      <trkpt lat="46.22245" lon="14.6077">
        <ele>379.848771</ele>
        <time>2026-07-11T11:30:38.000Z</time>
      </trkpt>
      <trkpt lat="46.22237" lon="14.6076">
        <ele>379.433549</ele>
        <time>2026-07-11T11:30:40.000Z</time>
      </trkpt>
      <trkpt lat="46.22225" lon="14.60738">
        <ele>379.807255</ele>
        <time>2026-07-11T11:30:45.000Z</time>
      </trkpt>
      <trkpt lat="46.22223" lon="14.60733">
        <ele>379.886476</ele>
        <time>2026-07-11T11:30:49.000Z</time>
      </trkpt>
      <trkpt lat="46.22222" lon="14.60728">
        <ele>379.959123</ele>
        <time>2026-07-11T11:30:54.000Z</time>
      </trkpt>
      <trkpt lat="46.22223" lon="14.60726">
        <ele>379.990278</ele>
        <time>2026-07-11T11:30:55.000Z</time>
      </trkpt>
      <trkpt lat="46.22224" lon="14.60724">
        <ele>380.028203</ele>
        <time>2026-07-11T11:30:56.000Z</time>
      </trkpt>
      <trkpt lat="46.22228" lon="14.60719">
        <ele>380.129334</ele>
        <time>2026-07-11T11:30:59.000Z</time>
      </trkpt>
      <trkpt lat="46.22227" lon="14.60717">
        <ele>380.150409</ele>
        <time>2026-07-11T11:31:00.000Z</time>
      </trkpt>
      <trkpt lat="46.22224" lon="14.60721">
        <ele>380.233503</ele>
        <time>2026-07-11T11:31:03.000Z</time>
      </trkpt>
      <trkpt lat="46.22222" lon="14.6072">
        <ele>380.268693</ele>
        <time>2026-07-11T11:31:04.000Z</time>
      </trkpt>
      <trkpt lat="46.2222" lon="14.6072">
        <ele>380.310419</ele>
        <time>2026-07-11T11:31:07.000Z</time>
      </trkpt>
      <trkpt lat="46.22224" lon="14.6073">
        <ele>380.47597</ele>
        <time>2026-07-11T11:31:15.000Z</time>
      </trkpt>
      <trkpt lat="46.22232" lon="14.60753">
        <ele>380.81657</ele>
        <time>2026-07-11T11:31:20.000Z</time>
      </trkpt>
      <trkpt lat="46.22238" lon="14.60761">
        <ele>380.978025</ele>
        <time>2026-07-11T11:31:22.000Z</time>
      </trkpt>
      <trkpt lat="46.22249" lon="14.60772">
        <ele>381.22853</ele>
        <time>2026-07-11T11:31:25.000Z</time>
      </trkpt>
      <trkpt lat="46.22254" lon="14.60779">
        <ele>381.381684</ele>
        <time>2026-07-11T11:31:27.000Z</time>
      </trkpt>
      <trkpt lat="46.22271" lon="14.60793">
        <ele>381.759125</ele>
        <time>2026-07-11T11:31:32.000Z</time>
      </trkpt>
      <trkpt lat="46.22287" lon="14.60807">
        <ele>382.113744</ele>
        <time>2026-07-11T11:31:37.000Z</time>
      </trkpt>
      <trkpt lat="46.22304" lon="14.60823">
        <ele>382.512637</ele>
        <time>2026-07-11T11:31:43.000Z</time>
      </trkpt>
      <trkpt lat="46.2231" lon="14.60827">
        <ele>382.644608</ele>
        <time>2026-07-11T11:31:45.000Z</time>
      </trkpt>
      <trkpt lat="46.22323" lon="14.60838">
        <ele>382.937207</ele>
        <time>2026-07-11T11:31:49.000Z</time>
      </trkpt>
      <trkpt lat="46.22332" lon="14.60848">
        <ele>383.203804</ele>
        <time>2026-07-11T11:31:52.000Z</time>
      </trkpt>
      <trkpt lat="46.22347" lon="14.60866">
        <ele>383.67445</ele>
        <time>2026-07-11T11:31:57.000Z</time>
      </trkpt>
      <trkpt lat="46.22361" lon="14.60888">
        <ele>384.162065</ele>
        <time>2026-07-11T11:32:02.000Z</time>
      </trkpt>
      <trkpt lat="46.22374" lon="14.60913">
        <ele>384.655945</ele>
        <time>2026-07-11T11:32:07.000Z</time>
      </trkpt>
      <trkpt lat="46.22381" lon="14.60929">
        <ele>384.978325</ele>
        <time>2026-07-11T11:32:10.000Z</time>
      </trkpt>
      <trkpt lat="46.22397" lon="14.60962">
        <ele>385.624946</ele>
        <time>2026-07-11T11:32:16.000Z</time>
      </trkpt>
      <trkpt lat="46.22418" lon="14.61004">
        <ele>386.474255</ele>
        <time>2026-07-11T11:32:24.000Z</time>
      </trkpt>
      <trkpt lat="46.22423" lon="14.61014">
        <ele>386.663531</ele>
        <time>2026-07-11T11:32:26.000Z</time>
      </trkpt>
      <trkpt lat="46.22432" lon="14.6103">
        <ele>387.020755</ele>
        <time>2026-07-11T11:32:30.000Z</time>
      </trkpt>
      <trkpt lat="46.22442" lon="14.61045">
        <ele>387.201738</ele>
        <time>2026-07-11T11:32:35.000Z</time>
      </trkpt>
      <trkpt lat="46.2244" lon="14.6105">
        <ele>387.217863</ele>
        <time>2026-07-11T11:32:38.000Z</time>
      </trkpt>
      <trkpt lat="46.22435" lon="14.61052">
        <ele>387.233538</ele>
        <time>2026-07-11T11:32:40.000Z</time>
      </trkpt>
      <trkpt lat="46.2243" lon="14.61058">
        <ele>387.257646</ele>
        <time>2026-07-11T11:32:42.000Z</time>
      </trkpt>
      <trkpt lat="46.2242" lon="14.61073">
        <ele>387.3094</ele>
        <time>2026-07-11T11:32:46.000Z</time>
      </trkpt>
      <trkpt lat="46.22418" lon="14.61077">
        <ele>387.322033</ele>
        <time>2026-07-11T11:32:50.000Z</time>
      </trkpt>
      <trkpt lat="46.22404" lon="14.6109">
        <ele>387.383037</ele>
        <time>2026-07-11T13:23:32.000Z</time>
      </trkpt>
      <trkpt lat="46.22403" lon="14.61087">
        <ele>387.391507</ele>
        <time>2026-07-11T13:23:33.000Z</time>
      </trkpt>
      <trkpt lat="46.22402" lon="14.61084">
        <ele>387.400372</ele>
        <time>2026-07-11T13:23:34.000Z</time>
      </trkpt>
      <trkpt lat="46.22392" lon="14.61072">
        <ele>387.449206</ele>
        <time>2026-07-11T13:23:39.000Z</time>
      </trkpt>
      <trkpt lat="46.22387" lon="14.61064">
        <ele>387.474523</ele>
        <time>2026-07-11T13:23:41.000Z</time>
      </trkpt>
      <trkpt lat="46.22386" lon="14.61061">
        <ele>387.484118</ele>
        <time>2026-07-11T13:23:42.000Z</time>
      </trkpt>
      <trkpt lat="46.22378" lon="14.6105">
        <ele>387.524037</ele>
        <time>2026-07-11T13:23:46.000Z</time>
      </trkpt>
      <trkpt lat="46.22373" lon="14.61039">
        <ele>387.556014</ele>
        <time>2026-07-11T13:23:49.000Z</time>
      </trkpt>
      <trkpt lat="46.22356" lon="14.61014">
        <ele>387.64435</ele>
        <time>2026-07-11T13:23:57.000Z</time>
      </trkpt>
      <trkpt lat="46.2235" lon="14.61005">
        <ele>387.674889</ele>
        <time>2026-07-11T13:24:00.000Z</time>
      </trkpt>
      <trkpt lat="46.22343" lon="14.61">
        <ele>387.703245</ele>
        <time>2026-07-11T13:24:02.000Z</time>
      </trkpt>
      <trkpt lat="46.22333" lon="14.60991">
        <ele>387.746411</ele>
        <time>2026-07-11T13:24:05.000Z</time>
      </trkpt>
      <trkpt lat="46.22323" lon="14.60989">
        <ele>387.782824</ele>
        <time>2026-07-11T13:24:07.000Z</time>
      </trkpt>
      <trkpt lat="46.22306" lon="14.60981">
        <ele>387.686712</ele>
        <time>2026-07-11T13:24:11.000Z</time>
      </trkpt>
      <trkpt lat="46.22299" lon="14.60975">
        <ele>387.51696</ele>
        <time>2026-07-11T13:24:13.000Z</time>
      </trkpt>
      <trkpt lat="46.22289" lon="14.60952">
        <ele>387.097871</ele>
        <time>2026-07-11T13:24:19.000Z</time>
      </trkpt>
      <trkpt lat="46.22279" lon="14.60931">
        <ele>386.708963</ele>
        <time>2026-07-11T13:24:25.000Z</time>
      </trkpt>
      <trkpt lat="46.22272" lon="14.60911">
        <ele>386.357381</ele>
        <time>2026-07-11T13:24:30.000Z</time>
      </trkpt>
      <trkpt lat="46.22273" lon="14.60906">
        <ele>386.29251</ele>
        <time>2026-07-11T13:24:31.000Z</time>
      </trkpt>
      <trkpt lat="46.22278" lon="14.60891">
        <ele>386.025561</ele>
        <time>2026-07-11T13:24:35.000Z</time>
      </trkpt>
      <trkpt lat="46.22284" lon="14.60881">
        <ele>385.823742</ele>
        <time>2026-07-11T13:24:38.000Z</time>
      </trkpt>
      <trkpt lat="46.22298" lon="14.60847">
        <ele>385.222272</ele>
        <time>2026-07-11T13:24:47.000Z</time>
      </trkpt>
      <trkpt lat="46.22306" lon="14.60833">
        <ele>384.943253</ele>
        <time>2026-07-11T13:24:52.000Z</time>
      </trkpt>
      <trkpt lat="46.22307" lon="14.60826">
        <ele>384.842598</ele>
        <time>2026-07-11T13:24:54.000Z</time>
      </trkpt>
      <trkpt lat="46.22305" lon="14.60817">
        <ele>384.684253</ele>
        <time>2026-07-11T13:24:57.000Z</time>
      </trkpt>
      <trkpt lat="46.22302" lon="14.60815">
        <ele>384.620303</ele>
        <time>2026-07-11T13:24:58.000Z</time>
      </trkpt>
      <trkpt lat="46.22286" lon="14.60805">
        <ele>384.235382</ele>
        <time>2026-07-11T13:25:03.000Z</time>
      </trkpt>
      <trkpt lat="46.22273" lon="14.6079">
        <ele>383.863332</ele>
        <time>2026-07-11T13:25:08.000Z</time>
      </trkpt>
      <trkpt lat="46.2227" lon="14.60786">
        <ele>383.860858</ele>
        <time>2026-07-11T13:25:09.000Z</time>
      </trkpt>
      <trkpt lat="46.2225" lon="14.60771">
        <ele>383.971127</ele>
        <time>2026-07-11T13:25:14.000Z</time>
      </trkpt>
      <trkpt lat="46.22242" lon="14.60766">
        <ele>384.015568</ele>
        <time>2026-07-11T13:25:16.000Z</time>
      </trkpt>
      <trkpt lat="46.22239" lon="14.60762">
        <ele>384.034908</ele>
        <time>2026-07-11T13:25:17.000Z</time>
      </trkpt>
      <trkpt lat="46.22237" lon="14.60758">
        <ele>384.051133</ele>
        <time>2026-07-11T13:25:18.000Z</time>
      </trkpt>
      <trkpt lat="46.22232" lon="14.60749">
        <ele>384.090057</ele>
        <time>2026-07-11T13:25:20.000Z</time>
      </trkpt>
      <trkpt lat="46.22227" lon="14.6074">
        <ele>384.130675</ele>
        <time>2026-07-11T13:25:22.000Z</time>
      </trkpt>
      <trkpt lat="46.22217" lon="14.60722">
        <ele>384.205064</ele>
        <time>2026-07-11T13:25:27.000Z</time>
      </trkpt>
      <trkpt lat="46.22208" lon="14.60702">
        <ele>384.287291</ele>
        <time>2026-07-11T13:25:32.000Z</time>
      </trkpt>
      <trkpt lat="46.22186" lon="14.60669">
        <ele>384.440734</ele>
        <time>2026-07-11T13:25:41.000Z</time>
      </trkpt>
      <trkpt lat="46.22173" lon="14.60648">
        <ele>384.538396</ele>
        <time>2026-07-11T13:25:47.000Z</time>
      </trkpt>
      <trkpt lat="46.22171" lon="14.60645">
        <ele>384.552812</ele>
        <time>2026-07-11T13:25:48.000Z</time>
      </trkpt>
      <trkpt lat="46.22159" lon="14.6063">
        <ele>384.628358</ele>
        <time>2026-07-11T13:25:53.000Z</time>
      </trkpt>
      <trkpt lat="46.22151" lon="14.60618">
        <ele>384.683563</ele>
        <time>2026-07-11T13:25:56.000Z</time>
      </trkpt>
      <trkpt lat="46.2215" lon="14.60609">
        <ele>384.714355</ele>
        <time>2026-07-11T13:25:58.000Z</time>
      </trkpt>
      <trkpt lat="46.22146" lon="14.60575">
        <ele>384.697942</ele>
        <time>2026-07-11T13:26:04.000Z</time>
      </trkpt>
      <trkpt lat="46.22133" lon="14.60537">
        <ele>384.662301</ele>
        <time>2026-07-11T13:26:11.000Z</time>
      </trkpt>
      <trkpt lat="46.22119" lon="14.605">
        <ele>384.626362</ele>
        <time>2026-07-11T13:26:17.000Z</time>
      </trkpt>
      <trkpt lat="46.22116" lon="14.60488">
        <ele>384.615166</ele>
        <time>2026-07-11T13:26:19.000Z</time>
      </trkpt>
      <trkpt lat="46.22103" lon="14.60459">
        <ele>384.585973</ele>
        <time>2026-07-11T13:26:24.000Z</time>
      </trkpt>
      <trkpt lat="46.22093" lon="14.60442">
        <ele>384.567044</ele>
        <time>2026-07-11T13:26:27.000Z</time>
      </trkpt>
      <trkpt lat="46.22087" lon="14.60432">
        <ele>384.555855</ele>
        <time>2026-07-11T13:26:29.000Z</time>
      </trkpt>
      <trkpt lat="46.2208" lon="14.60419">
        <ele>384.542147</ele>
        <time>2026-07-11T13:26:31.000Z</time>
      </trkpt>
      <trkpt lat="46.22074" lon="14.6041">
        <ele>384.531346</ele>
        <time>2026-07-11T13:26:33.000Z</time>
      </trkpt>
      <trkpt lat="46.22055" lon="14.60384">
        <ele>384.435113</ele>
        <time>2026-07-11T13:26:38.000Z</time>
      </trkpt>
      <trkpt lat="46.22051" lon="14.60377">
        <ele>384.326395</ele>
        <time>2026-07-11T13:26:39.000Z</time>
      </trkpt>
      <trkpt lat="46.22047" lon="14.60373">
        <ele>384.237754</ele>
        <time>2026-07-11T13:26:40.000Z</time>
      </trkpt>
      <trkpt lat="46.22042" lon="14.60368">
        <ele>384.145487</ele>
        <time>2026-07-11T13:26:41.000Z</time>
      </trkpt>
      <trkpt lat="46.22035" lon="14.60358">
        <ele>383.97252</ele>
        <time>2026-07-11T13:26:43.000Z</time>
      </trkpt>
      <trkpt lat="46.22028" lon="14.60348">
        <ele>383.797902</ele>
        <time>2026-07-11T13:26:45.000Z</time>
      </trkpt>
      <trkpt lat="46.22025" lon="14.60342">
        <ele>383.704215</ele>
        <time>2026-07-11T13:26:46.000Z</time>
      </trkpt>
      <trkpt lat="46.22017" lon="14.60333">
        <ele>383.521369</ele>
        <time>2026-07-11T13:26:48.000Z</time>
      </trkpt>
      <trkpt lat="46.21997" lon="14.60308">
        <ele>383.075878</ele>
        <time>2026-07-11T13:26:53.000Z</time>
      </trkpt>
      <trkpt lat="46.21983" lon="14.60288">
        <ele>382.716135</ele>
        <time>2026-07-11T13:26:57.000Z</time>
      </trkpt>
      <trkpt lat="46.21979" lon="14.60281">
        <ele>382.619464</ele>
        <time>2026-07-11T13:26:58.000Z</time>
      </trkpt>
      <trkpt lat="46.21973" lon="14.60268">
        <ele>382.423287</ele>
        <time>2026-07-11T13:27:00.000Z</time>
      </trkpt>
      <trkpt lat="46.21953" lon="14.60226">
        <ele>381.806394</ele>
        <time>2026-07-11T13:27:06.000Z</time>
      </trkpt>
      <trkpt lat="46.21937" lon="14.60199">
        <ele>381.376475</ele>
        <time>2026-07-11T13:27:10.000Z</time>
      </trkpt>
      <trkpt lat="46.21933" lon="14.60192">
        <ele>381.249097</ele>
        <time>2026-07-11T13:27:11.000Z</time>
      </trkpt>
      <trkpt lat="46.21914" lon="14.60167">
        <ele>380.751927</ele>
        <time>2026-07-11T13:27:15.000Z</time>
      </trkpt>
      <trkpt lat="46.21868" lon="14.60117">
        <ele>379.62424</ele>
        <time>2026-07-11T13:27:24.000Z</time>
      </trkpt>
      <trkpt lat="46.21831" lon="14.60084">
        <ele>378.767594</ele>
        <time>2026-07-11T13:27:31.000Z</time>
      </trkpt>
      <trkpt lat="46.21816" lon="14.60061">
        <ele>378.336135</ele>
        <time>2026-07-11T13:27:35.000Z</time>
      </trkpt>
      <trkpt lat="46.21812" lon="14.60052">
        <ele>378.198706</ele>
        <time>2026-07-11T13:27:36.000Z</time>
      </trkpt>
      <trkpt lat="46.21804" lon="14.60026">
        <ele>377.833752</ele>
        <time>2026-07-11T13:27:40.000Z</time>
      </trkpt>
      <trkpt lat="46.218" lon="14.60013">
        <ele>377.8284</ele>
        <time>2026-07-11T13:27:42.000Z</time>
      </trkpt>
      <trkpt lat="46.21797" lon="14.60007">
        <ele>377.825969</ele>
        <time>2026-07-11T13:27:43.000Z</time>
      </trkpt>
      <trkpt lat="46.21786" lon="14.59984">
        <ele>377.815573</ele>
        <time>2026-07-11T13:27:47.000Z</time>
      </trkpt>
      <trkpt lat="46.21772" lon="14.59959">
        <ele>377.804015</ele>
        <time>2026-07-11T13:27:52.000Z</time>
      </trkpt>
      <trkpt lat="46.2177" lon="14.59955">
        <ele>377.801893</ele>
        <time>2026-07-11T13:27:53.000Z</time>
      </trkpt>
      <trkpt lat="46.21745" lon="14.59916">
        <ele>377.782286</ele>
        <time>2026-07-11T13:28:01.000Z</time>
      </trkpt>
      <trkpt lat="46.21722" lon="14.59884">
        <ele>377.765388</ele>
        <time>2026-07-11T13:28:08.000Z</time>
      </trkpt>
      <trkpt lat="46.21694" lon="14.59845">
        <ele>377.744672</ele>
        <time>2026-07-11T13:28:16.000Z</time>
      </trkpt>
      <trkpt lat="46.21658" lon="14.59793">
        <ele>377.574183</ele>
        <time>2026-07-11T13:28:26.000Z</time>
      </trkpt>
      <trkpt lat="46.21639" lon="14.59764">
        <ele>377.460576</ele>
        <time>2026-07-11T13:28:31.000Z</time>
      </trkpt>
      <trkpt lat="46.21624" lon="14.5974">
        <ele>377.369731</ele>
        <time>2026-07-11T13:28:35.000Z</time>
      </trkpt>
      <trkpt lat="46.21592" lon="14.59691">
        <ele>377.177488</ele>
        <time>2026-07-11T13:28:44.000Z</time>
      </trkpt>
      <trkpt lat="46.21562" lon="14.59657">
        <ele>377.021354</ele>
        <time>2026-07-11T13:28:51.000Z</time>
      </trkpt>
      <trkpt lat="46.21555" lon="14.59649">
        <ele>376.939441</ele>
        <time>2026-07-11T13:28:53.000Z</time>
      </trkpt>
      <trkpt lat="46.2155" lon="14.59645">
        <ele>376.859598</ele>
        <time>2026-07-11T13:28:54.000Z</time>
      </trkpt>
      <trkpt lat="46.2151" lon="14.59611">
        <ele>376.156729</ele>
        <time>2026-07-11T13:29:02.000Z</time>
      </trkpt>
      <trkpt lat="46.2148" lon="14.59581">
        <ele>375.593166</ele>
        <time>2026-07-11T13:29:08.000Z</time>
      </trkpt>
      <trkpt lat="46.21469" lon="14.5957">
        <ele>375.397984</ele>
        <time>2026-07-11T13:29:10.000Z</time>
      </trkpt>
      <trkpt lat="46.21443" lon="14.59538">
        <ele>374.879084</ele>
        <time>2026-07-11T13:29:15.000Z</time>
      </trkpt>
      <trkpt lat="46.21434" lon="14.59525">
        <ele>374.686853</ele>
        <time>2026-07-11T13:29:17.000Z</time>
      </trkpt>
      <trkpt lat="46.21411" lon="14.59488">
        <ele>374.14307</ele>
        <time>2026-07-11T13:29:22.000Z</time>
      </trkpt>
      <trkpt lat="46.21394" lon="14.59462">
        <ele>373.685325</ele>
        <time>2026-07-11T13:29:26.000Z</time>
      </trkpt>
      <trkpt lat="46.2139" lon="14.59455">
        <ele>373.566597</ele>
        <time>2026-07-11T13:29:27.000Z</time>
      </trkpt>
      <trkpt lat="46.2135" lon="14.5939">
        <ele>372.471223</ele>
        <time>2026-07-11T13:29:36.000Z</time>
      </trkpt>
      <trkpt lat="46.21332" lon="14.59359">
        <ele>371.956944</ele>
        <time>2026-07-11T13:29:40.000Z</time>
      </trkpt>
      <trkpt lat="46.21298" lon="14.59297">
        <ele>370.95476</ele>
        <time>2026-07-11T13:29:48.000Z</time>
      </trkpt>
      <trkpt lat="46.21295" lon="14.5929">
        <ele>370.881493</ele>
        <time>2026-07-11T13:29:49.000Z</time>
      </trkpt>
      <trkpt lat="46.21278" lon="14.59259">
        <ele>370.535653</ele>
        <time>2026-07-11T13:29:53.000Z</time>
      </trkpt>
      <trkpt lat="46.21258" lon="14.59229">
        <ele>370.17054</ele>
        <time>2026-07-11T13:29:57.000Z</time>
      </trkpt>
      <trkpt lat="46.21218" lon="14.59173">
        <ele>369.457693</ele>
        <time>2026-07-11T13:30:05.000Z</time>
      </trkpt>
      <trkpt lat="46.21209" lon="14.59161">
        <ele>369.300701</ele>
        <time>2026-07-11T13:30:07.000Z</time>
      </trkpt>
      <trkpt lat="46.21176" lon="14.59109">
        <ele>368.674872</ele>
        <time>2026-07-11T13:30:14.000Z</time>
      </trkpt>
      <trkpt lat="46.21165" lon="14.59092">
        <ele>368.507517</ele>
        <time>2026-07-11T13:30:16.000Z</time>
      </trkpt>
      <trkpt lat="46.2113" lon="14.59027">
        <ele>367.899824</ele>
        <time>2026-07-11T13:30:24.000Z</time>
      </trkpt>
      <trkpt lat="46.21093" lon="14.58962">
        <ele>367.28</ele>
        <time>2026-07-11T13:30:32.000Z</time>
      </trkpt>
      <trkpt lat="46.21089" lon="14.58956">
        <ele>367.22137</ele>
        <time>2026-07-11T13:30:33.000Z</time>
      </trkpt>
      <trkpt lat="46.21052" lon="14.5889">
        <ele>366.847899</ele>
        <time>2026-07-11T13:30:41.000Z</time>
      </trkpt>
      <trkpt lat="46.21044" lon="14.58875">
        <ele>366.918238</ele>
        <time>2026-07-11T13:30:43.000Z</time>
      </trkpt>
      <trkpt lat="46.21026" lon="14.5884">
        <ele>367.08143</ele>
        <time>2026-07-11T13:30:47.000Z</time>
      </trkpt>
      <trkpt lat="46.21018" lon="14.58826">
        <ele>367.152433</ele>
        <time>2026-07-11T13:30:49.000Z</time>
      </trkpt>
      <trkpt lat="46.21004" lon="14.588">
        <ele>367.275294</ele>
        <time>2026-07-11T13:30:52.000Z</time>
      </trkpt>
      <trkpt lat="46.20995" lon="14.58785">
        <ele>367.346733</ele>
        <time>2026-07-11T13:30:54.000Z</time>
      </trkpt>
      <trkpt lat="46.20985" lon="14.58767">
        <ele>367.434954</ele>
        <time>2026-07-11T13:30:56.000Z</time>
      </trkpt>
      <trkpt lat="46.20952" lon="14.58712">
        <ele>367.705899</ele>
        <time>2026-07-11T13:31:03.000Z</time>
      </trkpt>
      <trkpt lat="46.20947" lon="14.58704">
        <ele>367.709462</ele>
        <time>2026-07-11T13:31:04.000Z</time>
      </trkpt>
      <trkpt lat="46.20911" lon="14.58639">
        <ele>366.869069</ele>
        <time>2026-07-11T13:31:12.000Z</time>
      </trkpt>
      <trkpt lat="46.20906" lon="14.58629">
        <ele>366.742849</ele>
        <time>2026-07-11T13:31:13.000Z</time>
      </trkpt>
      <trkpt lat="46.20869" lon="14.58561">
        <ele>365.887078</ele>
        <time>2026-07-11T13:31:21.000Z</time>
      </trkpt>
      <trkpt lat="46.20866" lon="14.58554">
        <ele>365.798726</ele>
        <time>2026-07-11T13:31:22.000Z</time>
      </trkpt>
      <trkpt lat="46.20829" lon="14.58483">
        <ele>364.901804</ele>
        <time>2026-07-11T13:31:30.000Z</time>
      </trkpt>
      <trkpt lat="46.20816" lon="14.58457">
        <ele>364.571965</ele>
        <time>2026-07-11T13:31:33.000Z</time>
      </trkpt>
      <trkpt lat="46.20781" lon="14.5839">
        <ele>363.723977</ele>
        <time>2026-07-11T13:31:41.000Z</time>
      </trkpt>
      <trkpt lat="46.20772" lon="14.58372">
        <ele>363.488986</ele>
        <time>2026-07-11T13:31:43.000Z</time>
      </trkpt>
      <trkpt lat="46.20738" lon="14.58307">
        <ele>362.656639</ele>
        <time>2026-07-11T13:31:51.000Z</time>
      </trkpt>
      <trkpt lat="46.20729" lon="14.58289">
        <ele>362.464099</ele>
        <time>2026-07-11T13:31:53.000Z</time>
      </trkpt>
      <trkpt lat="46.20696" lon="14.58225">
        <ele>362.188478</ele>
        <time>2026-07-11T13:32:01.000Z</time>
      </trkpt>
      <trkpt lat="46.20676" lon="14.58181">
        <ele>362.005989</ele>
        <time>2026-07-11T13:32:07.000Z</time>
      </trkpt>
      <trkpt lat="46.20649" lon="14.5813">
        <ele>361.785866</ele>
        <time>2026-07-11T13:32:14.000Z</time>
      </trkpt>
      <trkpt lat="46.20629" lon="14.58093">
        <ele>361.623889</ele>
        <time>2026-07-11T13:32:20.000Z</time>
      </trkpt>
      <trkpt lat="46.20617" lon="14.58074">
        <ele>361.382228</ele>
        <time>2026-07-11T13:32:24.000Z</time>
      </trkpt>
      <trkpt lat="46.20608" lon="14.58076">
        <ele>361.192287</ele>
        <time>2026-07-11T13:32:26.000Z</time>
      </trkpt>
      <trkpt lat="46.20594" lon="14.58098">
        <ele>360.734742</ele>
        <time>2026-07-11T13:32:30.000Z</time>
      </trkpt>
      <trkpt lat="46.20584" lon="14.58118">
        <ele>360.371154</ele>
        <time>2026-07-11T13:32:33.000Z</time>
      </trkpt>
      <trkpt lat="46.20573" lon="14.58138">
        <ele>359.995072</ele>
        <time>2026-07-11T13:32:36.000Z</time>
      </trkpt>
      <trkpt lat="46.2056" lon="14.58165">
        <ele>359.506744</ele>
        <time>2026-07-11T13:32:40.000Z</time>
      </trkpt>
      <trkpt lat="46.2055" lon="14.58186">
        <ele>359.130876</ele>
        <time>2026-07-11T13:32:43.000Z</time>
      </trkpt>
      <trkpt lat="46.20542" lon="14.58207">
        <ele>358.76709</ele>
        <time>2026-07-11T13:32:46.000Z</time>
      </trkpt>
      <trkpt lat="46.20526" lon="14.58245">
        <ele>358.108781</ele>
        <time>2026-07-11T13:32:52.000Z</time>
      </trkpt>
      <trkpt lat="46.20524" lon="14.58251">
        <ele>358.004091</ele>
        <time>2026-07-11T13:32:53.000Z</time>
      </trkpt>
      <trkpt lat="46.20506" lon="14.58294">
        <ele>357.462454</ele>
        <time>2026-07-11T13:33:01.000Z</time>
      </trkpt>
      <trkpt lat="46.20492" lon="14.58332">
        <ele>357.101135</ele>
        <time>2026-07-11T13:33:09.000Z</time>
      </trkpt>
      <trkpt lat="46.20481" lon="14.58357">
        <ele>356.85281</ele>
        <time>2026-07-11T13:33:15.000Z</time>
      </trkpt>
      <trkpt lat="46.20479" lon="14.58361">
        <ele>356.812446</ele>
        <time>2026-07-11T13:33:16.000Z</time>
      </trkpt>
      <trkpt lat="46.20475" lon="14.5837">
        <ele>356.729601</ele>
        <time>2026-07-11T13:33:18.000Z</time>
      </trkpt>
      <trkpt lat="46.20464" lon="14.58397">
        <ele>356.465868</ele>
        <time>2026-07-11T13:33:24.000Z</time>
      </trkpt>
      <trkpt lat="46.20445" lon="14.58441">
        <ele>356.035115</ele>
        <time>2026-07-11T13:33:33.000Z</time>
      </trkpt>
      <trkpt lat="46.20427" lon="14.58486">
        <ele>355.602317</ele>
        <time>2026-07-11T13:33:42.000Z</time>
      </trkpt>
      <trkpt lat="46.20418" lon="14.58507">
        <ele>355.533329</ele>
        <time>2026-07-11T13:33:46.000Z</time>
      </trkpt>
      <trkpt lat="46.20403" lon="14.58542">
        <ele>355.48498</ele>
        <time>2026-07-11T13:33:53.000Z</time>
      </trkpt>
      <trkpt lat="46.20388" lon="14.58585">
        <ele>355.429248</ele>
        <time>2026-07-11T13:34:01.000Z</time>
      </trkpt>
      <trkpt lat="46.20384" lon="14.58596">
        <ele>355.415116</ele>
        <time>2026-07-11T13:34:03.000Z</time>
      </trkpt>
      <trkpt lat="46.20361" lon="14.58662">
        <ele>355.330065</ele>
        <time>2026-07-11T13:34:15.000Z</time>
      </trkpt>
      <trkpt lat="46.20356" lon="14.58679">
        <ele>355.308804</ele>
        <time>2026-07-11T13:34:18.000Z</time>
      </trkpt>
      <trkpt lat="46.20341" lon="14.58725">
        <ele>355.279177</ele>
        <time>2026-07-11T13:34:26.000Z</time>
      </trkpt>
      <trkpt lat="46.20334" lon="14.58748">
        <ele>355.436961</ele>
        <time>2026-07-11T13:34:30.000Z</time>
      </trkpt>
      <trkpt lat="46.20331" lon="14.58754">
        <ele>355.476772</ele>
        <time>2026-07-11T13:34:31.000Z</time>
      </trkpt>
      <trkpt lat="46.20328" lon="14.58765">
        <ele>355.554581</ele>
        <time>2026-07-11T13:34:33.000Z</time>
      </trkpt>
      <trkpt lat="46.2032" lon="14.58788">
        <ele>355.716756</ele>
        <time>2026-07-11T13:34:37.000Z</time>
      </trkpt>
      <trkpt lat="46.20296" lon="14.58852">
        <ele>356.170091</ele>
        <time>2026-07-11T13:34:48.000Z</time>
      </trkpt>
      <trkpt lat="46.20289" lon="14.58877">
        <ele>356.336754</ele>
        <time>2026-07-11T13:34:52.000Z</time>
      </trkpt>
      <trkpt lat="46.20286" lon="14.58894">
        <ele>356.452776</ele>
        <time>2026-07-11T13:34:55.000Z</time>
      </trkpt>
      <trkpt lat="46.20282" lon="14.5891">
        <ele>356.557938</ele>
        <time>2026-07-11T13:34:58.000Z</time>
      </trkpt>
      <trkpt lat="46.20278" lon="14.5893">
        <ele>356.684052</ele>
        <time>2026-07-11T13:35:02.000Z</time>
      </trkpt>
      <trkpt lat="46.20273" lon="14.58954">
        <ele>356.841888</ele>
        <time>2026-07-11T13:35:09.000Z</time>
      </trkpt>
      <trkpt lat="46.20273" lon="14.58953">
        <ele>356.845639</ele>
        <time>2026-07-11T13:35:11.000Z</time>
      </trkpt>
      <trkpt lat="46.20269" lon="14.58959">
        <ele>356.873547</ele>
        <time>2026-07-11T13:36:47.000Z</time>
      </trkpt>
      <trkpt lat="46.20265" lon="14.58977">
        <ele>356.846505</ele>
        <time>2026-07-11T13:36:52.000Z</time>
      </trkpt>
      <trkpt lat="46.20257" lon="14.59008">
        <ele>356.798995</ele>
        <time>2026-07-11T13:36:58.000Z</time>
      </trkpt>
      <trkpt lat="46.20247" lon="14.59054">
        <ele>356.728324</ele>
        <time>2026-07-11T13:37:06.000Z</time>
      </trkpt>
      <trkpt lat="46.20242" lon="14.59071">
        <ele>356.700606</ele>
        <time>2026-07-11T13:37:09.000Z</time>
      </trkpt>
      <trkpt lat="46.20235" lon="14.59092">
        <ele>356.666124</ele>
        <time>2026-07-11T13:37:13.000Z</time>
      </trkpt>
      <trkpt lat="46.2023" lon="14.59103">
        <ele>356.64728</ele>
        <time>2026-07-11T13:37:15.000Z</time>
      </trkpt>
      <trkpt lat="46.20219" lon="14.59125">
        <ele>356.608155</ele>
        <time>2026-07-11T13:37:19.000Z</time>
      </trkpt>
      <trkpt lat="46.20211" lon="14.59132">
        <ele>356.588915</ele>
        <time>2026-07-11T13:37:21.000Z</time>
      </trkpt>
      <trkpt lat="46.20177" lon="14.59145">
        <ele>356.513986</ele>
        <time>2026-07-11T13:37:28.000Z</time>
      </trkpt>
      <trkpt lat="46.20172" lon="14.59148">
        <ele>356.502901</ele>
        <time>2026-07-11T13:37:29.000Z</time>
      </trkpt>
      <trkpt lat="46.20162" lon="14.59154">
        <ele>356.529066</ele>
        <time>2026-07-11T13:37:31.000Z</time>
      </trkpt>
      <trkpt lat="46.20138" lon="14.59168">
        <ele>356.619596</ele>
        <time>2026-07-11T13:37:36.000Z</time>
      </trkpt>
      <trkpt lat="46.2012" lon="14.59181">
        <ele>356.687298</ele>
        <time>2026-07-11T13:37:40.000Z</time>
      </trkpt>
      <trkpt lat="46.20103" lon="14.59194">
        <ele>356.752528</ele>
        <time>2026-07-11T13:37:44.000Z</time>
      </trkpt>
      <trkpt lat="46.20099" lon="14.59195">
        <ele>356.768068</ele>
        <time>2026-07-11T13:37:45.000Z</time>
      </trkpt>
      <trkpt lat="46.20094" lon="14.59194">
        <ele>356.783981</ele>
        <time>2026-07-11T13:37:46.000Z</time>
      </trkpt>
      <trkpt lat="46.20082" lon="14.59187">
        <ele>356.829695</ele>
        <time>2026-07-11T13:37:49.000Z</time>
      </trkpt>
      <trkpt lat="46.20072" lon="14.59181">
        <ele>356.864299</ele>
        <time>2026-07-11T13:37:51.000Z</time>
      </trkpt>
      <trkpt lat="46.20057" lon="14.59174">
        <ele>356.918028</ele>
        <time>2026-07-11T13:37:54.000Z</time>
      </trkpt>
      <trkpt lat="46.20048" lon="14.59169">
        <ele>356.95353</ele>
        <time>2026-07-11T13:37:56.000Z</time>
      </trkpt>
      <trkpt lat="46.20008" lon="14.59147">
        <ele>357.098366</ele>
        <time>2026-07-11T13:38:04.000Z</time>
      </trkpt>
      <trkpt lat="46.19964" lon="14.59126">
        <ele>357.336645</ele>
        <time>2026-07-11T13:38:12.000Z</time>
      </trkpt>
      <trkpt lat="46.1991" lon="14.59102">
        <ele>357.63692</ele>
        <time>2026-07-11T13:38:21.000Z</time>
      </trkpt>
      <trkpt lat="46.19868" lon="14.59082">
        <ele>357.873587</ele>
        <time>2026-07-11T13:38:28.000Z</time>
      </trkpt>
      <trkpt lat="46.19862" lon="14.59083">
        <ele>357.90515</ele>
        <time>2026-07-11T13:38:29.000Z</time>
      </trkpt>
      <trkpt lat="46.1986" lon="14.59087">
        <ele>357.924389</ele>
        <time>2026-07-11T13:38:30.000Z</time>
      </trkpt>
      <trkpt lat="46.19858" lon="14.59093">
        <ele>357.948432</ele>
        <time>2026-07-11T13:38:31.000Z</time>
      </trkpt>
      <trkpt lat="46.19853" lon="14.59111">
        <ele>358.019053</ele>
        <time>2026-07-11T13:38:34.000Z</time>
      </trkpt>
      <trkpt lat="46.1985" lon="14.59113">
        <ele>358.038216</ele>
        <time>2026-07-11T13:38:35.000Z</time>
      </trkpt>
      <trkpt lat="46.19832" lon="14.59106">
        <ele>357.924853</ele>
        <time>2026-07-11T13:38:39.000Z</time>
      </trkpt>
      <trkpt lat="46.19795" lon="14.5909">
        <ele>357.464022</ele>
        <time>2026-07-11T13:38:45.000Z</time>
      </trkpt>
      <trkpt lat="46.19748" lon="14.5907">
        <ele>356.882608</ele>
        <time>2026-07-11T13:38:53.000Z</time>
      </trkpt>
      <trkpt lat="46.19724" lon="14.59061">
        <ele>356.593479</ele>
        <time>2026-07-11T13:38:57.000Z</time>
      </trkpt>
      <trkpt lat="46.19672" lon="14.59039">
        <ele>355.94361</ele>
        <time>2026-07-11T13:39:05.000Z</time>
      </trkpt>
      <trkpt lat="46.19663" lon="14.59036">
        <ele>355.816613</ele>
        <time>2026-07-11T13:39:06.000Z</time>
      </trkpt>
      <trkpt lat="46.19607" lon="14.59012">
        <ele>354.970325</ele>
        <time>2026-07-11T13:39:14.000Z</time>
      </trkpt>
      <trkpt lat="46.19599" lon="14.59008">
        <ele>354.857258</ele>
        <time>2026-07-11T13:39:15.000Z</time>
      </trkpt>
      <trkpt lat="46.19546" lon="14.58984">
        <ele>354.052108</ele>
        <time>2026-07-11T13:39:22.000Z</time>
      </trkpt>
      <trkpt lat="46.19531" lon="14.58976">
        <ele>353.826427</ele>
        <time>2026-07-11T13:39:24.000Z</time>
      </trkpt>
      <trkpt lat="46.19479" lon="14.5895">
        <ele>352.996237</ele>
        <time>2026-07-11T13:39:31.000Z</time>
      </trkpt>
      <trkpt lat="46.19456" lon="14.58938">
        <ele>352.600479</ele>
        <time>2026-07-11T13:39:34.000Z</time>
      </trkpt>
      <trkpt lat="46.19411" lon="14.58914">
        <ele>351.834287</ele>
        <time>2026-07-11T13:39:40.000Z</time>
      </trkpt>
      <trkpt lat="46.19389" lon="14.58901">
        <ele>351.444181</ele>
        <time>2026-07-11T13:39:43.000Z</time>
      </trkpt>
      <trkpt lat="46.19345" lon="14.58869">
        <ele>350.651176</ele>
        <time>2026-07-11T13:39:49.000Z</time>
      </trkpt>
      <trkpt lat="46.1933" lon="14.58858">
        <ele>350.416881</ele>
        <time>2026-07-11T13:39:51.000Z</time>
      </trkpt>
      <trkpt lat="46.19301" lon="14.58835">
        <ele>350.151601</ele>
        <time>2026-07-11T13:39:55.000Z</time>
      </trkpt>
      <trkpt lat="46.19271" lon="14.58812">
        <ele>349.886123</ele>
        <time>2026-07-11T13:39:59.000Z</time>
      </trkpt>
      <trkpt lat="46.19243" lon="14.58789">
        <ele>349.625394</ele>
        <time>2026-07-11T13:40:03.000Z</time>
      </trkpt>
      <trkpt lat="46.19199" lon="14.58756">
        <ele>349.229516</ele>
        <time>2026-07-11T13:40:09.000Z</time>
      </trkpt>
      <trkpt lat="46.19183" lon="14.58747">
        <ele>349.097687</ele>
        <time>2026-07-11T13:40:11.000Z</time>
      </trkpt>
      <trkpt lat="46.19176" lon="14.58743">
        <ele>349.032711</ele>
        <time>2026-07-11T13:40:12.000Z</time>
      </trkpt>
      <trkpt lat="46.19152" lon="14.58734">
        <ele>348.701833</ele>
        <time>2026-07-11T13:40:15.000Z</time>
      </trkpt>
      <trkpt lat="46.1913" lon="14.58721">
        <ele>348.367534</ele>
        <time>2026-07-11T13:40:18.000Z</time>
      </trkpt>
      <trkpt lat="46.19116" lon="14.58711">
        <ele>348.148441</ele>
        <time>2026-07-11T13:40:20.000Z</time>
      </trkpt>
      <trkpt lat="46.19101" lon="14.58701">
        <ele>347.928075</ele>
        <time>2026-07-11T13:40:22.000Z</time>
      </trkpt>
      <trkpt lat="46.1908" lon="14.58687">
        <ele>347.593739</ele>
        <time>2026-07-11T13:40:25.000Z</time>
      </trkpt>
      <trkpt lat="46.19042" lon="14.58665">
        <ele>347.018917</ele>
        <time>2026-07-11T13:40:30.000Z</time>
      </trkpt>
      <trkpt lat="46.19003" lon="14.58645">
        <ele>346.447955</ele>
        <time>2026-07-11T13:40:35.000Z</time>
      </trkpt>
      <trkpt lat="46.18979" lon="14.58634">
        <ele>346.148757</ele>
        <time>2026-07-11T13:40:38.000Z</time>
      </trkpt>
      <trkpt lat="46.18969" lon="14.58629">
        <ele>346.028413</ele>
        <time>2026-07-11T13:40:39.000Z</time>
      </trkpt>
      <trkpt lat="46.18955" lon="14.58623">
        <ele>345.846664</ele>
        <time>2026-07-11T13:40:41.000Z</time>
      </trkpt>
      <trkpt lat="46.18897" lon="14.58602">
        <ele>345.134004</ele>
        <time>2026-07-11T13:40:48.000Z</time>
      </trkpt>
      <trkpt lat="46.18889" lon="14.58599">
        <ele>345.036608</ele>
        <time>2026-07-11T13:40:49.000Z</time>
      </trkpt>
      <trkpt lat="46.18834" lon="14.58578">
        <ele>344.351769</ele>
        <time>2026-07-11T13:40:56.000Z</time>
      </trkpt>
      <trkpt lat="46.18826" lon="14.58575">
        <ele>344.231441</ele>
        <time>2026-07-11T13:40:57.000Z</time>
      </trkpt>
      <trkpt lat="46.1877" lon="14.58551">
        <ele>343.319911</ele>
        <time>2026-07-11T13:41:04.000Z</time>
      </trkpt>
      <trkpt lat="46.18737" lon="14.58537">
        <ele>342.802315</ele>
        <time>2026-07-11T13:41:08.000Z</time>
      </trkpt>
      <trkpt lat="46.18682" lon="14.58512">
        <ele>341.910742</ele>
        <time>2026-07-11T13:41:15.000Z</time>
      </trkpt>
      <trkpt lat="46.18666" lon="14.58504">
        <ele>341.650057</ele>
        <time>2026-07-11T13:41:17.000Z</time>
      </trkpt>
      <trkpt lat="46.1861" lon="14.58477">
        <ele>340.801292</ele>
        <time>2026-07-11T13:41:24.000Z</time>
      </trkpt>
      <trkpt lat="46.18561" lon="14.58451">
        <ele>340.05778</ele>
        <time>2026-07-11T13:41:30.000Z</time>
      </trkpt>
      <trkpt lat="46.18511" lon="14.5842">
        <ele>339.286615</ele>
        <time>2026-07-11T13:41:36.000Z</time>
      </trkpt>
      <trkpt lat="46.18488" lon="14.58407">
        <ele>338.987196</ele>
        <time>2026-07-11T13:41:39.000Z</time>
      </trkpt>
      <trkpt lat="46.18433" lon="14.58373">
        <ele>338.713989</ele>
        <time>2026-07-11T13:41:46.000Z</time>
      </trkpt>
      <trkpt lat="46.18429" lon="14.58368">
        <ele>338.689382</ele>
        <time>2026-07-11T13:41:47.000Z</time>
      </trkpt>
      <trkpt lat="46.18427" lon="14.58362">
        <ele>338.669838</ele>
        <time>2026-07-11T13:41:48.000Z</time>
      </trkpt>
      <trkpt lat="46.18427" lon="14.58349">
        <ele>338.625968</ele>
        <time>2026-07-11T13:41:50.000Z</time>
      </trkpt>
      <trkpt lat="46.18425" lon="14.58339">
        <ele>338.595006</ele>
        <time>2026-07-11T13:41:52.000Z</time>
      </trkpt>
      <trkpt lat="46.18422" lon="14.58338">
        <ele>338.581418</ele>
        <time>2026-07-11T13:41:53.000Z</time>
      </trkpt>
      <trkpt lat="46.18415" lon="14.58349">
        <ele>338.533191</ele>
        <time>2026-07-11T13:41:56.000Z</time>
      </trkpt>
      <trkpt lat="46.18412" lon="14.58352">
        <ele>338.515747</ele>
        <time>2026-07-11T13:41:57.000Z</time>
      </trkpt>
      <trkpt lat="46.18402" lon="14.58352">
        <ele>338.471993</ele>
        <time>2026-07-11T13:41:59.000Z</time>
      </trkpt>
      <trkpt lat="46.18381" lon="14.58336">
        <ele>338.366091</ele>
        <time>2026-07-11T13:42:03.000Z</time>
      </trkpt>
      <trkpt lat="46.18338" lon="14.58304">
        <ele>338.085704</ele>
        <time>2026-07-11T13:42:10.000Z</time>
      </trkpt>
      <trkpt lat="46.18306" lon="14.58281">
        <ele>337.719596</ele>
        <time>2026-07-11T13:42:15.000Z</time>
      </trkpt>
      <trkpt lat="46.18279" lon="14.58263">
        <ele>337.420087</ele>
        <time>2026-07-11T13:42:19.000Z</time>
      </trkpt>
      <trkpt lat="46.18226" lon="14.58225">
        <ele>336.813777</ele>
        <time>2026-07-11T13:42:27.000Z</time>
      </trkpt>
      <trkpt lat="46.18212" lon="14.58216">
        <ele>336.657008</ele>
        <time>2026-07-11T13:42:29.000Z</time>
      </trkpt>
      <trkpt lat="46.18178" lon="14.58191">
        <ele>336.232484</ele>
        <time>2026-07-11T13:42:34.000Z</time>
      </trkpt>
      <trkpt lat="46.18135" lon="14.58162">
        <ele>335.565326</ele>
        <time>2026-07-11T13:42:40.000Z</time>
      </trkpt>
      <trkpt lat="46.18085" lon="14.58129">
        <ele>334.780652</ele>
        <time>2026-07-11T13:42:47.000Z</time>
      </trkpt>
      <trkpt lat="46.18039" lon="14.58101">
        <ele>334.077791</ele>
        <time>2026-07-11T13:42:53.000Z</time>
      </trkpt>
      <trkpt lat="46.17985" lon="14.58068">
        <ele>332.907094</ele>
        <time>2026-07-11T13:43:00.000Z</time>
      </trkpt>
      <trkpt lat="46.17969" lon="14.58058">
        <ele>332.535564</ele>
        <time>2026-07-11T13:43:02.000Z</time>
      </trkpt>
      <trkpt lat="46.17914" lon="14.58027">
        <ele>331.21335</ele>
        <time>2026-07-11T13:43:09.000Z</time>
      </trkpt>
      <trkpt lat="46.17898" lon="14.58018">
        <ele>330.822546</ele>
        <time>2026-07-11T13:43:11.000Z</time>
      </trkpt>
      <trkpt lat="46.17844" lon="14.57986">
        <ele>329.672134</ele>
        <time>2026-07-11T13:43:18.000Z</time>
      </trkpt>
      <trkpt lat="46.1782" lon="14.57971">
        <ele>329.433081</ele>
        <time>2026-07-11T13:43:21.000Z</time>
      </trkpt>
      <trkpt lat="46.17767" lon="14.57939">
        <ele>328.902168</ele>
        <time>2026-07-11T13:43:28.000Z</time>
      </trkpt>
      <trkpt lat="46.17729" lon="14.57916">
        <ele>328.529987</ele>
        <time>2026-07-11T13:43:33.000Z</time>
      </trkpt>
      <trkpt lat="46.17676" lon="14.5788">
        <ele>327.966093</ele>
        <time>2026-07-11T13:43:40.000Z</time>
      </trkpt>
      <trkpt lat="46.17622" lon="14.57844">
        <ele>327.326917</ele>
        <time>2026-07-11T13:43:47.000Z</time>
      </trkpt>
      <trkpt lat="46.17607" lon="14.57834">
        <ele>327.150637</ele>
        <time>2026-07-11T13:43:49.000Z</time>
      </trkpt>
      <trkpt lat="46.17576" lon="14.57813">
        <ele>326.785327</ele>
        <time>2026-07-11T13:43:53.000Z</time>
      </trkpt>
      <trkpt lat="46.17554" lon="14.57798">
        <ele>326.523068</ele>
        <time>2026-07-11T13:43:56.000Z</time>
      </trkpt>
      <trkpt lat="46.17503" lon="14.57763">
        <ele>326.014853</ele>
        <time>2026-07-11T13:44:03.000Z</time>
      </trkpt>
      <trkpt lat="46.17496" lon="14.57757">
        <ele>325.958856</ele>
        <time>2026-07-11T13:44:04.000Z</time>
      </trkpt>
      <trkpt lat="46.17447" lon="14.57723">
        <ele>325.567864</ele>
        <time>2026-07-11T13:44:11.000Z</time>
      </trkpt>
      <trkpt lat="46.17414" lon="14.57703">
        <ele>325.313834</ele>
        <time>2026-07-11T13:44:16.000Z</time>
      </trkpt>
      <trkpt lat="46.17407" lon="14.57698">
        <ele>325.264411</ele>
        <time>2026-07-11T13:44:17.000Z</time>
      </trkpt>
      <trkpt lat="46.17402" lon="14.57691">
        <ele>325.214493</ele>
        <time>2026-07-11T13:44:18.000Z</time>
      </trkpt>
      <trkpt lat="46.17399" lon="14.57682">
        <ele>325.166454</ele>
        <time>2026-07-11T13:44:19.000Z</time>
      </trkpt>
      <trkpt lat="46.17395" lon="14.57666">
        <ele>325.08178</ele>
        <time>2026-07-11T13:44:21.000Z</time>
      </trkpt>
      <trkpt lat="46.17393" lon="14.57652">
        <ele>325.0097</ele>
        <time>2026-07-11T13:44:24.000Z</time>
      </trkpt>
      <trkpt lat="46.17393" lon="14.57649">
        <ele>324.994462</ele>
        <time>2026-07-11T13:44:25.000Z</time>
      </trkpt>
      <trkpt lat="46.1739" lon="14.57645">
        <ele>324.965842</ele>
        <time>2026-07-11T13:44:27.000Z</time>
      </trkpt>
      <trkpt lat="46.17379" lon="14.57632">
        <ele>324.885819</ele>
        <time>2026-07-11T13:44:32.000Z</time>
      </trkpt>
      <trkpt lat="46.17374" lon="14.57628">
        <ele>324.860986</ele>
        <time>2026-07-11T13:44:34.000Z</time>
      </trkpt>
      <trkpt lat="46.17371" lon="14.57629">
        <ele>324.84552</ele>
        <time>2026-07-11T13:44:35.000Z</time>
      </trkpt>
      <trkpt lat="46.17352" lon="14.57633">
        <ele>324.753202</ele>
        <time>2026-07-11T13:44:40.000Z</time>
      </trkpt>
      <trkpt lat="46.17347" lon="14.57634">
        <ele>324.730293</ele>
        <time>2026-07-11T13:44:41.000Z</time>
      </trkpt>
      <trkpt lat="46.17327" lon="14.57639">
        <ele>324.636242</ele>
        <time>2026-07-11T13:44:45.000Z</time>
      </trkpt>
      <trkpt lat="46.17313" lon="14.57643">
        <ele>324.569697</ele>
        <time>2026-07-11T13:44:48.000Z</time>
      </trkpt>
      <trkpt lat="46.17305" lon="14.57647">
        <ele>324.52593</ele>
        <time>2026-07-11T13:44:50.000Z</time>
      </trkpt>
      <trkpt lat="46.17301" lon="14.57649">
        <ele>324.505325</ele>
        <time>2026-07-11T13:44:51.000Z</time>
      </trkpt>
      <trkpt lat="46.17292" lon="14.57646">
        <ele>324.463218</ele>
        <time>2026-07-11T13:44:53.000Z</time>
      </trkpt>
      <trkpt lat="46.17267" lon="14.5763">
        <ele>324.333369</ele>
        <time>2026-07-11T13:44:58.000Z</time>
      </trkpt>
      <trkpt lat="46.17221" lon="14.57601">
        <ele>324.097726</ele>
        <time>2026-07-11T13:45:06.000Z</time>
      </trkpt>
      <trkpt lat="46.17181" lon="14.5757">
        <ele>323.28183</ele>
        <time>2026-07-11T13:45:13.000Z</time>
      </trkpt>
      <trkpt lat="46.17177" lon="14.57566">
        <ele>323.178811</ele>
        <time>2026-07-11T13:45:14.000Z</time>
      </trkpt>
      <trkpt lat="46.17165" lon="14.57555">
        <ele>322.916552</ele>
        <time>2026-07-11T13:45:16.000Z</time>
      </trkpt>
      <trkpt lat="46.17137" lon="14.57526">
        <ele>322.235261</ele>
        <time>2026-07-11T13:45:21.000Z</time>
      </trkpt>
      <trkpt lat="46.17108" lon="14.57497">
        <ele>321.564937</ele>
        <time>2026-07-11T13:45:26.000Z</time>
      </trkpt>
      <trkpt lat="46.1709" lon="14.57481">
        <ele>321.14299</ele>
        <time>2026-07-11T13:45:29.000Z</time>
      </trkpt>
      <trkpt lat="46.17083" lon="14.57476">
        <ele>321.003153</ele>
        <time>2026-07-11T13:45:30.000Z</time>
      </trkpt>
      <trkpt lat="46.17035" lon="14.57437">
        <ele>320.492113</ele>
        <time>2026-07-11T13:45:38.000Z</time>
      </trkpt>
      <trkpt lat="46.17022" lon="14.57427">
        <ele>320.450451</ele>
        <time>2026-07-11T13:45:40.000Z</time>
      </trkpt>
      <trkpt lat="46.16973" lon="14.57391">
        <ele>320.283636</ele>
        <time>2026-07-11T13:45:48.000Z</time>
      </trkpt>
      <trkpt lat="46.16954" lon="14.57377">
        <ele>320.21895</ele>
        <time>2026-07-11T13:45:51.000Z</time>
      </trkpt>
      <trkpt lat="46.16926" lon="14.57359">
        <ele>320.126106</ele>
        <time>2026-07-11T13:45:55.000Z</time>
      </trkpt>
      <trkpt lat="46.16914" lon="14.57352">
        <ele>320.088905</ele>
        <time>2026-07-11T13:45:57.000Z</time>
      </trkpt>
      <trkpt lat="46.16899" lon="14.57343">
        <ele>320.070152</ele>
        <time>2026-07-11T13:46:01.000Z</time>
      </trkpt>
      <trkpt lat="46.16889" lon="14.57336">
        <ele>320.098076</ele>
        <time>2026-07-11T13:46:06.000Z</time>
      </trkpt>
      <trkpt lat="46.16888" lon="14.57335">
        <ele>320.100891</ele>
        <time>2026-07-11T13:46:08.000Z</time>
      </trkpt>
      <trkpt lat="46.16882" lon="14.57331">
        <ele>320.117791</ele>
        <time>2026-07-11T13:46:21.000Z</time>
      </trkpt>
      <trkpt lat="46.1688" lon="14.57329">
        <ele>320.12367</ele>
        <time>2026-07-11T13:46:22.000Z</time>
      </trkpt>
      <trkpt lat="46.16869" lon="14.57319">
        <ele>320.157594</ele>
        <time>2026-07-11T13:46:26.000Z</time>
      </trkpt>
      <trkpt lat="46.16866" lon="14.57314">
        <ele>320.168548</ele>
        <time>2026-07-11T13:46:27.000Z</time>
      </trkpt>
      <trkpt lat="46.16862" lon="14.5731">
        <ele>320.179692</ele>
        <time>2026-07-11T13:46:28.000Z</time>
      </trkpt>
      <trkpt lat="46.16845" lon="14.57293">
        <ele>320.233101</ele>
        <time>2026-07-11T13:46:32.000Z</time>
      </trkpt>
      <trkpt lat="46.1681" lon="14.57265">
        <ele>320.333373</ele>
        <time>2026-07-11T13:46:39.000Z</time>
      </trkpt>
      <trkpt lat="46.16777" lon="14.57244">
        <ele>320.426192</ele>
        <time>2026-07-11T13:46:45.000Z</time>
      </trkpt>
      <trkpt lat="46.16759" lon="14.57234">
        <ele>320.475049</ele>
        <time>2026-07-11T13:46:48.000Z</time>
      </trkpt>
      <trkpt lat="46.16753" lon="14.57232">
        <ele>320.489709</ele>
        <time>2026-07-11T13:46:49.000Z</time>
      </trkpt>
      <trkpt lat="46.16722" lon="14.57217">
        <ele>320.320187</ele>
        <time>2026-07-11T13:46:54.000Z</time>
      </trkpt>
      <trkpt lat="46.1669" lon="14.57202">
        <ele>320.047367</ele>
        <time>2026-07-11T13:46:59.000Z</time>
      </trkpt>
      <trkpt lat="46.16685" lon="14.57201">
        <ele>320.004699</ele>
        <time>2026-07-11T13:47:00.000Z</time>
      </trkpt>
      <trkpt lat="46.16666" lon="14.57194">
        <ele>319.84774</ele>
        <time>2026-07-11T13:47:03.000Z</time>
      </trkpt>
      <trkpt lat="46.16653" lon="14.57192">
        <ele>319.74356</ele>
        <time>2026-07-11T13:47:05.000Z</time>
      </trkpt>
      <trkpt lat="46.1664" lon="14.57191">
        <ele>319.638253</ele>
        <time>2026-07-11T13:47:07.000Z</time>
      </trkpt>
      <trkpt lat="46.16599" lon="14.57192">
        <ele>319.3092</ele>
        <time>2026-07-11T13:47:13.000Z</time>
      </trkpt>
      <trkpt lat="46.16592" lon="14.57192">
        <ele>319.257036</ele>
        <time>2026-07-11T13:47:14.000Z</time>
      </trkpt>
      <trkpt lat="46.16581" lon="14.57192">
        <ele>319.166325</ele>
        <time>2026-07-11T13:47:16.000Z</time>
      </trkpt>
      <trkpt lat="46.16567" lon="14.5719">
        <ele>319.077229</ele>
        <time>2026-07-11T13:47:18.000Z</time>
      </trkpt>
      <trkpt lat="46.16555" lon="14.57185">
        <ele>319.148727</ele>
        <time>2026-07-11T13:47:20.000Z</time>
      </trkpt>
      <trkpt lat="46.16536" lon="14.57175">
        <ele>319.264931</ele>
        <time>2026-07-11T13:47:23.000Z</time>
      </trkpt>
      <trkpt lat="46.16513" lon="14.57161">
        <ele>319.407527</ele>
        <time>2026-07-11T13:47:27.000Z</time>
      </trkpt>
      <trkpt lat="46.16503" lon="14.57154">
        <ele>319.469722</ele>
        <time>2026-07-11T13:47:29.000Z</time>
      </trkpt>
      <trkpt lat="46.16455" lon="14.57125">
        <ele>319.766693</ele>
        <time>2026-07-11T13:47:37.000Z</time>
      </trkpt>
      <trkpt lat="46.1642" lon="14.57118">
        <ele>319.965695</ele>
        <time>2026-07-11T13:47:42.000Z</time>
      </trkpt>
      <trkpt lat="46.16401" lon="14.57114">
        <ele>320.075938</ele>
        <time>2026-07-11T13:47:46.000Z</time>
      </trkpt>
      <trkpt lat="46.1639" lon="14.57112">
        <ele>319.952002</ele>
        <time>2026-07-11T13:47:50.000Z</time>
      </trkpt>
      <trkpt lat="46.16374" lon="14.57107">
        <ele>319.641937</ele>
        <time>2026-07-11T13:47:55.000Z</time>
      </trkpt>
      <trkpt lat="46.16351" lon="14.57105">
        <ele>319.230455</ele>
        <time>2026-07-11T13:48:00.000Z</time>
      </trkpt>
      <trkpt lat="46.16324" lon="14.57099">
        <ele>318.73945</ele>
        <time>2026-07-11T13:48:05.000Z</time>
      </trkpt>
      <trkpt lat="46.16312" lon="14.57097">
        <ele>318.537264</ele>
        <time>2026-07-11T13:48:07.000Z</time>
      </trkpt>
      <trkpt lat="46.16288" lon="14.57097">
        <ele>318.09794</ele>
        <time>2026-07-11T13:48:11.000Z</time>
      </trkpt>
      <trkpt lat="46.16281" lon="14.57095">
        <ele>317.978339</ele>
        <time>2026-07-11T13:48:12.000Z</time>
      </trkpt>
      <trkpt lat="46.1624" lon="14.57078">
        <ele>317.216638</ele>
        <time>2026-07-11T13:48:19.000Z</time>
      </trkpt>
      <trkpt lat="46.16214" lon="14.57068">
        <ele>316.840722</ele>
        <time>2026-07-11T13:48:23.000Z</time>
      </trkpt>
      <trkpt lat="46.16195" lon="14.57063">
        <ele>316.77969</ele>
        <time>2026-07-11T13:48:26.000Z</time>
      </trkpt>
      <trkpt lat="46.16152" lon="14.57048">
        <ele>316.638328</ele>
        <time>2026-07-11T13:48:33.000Z</time>
      </trkpt>
      <trkpt lat="46.1611" lon="14.57036">
        <ele>316.503468</ele>
        <time>2026-07-11T13:48:39.000Z</time>
      </trkpt>
      <trkpt lat="46.16055" lon="14.57019">
        <ele>316.322839</ele>
        <time>2026-07-11T13:48:47.000Z</time>
      </trkpt>
      <trkpt lat="46.16023" lon="14.5701">
        <ele>316.304941</ele>
        <time>2026-07-11T13:48:52.000Z</time>
      </trkpt>
      <trkpt lat="46.15981" lon="14.56993">
        <ele>316.327559</ele>
        <time>2026-07-11T13:48:58.000Z</time>
      </trkpt>
      <trkpt lat="46.15946" lon="14.56979">
        <ele>316.346385</ele>
        <time>2026-07-11T13:49:03.000Z</time>
      </trkpt>
      <trkpt lat="46.15895" lon="14.56965">
        <ele>316.373385</ele>
        <time>2026-07-11T13:49:10.000Z</time>
      </trkpt>
      <trkpt lat="46.15861" lon="14.56955">
        <ele>316.276968</ele>
        <time>2026-07-11T13:49:15.000Z</time>
      </trkpt>
      <trkpt lat="46.15847" lon="14.56948">
        <ele>316.119028</ele>
        <time>2026-07-11T13:49:17.000Z</time>
      </trkpt>
      <trkpt lat="46.15819" lon="14.5694">
        <ele>315.81474</ele>
        <time>2026-07-11T13:49:21.000Z</time>
      </trkpt>
      <trkpt lat="46.15803" lon="14.56934">
        <ele>315.630903</ele>
        <time>2026-07-11T13:49:23.000Z</time>
      </trkpt>
      <trkpt lat="46.1576" lon="14.56921">
        <ele>315.152731</ele>
        <time>2026-07-11T13:49:29.000Z</time>
      </trkpt>
      <trkpt lat="46.15715" lon="14.56904">
        <ele>314.652137</ele>
        <time>2026-07-11T13:49:35.000Z</time>
      </trkpt>
      <trkpt lat="46.15692" lon="14.56894">
        <ele>314.397714</ele>
        <time>2026-07-11T13:49:38.000Z</time>
      </trkpt>
      <trkpt lat="46.15671" lon="14.56886">
        <ele>314.194605</ele>
        <time>2026-07-11T13:49:42.000Z</time>
      </trkpt>
      <trkpt lat="46.15667" lon="14.56884">
        <ele>314.156427</ele>
        <time>2026-07-11T13:49:43.000Z</time>
      </trkpt>
      <trkpt lat="46.15658" lon="14.56882">
        <ele>314.073267</ele>
        <time>2026-07-11T13:49:46.000Z</time>
      </trkpt>
      <trkpt lat="46.15656" lon="14.5688">
        <ele>314.051122</ele>
        <time>2026-07-11T13:49:50.000Z</time>
      </trkpt>
      <trkpt lat="46.15652" lon="14.56877">
        <ele>314.00951</ele>
        <time>2026-07-11T13:50:02.000Z</time>
      </trkpt>
      <trkpt lat="46.15647" lon="14.56875">
        <ele>313.955939</ele>
        <time>2026-07-11T13:50:04.000Z</time>
      </trkpt>
      <trkpt lat="46.15628" lon="14.5687">
        <ele>313.777541</ele>
        <time>2026-07-11T13:50:09.000Z</time>
      </trkpt>
      <trkpt lat="46.15595" lon="14.56858">
        <ele>313.451315</ele>
        <time>2026-07-11T13:50:15.000Z</time>
      </trkpt>
      <trkpt lat="46.15538" lon="14.56835">
        <ele>312.894564</ele>
        <time>2026-07-11T13:50:25.000Z</time>
      </trkpt>
      <trkpt lat="46.15504" lon="14.56824">
        <ele>312.641479</ele>
        <time>2026-07-11T13:50:31.000Z</time>
      </trkpt>
      <trkpt lat="46.15498" lon="14.56814">
        <ele>312.590206</ele>
        <time>2026-07-11T13:50:33.000Z</time>
      </trkpt>
      <trkpt lat="46.15496" lon="14.56805">
        <ele>312.554522</ele>
        <time>2026-07-11T13:50:34.000Z</time>
      </trkpt>
      <trkpt lat="46.15497" lon="14.56796">
        <ele>312.522847</ele>
        <time>2026-07-11T13:50:35.000Z</time>
      </trkpt>
      <trkpt lat="46.15501" lon="14.56772">
        <ele>312.429438</ele>
        <time>2026-07-11T13:50:38.000Z</time>
      </trkpt>
      <trkpt lat="46.15508" lon="14.56732">
        <ele>312.271635</ele>
        <time>2026-07-11T13:50:43.000Z</time>
      </trkpt>
      <trkpt lat="46.15513" lon="14.5671">
        <ele>312.18281</ele>
        <time>2026-07-11T13:50:46.000Z</time>
      </trkpt>
      <trkpt lat="46.15526" lon="14.56644">
        <ele>311.923448</ele>
        <time>2026-07-11T13:50:54.000Z</time>
      </trkpt>
      <trkpt lat="46.15529" lon="14.56626">
        <ele>311.854652</ele>
        <time>2026-07-11T13:50:56.000Z</time>
      </trkpt>
      <trkpt lat="46.15544" lon="14.56551">
        <ele>312.030087</ele>
        <time>2026-07-11T13:51:05.000Z</time>
      </trkpt>
      <trkpt lat="46.15546" lon="14.56544">
        <ele>312.067665</ele>
        <time>2026-07-11T13:51:06.000Z</time>
      </trkpt>
      <trkpt lat="46.15551" lon="14.56509">
        <ele>312.245968</ele>
        <time>2026-07-11T13:51:12.000Z</time>
      </trkpt>
      <trkpt lat="46.15539" lon="14.565">
        <ele>312.342964</ele>
        <time>2026-07-11T13:51:15.000Z</time>
      </trkpt>
      <trkpt lat="46.15508" lon="14.56487">
        <ele>312.577977</ele>
        <time>2026-07-11T13:51:21.000Z</time>
      </trkpt>
      <trkpt lat="46.15474" lon="14.56472">
        <ele>312.834199</ele>
        <time>2026-07-11T13:51:27.000Z</time>
      </trkpt>
      <trkpt lat="46.15468" lon="14.56469">
        <ele>312.882168</ele>
        <time>2026-07-11T13:51:28.000Z</time>
      </trkpt>
      <trkpt lat="46.15434" lon="14.56455">
        <ele>312.94304</ele>
        <time>2026-07-11T13:51:33.000Z</time>
      </trkpt>
      <trkpt lat="46.15423" lon="14.56448">
        <ele>312.778785</ele>
        <time>2026-07-11T13:51:35.000Z</time>
      </trkpt>
      <trkpt lat="46.15387" lon="14.56422">
        <ele>312.255325</ele>
        <time>2026-07-11T13:51:41.000Z</time>
      </trkpt>
      <trkpt lat="46.15357" lon="14.56399">
        <ele>311.806362</ele>
        <time>2026-07-11T13:51:46.000Z</time>
      </trkpt>
      <trkpt lat="46.1535" lon="14.56396">
        <ele>311.718342</ele>
        <time>2026-07-11T13:51:47.000Z</time>
      </trkpt>
      <trkpt lat="46.15304" lon="14.56381">
        <ele>311.097331</ele>
        <time>2026-07-11T13:51:54.000Z</time>
      </trkpt>
      <trkpt lat="46.15273" lon="14.56365">
        <ele>310.660447</ele>
        <time>2026-07-11T13:51:59.000Z</time>
      </trkpt>
      <trkpt lat="46.15234" lon="14.5634">
        <ele>310.054206</ele>
        <time>2026-07-11T13:52:06.000Z</time>
      </trkpt>
      <trkpt lat="46.15211" lon="14.5633">
        <ele>309.7001</ele>
        <time>2026-07-11T13:52:11.000Z</time>
      </trkpt>
      <trkpt lat="46.15179" lon="14.5632">
        <ele>309.23097</ele>
        <time>2026-07-11T13:52:17.000Z</time>
      </trkpt>
      <trkpt lat="46.15149" lon="14.56311">
        <ele>308.798688</ele>
        <time>2026-07-11T13:52:22.000Z</time>
      </trkpt>
      <trkpt lat="46.15143" lon="14.56308">
        <ele>308.708016</ele>
        <time>2026-07-11T13:52:23.000Z</time>
      </trkpt>
      <trkpt lat="46.15109" lon="14.56292">
        <ele>308.192869</ele>
        <time>2026-07-11T13:52:29.000Z</time>
      </trkpt>
      <trkpt lat="46.15103" lon="14.56289">
        <ele>308.112642</ele>
        <time>2026-07-11T13:52:30.000Z</time>
      </trkpt>
      <trkpt lat="46.15078" lon="14.56274">
        <ele>307.778964</ele>
        <time>2026-07-11T13:52:34.000Z</time>
      </trkpt>
      <trkpt lat="46.15072" lon="14.56272">
        <ele>307.696834</ele>
        <time>2026-07-11T13:52:35.000Z</time>
      </trkpt>
      <trkpt lat="46.15046" lon="14.56266">
        <ele>307.381089</ele>
        <time>2026-07-11T13:52:39.000Z</time>
      </trkpt>
      <trkpt lat="46.15034" lon="14.56264">
        <ele>307.229832</ele>
        <time>2026-07-11T13:52:41.000Z</time>
      </trkpt>
      <trkpt lat="46.1501" lon="14.56262">
        <ele>306.936868</ele>
        <time>2026-07-11T13:52:45.000Z</time>
      </trkpt>
      <trkpt lat="46.14997" lon="14.56263">
        <ele>306.781383</ele>
        <time>2026-07-11T13:52:47.000Z</time>
      </trkpt>
      <trkpt lat="46.14981" lon="14.56261">
        <ele>306.578825</ele>
        <time>2026-07-11T13:52:50.000Z</time>
      </trkpt>
      <trkpt lat="46.14969" lon="14.56258">
        <ele>306.43666</ele>
        <time>2026-07-11T13:52:52.000Z</time>
      </trkpt>
      <trkpt lat="46.14961" lon="14.56251">
        <ele>306.31999</ele>
        <time>2026-07-11T13:52:54.000Z</time>
      </trkpt>
      <trkpt lat="46.14951" lon="14.56232">
        <ele>306.114868</ele>
        <time>2026-07-11T13:52:57.000Z</time>
      </trkpt>
      <trkpt lat="46.14949" lon="14.56224">
        <ele>306.045479</ele>
        <time>2026-07-11T13:52:58.000Z</time>
      </trkpt>
      <trkpt lat="46.14938" lon="14.56194">
        <ele>305.96994</ele>
        <time>2026-07-11T13:53:02.000Z</time>
      </trkpt>
      <trkpt lat="46.14929" lon="14.56184">
        <ele>306.000528</ele>
        <time>2026-07-11T13:53:04.000Z</time>
      </trkpt>
      <trkpt lat="46.14918" lon="14.56183">
        <ele>306.030972</ele>
        <time>2026-07-11T13:53:06.000Z</time>
      </trkpt>
      <trkpt lat="46.14912" lon="14.56186">
        <ele>306.046989</ele>
        <time>2026-07-11T13:53:07.000Z</time>
      </trkpt>
      <trkpt lat="46.14893" lon="14.56194">
        <ele>306.099332</ele>
        <time>2026-07-11T13:53:10.000Z</time>
      </trkpt>
      <trkpt lat="46.14881" lon="14.56195">
        <ele>306.129975</ele>
        <time>2026-07-11T13:53:12.000Z</time>
      </trkpt>
      <trkpt lat="46.14868" lon="14.56193">
        <ele>306.163331</ele>
        <time>2026-07-11T13:53:14.000Z</time>
      </trkpt>
      <trkpt lat="46.14862" lon="14.56192">
        <ele>306.17922</ele>
        <time>2026-07-11T13:53:15.000Z</time>
      </trkpt>
      <trkpt lat="46.14856" lon="14.5619">
        <ele>306.195984</ele>
        <time>2026-07-11T13:53:16.000Z</time>
      </trkpt>
      <trkpt lat="46.1485" lon="14.56187">
        <ele>306.212059</ele>
        <time>2026-07-11T13:53:17.000Z</time>
      </trkpt>
      <trkpt lat="46.14821" lon="14.5617">
        <ele>306.295623</ele>
        <time>2026-07-11T13:53:23.000Z</time>
      </trkpt>
      <trkpt lat="46.14812" lon="14.56165">
        <ele>306.321122</ele>
        <time>2026-07-11T13:53:25.000Z</time>
      </trkpt>
      <trkpt lat="46.14796" lon="14.56157">
        <ele>306.363191</ele>
        <time>2026-07-11T13:53:28.000Z</time>
      </trkpt>
      <trkpt lat="46.14773" lon="14.56146">
        <ele>306.356007</ele>
        <time>2026-07-11T13:53:33.000Z</time>
      </trkpt>
      <trkpt lat="46.14758" lon="14.5614">
        <ele>306.273504</ele>
        <time>2026-07-11T13:53:36.000Z</time>
      </trkpt>
      <trkpt lat="46.14724" lon="14.56125">
        <ele>306.081461</ele>
        <time>2026-07-11T13:53:42.000Z</time>
      </trkpt>
      <trkpt lat="46.14694" lon="14.56115">
        <ele>305.917021</ele>
        <time>2026-07-11T13:53:47.000Z</time>
      </trkpt>
      <trkpt lat="46.14688" lon="14.5611">
        <ele>305.883057</ele>
        <time>2026-07-11T13:53:48.000Z</time>
      </trkpt>
      <trkpt lat="46.14661" lon="14.56084">
        <ele>305.709953</ele>
        <time>2026-07-11T13:53:53.000Z</time>
      </trkpt>
      <trkpt lat="46.14655" lon="14.56082">
        <ele>305.676174</ele>
        <time>2026-07-11T13:53:54.000Z</time>
      </trkpt>
      <trkpt lat="46.14649" lon="14.56081">
        <ele>305.641312</ele>
        <time>2026-07-11T13:53:55.000Z</time>
      </trkpt>
      <trkpt lat="46.1462" lon="14.56081">
        <ele>305.490551</ele>
        <time>2026-07-11T13:53:59.000Z</time>
      </trkpt>
      <trkpt lat="46.14567" lon="14.56089">
        <ele>305.109328</ele>
        <time>2026-07-11T13:54:07.000Z</time>
      </trkpt>
      <trkpt lat="46.14535" lon="14.56094">
        <ele>304.87656</ele>
        <time>2026-07-11T13:54:12.000Z</time>
      </trkpt>
      <trkpt lat="46.14524" lon="14.56097">
        <ele>304.790768</ele>
        <time>2026-07-11T13:54:14.000Z</time>
      </trkpt>
      <trkpt lat="46.14485" lon="14.56109">
        <ele>304.492027</ele>
        <time>2026-07-11T13:54:21.000Z</time>
      </trkpt>
      <trkpt lat="46.14445" lon="14.56118">
        <ele>304.19418</ele>
        <time>2026-07-11T13:54:28.000Z</time>
      </trkpt>
      <trkpt lat="46.14404" lon="14.56122">
        <ele>304.030436</ele>
        <time>2026-07-11T13:54:35.000Z</time>
      </trkpt>
      <trkpt lat="46.14398" lon="14.56123">
        <ele>304.015323</ele>
        <time>2026-07-11T13:54:36.000Z</time>
      </trkpt>
      <trkpt lat="46.14376" lon="14.56126">
        <ele>303.95545</ele>
        <time>2026-07-11T13:54:40.000Z</time>
      </trkpt>
      <trkpt lat="46.14365" lon="14.56125">
        <ele>303.925786</ele>
        <time>2026-07-11T13:54:42.000Z</time>
      </trkpt>
      <trkpt lat="46.14346" lon="14.5612">
        <ele>303.87056</ele>
        <time>2026-07-11T13:54:46.000Z</time>
      </trkpt>
      <trkpt lat="46.14337" lon="14.56118">
        <ele>303.847369</ele>
        <time>2026-07-11T13:54:48.000Z</time>
      </trkpt>
      <trkpt lat="46.14329" lon="14.56113">
        <ele>303.82209</ele>
        <time>2026-07-11T13:54:50.000Z</time>
      </trkpt>
      <trkpt lat="46.14324" lon="14.5611">
        <ele>303.806979</ele>
        <time>2026-07-11T13:54:51.000Z</time>
      </trkpt>
      <trkpt lat="46.14319" lon="14.56107">
        <ele>303.792639</ele>
        <time>2026-07-11T13:54:52.000Z</time>
      </trkpt>
      <trkpt lat="46.14296" lon="14.561">
        <ele>303.729854</ele>
        <time>2026-07-11T13:54:56.000Z</time>
      </trkpt>
      <trkpt lat="46.1429" lon="14.56099">
        <ele>303.712797</ele>
        <time>2026-07-11T13:54:57.000Z</time>
      </trkpt>
      <trkpt lat="46.14272" lon="14.56101">
        <ele>303.663136</ele>
        <time>2026-07-11T13:55:00.000Z</time>
      </trkpt>
      <trkpt lat="46.1426" lon="14.56104">
        <ele>303.630613</ele>
        <time>2026-07-11T13:55:02.000Z</time>
      </trkpt>
      <trkpt lat="46.14238" lon="14.5611">
        <ele>303.709059</ele>
        <time>2026-07-11T13:55:06.000Z</time>
      </trkpt>
      <trkpt lat="46.14222" lon="14.56114">
        <ele>303.780936</ele>
        <time>2026-07-11T13:55:09.000Z</time>
      </trkpt>
      <trkpt lat="46.14205" lon="14.56118">
        <ele>303.856449</ele>
        <time>2026-07-11T13:55:12.000Z</time>
      </trkpt>
      <trkpt lat="46.1417" lon="14.56132">
        <ele>304.019824</ele>
        <time>2026-07-11T13:55:18.000Z</time>
      </trkpt>
      <trkpt lat="46.14145" lon="14.5614">
        <ele>304.130937</ele>
        <time>2026-07-11T13:55:22.000Z</time>
      </trkpt>
      <trkpt lat="46.14133" lon="14.56139">
        <ele>304.185212</ele>
        <time>2026-07-11T13:55:24.000Z</time>
      </trkpt>
      <trkpt lat="46.14089" lon="14.5613">
        <ele>304.383264</ele>
        <time>2026-07-11T13:55:31.000Z</time>
      </trkpt>
      <trkpt lat="46.14064" lon="14.56136">
        <ele>304.268952</ele>
        <time>2026-07-11T13:55:35.000Z</time>
      </trkpt>
      <trkpt lat="46.14048" lon="14.56148">
        <ele>304.10756</ele>
        <time>2026-07-11T13:55:38.000Z</time>
      </trkpt>
      <trkpt lat="46.14037" lon="14.56151">
        <ele>304.003396</ele>
        <time>2026-07-11T13:55:40.000Z</time>
      </trkpt>
      <trkpt lat="46.14026" lon="14.56151">
        <ele>303.901088</ele>
        <time>2026-07-11T13:55:42.000Z</time>
      </trkpt>
      <trkpt lat="46.14004" lon="14.56153">
        <ele>303.697235</ele>
        <time>2026-07-11T13:55:46.000Z</time>
      </trkpt>
      <trkpt lat="46.13998" lon="14.56153">
        <ele>303.647908</ele>
        <time>2026-07-11T13:55:47.000Z</time>
      </trkpt>
      <trkpt lat="46.13982" lon="14.5615">
        <ele>303.496302</ele>
        <time>2026-07-11T13:55:50.000Z</time>
      </trkpt>
      <trkpt lat="46.13977" lon="14.56148">
        <ele>303.446971</ele>
        <time>2026-07-11T13:55:51.000Z</time>
      </trkpt>
      <trkpt lat="46.13966" lon="14.56144">
        <ele>303.346049</ele>
        <time>2026-07-11T13:55:53.000Z</time>
      </trkpt>
      <trkpt lat="46.13957" lon="14.56136">
        <ele>303.246373</ele>
        <time>2026-07-11T13:55:55.000Z</time>
      </trkpt>
      <trkpt lat="46.13942" lon="14.56124">
        <ele>303.090332</ele>
        <time>2026-07-11T13:55:58.000Z</time>
      </trkpt>
      <trkpt lat="46.13937" lon="14.56121">
        <ele>303.042024</ele>
        <time>2026-07-11T13:55:59.000Z</time>
      </trkpt>
      <trkpt lat="46.13931" lon="14.56118">
        <ele>302.98761</ele>
        <time>2026-07-11T13:56:00.000Z</time>
      </trkpt>
      <trkpt lat="46.13918" lon="14.56116">
        <ele>302.868886</ele>
        <time>2026-07-11T13:56:02.000Z</time>
      </trkpt>
      <trkpt lat="46.13889" lon="14.56119">
        <ele>302.557068</ele>
        <time>2026-07-11T13:56:07.000Z</time>
      </trkpt>
      <trkpt lat="46.13861" lon="14.56117">
        <ele>302.239454</ele>
        <time>2026-07-11T13:56:12.000Z</time>
      </trkpt>
      <trkpt lat="46.13848" lon="14.56118">
        <ele>302.092495</ele>
        <time>2026-07-11T13:56:14.000Z</time>
      </trkpt>
      <trkpt lat="46.13829" lon="14.56127">
        <ele>301.862152</ele>
        <time>2026-07-11T13:56:17.000Z</time>
      </trkpt>
      <trkpt lat="46.13792" lon="14.56144">
        <ele>301.421555</ele>
        <time>2026-07-11T13:56:23.000Z</time>
      </trkpt>
      <trkpt lat="46.13786" lon="14.56147">
        <ele>301.354137</ele>
        <time>2026-07-11T13:56:24.000Z</time>
      </trkpt>
      <trkpt lat="46.13757" lon="14.5616">
        <ele>301.002425</ele>
        <time>2026-07-11T13:56:29.000Z</time>
      </trkpt>
      <trkpt lat="46.13731" lon="14.56162">
        <ele>300.735605</ele>
        <time>2026-07-11T13:56:33.000Z</time>
      </trkpt>
      <trkpt lat="46.13719" lon="14.56162">
        <ele>300.750934</ele>
        <time>2026-07-11T13:56:35.000Z</time>
      </trkpt>
      <trkpt lat="46.13695" lon="14.56168">
        <ele>300.779994</ele>
        <time>2026-07-11T13:56:39.000Z</time>
      </trkpt>
      <trkpt lat="46.13684" lon="14.56175">
        <ele>300.794679</ele>
        <time>2026-07-11T13:56:41.000Z</time>
      </trkpt>
      <trkpt lat="46.13672" lon="14.56177">
        <ele>300.809726</ele>
        <time>2026-07-11T13:56:43.000Z</time>
      </trkpt>
      <trkpt lat="46.1366" lon="14.56174">
        <ele>300.823886</ele>
        <time>2026-07-11T13:56:45.000Z</time>
      </trkpt>
      <trkpt lat="46.13635" lon="14.56164">
        <ele>300.855606</ele>
        <time>2026-07-11T13:56:50.000Z</time>
      </trkpt>
      <trkpt lat="46.1363" lon="14.56155">
        <ele>300.865199</ele>
        <time>2026-07-11T13:56:52.000Z</time>
      </trkpt>
      <trkpt lat="46.13629" lon="14.56149">
        <ele>300.870515</ele>
        <time>2026-07-11T13:56:53.000Z</time>
      </trkpt>
      <trkpt lat="46.13626" lon="14.5612">
        <ele>300.895141</ele>
        <time>2026-07-11T13:56:57.000Z</time>
      </trkpt>
      <trkpt lat="46.13624" lon="14.56113">
        <ele>300.901556</ele>
        <time>2026-07-11T13:56:58.000Z</time>
      </trkpt>
      <trkpt lat="46.13621" lon="14.56106">
        <ele>300.908236</ele>
        <time>2026-07-11T13:56:59.000Z</time>
      </trkpt>
      <trkpt lat="46.13609" lon="14.56086">
        <ele>300.931271</ele>
        <time>2026-07-11T13:57:02.000Z</time>
      </trkpt>
      <trkpt lat="46.13577" lon="14.56048">
        <ele>301.167738</ele>
        <time>2026-07-11T13:57:09.000Z</time>
      </trkpt>
      <trkpt lat="46.13569" lon="14.56039">
        <ele>301.258843</ele>
        <time>2026-07-11T13:57:11.000Z</time>
      </trkpt>
      <trkpt lat="46.1356" lon="14.56024">
        <ele>301.387267</ele>
        <time>2026-07-11T13:57:14.000Z</time>
      </trkpt>
      <trkpt lat="46.13538" lon="14.55995">
        <ele>301.648209</ele>
        <time>2026-07-11T13:57:21.000Z</time>
      </trkpt>
      <trkpt lat="46.13527" lon="14.55983">
        <ele>301.774444</ele>
        <time>2026-07-11T13:57:24.000Z</time>
      </trkpt>
      <trkpt lat="46.1352" lon="14.55979">
        <ele>301.842082</ele>
        <time>2026-07-11T13:57:26.000Z</time>
      </trkpt>
      <trkpt lat="46.1351" lon="14.55982">
        <ele>301.934758</ele>
        <time>2026-07-11T13:57:28.000Z</time>
      </trkpt>
      <trkpt lat="46.13507" lon="14.55985">
        <ele>301.970031</ele>
        <time>2026-07-11T13:57:29.000Z</time>
      </trkpt>
      <trkpt lat="46.13488" lon="14.56002">
        <ele>302.170918</ele>
        <time>2026-07-11T13:57:33.000Z</time>
      </trkpt>
      <trkpt lat="46.13483" lon="14.56005">
        <ele>302.223372</ele>
        <time>2026-07-11T13:57:34.000Z</time>
      </trkpt>
      <trkpt lat="46.13464" lon="14.56013">
        <ele>302.405844</ele>
        <time>2026-07-11T13:57:38.000Z</time>
      </trkpt>
      <trkpt lat="46.13453" lon="14.56014">
        <ele>302.500068</ele>
        <time>2026-07-11T13:57:40.000Z</time>
      </trkpt>
      <trkpt lat="46.13443" lon="14.56014">
        <ele>302.584555</ele>
        <time>2026-07-11T13:57:42.000Z</time>
      </trkpt>
      <trkpt lat="46.13427" lon="14.5601">
        <ele>302.638174</ele>
        <time>2026-07-11T13:57:45.000Z</time>
      </trkpt>
      <trkpt lat="46.13408" lon="14.56008">
        <ele>302.701667</ele>
        <time>2026-07-11T13:57:49.000Z</time>
      </trkpt>
      <trkpt lat="46.13398" lon="14.56008">
        <ele>302.735313</ele>
        <time>2026-07-11T13:57:51.000Z</time>
      </trkpt>
      <trkpt lat="46.13388" lon="14.56011">
        <ele>302.771336</ele>
        <time>2026-07-11T13:57:53.000Z</time>
      </trkpt>
      <trkpt lat="46.13374" lon="14.56018">
        <ele>302.821054</ele>
        <time>2026-07-11T13:57:56.000Z</time>
      </trkpt>
      <trkpt lat="46.13365" lon="14.56023">
        <ele>302.85245</ele>
        <time>2026-07-11T13:57:58.000Z</time>
      </trkpt>
      <trkpt lat="46.13348" lon="14.56033">
        <ele>302.914727</ele>
        <time>2026-07-11T13:58:01.000Z</time>
      </trkpt>
      <trkpt lat="46.13315" lon="14.56051">
        <ele>303.031717</ele>
        <time>2026-07-11T13:58:07.000Z</time>
      </trkpt>
      <trkpt lat="46.13277" lon="14.56075">
        <ele>303.172794</ele>
        <time>2026-07-11T13:58:14.000Z</time>
      </trkpt>
      <trkpt lat="46.13235" lon="14.56095">
        <ele>302.674935</ele>
        <time>2026-07-11T13:58:22.000Z</time>
      </trkpt>
      <trkpt lat="46.13219" lon="14.56099">
        <ele>302.472646</ele>
        <time>2026-07-11T13:58:25.000Z</time>
      </trkpt>
      <trkpt lat="46.13209" lon="14.56103">
        <ele>302.34505</ele>
        <time>2026-07-11T13:58:27.000Z</time>
      </trkpt>
      <trkpt lat="46.132" lon="14.56108">
        <ele>302.221652</ele>
        <time>2026-07-11T13:58:29.000Z</time>
      </trkpt>
      <trkpt lat="46.13187" lon="14.56114">
        <ele>302.049985</ele>
        <time>2026-07-11T13:58:32.000Z</time>
      </trkpt>
      <trkpt lat="46.13179" lon="14.56117">
        <ele>301.953455</ele>
        <time>2026-07-11T13:58:34.000Z</time>
      </trkpt>
      <trkpt lat="46.13162" lon="14.5612">
        <ele>301.735979</ele>
        <time>2026-07-11T13:58:38.000Z</time>
      </trkpt>
      <trkpt lat="46.13158" lon="14.5612">
        <ele>301.68241</ele>
        <time>2026-07-11T13:58:39.000Z</time>
      </trkpt>
      <trkpt lat="46.1315" lon="14.56121">
        <ele>301.587734</ele>
        <time>2026-07-11T13:58:41.000Z</time>
      </trkpt>
      <trkpt lat="46.13146" lon="14.56119">
        <ele>301.53275</ele>
        <time>2026-07-11T13:58:42.000Z</time>
      </trkpt>
      <trkpt lat="46.13142" lon="14.56115">
        <ele>301.47881</ele>
        <time>2026-07-11T13:58:43.000Z</time>
      </trkpt>
      <trkpt lat="46.13128" lon="14.56096">
        <ele>301.235311</ele>
        <time>2026-07-11T13:58:47.000Z</time>
      </trkpt>
      <trkpt lat="46.13098" lon="14.56055">
        <ele>300.670112</ele>
        <time>2026-07-11T13:58:54.000Z</time>
      </trkpt>
      <trkpt lat="46.13074" lon="14.5603">
        <ele>300.195607</ele>
        <time>2026-07-11T13:58:59.000Z</time>
      </trkpt>
      <trkpt lat="46.13063" lon="14.56021">
        <ele>299.998886</ele>
        <time>2026-07-11T13:59:01.000Z</time>
      </trkpt>
      <trkpt lat="46.13016" lon="14.55983">
        <ele>299.149788</ele>
        <time>2026-07-11T13:59:10.000Z</time>
      </trkpt>
      <trkpt lat="46.12978" lon="14.55952">
        <ele>298.462781</ele>
        <time>2026-07-11T13:59:18.000Z</time>
      </trkpt>
      <trkpt lat="46.12965" lon="14.55941">
        <ele>298.224965</ele>
        <time>2026-07-11T13:59:21.000Z</time>
      </trkpt>
      <trkpt lat="46.12948" lon="14.55923">
        <ele>298.096948</ele>
        <time>2026-07-11T13:59:25.000Z</time>
      </trkpt>
      <trkpt lat="46.1294" lon="14.55912">
        <ele>298.0773</ele>
        <time>2026-07-11T13:59:27.000Z</time>
      </trkpt>
      <trkpt lat="46.12936" lon="14.55907">
        <ele>298.067375</ele>
        <time>2026-07-11T13:59:28.000Z</time>
      </trkpt>
      <trkpt lat="46.12926" lon="14.55899">
        <ele>298.046487</ele>
        <time>2026-07-11T13:59:30.000Z</time>
      </trkpt>
      <trkpt lat="46.12921" lon="14.55896">
        <ele>298.035734</ele>
        <time>2026-07-11T13:59:31.000Z</time>
      </trkpt>
      <trkpt lat="46.1291" lon="14.55888">
        <ele>298.015221</ele>
        <time>2026-07-11T13:59:33.000Z</time>
      </trkpt>
      <trkpt lat="46.12902" lon="14.55879">
        <ele>297.9962</ele>
        <time>2026-07-11T13:59:35.000Z</time>
      </trkpt>
      <trkpt lat="46.12899" lon="14.55874">
        <ele>297.98779</ele>
        <time>2026-07-11T13:59:36.000Z</time>
      </trkpt>
      <trkpt lat="46.12897" lon="14.55869">
        <ele>297.980274</ele>
        <time>2026-07-11T13:59:37.000Z</time>
      </trkpt>
      <trkpt lat="46.12896" lon="14.55862">
        <ele>297.971315</ele>
        <time>2026-07-11T13:59:39.000Z</time>
      </trkpt>
      <trkpt lat="46.12903" lon="14.55839">
        <ele>297.940598</ele>
        <time>2026-07-11T13:59:44.000Z</time>
      </trkpt>
      <trkpt lat="46.12907" lon="14.55832">
        <ele>297.929233</ele>
        <time>2026-07-11T13:59:45.000Z</time>
      </trkpt>
      <trkpt lat="46.12911" lon="14.55822">
        <ele>297.914892</ele>
        <time>2026-07-11T13:59:47.000Z</time>
      </trkpt>
      <trkpt lat="46.12913" lon="14.55816">
        <ele>297.906184</ele>
        <time>2026-07-11T13:59:48.000Z</time>
      </trkpt>
      <trkpt lat="46.12919" lon="14.55806">
        <ele>297.889805</ele>
        <time>2026-07-11T13:59:50.000Z</time>
      </trkpt>
      <trkpt lat="46.12926" lon="14.55803">
        <ele>297.876531</ele>
        <time>2026-07-11T13:59:52.000Z</time>
      </trkpt>
      <trkpt lat="46.12934" lon="14.55802">
        <ele>297.863723</ele>
        <time>2026-07-11T13:59:55.000Z</time>
      </trkpt>
      <trkpt lat="46.12935" lon="14.55789">
        <ele>297.847535</ele>
        <time>2026-07-11T13:59:58.000Z</time>
      </trkpt>
      <trkpt lat="46.12925" lon="14.55767">
        <ele>297.815568</ele>
        <time>2026-07-11T14:00:04.000Z</time>
      </trkpt>
      <trkpt lat="46.12912" lon="14.55769">
        <ele>297.783781</ele>
        <time>2026-07-11T14:00:07.000Z</time>
      </trkpt>
      <trkpt lat="46.12894" lon="14.55762">
        <ele>297.699507</ele>
        <time>2026-07-11T14:00:12.000Z</time>
      </trkpt>
      <trkpt lat="46.12872" lon="14.55745">
        <ele>297.592907</ele>
        <time>2026-07-11T14:00:18.000Z</time>
      </trkpt>
      <trkpt lat="46.12868" lon="14.55742">
        <ele>297.573195</ele>
        <time>2026-07-11T14:00:19.000Z</time>
      </trkpt>
      <trkpt lat="46.12843" lon="14.55725">
        <ele>297.453254</ele>
        <time>2026-07-11T14:00:24.000Z</time>
      </trkpt>
      <trkpt lat="46.12828" lon="14.55713">
        <ele>297.377883</ele>
        <time>2026-07-11T14:00:27.000Z</time>
      </trkpt>
      <trkpt lat="46.12819" lon="14.55707">
        <ele>297.333574</ele>
        <time>2026-07-11T14:00:29.000Z</time>
      </trkpt>
      <trkpt lat="46.12808" lon="14.55698">
        <ele>297.276385</ele>
        <time>2026-07-11T14:00:31.000Z</time>
      </trkpt>
      <trkpt lat="46.12765" lon="14.55663">
        <ele>297.06207</ele>
        <time>2026-07-11T14:00:39.000Z</time>
      </trkpt>
      <trkpt lat="46.12722" lon="14.55632">
        <ele>296.660053</ele>
        <time>2026-07-11T14:00:47.000Z</time>
      </trkpt>
      <trkpt lat="46.12694" lon="14.55611">
        <ele>296.362778</ele>
        <time>2026-07-11T14:00:52.000Z</time>
      </trkpt>
      <trkpt lat="46.12683" lon="14.55602">
        <ele>296.246074</ele>
        <time>2026-07-11T14:00:54.000Z</time>
      </trkpt>
      <trkpt lat="46.12673" lon="14.55594">
        <ele>296.13528</ele>
        <time>2026-07-11T14:00:56.000Z</time>
      </trkpt>
      <trkpt lat="46.12629" lon="14.55559">
        <ele>295.661798</ele>
        <time>2026-07-11T14:01:04.000Z</time>
      </trkpt>
      <trkpt lat="46.12614" lon="14.55548">
        <ele>295.504806</ele>
        <time>2026-07-11T14:01:07.000Z</time>
      </trkpt>
      <trkpt lat="46.12604" lon="14.55539">
        <ele>295.393006</ele>
        <time>2026-07-11T14:01:09.000Z</time>
      </trkpt>
      <trkpt lat="46.12578" lon="14.55522">
        <ele>295.757432</ele>
        <time>2026-07-11T14:01:14.000Z</time>
      </trkpt>
      <trkpt lat="46.12566" lon="14.55521">
        <ele>296.014789</ele>
        <time>2026-07-11T14:01:16.000Z</time>
      </trkpt>
      <trkpt lat="46.12556" lon="14.55521">
        <ele>296.246317</ele>
        <time>2026-07-11T14:01:18.000Z</time>
      </trkpt>
      <trkpt lat="46.12547" lon="14.55517">
        <ele>296.449532</ele>
        <time>2026-07-11T14:01:20.000Z</time>
      </trkpt>
      <trkpt lat="46.12539" lon="14.55516">
        <ele>296.639522</ele>
        <time>2026-07-11T14:01:22.000Z</time>
      </trkpt>
      <trkpt lat="46.12529" lon="14.55517">
        <ele>296.849747</ele>
        <time>2026-07-11T14:01:24.000Z</time>
      </trkpt>
      <trkpt lat="46.12519" lon="14.55514">
        <ele>297.07745</ele>
        <time>2026-07-11T14:01:26.000Z</time>
      </trkpt>
      <trkpt lat="46.12509" lon="14.55509">
        <ele>297.315155</ele>
        <time>2026-07-11T14:01:28.000Z</time>
      </trkpt>
      <trkpt lat="46.12477" lon="14.55484">
        <ele>298.135813</ele>
        <time>2026-07-11T14:01:35.000Z</time>
      </trkpt>
      <trkpt lat="46.12453" lon="14.55446">
        <ele>298.927164</ele>
        <time>2026-07-11T14:01:42.000Z</time>
      </trkpt>
      <trkpt lat="46.12442" lon="14.55427">
        <ele>299.304237</ele>
        <time>2026-07-11T14:01:47.000Z</time>
      </trkpt>
      <trkpt lat="46.1244" lon="14.55421">
        <ele>299.414015</ele>
        <time>2026-07-11T14:01:48.000Z</time>
      </trkpt>
      <trkpt lat="46.12433" lon="14.55396">
        <ele>299.8766</ele>
        <time>2026-07-11T14:01:52.000Z</time>
      </trkpt>
      <trkpt lat="46.12433" lon="14.55376">
        <ele>300.217737</ele>
        <time>2026-07-11T14:01:55.000Z</time>
      </trkpt>
      <trkpt lat="46.12434" lon="14.5537">
        <ele>300.325319</ele>
        <time>2026-07-11T14:01:56.000Z</time>
      </trkpt>
      <trkpt lat="46.12436" lon="14.55357">
        <ele>300.556407</ele>
        <time>2026-07-11T14:01:58.000Z</time>
      </trkpt>
      <trkpt lat="46.12435" lon="14.55339">
        <ele>300.870574</ele>
        <time>2026-07-11T14:02:01.000Z</time>
      </trkpt>
      <trkpt lat="46.12431" lon="14.55328">
        <ele>301.084823</ele>
        <time>2026-07-11T14:02:03.000Z</time>
      </trkpt>
      <trkpt lat="46.12427" lon="14.55311">
        <ele>301.390874</ele>
        <time>2026-07-11T14:02:06.000Z</time>
      </trkpt>
      <trkpt lat="46.12425" lon="14.55304">
        <ele>301.530587</ele>
        <time>2026-07-11T14:02:07.000Z</time>
      </trkpt>
      <trkpt lat="46.1242" lon="14.55285">
        <ele>301.879832</ele>
        <time>2026-07-11T14:02:10.000Z</time>
      </trkpt>
      <trkpt lat="46.12414" lon="14.55273">
        <ele>302.127804</ele>
        <time>2026-07-11T14:02:12.000Z</time>
      </trkpt>
      <trkpt lat="46.12392" lon="14.55253">
        <ele>302.775314</ele>
        <time>2026-07-11T14:02:17.000Z</time>
      </trkpt>
      <trkpt lat="46.12388" lon="14.55249">
        <ele>302.903668</ele>
        <time>2026-07-11T14:02:18.000Z</time>
      </trkpt>
      <trkpt lat="46.12379" lon="14.55242">
        <ele>303.151265</ele>
        <time>2026-07-11T14:02:20.000Z</time>
      </trkpt>
      <trkpt lat="46.12352" lon="14.55222">
        <ele>303.793052</ele>
        <time>2026-07-11T14:02:26.000Z</time>
      </trkpt>
      <trkpt lat="46.12337" lon="14.55214">
        <ele>303.82225</ele>
        <time>2026-07-11T14:02:29.000Z</time>
      </trkpt>
      <trkpt lat="46.1233" lon="14.55214">
        <ele>303.83573</ele>
        <time>2026-07-11T14:02:31.000Z</time>
      </trkpt>
      <trkpt lat="46.12322" lon="14.55223">
        <ele>303.854573</ele>
        <time>2026-07-11T14:02:34.000Z</time>
      </trkpt>
      <trkpt lat="46.12311" lon="14.55216">
        <ele>303.874755</ele>
        <time>2026-07-11T14:02:37.000Z</time>
      </trkpt>
      <trkpt lat="46.12293" lon="14.55202">
        <ele>303.913481</ele>
        <time>2026-07-11T14:02:41.000Z</time>
      </trkpt>
      <trkpt lat="46.12258" lon="14.55173">
        <ele>303.986709</ele>
        <time>2026-07-11T14:02:48.000Z</time>
      </trkpt>
      <trkpt lat="46.12216" lon="14.55142">
        <ele>304.071451</ele>
        <time>2026-07-11T14:02:56.000Z</time>
      </trkpt>
      <trkpt lat="46.12212" lon="14.55139">
        <ele>304.080942</ele>
        <time>2026-07-11T14:02:57.000Z</time>
      </trkpt>
      <trkpt lat="46.12198" lon="14.55127">
        <ele>304.110523</ele>
        <time>2026-07-11T14:03:00.000Z</time>
      </trkpt>
      <trkpt lat="46.12184" lon="14.55116">
        <ele>304.001485</ele>
        <time>2026-07-11T14:03:03.000Z</time>
      </trkpt>
      <trkpt lat="46.12178" lon="14.55112">
        <ele>303.952334</ele>
        <time>2026-07-11T14:03:04.000Z</time>
      </trkpt>
      <trkpt lat="46.12164" lon="14.55102">
        <ele>303.838986</ele>
        <time>2026-07-11T14:03:07.000Z</time>
      </trkpt>
      <trkpt lat="46.12122" lon="14.5507">
        <ele>303.494979</ele>
        <time>2026-07-11T14:03:15.000Z</time>
      </trkpt>
      <trkpt lat="46.12111" lon="14.55062">
        <ele>303.410594</ele>
        <time>2026-07-11T14:03:17.000Z</time>
      </trkpt>
      <trkpt lat="46.12084" lon="14.55041">
        <ele>303.185952</ele>
        <time>2026-07-11T14:03:22.000Z</time>
      </trkpt>
      <trkpt lat="46.1203" lon="14.55002">
        <ele>302.651001</ele>
        <time>2026-07-11T14:03:32.000Z</time>
      </trkpt>
      <trkpt lat="46.12002" lon="14.54983">
        <ele>302.105993</ele>
        <time>2026-07-11T14:03:39.000Z</time>
      </trkpt>
      <trkpt lat="46.11997" lon="14.54983">
        <ele>302.015423</ele>
        <time>2026-07-11T14:03:40.000Z</time>
      </trkpt>
      <trkpt lat="46.11992" lon="14.54985">
        <ele>301.928257</ele>
        <time>2026-07-11T14:03:41.000Z</time>
      </trkpt>
      <trkpt lat="46.11985" lon="14.54991">
        <ele>301.784174</ele>
        <time>2026-07-11T14:03:43.000Z</time>
      </trkpt>
      <trkpt lat="46.11979" lon="14.54989">
        <ele>301.668937</ele>
        <time>2026-07-11T14:03:45.000Z</time>
      </trkpt>
      <trkpt lat="46.11976" lon="14.54984">
        <ele>301.592109</ele>
        <time>2026-07-11T14:03:46.000Z</time>
      </trkpt>
      <trkpt lat="46.11976" lon="14.5498">
        <ele>301.542434</ele>
        <time>2026-07-11T14:03:47.000Z</time>
      </trkpt>
      <trkpt lat="46.11973" lon="14.54969">
        <ele>301.406543</ele>
        <time>2026-07-11T14:03:49.000Z</time>
      </trkpt>
      <trkpt lat="46.11965" lon="14.54963">
        <ele>301.244924</ele>
        <time>2026-07-11T14:03:51.000Z</time>
      </trkpt>
      <trkpt lat="46.11956" lon="14.54957">
        <ele>301.066989</ele>
        <time>2026-07-11T14:03:53.000Z</time>
      </trkpt>
      <trkpt lat="46.1193" lon="14.54936">
        <ele>300.539047</ele>
        <time>2026-07-11T14:03:59.000Z</time>
      </trkpt>
      <trkpt lat="46.11922" lon="14.54932">
        <ele>300.38975</ele>
        <time>2026-07-11T14:04:01.000Z</time>
      </trkpt>
      <trkpt lat="46.11906" lon="14.54922">
        <ele>300.090149</ele>
        <time>2026-07-11T14:04:05.000Z</time>
      </trkpt>
      <trkpt lat="46.11879" lon="14.54903">
        <ele>299.635537</ele>
        <time>2026-07-11T14:04:12.000Z</time>
      </trkpt>
      <trkpt lat="46.11874" lon="14.549">
        <ele>299.660547</ele>
        <time>2026-07-11T14:04:13.000Z</time>
      </trkpt>
      <trkpt lat="46.11852" lon="14.54882">
        <ele>299.788239</ele>
        <time>2026-07-11T14:04:18.000Z</time>
      </trkpt>
      <trkpt lat="46.11838" lon="14.54872">
        <ele>299.865063</ele>
        <time>2026-07-11T14:04:21.000Z</time>
      </trkpt>
      <trkpt lat="46.11803" lon="14.54845">
        <ele>300.068671</ele>
        <time>2026-07-11T14:04:29.000Z</time>
      </trkpt>
      <trkpt lat="46.11798" lon="14.54843">
        <ele>300.092044</ele>
        <time>2026-07-11T14:04:30.000Z</time>
      </trkpt>
      <trkpt lat="46.11789" lon="14.54845">
        <ele>300.139414</ele>
        <time>2026-07-11T14:04:32.000Z</time>
      </trkpt>
      <trkpt lat="46.11748" lon="14.54862">
        <ele>300.356591</ele>
        <time>2026-07-11T14:04:40.000Z</time>
      </trkpt>
      <trkpt lat="46.11703" lon="14.54882">
        <ele>300.437851</ele>
        <time>2026-07-11T14:04:48.000Z</time>
      </trkpt>
      <trkpt lat="46.11686" lon="14.54888">
        <ele>300.327888</ele>
        <time>2026-07-11T14:04:51.000Z</time>
      </trkpt>
      <trkpt lat="46.11675" lon="14.54888">
        <ele>300.257795</ele>
        <time>2026-07-11T14:04:53.000Z</time>
      </trkpt>
      <trkpt lat="46.11669" lon="14.54886">
        <ele>300.223704</ele>
        <time>2026-07-11T14:04:54.000Z</time>
      </trkpt>
      <trkpt lat="46.11665" lon="14.54883">
        <ele>300.190724</ele>
        <time>2026-07-11T14:04:55.000Z</time>
      </trkpt>
      <trkpt lat="46.11647" lon="14.54867">
        <ele>300.060036</ele>
        <time>2026-07-11T14:04:59.000Z</time>
      </trkpt>
      <trkpt lat="46.11632" lon="14.54854">
        <ele>299.956408</ele>
        <time>2026-07-11T14:05:02.000Z</time>
      </trkpt>
      <trkpt lat="46.11618" lon="14.54844">
        <ele>299.853928</ele>
        <time>2026-07-11T14:05:05.000Z</time>
      </trkpt>
      <trkpt lat="46.11607" lon="14.54839">
        <ele>299.787556</ele>
        <time>2026-07-11T14:05:07.000Z</time>
      </trkpt>
      <trkpt lat="46.11578" lon="14.54817">
        <ele>299.582481</ele>
        <time>2026-07-11T14:05:13.000Z</time>
      </trkpt>
      <trkpt lat="46.11563" lon="14.54804">
        <ele>299.474712</ele>
        <time>2026-07-11T14:05:16.000Z</time>
      </trkpt>
      <trkpt lat="46.11533" lon="14.54784">
        <ele>299.493719</ele>
        <time>2026-07-11T14:05:22.000Z</time>
      </trkpt>
      <trkpt lat="46.11501" lon="14.5476">
        <ele>299.6405</ele>
        <time>2026-07-11T14:05:29.000Z</time>
      </trkpt>
      <trkpt lat="46.11493" lon="14.54754">
        <ele>299.674653</ele>
        <time>2026-07-11T14:05:31.000Z</time>
      </trkpt>
      <trkpt lat="46.11484" lon="14.54743">
        <ele>299.722401</ele>
        <time>2026-07-11T14:05:34.000Z</time>
      </trkpt>
      <trkpt lat="46.1148" lon="14.54741">
        <ele>299.739548</ele>
        <time>2026-07-11T14:05:35.000Z</time>
      </trkpt>
      <trkpt lat="46.1146" lon="14.54729">
        <ele>299.823684</ele>
        <time>2026-07-11T14:05:39.000Z</time>
      </trkpt>
      <trkpt lat="46.11435" lon="14.54715">
        <ele>299.932273</ele>
        <time>2026-07-11T14:05:44.000Z</time>
      </trkpt>
      <trkpt lat="46.1143" lon="14.54712">
        <ele>299.953517</ele>
        <time>2026-07-11T14:05:45.000Z</time>
      </trkpt>
      <trkpt lat="46.1141" lon="14.54701">
        <ele>300.039119</ele>
        <time>2026-07-11T14:05:49.000Z</time>
      </trkpt>
      <trkpt lat="46.1137" lon="14.54676">
        <ele>300.240823</ele>
        <time>2026-07-11T14:05:57.000Z</time>
      </trkpt>
      <trkpt lat="46.11349" lon="14.54663">
        <ele>300.36704</ele>
        <time>2026-07-11T14:06:02.000Z</time>
      </trkpt>
      <trkpt lat="46.11336" lon="14.54657">
        <ele>300.438892</ele>
        <time>2026-07-11T14:06:05.000Z</time>
      </trkpt>
      <trkpt lat="46.11313" lon="14.54647">
        <ele>300.565604</ele>
        <time>2026-07-11T14:06:11.000Z</time>
      </trkpt>
      <trkpt lat="46.11309" lon="14.54648">
        <ele>300.588406</ele>
        <time>2026-07-11T14:06:13.000Z</time>
      </trkpt>
      <trkpt lat="46.11308" lon="14.54649">
        <ele>300.591488</ele>
        <time>2026-07-11T14:06:14.000Z</time>
      </trkpt>
      <trkpt lat="46.11306" lon="14.54654">
        <ele>300.616782</ele>
        <time>2026-07-11T14:06:23.000Z</time>
      </trkpt>
      <trkpt lat="46.11305" lon="14.54658">
        <ele>300.631487</ele>
        <time>2026-07-11T14:06:24.000Z</time>
      </trkpt>
      <trkpt lat="46.11302" lon="14.54672">
        <ele>300.684283</ele>
        <time>2026-07-11T14:06:28.000Z</time>
      </trkpt>
      <trkpt lat="46.11303" lon="14.54681">
        <ele>300.716908</ele>
        <time>2026-07-11T14:06:30.000Z</time>
      </trkpt>
      <trkpt lat="46.11307" lon="14.54694">
        <ele>300.772845</ele>
        <time>2026-07-11T14:06:33.000Z</time>
      </trkpt>
      <trkpt lat="46.11306" lon="14.54707">
        <ele>300.820238</ele>
        <time>2026-07-11T14:06:35.000Z</time>
      </trkpt>
      <trkpt lat="46.11302" lon="14.5472">
        <ele>300.872139</ele>
        <time>2026-07-11T14:06:37.000Z</time>
      </trkpt>
      <trkpt lat="46.11293" lon="14.54739">
        <ele>300.959175</ele>
        <time>2026-07-11T14:06:40.000Z</time>
      </trkpt>
      <trkpt lat="46.11285" lon="14.5475">
        <ele>301.016044</ele>
        <time>2026-07-11T14:06:42.000Z</time>
      </trkpt>
      <trkpt lat="46.11281" lon="14.54755">
        <ele>301.045736</ele>
        <time>2026-07-11T14:06:43.000Z</time>
      </trkpt>
      <trkpt lat="46.11271" lon="14.54763">
        <ele>301.06064</ele>
        <time>2026-07-11T14:06:45.000Z</time>
      </trkpt>
      <trkpt lat="46.1126" lon="14.54769">
        <ele>300.988241</ele>
        <time>2026-07-11T14:06:47.000Z</time>
      </trkpt>
      <trkpt lat="46.11255" lon="14.54771">
        <ele>300.951671</ele>
        <time>2026-07-11T14:06:48.000Z</time>
      </trkpt>
      <trkpt lat="46.11232" lon="14.54774">
        <ele>300.806249</ele>
        <time>2026-07-11T14:06:52.000Z</time>
      </trkpt>
      <trkpt lat="46.11183" lon="14.54774">
        <ele>300.490771</ele>
        <time>2026-07-11T14:07:00.000Z</time>
      </trkpt>
      <trkpt lat="46.11176" lon="14.54774">
        <ele>300.447982</ele>
        <time>2026-07-11T14:07:01.000Z</time>
      </trkpt>
      <trkpt lat="46.1114" lon="14.54771">
        <ele>300.217835</ele>
        <time>2026-07-11T14:07:06.000Z</time>
      </trkpt>
      <trkpt lat="46.11126" lon="14.54771">
        <ele>300.125857</ele>
        <time>2026-07-11T14:07:08.000Z</time>
      </trkpt>
      <trkpt lat="46.1108" lon="14.54768">
        <ele>300.052093</ele>
        <time>2026-07-11T14:07:14.000Z</time>
      </trkpt>
      <trkpt lat="46.1102" lon="14.54766">
        <ele>300.492555</ele>
        <time>2026-07-11T14:07:22.000Z</time>
      </trkpt>
      <trkpt lat="46.10997" lon="14.54766">
        <ele>300.656331</ele>
        <time>2026-07-11T14:07:25.000Z</time>
      </trkpt>
      <trkpt lat="46.10976" lon="14.54764">
        <ele>300.812992</ele>
        <time>2026-07-11T14:07:28.000Z</time>
      </trkpt>
      <trkpt lat="46.10964" lon="14.54758">
        <ele>300.905783</ele>
        <time>2026-07-11T14:07:30.000Z</time>
      </trkpt>
      <trkpt lat="46.10955" lon="14.54746">
        <ele>300.99323</ele>
        <time>2026-07-11T14:07:32.000Z</time>
      </trkpt>
      <trkpt lat="46.10952" lon="14.54738">
        <ele>301.03464</ele>
        <time>2026-07-11T14:07:33.000Z</time>
      </trkpt>
      <trkpt lat="46.10951" lon="14.54731">
        <ele>301.073753</ele>
        <time>2026-07-11T14:07:34.000Z</time>
      </trkpt>
      <trkpt lat="46.10949" lon="14.54711">
        <ele>301.173752</ele>
        <time>2026-07-11T14:07:37.000Z</time>
      </trkpt>
      <trkpt lat="46.10948" lon="14.54694">
        <ele>301.309254</ele>
        <time>2026-07-11T14:07:40.000Z</time>
      </trkpt>
      <trkpt lat="46.10948" lon="14.5467">
        <ele>301.722127</ele>
        <time>2026-07-11T14:07:44.000Z</time>
      </trkpt>
      <trkpt lat="46.10949" lon="14.54635">
        <ele>302.33794</ele>
        <time>2026-07-11T14:07:51.000Z</time>
      </trkpt>
      <trkpt lat="46.10945" lon="14.54607">
        <ele>302.827508</ele>
        <time>2026-07-11T14:07:57.000Z</time>
      </trkpt>
      <trkpt lat="46.10943" lon="14.54606">
        <ele>302.88626</ele>
        <time>2026-07-11T14:07:58.000Z</time>
      </trkpt>
      <trkpt lat="46.10935" lon="14.54605">
        <ele>303.083703</ele>
        <time>2026-07-11T14:08:00.000Z</time>
      </trkpt>
      <trkpt lat="46.1093" lon="14.546">
        <ele>303.245617</ele>
        <time>2026-07-11T14:08:02.000Z</time>
      </trkpt>
      <trkpt lat="46.10905" lon="14.5459">
        <ele>303.890032</ele>
        <time>2026-07-11T14:08:08.000Z</time>
      </trkpt>
      <trkpt lat="46.10886" lon="14.5459">
        <ele>304.364408</ele>
        <time>2026-07-11T14:08:12.000Z</time>
      </trkpt>
      <trkpt lat="46.10879" lon="14.54591">
        <ele>304.553944</ele>
        <time>2026-07-11T14:08:14.000Z</time>
      </trkpt>
      <trkpt lat="46.10874" lon="14.5459">
        <ele>304.667545</ele>
        <time>2026-07-11T14:08:15.000Z</time>
      </trkpt>
      <trkpt lat="46.10851" lon="14.5459">
        <ele>305.268244</ele>
        <time>2026-07-11T14:08:20.000Z</time>
      </trkpt>
      <trkpt lat="46.10829" lon="14.54589">
        <ele>305.791703</ele>
        <time>2026-07-11T14:08:24.000Z</time>
      </trkpt>
      <trkpt lat="46.10802" lon="14.54587">
        <ele>306.109002</ele>
        <time>2026-07-11T14:08:29.000Z</time>
      </trkpt>
      <trkpt lat="46.10785" lon="14.54585">
        <ele>306.30794</ele>
        <time>2026-07-11T14:08:32.000Z</time>
      </trkpt>
      <trkpt lat="46.10748" lon="14.5458">
        <ele>306.734661</ele>
        <time>2026-07-11T14:08:38.000Z</time>
      </trkpt>
      <trkpt lat="46.10705" lon="14.54567">
        <ele>307.247857</ele>
        <time>2026-07-11T14:08:45.000Z</time>
      </trkpt>
      <trkpt lat="46.10671" lon="14.54561">
        <ele>307.651769</ele>
        <time>2026-07-11T14:08:50.000Z</time>
      </trkpt>
      <trkpt lat="46.1064" lon="14.54558">
        <ele>307.58424</ele>
        <time>2026-07-11T14:08:54.000Z</time>
      </trkpt>
      <trkpt lat="46.10634" lon="14.54556">
        <ele>307.415334</ele>
        <time>2026-07-11T14:08:55.000Z</time>
      </trkpt>
      <trkpt lat="46.10586" lon="14.54536">
        <ele>306.172478</ele>
        <time>2026-07-11T14:09:02.000Z</time>
      </trkpt>
      <trkpt lat="46.10561" lon="14.54523">
        <ele>305.513039</ele>
        <time>2026-07-11T14:09:06.000Z</time>
      </trkpt>
      <trkpt lat="46.10551" lon="14.54514">
        <ele>305.215612</ele>
        <time>2026-07-11T14:09:08.000Z</time>
      </trkpt>
      <trkpt lat="46.1054" lon="14.54501">
        <ele>304.862608</ele>
        <time>2026-07-11T14:09:10.000Z</time>
      </trkpt>
      <trkpt lat="46.10523" lon="14.5448">
        <ele>304.311933</ele>
        <time>2026-07-11T14:09:13.000Z</time>
      </trkpt>
      <trkpt lat="46.1052" lon="14.54475">
        <ele>304.183805</ele>
        <time>2026-07-11T14:09:14.000Z</time>
      </trkpt>
      <trkpt lat="46.105" lon="14.54449">
        <ele>303.505214</ele>
        <time>2026-07-11T14:09:18.000Z</time>
      </trkpt>
      <trkpt lat="46.10483" lon="14.54411">
        <ele>303.351366</ele>
        <time>2026-07-11T14:09:23.000Z</time>
      </trkpt>
      <trkpt lat="46.1048" lon="14.54406">
        <ele>303.34712</ele>
        <time>2026-07-11T14:09:24.000Z</time>
      </trkpt>
      <trkpt lat="46.10474" lon="14.54401">
        <ele>303.340538</ele>
        <time>2026-07-11T14:09:26.000Z</time>
      </trkpt>
      <trkpt lat="46.1047" lon="14.54396">
        <ele>303.335196</ele>
        <time>2026-07-11T14:09:28.000Z</time>
      </trkpt>
      <trkpt lat="46.10468" lon="14.54389">
        <ele>303.330164</ele>
        <time>2026-07-11T14:09:30.000Z</time>
      </trkpt>
      <trkpt lat="46.10461" lon="14.54376">
        <ele>303.319265</ele>
        <time>2026-07-11T14:09:34.000Z</time>
      </trkpt>
      <trkpt lat="46.10449" lon="14.54363">
        <ele>303.304751</ele>
        <time>2026-07-11T14:09:38.000Z</time>
      </trkpt>
      <trkpt lat="46.10446" lon="14.54352">
        <ele>303.297092</ele>
        <time>2026-07-11T14:09:42.000Z</time>
      </trkpt>
      <trkpt lat="46.10446" lon="14.54352">
        <ele>303.297092</ele>
        <time>2026-07-11T14:09:44.000Z</time>
      </trkpt>
      <trkpt lat="46.1045" lon="14.54369">
        <ele>303.284869</ele>
        <time>2026-07-11T14:10:30.000Z</time>
      </trkpt>
      <trkpt lat="46.10451" lon="14.54355">
        <ele>303.275449</ele>
        <time>2026-07-11T14:10:36.000Z</time>
      </trkpt>
      <trkpt lat="46.10451" lon="14.54352">
        <ele>303.273198</ele>
        <time>2026-07-11T14:10:40.000Z</time>
      </trkpt>
      <trkpt lat="46.10448" lon="14.54356">
        <ele>303.269647</ele>
        <time>2026-07-11T14:10:48.000Z</time>
      </trkpt>
      <trkpt lat="46.1045" lon="14.54375">
        <ele>303.257256</ele>
        <time>2026-07-11T14:10:54.000Z</time>
      </trkpt>
      <trkpt lat="46.10451" lon="14.54377">
        <ele>303.255347</ele>
        <time>2026-07-11T14:10:57.000Z</time>
      </trkpt>
      <trkpt lat="46.10444" lon="14.54377">
        <ele>303.249331</ele>
        <time>2026-07-11T14:11:14.000Z</time>
      </trkpt>
      <trkpt lat="46.10441" lon="14.54379">
        <ele>303.245804</ele>
        <time>2026-07-11T14:11:16.000Z</time>
      </trkpt>
      <trkpt lat="46.1044" lon="14.54387">
        <ele>303.240472</ele>
        <time>2026-07-11T14:11:18.000Z</time>
      </trkpt>
      <trkpt lat="46.10439" lon="14.54415">
        <ele>303.221843</ele>
        <time>2026-07-11T14:11:23.000Z</time>
      </trkpt>
      <trkpt lat="46.10431" lon="14.54457">
        <ele>302.981752</ele>
        <time>2026-07-11T14:11:31.000Z</time>
      </trkpt>
      <trkpt lat="46.10422" lon="14.54482">
        <ele>302.598012</ele>
        <time>2026-07-11T14:11:37.000Z</time>
      </trkpt>
      <trkpt lat="46.1042" lon="14.54486">
        <ele>302.535699</ele>
        <time>2026-07-11T14:11:41.000Z</time>
      </trkpt>
      <trkpt lat="46.10418" lon="14.5449">
        <ele>302.462542</ele>
        <time>2026-07-11T14:12:33.000Z</time>
      </trkpt>
      <trkpt lat="46.10416" lon="14.54494">
        <ele>302.408373</ele>
        <time>2026-07-11T14:12:34.000Z</time>
      </trkpt>
      <trkpt lat="46.10415" lon="14.54497">
        <ele>302.355001</ele>
        <time>2026-07-11T14:12:35.000Z</time>
      </trkpt>
      <trkpt lat="46.10406" lon="14.54517">
        <ele>302.042085</ele>
        <time>2026-07-11T14:12:41.000Z</time>
      </trkpt>
      <trkpt lat="46.10406" lon="14.5452">
        <ele>302.000809</ele>
        <time>2026-07-11T14:12:42.000Z</time>
      </trkpt>
      <trkpt lat="46.10408" lon="14.54526">
        <ele>301.905786</ele>
        <time>2026-07-11T14:12:44.000Z</time>
      </trkpt>
      <trkpt lat="46.10411" lon="14.54527">
        <ele>301.856542</ele>
        <time>2026-07-11T14:12:45.000Z</time>
      </trkpt>
      <trkpt lat="46.10413" lon="14.54523">
        <ele>301.786129</ele>
        <time>2026-07-11T14:12:47.000Z</time>
      </trkpt>
      <trkpt lat="46.10425" lon="14.54494">
        <ele>301.333968</ele>
        <time>2026-07-11T14:12:55.000Z</time>
      </trkpt>
      <trkpt lat="46.10433" lon="14.54475">
        <ele>301.033866</ele>
        <time>2026-07-11T14:13:01.000Z</time>
      </trkpt>
      <trkpt lat="46.10445" lon="14.54454">
        <ele>300.678194</ele>
        <time>2026-07-11T14:13:08.000Z</time>
      </trkpt>
      <trkpt lat="46.10451" lon="14.54444">
        <ele>300.493832</ele>
        <time>2026-07-11T14:13:11.000Z</time>
      </trkpt>
      <trkpt lat="46.10454" lon="14.54435">
        <ele>300.349707</ele>
        <time>2026-07-11T14:13:13.000Z</time>
      </trkpt>
      <trkpt lat="46.10463" lon="14.54414">
        <ele>300.02356</ele>
        <time>2026-07-11T14:13:18.000Z</time>
      </trkpt>
      <trkpt lat="46.10466" lon="14.5441">
        <ele>299.956764</ele>
        <time>2026-07-11T14:13:19.000Z</time>
      </trkpt>
      <trkpt lat="46.10472" lon="14.54401">
        <ele>299.784858</ele>
        <time>2026-07-11T14:13:22.000Z</time>
      </trkpt>
      <trkpt lat="46.10474" lon="14.54394">
        <ele>299.689127</ele>
        <time>2026-07-11T14:13:24.000Z</time>
      </trkpt>
      <trkpt lat="46.10474" lon="14.54388">
        <ele>299.622385</ele>
        <time>2026-07-11T14:13:28.000Z</time>
      </trkpt>
      <trkpt lat="46.10476" lon="14.54384">
        <ele>299.575225</ele>
        <time>2026-07-11T14:13:45.000Z</time>
      </trkpt>
      <trkpt lat="46.10479" lon="14.54377">
        <ele>299.48907</ele>
        <time>2026-07-11T14:13:47.000Z</time>
      </trkpt>
      <trkpt lat="46.10481" lon="14.5436">
        <ele>299.306768</ele>
        <time>2026-07-11T14:13:51.000Z</time>
      </trkpt>
      <trkpt lat="46.1048" lon="14.54349">
        <ele>299.196087</ele>
        <time>2026-07-11T14:13:53.000Z</time>
      </trkpt>
      <trkpt lat="46.10482" lon="14.54327">
        <ele>298.957271</ele>
        <time>2026-07-11T14:13:59.000Z</time>
      </trkpt>
      <trkpt lat="46.10483" lon="14.54326">
        <ele>298.936233</ele>
        <time>2026-07-11T14:14:00.000Z</time>
      </trkpt>
      <trkpt lat="46.10487" lon="14.54324">
        <ele>298.871614</ele>
        <time>2026-07-11T14:14:02.000Z</time>
      </trkpt>
      <trkpt lat="46.10488" lon="14.54311">
        <ele>298.737752</ele>
        <time>2026-07-11T14:14:06.000Z</time>
      </trkpt>
      <trkpt lat="46.10488" lon="14.54285">
        <ele>298.466098</ele>
        <time>2026-07-11T14:14:11.000Z</time>
      </trkpt>
      <trkpt lat="46.10487" lon="14.54256">
        <ele>298.160492</ele>
        <time>2026-07-11T14:14:16.000Z</time>
      </trkpt>
      <trkpt lat="46.10486" lon="14.5423">
        <ele>297.889843</ele>
        <time>2026-07-11T14:14:20.000Z</time>
      </trkpt>
      <trkpt lat="46.10484" lon="14.54189">
        <ele>297.448739</ele>
        <time>2026-07-11T14:14:27.000Z</time>
      </trkpt>
      <trkpt lat="46.10484" lon="14.54177">
        <ele>297.325595</ele>
        <time>2026-07-11T14:14:29.000Z</time>
      </trkpt>
      <trkpt lat="46.10484" lon="14.54167">
        <ele>297.216092</ele>
        <time>2026-07-11T14:14:31.000Z</time>
      </trkpt>
      <trkpt lat="46.10484" lon="14.54143">
        <ele>296.995586</ele>
        <time>2026-07-11T14:14:35.000Z</time>
      </trkpt>
      <trkpt lat="46.10487" lon="14.54093">
        <ele>297.320467</ele>
        <time>2026-07-11T14:14:43.000Z</time>
      </trkpt>
      <trkpt lat="46.10486" lon="14.54057">
        <ele>297.557375</ele>
        <time>2026-07-11T14:14:49.000Z</time>
      </trkpt>
      <trkpt lat="46.10485" lon="14.54051">
        <ele>297.597016</ele>
        <time>2026-07-11T14:14:50.000Z</time>
      </trkpt>
      <trkpt lat="46.10485" lon="14.54046">
        <ele>297.62813</ele>
        <time>2026-07-11T14:14:51.000Z</time>
      </trkpt>
      <trkpt lat="46.10484" lon="14.54027">
        <ele>297.748928</ele>
        <time>2026-07-11T14:14:54.000Z</time>
      </trkpt>
      <trkpt lat="46.10485" lon="14.53986">
        <ele>298.014721</ele>
        <time>2026-07-11T14:15:01.000Z</time>
      </trkpt>
      <trkpt lat="46.10484" lon="14.53969">
        <ele>298.127176</ele>
        <time>2026-07-11T14:15:04.000Z</time>
      </trkpt>
      <trkpt lat="46.10483" lon="14.53934">
        <ele>298.357444</ele>
        <time>2026-07-11T14:15:10.000Z</time>
      </trkpt>
      <trkpt lat="46.10483" lon="14.53877">
        <ele>298.617192</ele>
        <time>2026-07-11T14:15:19.000Z</time>
      </trkpt>
      <trkpt lat="46.10483" lon="14.53872">
        <ele>298.580032</ele>
        <time>2026-07-11T14:15:20.000Z</time>
      </trkpt>
      <trkpt lat="46.10482" lon="14.53845">
        <ele>298.414735</ele>
        <time>2026-07-11T14:15:24.000Z</time>
      </trkpt>
      <trkpt lat="46.10481" lon="14.5384">
        <ele>298.382112</ele>
        <time>2026-07-11T14:15:25.000Z</time>
      </trkpt>
      <trkpt lat="46.10478" lon="14.53794">
        <ele>298.093731</ele>
        <time>2026-07-11T14:15:32.000Z</time>
      </trkpt>
      <trkpt lat="46.10475" lon="14.5376">
        <ele>297.879619</ele>
        <time>2026-07-11T14:15:38.000Z</time>
      </trkpt>
      <trkpt lat="46.10474" lon="14.53749">
        <ele>297.812157</ele>
        <time>2026-07-11T14:15:40.000Z</time>
      </trkpt>
      <trkpt lat="46.10466" lon="14.53699">
        <ele>297.491135</ele>
        <time>2026-07-11T14:15:49.000Z</time>
      </trkpt>
      <trkpt lat="46.10461" lon="14.53673">
        <ele>297.322558</ele>
        <time>2026-07-11T14:15:54.000Z</time>
      </trkpt>
      <trkpt lat="46.10456" lon="14.53653">
        <ele>297.190818</ele>
        <time>2026-07-11T14:15:58.000Z</time>
      </trkpt>
      <trkpt lat="46.10455" lon="14.53642">
        <ele>297.115979</ele>
        <time>2026-07-11T14:16:01.000Z</time>
      </trkpt>
      <trkpt lat="46.10456" lon="14.53641">
        <ele>297.112121</ele>
        <time>2026-07-11T14:16:03.000Z</time>
      </trkpt>
      <trkpt lat="46.10453" lon="14.53636">
        <ele>297.076667</ele>
        <time>2026-07-11T14:16:29.000Z</time>
      </trkpt>
      <trkpt lat="46.10451" lon="14.53629">
        <ele>297.040337</ele>
        <time>2026-07-11T14:16:31.000Z</time>
      </trkpt>
      <trkpt lat="46.10444" lon="14.53609">
        <ele>296.992526</ele>
        <time>2026-07-11T14:16:37.000Z</time>
      </trkpt>
      <trkpt lat="46.10444" lon="14.53608">
        <ele>296.990407</ele>
        <time>2026-07-11T14:16:39.000Z</time>
      </trkpt>
      <trkpt lat="46.1044" lon="14.53603">
        <ele>296.974683</ele>
        <time>2026-07-11T14:17:35.000Z</time>
      </trkpt>
      <trkpt lat="46.10433" lon="14.53583">
        <ele>296.926967</ele>
        <time>2026-07-11T14:17:40.000Z</time>
      </trkpt>
      <trkpt lat="46.1042" lon="14.53548">
        <ele>296.842667</ele>
        <time>2026-07-11T14:17:47.000Z</time>
      </trkpt>
      <trkpt lat="46.10414" lon="14.53531">
        <ele>296.803319</ele>
        <time>2026-07-11T14:17:50.000Z</time>
      </trkpt>
      <trkpt lat="46.10413" lon="14.5352">
        <ele>296.779345</ele>
        <time>2026-07-11T14:17:52.000Z</time>
      </trkpt>
      <trkpt lat="46.10413" lon="14.53509">
        <ele>296.755605</ele>
        <time>2026-07-11T14:17:54.000Z</time>
      </trkpt>
      <trkpt lat="46.10412" lon="14.53502">
        <ele>296.741557</ele>
        <time>2026-07-11T14:17:55.000Z</time>
      </trkpt>
      <trkpt lat="46.10406" lon="14.53484">
        <ele>296.698063</ele>
        <time>2026-07-11T14:17:58.000Z</time>
      </trkpt>
      <trkpt lat="46.10391" lon="14.53446">
        <ele>296.606275</ele>
        <time>2026-07-11T14:18:04.000Z</time>
      </trkpt>
      <trkpt lat="46.10373" lon="14.53402">
        <ele>296.494219</ele>
        <time>2026-07-11T14:18:11.000Z</time>
      </trkpt>
      <trkpt lat="46.10368" lon="14.53387">
        <ele>296.340618</ele>
        <time>2026-07-11T14:18:13.000Z</time>
      </trkpt>
      <trkpt lat="46.1036" lon="14.53365">
        <ele>296.116011</ele>
        <time>2026-07-11T14:18:16.000Z</time>
      </trkpt>
      <trkpt lat="46.1034" lon="14.53307">
        <ele>295.513464</ele>
        <time>2026-07-11T14:18:24.000Z</time>
      </trkpt>
      <trkpt lat="46.1032" lon="14.5325">
        <ele>294.917796</ele>
        <time>2026-07-11T14:18:32.000Z</time>
      </trkpt>
      <trkpt lat="46.103" lon="14.53194">
        <ele>294.338009</ele>
        <time>2026-07-11T14:18:40.000Z</time>
      </trkpt>
      <trkpt lat="46.10283" lon="14.53146">
        <ele>294.10343</ele>
        <time>2026-07-11T14:18:47.000Z</time>
      </trkpt>
      <trkpt lat="46.10267" lon="14.53101">
        <ele>294.121323</ele>
        <time>2026-07-11T14:18:54.000Z</time>
      </trkpt>
      <trkpt lat="46.1026" lon="14.53078">
        <ele>294.130107</ele>
        <time>2026-07-11T14:18:58.000Z</time>
      </trkpt>
      <trkpt lat="46.10259" lon="14.53074">
        <ele>294.131709</ele>
        <time>2026-07-11T14:18:59.000Z</time>
      </trkpt>
      <trkpt lat="46.10256" lon="14.53066">
        <ele>294.134772</ele>
        <time>2026-07-11T14:19:03.000Z</time>
      </trkpt>
      <trkpt lat="46.10256" lon="14.53066">
        <ele>294.134772</ele>
        <time>2026-07-11T14:19:04.000Z</time>
      </trkpt>
      <trkpt lat="46.10254" lon="14.53062">
        <ele>294.136517</ele>
        <time>2026-07-11T14:19:33.000Z</time>
      </trkpt>
      <trkpt lat="46.10254" lon="14.5306">
        <ele>294.137358</ele>
        <time>2026-07-11T14:19:34.000Z</time>
      </trkpt>
      <trkpt lat="46.10244" lon="14.53042">
        <ele>294.145511</ele>
        <time>2026-07-11T14:19:39.000Z</time>
      </trkpt>
      <trkpt lat="46.10236" lon="14.53016">
        <ele>294.155503</ele>
        <time>2026-07-11T14:19:44.000Z</time>
      </trkpt>
      <trkpt lat="46.10225" lon="14.52969">
        <ele>294.173081</ele>
        <time>2026-07-11T14:19:51.000Z</time>
      </trkpt>
      <trkpt lat="46.10207" lon="14.52906">
        <ele>293.871547</ele>
        <time>2026-07-11T14:20:00.000Z</time>
      </trkpt>
      <trkpt lat="46.10199" lon="14.52861">
        <ele>293.428474</ele>
        <time>2026-07-11T14:20:06.000Z</time>
      </trkpt>
      <trkpt lat="46.10194" lon="14.52839">
        <ele>293.20856</ele>
        <time>2026-07-11T14:20:09.000Z</time>
      </trkpt>
      <trkpt lat="46.10178" lon="14.52764">
        <ele>292.449388</ele>
        <time>2026-07-11T14:20:19.000Z</time>
      </trkpt>
      <trkpt lat="46.10174" lon="14.52743">
        <ele>292.245633</ele>
        <time>2026-07-11T14:20:22.000Z</time>
      </trkpt>
      <trkpt lat="46.10166" lon="14.52706">
        <ele>291.876444</ele>
        <time>2026-07-11T14:20:27.000Z</time>
      </trkpt>
      <trkpt lat="46.10163" lon="14.52694">
        <ele>291.749837</ele>
        <time>2026-07-11T14:20:29.000Z</time>
      </trkpt>
      <trkpt lat="46.10153" lon="14.52633">
        <ele>291.169761</ele>
        <time>2026-07-11T14:20:37.000Z</time>
      </trkpt>
      <trkpt lat="46.10145" lon="14.52594">
        <ele>290.803461</ele>
        <time>2026-07-11T14:20:42.000Z</time>
      </trkpt>
      <trkpt lat="46.1014" lon="14.52572">
        <ele>290.588083</ele>
        <time>2026-07-11T14:20:45.000Z</time>
      </trkpt>
      <trkpt lat="46.10133" lon="14.52543">
        <ele>290.309324</ele>
        <time>2026-07-11T14:20:49.000Z</time>
      </trkpt>
      <trkpt lat="46.10128" lon="14.52519">
        <ele>290.078954</ele>
        <time>2026-07-11T14:20:52.000Z</time>
      </trkpt>
      <trkpt lat="46.10124" lon="14.5249">
        <ele>289.80693</ele>
        <time>2026-07-11T14:20:56.000Z</time>
      </trkpt>
      <trkpt lat="46.10121" lon="14.52475">
        <ele>289.664441</ele>
        <time>2026-07-11T14:20:58.000Z</time>
      </trkpt>
      <trkpt lat="46.10111" lon="14.52416">
        <ele>289.82813</ele>
        <time>2026-07-11T14:21:06.000Z</time>
      </trkpt>
      <trkpt lat="46.10102" lon="14.52363">
        <ele>290.995797</ele>
        <time>2026-07-11T14:21:13.000Z</time>
      </trkpt>
      <trkpt lat="46.101" lon="14.52357">
        <ele>291.133248</ele>
        <time>2026-07-11T14:21:14.000Z</time>
      </trkpt>
      <trkpt lat="46.10092" lon="14.52304">
        <ele>292.283898</ele>
        <time>2026-07-11T14:21:21.000Z</time>
      </trkpt>
      <trkpt lat="46.10092" lon="14.52296">
        <ele>292.46913</ele>
        <time>2026-07-11T14:21:22.000Z</time>
      </trkpt>
      <trkpt lat="46.10089" lon="14.52281">
        <ele>292.788533</ele>
        <time>2026-07-11T14:21:24.000Z</time>
      </trkpt>
      <trkpt lat="46.10087" lon="14.52274">
        <ele>292.949761</ele>
        <time>2026-07-11T14:21:25.000Z</time>
      </trkpt>
      <trkpt lat="46.10086" lon="14.52245">
        <ele>293.56482</ele>
        <time>2026-07-11T14:21:29.000Z</time>
      </trkpt>
      <trkpt lat="46.10087" lon="14.52232">
        <ele>293.856337</ele>
        <time>2026-07-11T14:21:31.000Z</time>
      </trkpt>
      <trkpt lat="46.10087" lon="14.52218">
        <ele>294.14942</ele>
        <time>2026-07-11T14:21:33.000Z</time>
      </trkpt>
      <trkpt lat="46.10089" lon="14.52204">
        <ele>294.449804</ele>
        <time>2026-07-11T14:21:35.000Z</time>
      </trkpt>
      <trkpt lat="46.10092" lon="14.52174">
        <ele>295.082848</ele>
        <time>2026-07-11T14:21:39.000Z</time>
      </trkpt>
      <trkpt lat="46.10092" lon="14.52167">
        <ele>295.223098</ele>
        <time>2026-07-11T14:21:40.000Z</time>
      </trkpt>
      <trkpt lat="46.10092" lon="14.52153">
        <ele>295.478633</ele>
        <time>2026-07-11T14:21:42.000Z</time>
      </trkpt>
      <trkpt lat="46.10094" lon="14.5213">
        <ele>295.930873</ele>
        <time>2026-07-11T14:21:45.000Z</time>
      </trkpt>
      <trkpt lat="46.10095" lon="14.52122">
        <ele>296.081351</ele>
        <time>2026-07-11T14:21:46.000Z</time>
      </trkpt>
      <trkpt lat="46.10096" lon="14.52107">
        <ele>296.375882</ele>
        <time>2026-07-11T14:21:48.000Z</time>
      </trkpt>
      <trkpt lat="46.10098" lon="14.52093">
        <ele>296.65268</ele>
        <time>2026-07-11T14:21:50.000Z</time>
      </trkpt>
      <trkpt lat="46.10098" lon="14.52086">
        <ele>296.78473</ele>
        <time>2026-07-11T14:21:51.000Z</time>
      </trkpt>
      <trkpt lat="46.10105" lon="14.52051">
        <ele>297.477743</ele>
        <time>2026-07-11T14:21:56.000Z</time>
      </trkpt>
      <trkpt lat="46.10106" lon="14.52045">
        <ele>297.609999</ele>
        <time>2026-07-11T14:21:57.000Z</time>
      </trkpt>
      <trkpt lat="46.10106" lon="14.52038">
        <ele>297.741087</ele>
        <time>2026-07-11T14:21:58.000Z</time>
      </trkpt>
      <trkpt lat="46.10106" lon="14.52021">
        <ele>298.070126</ele>
        <time>2026-07-11T14:22:01.000Z</time>
      </trkpt>
      <trkpt lat="46.10105" lon="14.52008">
        <ele>298.3091</ele>
        <time>2026-07-11T14:22:03.000Z</time>
      </trkpt>
      <trkpt lat="46.10102" lon="14.51998">
        <ele>298.520158</ele>
        <time>2026-07-11T14:22:05.000Z</time>
      </trkpt>
      <trkpt lat="46.10095" lon="14.51989">
        <ele>298.785123</ele>
        <time>2026-07-11T14:22:07.000Z</time>
      </trkpt>
      <trkpt lat="46.10081" lon="14.51958">
        <ele>299.495982</ele>
        <time>2026-07-11T14:22:12.000Z</time>
      </trkpt>
      <trkpt lat="46.10079" lon="14.51951">
        <ele>299.633749</ele>
        <time>2026-07-11T14:22:13.000Z</time>
      </trkpt>
      <trkpt lat="46.10053" lon="14.5189">
        <ele>298.565782</ele>
        <time>2026-07-11T14:22:23.000Z</time>
      </trkpt>
      <trkpt lat="46.10032" lon="14.5184">
        <ele>297.299263</ele>
        <time>2026-07-11T14:22:31.000Z</time>
      </trkpt>
      <trkpt lat="46.10005" lon="14.51783">
        <ele>295.829124</ele>
        <time>2026-07-11T14:22:40.000Z</time>
      </trkpt>
      <trkpt lat="46.09973" lon="14.51713">
        <ele>294.213573</ele>
        <time>2026-07-11T14:22:52.000Z</time>
      </trkpt>
      <trkpt lat="46.09957" lon="14.51687">
        <ele>294.049471</ele>
        <time>2026-07-11T14:22:58.000Z</time>
      </trkpt>
      <trkpt lat="46.09954" lon="14.51678">
        <ele>293.999338</ele>
        <time>2026-07-11T14:23:00.000Z</time>
      </trkpt>
      <trkpt lat="46.09951" lon="14.51666">
        <ele>293.939681</ele>
        <time>2026-07-11T14:23:02.000Z</time>
      </trkpt>
      <trkpt lat="46.09946" lon="14.51654">
        <ele>293.877158</ele>
        <time>2026-07-11T14:23:04.000Z</time>
      </trkpt>
      <trkpt lat="46.09941" lon="14.51648">
        <ele>293.829713</ele>
        <time>2026-07-11T14:23:06.000Z</time>
      </trkpt>
      <trkpt lat="46.09934" lon="14.51649">
        <ele>293.78305</ele>
        <time>2026-07-11T14:23:08.000Z</time>
      </trkpt>
      <trkpt lat="46.09931" lon="14.51651">
        <ele>293.756414</ele>
        <time>2026-07-11T14:23:09.000Z</time>
      </trkpt>
      <trkpt lat="46.09924" lon="14.51655">
        <ele>293.704749</ele>
        <time>2026-07-11T14:23:11.000Z</time>
      </trkpt>
      <trkpt lat="46.09915" lon="14.51653">
        <ele>293.64285</ele>
        <time>2026-07-11T14:23:13.000Z</time>
      </trkpt>
      <trkpt lat="46.09894" lon="14.51642">
        <ele>293.494491</ele>
        <time>2026-07-11T14:23:17.000Z</time>
      </trkpt>
      <trkpt lat="46.09889" lon="14.51642">
        <ele>293.459683</ele>
        <time>2026-07-11T14:23:18.000Z</time>
      </trkpt>
      <trkpt lat="46.09885" lon="14.51642">
        <ele>293.42831</ele>
        <time>2026-07-11T14:23:19.000Z</time>
      </trkpt>
      <trkpt lat="46.09862" lon="14.51648">
        <ele>293.270507</ele>
        <time>2026-07-11T14:23:23.000Z</time>
      </trkpt>
      <trkpt lat="46.09834" lon="14.51667">
        <ele>293.060476</ele>
        <time>2026-07-11T14:23:28.000Z</time>
      </trkpt>
      <trkpt lat="46.09807" lon="14.51684">
        <ele>293.207836</ele>
        <time>2026-07-11T14:23:33.000Z</time>
      </trkpt>
      <trkpt lat="46.09797" lon="14.5169">
        <ele>293.277521</ele>
        <time>2026-07-11T14:23:35.000Z</time>
      </trkpt>
      <trkpt lat="46.09791" lon="14.51693">
        <ele>293.312374</ele>
        <time>2026-07-11T14:23:36.000Z</time>
      </trkpt>
      <trkpt lat="46.09786" lon="14.51693">
        <ele>293.34482</ele>
        <time>2026-07-11T14:23:37.000Z</time>
      </trkpt>
      <trkpt lat="46.09774" lon="14.51693">
        <ele>293.41709</ele>
        <time>2026-07-11T14:23:39.000Z</time>
      </trkpt>
      <trkpt lat="46.09736" lon="14.51698">
        <ele>293.649932</ele>
        <time>2026-07-11T14:23:46.000Z</time>
      </trkpt>
      <trkpt lat="46.09731" lon="14.51697">
        <ele>293.684868</ele>
        <time>2026-07-11T14:23:47.000Z</time>
      </trkpt>
      <trkpt lat="46.09719" lon="14.51695">
        <ele>293.75644</ele>
        <time>2026-07-11T14:23:49.000Z</time>
      </trkpt>
      <trkpt lat="46.09708" lon="14.51694">
        <ele>293.825195</ele>
        <time>2026-07-11T14:23:51.000Z</time>
      </trkpt>
      <trkpt lat="46.09697" lon="14.51692">
        <ele>293.893124</ele>
        <time>2026-07-11T14:23:53.000Z</time>
      </trkpt>
      <trkpt lat="46.09659" lon="14.5168">
        <ele>294.129983</ele>
        <time>2026-07-11T14:24:00.000Z</time>
      </trkpt>
      <trkpt lat="46.09612" lon="14.51659">
        <ele>294.137139</ele>
        <time>2026-07-11T14:24:09.000Z</time>
      </trkpt>
      <trkpt lat="46.09564" lon="14.51647">
        <ele>294.12864</ele>
        <time>2026-07-11T14:24:17.000Z</time>
      </trkpt>
      <trkpt lat="46.09533" lon="14.51636">
        <ele>294.123144</ele>
        <time>2026-07-11T14:24:23.000Z</time>
      </trkpt>
      <trkpt lat="46.09506" lon="14.5162">
        <ele>294.118102</ele>
        <time>2026-07-11T14:24:29.000Z</time>
      </trkpt>
      <trkpt lat="46.09469" lon="14.51586">
        <ele>294.147274</ele>
        <time>2026-07-11T14:24:39.000Z</time>
      </trkpt>
      <trkpt lat="46.09452" lon="14.51572">
        <ele>294.178658</ele>
        <time>2026-07-11T14:24:45.000Z</time>
      </trkpt>
      <trkpt lat="46.09429" lon="14.51558">
        <ele>294.219124</ele>
        <time>2026-07-11T14:24:52.000Z</time>
      </trkpt>
      <trkpt lat="46.09399" lon="14.51544">
        <ele>294.270708</ele>
        <time>2026-07-11T14:25:00.000Z</time>
      </trkpt>
      <trkpt lat="46.09387" lon="14.5154">
        <ele>294.290314</ele>
        <time>2026-07-11T14:25:03.000Z</time>
      </trkpt>
      <trkpt lat="46.09383" lon="14.51539">
        <ele>294.297313</ele>
        <time>2026-07-11T14:25:04.000Z</time>
      </trkpt>
      <trkpt lat="46.09365" lon="14.5153">
        <ele>294.327936</ele>
        <time>2026-07-11T14:25:08.000Z</time>
      </trkpt>
      <trkpt lat="46.09357" lon="14.51525">
        <ele>294.341745</ele>
        <time>2026-07-11T14:25:10.000Z</time>
      </trkpt>
      <trkpt lat="46.0935" lon="14.51521">
        <ele>294.354381</ele>
        <time>2026-07-11T14:25:12.000Z</time>
      </trkpt>
      <trkpt lat="46.09315" lon="14.51504">
        <ele>294.617466</ele>
        <time>2026-07-11T14:25:21.000Z</time>
      </trkpt>
      <trkpt lat="46.09299" lon="14.51495">
        <ele>295.276717</ele>
        <time>2026-07-11T14:25:26.000Z</time>
      </trkpt>
      <trkpt lat="46.09293" lon="14.51491">
        <ele>295.52618</ele>
        <time>2026-07-11T14:25:28.000Z</time>
      </trkpt>
      <trkpt lat="46.0926" lon="14.51473">
        <ele>296.871901</ele>
        <time>2026-07-11T14:25:38.000Z</time>
      </trkpt>
      <trkpt lat="46.09227" lon="14.51449">
        <ele>298.259488</ele>
        <time>2026-07-11T14:25:48.000Z</time>
      </trkpt>
      <trkpt lat="46.09202" lon="14.51433">
        <ele>299.301425</ele>
        <time>2026-07-11T14:25:55.000Z</time>
      </trkpt>
      <trkpt lat="46.09198" lon="14.5143">
        <ele>299.470687</ele>
        <time>2026-07-11T14:25:56.000Z</time>
      </trkpt>
      <trkpt lat="46.09172" lon="14.51411">
        <ele>300.59847</ele>
        <time>2026-07-11T14:26:03.000Z</time>
      </trkpt>
      <trkpt lat="46.09169" lon="14.51409">
        <ele>300.732308</ele>
        <time>2026-07-11T14:26:04.000Z</time>
      </trkpt>
      <trkpt lat="46.09141" lon="14.51388">
        <ele>301.906219</ele>
        <time>2026-07-11T14:26:12.000Z</time>
      </trkpt>
      <trkpt lat="46.09117" lon="14.51377">
        <ele>302.868451</ele>
        <time>2026-07-11T14:26:18.000Z</time>
      </trkpt>
      <trkpt lat="46.09099" lon="14.51374">
        <ele>303.556425</ele>
        <time>2026-07-11T14:26:23.000Z</time>
      </trkpt>
      <trkpt lat="46.09097" lon="14.51373">
        <ele>303.641904</ele>
        <time>2026-07-11T14:26:26.000Z</time>
      </trkpt>
      <trkpt lat="46.09093" lon="14.51373">
        <ele>303.806066</ele>
        <time>2026-07-11T14:26:32.000Z</time>
      </trkpt>
      <trkpt lat="46.09088" lon="14.51373">
        <ele>304.00487</ele>
        <time>2026-07-11T14:26:34.000Z</time>
      </trkpt>
      <trkpt lat="46.09068" lon="14.51376">
        <ele>304.770228</ele>
        <time>2026-07-11T14:26:40.000Z</time>
      </trkpt>
      <trkpt lat="46.09045" lon="14.51375">
        <ele>305.641156</ele>
        <time>2026-07-11T14:26:46.000Z</time>
      </trkpt>
      <trkpt lat="46.09025" lon="14.51374">
        <ele>306.412705</ele>
        <time>2026-07-11T14:26:51.000Z</time>
      </trkpt>
      <trkpt lat="46.09015" lon="14.51375">
        <ele>306.771815</ele>
        <time>2026-07-11T14:26:53.000Z</time>
      </trkpt>
      <trkpt lat="46.08993" lon="14.51376">
        <ele>307.623863</ele>
        <time>2026-07-11T14:26:58.000Z</time>
      </trkpt>
      <trkpt lat="46.0899" lon="14.51375">
        <ele>307.751616</ele>
        <time>2026-07-11T14:26:59.000Z</time>
      </trkpt>
      <trkpt lat="46.08986" lon="14.51374">
        <ele>307.898634</ele>
        <time>2026-07-11T14:27:00.000Z</time>
      </trkpt>
      <trkpt lat="46.08967" lon="14.51372">
        <ele>308.462831</ele>
        <time>2026-07-11T14:27:05.000Z</time>
      </trkpt>
      <trkpt lat="46.08961" lon="14.51368">
        <ele>308.616202</ele>
        <time>2026-07-11T14:27:08.000Z</time>
      </trkpt>
      <trkpt lat="46.08961" lon="14.51368">
        <ele>308.631684</ele>
        <time>2026-07-11T14:27:09.000Z</time>
      </trkpt>
      <trkpt lat="46.08956" lon="14.51368">
        <ele>308.757433</ele>
        <time>2026-07-11T14:27:46.000Z</time>
      </trkpt>
      <trkpt lat="46.08951" lon="14.51368">
        <ele>308.871046</ele>
        <time>2026-07-11T14:27:48.000Z</time>
      </trkpt>
      <trkpt lat="46.08941" lon="14.5137">
        <ele>309.134234</ele>
        <time>2026-07-11T14:27:52.000Z</time>
      </trkpt>
      <trkpt lat="46.08922" lon="14.51376">
        <ele>309.616624</ele>
        <time>2026-07-11T14:27:57.000Z</time>
      </trkpt>
      <trkpt lat="46.08909" lon="14.51377">
        <ele>309.96126</ele>
        <time>2026-07-11T14:28:00.000Z</time>
      </trkpt>
      <trkpt lat="46.08904" lon="14.51377">
        <ele>310.076958</ele>
        <time>2026-07-11T14:28:01.000Z</time>
      </trkpt>
      <trkpt lat="46.08889" lon="14.51379">
        <ele>310.454849</ele>
        <time>2026-07-11T14:28:04.000Z</time>
      </trkpt>
      <trkpt lat="46.08867" lon="14.51377">
        <ele>311.008397</ele>
        <time>2026-07-11T14:28:08.000Z</time>
      </trkpt>
      <trkpt lat="46.08851" lon="14.51376">
        <ele>311.416298</ele>
        <time>2026-07-11T14:28:11.000Z</time>
      </trkpt>
      <trkpt lat="46.08825" lon="14.51376">
        <ele>312.067437</ele>
        <time>2026-07-11T14:28:16.000Z</time>
      </trkpt>
      <trkpt lat="46.08815" lon="14.51379">
        <ele>312.321409</ele>
        <time>2026-07-11T14:28:18.000Z</time>
      </trkpt>
      <trkpt lat="46.0881" lon="14.51379">
        <ele>312.447412</ele>
        <time>2026-07-11T14:28:19.000Z</time>
      </trkpt>
      <trkpt lat="46.088" lon="14.51378">
        <ele>312.67596</ele>
        <time>2026-07-11T14:28:21.000Z</time>
      </trkpt>
      <trkpt lat="46.0879" lon="14.51379">
        <ele>312.858011</ele>
        <time>2026-07-11T14:28:23.000Z</time>
      </trkpt>
      <trkpt lat="46.08775" lon="14.51383">
        <ele>313.144858</ele>
        <time>2026-07-11T14:28:26.000Z</time>
      </trkpt>
      <trkpt lat="46.08764" lon="14.51384">
        <ele>313.333582</ele>
        <time>2026-07-11T14:28:28.000Z</time>
      </trkpt>
      <trkpt lat="46.08741" lon="14.51381">
        <ele>313.749716</ele>
        <time>2026-07-11T14:28:33.000Z</time>
      </trkpt>
      <trkpt lat="46.08727" lon="14.51382">
        <ele>314.001519</ele>
        <time>2026-07-11T14:28:36.000Z</time>
      </trkpt>
      <trkpt lat="46.08692" lon="14.51382">
        <ele>314.632054</ele>
        <time>2026-07-11T14:28:43.000Z</time>
      </trkpt>
      <trkpt lat="46.08676" lon="14.51381">
        <ele>314.916583</ele>
        <time>2026-07-11T14:28:45.000Z</time>
      </trkpt>
      <trkpt lat="46.08641" lon="14.51378">
        <ele>315.546583</ele>
        <time>2026-07-11T14:28:53.000Z</time>
      </trkpt>
      <trkpt lat="46.08607" lon="14.51378">
        <ele>315.785153</ele>
        <time>2026-07-11T14:29:00.000Z</time>
      </trkpt>
      <trkpt lat="46.08602" lon="14.51379">
        <ele>315.758825</ele>
        <time>2026-07-11T14:29:01.000Z</time>
      </trkpt>
      <trkpt lat="46.08597" lon="14.5138">
        <ele>315.732609</ele>
        <time>2026-07-11T14:29:02.000Z</time>
      </trkpt>
      <trkpt lat="46.08576" lon="14.51381">
        <ele>315.626477</ele>
        <time>2026-07-11T14:29:06.000Z</time>
      </trkpt>
      <trkpt lat="46.0854" lon="14.51375">
        <ele>315.433754</ele>
        <time>2026-07-11T14:29:13.000Z</time>
      </trkpt>
      <trkpt lat="46.08535" lon="14.51374">
        <ele>315.410798</ele>
        <time>2026-07-11T14:29:14.000Z</time>
      </trkpt>
      <trkpt lat="46.08529" lon="14.51372">
        <ele>315.377752</ele>
        <time>2026-07-11T14:29:15.000Z</time>
      </trkpt>
      <trkpt lat="46.08512" lon="14.51369">
        <ele>315.285386</ele>
        <time>2026-07-11T14:29:19.000Z</time>
      </trkpt>
      <trkpt lat="46.08503" lon="14.51367">
        <ele>315.239511</ele>
        <time>2026-07-11T14:29:21.000Z</time>
      </trkpt>
      <trkpt lat="46.08488" lon="14.51368">
        <ele>315.159903</ele>
        <time>2026-07-11T14:29:24.000Z</time>
      </trkpt>
      <trkpt lat="46.08456" lon="14.51359">
        <ele>314.989103</ele>
        <time>2026-07-11T14:29:32.000Z</time>
      </trkpt>
      <trkpt lat="46.08443" lon="14.51357">
        <ele>314.921227</ele>
        <time>2026-07-11T14:29:35.000Z</time>
      </trkpt>
      <trkpt lat="46.08433" lon="14.51355">
        <ele>314.826295</ele>
        <time>2026-07-11T14:29:38.000Z</time>
      </trkpt>
      <trkpt lat="46.08417" lon="14.51346">
        <ele>314.67922</ele>
        <time>2026-07-11T14:29:44.000Z</time>
      </trkpt>
      <trkpt lat="46.08408" lon="14.51338">
        <ele>314.590943</ele>
        <time>2026-07-11T14:29:48.000Z</time>
      </trkpt>
      <trkpt lat="46.08406" lon="14.51337">
        <ele>314.575654</ele>
        <time>2026-07-11T14:29:49.000Z</time>
      </trkpt>
      <trkpt lat="46.08405" lon="14.51337">
        <ele>314.56184</ele>
        <time>2026-07-11T14:29:50.000Z</time>
      </trkpt>
      <trkpt lat="46.084" lon="14.51341">
        <ele>314.515362</ele>
        <time>2026-07-11T14:29:53.000Z</time>
      </trkpt>
      <trkpt lat="46.08399" lon="14.51341">
        <ele>314.502369</ele>
        <time>2026-07-11T14:29:54.000Z</time>
      </trkpt>
      <trkpt lat="46.08394" lon="14.51341">
        <ele>314.464118</ele>
        <time>2026-07-11T14:29:57.000Z</time>
      </trkpt>
      <trkpt lat="46.08394" lon="14.51341">
        <ele>314.458942</ele>
        <time>2026-07-11T14:29:58.000Z</time>
      </trkpt>
      <trkpt lat="46.08394" lon="14.51341">
        <ele>314.458942</ele>
        <time>2026-07-11T14:30:00.000Z</time>
      </trkpt>
      <trkpt lat="46.08389" lon="14.51341">
        <ele>314.423256</ele>
        <time>2026-07-11T14:30:10.000Z</time>
      </trkpt>
      <trkpt lat="46.08388" lon="14.51342">
        <ele>314.407628</ele>
        <time>2026-07-11T14:30:11.000Z</time>
      </trkpt>
      <trkpt lat="46.08368" lon="14.51341">
        <ele>314.235019</ele>
        <time>2026-07-11T14:30:17.000Z</time>
      </trkpt>
      <trkpt lat="46.08338" lon="14.51333">
        <ele>313.976648</ele>
        <time>2026-07-11T14:30:25.000Z</time>
      </trkpt>
      <trkpt lat="46.08331" lon="14.51331">
        <ele>313.915968</ele>
        <time>2026-07-11T14:30:27.000Z</time>
      </trkpt>
      <trkpt lat="46.08326" lon="14.51328">
        <ele>313.869054</ele>
        <time>2026-07-11T14:30:29.000Z</time>
      </trkpt>
      <trkpt lat="46.08319" lon="14.51324">
        <ele>313.804909</ele>
        <time>2026-07-11T14:30:32.000Z</time>
      </trkpt>
      <trkpt lat="46.08307" lon="14.51316">
        <ele>313.685607</ele>
        <time>2026-07-11T14:30:36.000Z</time>
      </trkpt>
      <trkpt lat="46.08293" lon="14.51319">
        <ele>313.566642</ele>
        <time>2026-07-11T14:30:40.000Z</time>
      </trkpt>
      <trkpt lat="46.0829" lon="14.51317">
        <ele>313.540068</ele>
        <time>2026-07-11T14:30:41.000Z</time>
      </trkpt>
      <trkpt lat="46.08287" lon="14.51316">
        <ele>313.512532</ele>
        <time>2026-07-11T14:30:42.000Z</time>
      </trkpt>
      <trkpt lat="46.08278" lon="14.51317">
        <ele>313.437339</ele>
        <time>2026-07-11T14:30:44.000Z</time>
      </trkpt>
      <trkpt lat="46.08273" lon="14.51318">
        <ele>313.391236</ele>
        <time>2026-07-11T14:30:45.000Z</time>
      </trkpt>
      <trkpt lat="46.0826" lon="14.51323">
        <ele>314.47679</ele>
        <time>2026-07-11T14:30:48.000Z</time>
      </trkpt>
      <trkpt lat="46.08254" lon="14.51323">
        <ele>314.97276</ele>
        <time>2026-07-11T14:30:49.000Z</time>
      </trkpt>
      <trkpt lat="46.08246" lon="14.51324">
        <ele>315.775485</ele>
        <time>2026-07-11T14:30:51.000Z</time>
      </trkpt>
      <trkpt lat="46.08226" lon="14.51314">
        <ele>317.666548</ele>
        <time>2026-07-11T14:30:55.000Z</time>
      </trkpt>
      <trkpt lat="46.08211" lon="14.51305">
        <ele>319.059513</ele>
        <time>2026-07-11T14:30:58.000Z</time>
      </trkpt>
      <trkpt lat="46.08202" lon="14.51297">
        <ele>320.049067</ele>
        <time>2026-07-11T14:31:00.000Z</time>
      </trkpt>
      <trkpt lat="46.08198" lon="14.51295">
        <ele>320.403225</ele>
        <time>2026-07-11T14:31:01.000Z</time>
      </trkpt>
      <trkpt lat="46.08194" lon="14.51292">
        <ele>320.863765</ele>
        <time>2026-07-11T14:31:02.000Z</time>
      </trkpt>
      <trkpt lat="46.08186" lon="14.51294">
        <ele>321.622551</ele>
        <time>2026-07-11T14:31:04.000Z</time>
      </trkpt>
      <trkpt lat="46.08176" lon="14.51294">
        <ele>322.443687</ele>
        <time>2026-07-11T14:31:06.000Z</time>
      </trkpt>
      <trkpt lat="46.08168" lon="14.51293">
        <ele>323.186874</ele>
        <time>2026-07-11T14:31:08.000Z</time>
      </trkpt>
      <trkpt lat="46.08154" lon="14.51295">
        <ele>324.481198</ele>
        <time>2026-07-11T14:31:11.000Z</time>
      </trkpt>
      <trkpt lat="46.08128" lon="14.51297">
        <ele>326.812813</ele>
        <time>2026-07-11T14:31:16.000Z</time>
      </trkpt>
      <trkpt lat="46.08115" lon="14.51292">
        <ele>328.071196</ele>
        <time>2026-07-11T14:31:19.000Z</time>
      </trkpt>
      <trkpt lat="46.08107" lon="14.51289">
        <ele>328.797335</ele>
        <time>2026-07-11T14:31:21.000Z</time>
      </trkpt>
      <trkpt lat="46.08083" lon="14.51289">
        <ele>329.916303</ele>
        <time>2026-07-11T14:31:27.000Z</time>
      </trkpt>
      <trkpt lat="46.08063" lon="14.51289">
        <ele>330.309604</ele>
        <time>2026-07-11T14:31:32.000Z</time>
      </trkpt>
      <trkpt lat="46.08042" lon="14.51278">
        <ele>330.764389</ele>
        <time>2026-07-11T14:31:37.000Z</time>
      </trkpt>
      <trkpt lat="46.0803" lon="14.51276">
        <ele>331.030645</ele>
        <time>2026-07-11T14:31:40.000Z</time>
      </trkpt>
      <trkpt lat="46.08021" lon="14.51271">
        <ele>331.218695</ele>
        <time>2026-07-11T14:31:42.000Z</time>
      </trkpt>
      <trkpt lat="46.08006" lon="14.51261">
        <ele>331.546229</ele>
        <time>2026-07-11T14:31:46.000Z</time>
      </trkpt>
      <trkpt lat="46.07996" lon="14.51257">
        <ele>331.775737</ele>
        <time>2026-07-11T14:31:49.000Z</time>
      </trkpt>
      <trkpt lat="46.07972" lon="14.51251">
        <ele>332.268169</ele>
        <time>2026-07-11T14:31:56.000Z</time>
      </trkpt>
      <trkpt lat="46.07946" lon="14.51243">
        <ele>332.814512</ele>
        <time>2026-07-11T14:32:04.000Z</time>
      </trkpt>
      <trkpt lat="46.07922" lon="14.51239">
        <ele>333.182336</ele>
        <time>2026-07-11T14:32:10.000Z</time>
      </trkpt>
      <trkpt lat="46.07882" lon="14.51229">
        <ele>330.699495</ele>
        <time>2026-07-11T14:32:18.000Z</time>
      </trkpt>
      <trkpt lat="46.07878" lon="14.51229">
        <ele>330.470644</ele>
        <time>2026-07-11T14:32:19.000Z</time>
      </trkpt>
      <trkpt lat="46.07837" lon="14.51219">
        <ele>327.895136</ele>
        <time>2026-07-11T14:32:27.000Z</time>
      </trkpt>
      <trkpt lat="46.07823" lon="14.51217">
        <ele>327.019429</ele>
        <time>2026-07-11T14:32:30.000Z</time>
      </trkpt>
      <trkpt lat="46.07813" lon="14.51216">
        <ele>326.414845</ele>
        <time>2026-07-11T14:32:32.000Z</time>
      </trkpt>
      <trkpt lat="46.078" lon="14.51212">
        <ele>325.600086</ele>
        <time>2026-07-11T14:32:35.000Z</time>
      </trkpt>
      <trkpt lat="46.0779" lon="14.51212">
        <ele>324.958616</ele>
        <time>2026-07-11T14:32:37.000Z</time>
      </trkpt>
      <trkpt lat="46.07761" lon="14.51209">
        <ele>323.162951</ele>
        <time>2026-07-11T14:32:43.000Z</time>
      </trkpt>
      <trkpt lat="46.07756" lon="14.51207">
        <ele>322.87988</ele>
        <time>2026-07-11T14:32:44.000Z</time>
      </trkpt>
      <trkpt lat="46.07739" lon="14.51199">
        <ele>322.003243</ele>
        <time>2026-07-11T14:32:48.000Z</time>
      </trkpt>
      <trkpt lat="46.07733" lon="14.51193">
        <ele>321.77368</ele>
        <time>2026-07-11T14:32:50.000Z</time>
      </trkpt>
      <trkpt lat="46.07699" lon="14.51187">
        <ele>320.806786</ele>
        <time>2026-07-11T14:32:59.000Z</time>
      </trkpt>
      <trkpt lat="46.07687" lon="14.51184">
        <ele>320.468814</ele>
        <time>2026-07-11T14:33:04.000Z</time>
      </trkpt>
      <trkpt lat="46.07678" lon="14.5118">
        <ele>320.221093</ele>
        <time>2026-07-11T14:33:09.000Z</time>
      </trkpt>
      <trkpt lat="46.07678" lon="14.51179">
        <ele>320.211436</ele>
        <time>2026-07-11T14:33:10.000Z</time>
      </trkpt>
      <trkpt lat="46.07674" lon="14.51179">
        <ele>320.078605</ele>
        <time>2026-07-11T14:33:15.000Z</time>
      </trkpt>
      <trkpt lat="46.07668" lon="14.51179">
        <ele>319.92895</ele>
        <time>2026-07-11T14:33:17.000Z</time>
      </trkpt>
      <trkpt lat="46.07651" lon="14.51175">
        <ele>319.436403</ele>
        <time>2026-07-11T14:33:23.000Z</time>
      </trkpt>
      <trkpt lat="46.0762" lon="14.51168">
        <ele>318.541797</ele>
        <time>2026-07-11T14:33:31.000Z</time>
      </trkpt>
      <trkpt lat="46.07591" lon="14.51162">
        <ele>317.724084</ele>
        <time>2026-07-11T14:33:37.000Z</time>
      </trkpt>
      <trkpt lat="46.07582" lon="14.5116">
        <ele>317.470843</ele>
        <time>2026-07-11T14:33:39.000Z</time>
      </trkpt>
      <trkpt lat="46.07564" lon="14.51153">
        <ele>317.49029</ele>
        <time>2026-07-11T14:33:43.000Z</time>
      </trkpt>
      <trkpt lat="46.07542" lon="14.51155">
        <ele>318.712654</ele>
        <time>2026-07-11T14:33:47.000Z</time>
      </trkpt>
      <trkpt lat="46.07534" lon="14.5115">
        <ele>319.214461</ele>
        <time>2026-07-11T14:33:49.000Z</time>
      </trkpt>
      <trkpt lat="46.07516" lon="14.51141">
        <ele>320.354112</ele>
        <time>2026-07-11T14:33:53.000Z</time>
      </trkpt>
      <trkpt lat="46.0751" lon="14.51141">
        <ele>320.660909</ele>
        <time>2026-07-11T14:33:54.000Z</time>
      </trkpt>
      <trkpt lat="46.07489" lon="14.51136">
        <ele>321.88763</ele>
        <time>2026-07-11T14:33:59.000Z</time>
      </trkpt>
      <trkpt lat="46.07481" lon="14.51133">
        <ele>322.365656</ele>
        <time>2026-07-11T14:34:01.000Z</time>
      </trkpt>
      <trkpt lat="46.07454" lon="14.51126">
        <ele>323.986338</ele>
        <time>2026-07-11T14:34:08.000Z</time>
      </trkpt>
      <trkpt lat="46.07436" lon="14.51119">
        <ele>325.065604</ele>
        <time>2026-07-11T14:34:13.000Z</time>
      </trkpt>
      <trkpt lat="46.07416" lon="14.51116">
        <ele>326.232276</ele>
        <time>2026-07-11T14:34:18.000Z</time>
      </trkpt>
      <trkpt lat="46.0739" lon="14.5111">
        <ele>327.464831</ele>
        <time>2026-07-11T14:34:24.000Z</time>
      </trkpt>
      <trkpt lat="46.07365" lon="14.51099">
        <ele>327.174373</ele>
        <time>2026-07-11T14:34:29.000Z</time>
      </trkpt>
      <trkpt lat="46.0736" lon="14.51097">
        <ele>327.115123</ele>
        <time>2026-07-11T14:34:30.000Z</time>
      </trkpt>
      <trkpt lat="46.07346" lon="14.51096">
        <ele>326.957828</ele>
        <time>2026-07-11T14:34:33.000Z</time>
      </trkpt>
      <trkpt lat="46.0734" lon="14.51095">
        <ele>326.895557</ele>
        <time>2026-07-11T14:34:34.000Z</time>
      </trkpt>
      <trkpt lat="46.07304" lon="14.51088">
        <ele>326.493101</ele>
        <time>2026-07-11T14:34:42.000Z</time>
      </trkpt>
      <trkpt lat="46.07278" lon="14.51083">
        <ele>326.196468</ele>
        <time>2026-07-11T14:34:48.000Z</time>
      </trkpt>
      <trkpt lat="46.07245" lon="14.51077">
        <ele>325.831828</ele>
        <time>2026-07-11T14:34:55.000Z</time>
      </trkpt>
      <trkpt lat="46.07209" lon="14.51073">
        <ele>324.900473</ele>
        <time>2026-07-11T14:35:04.000Z</time>
      </trkpt>
      <trkpt lat="46.07183" lon="14.51068">
        <ele>322.891882</ele>
        <time>2026-07-11T14:35:11.000Z</time>
      </trkpt>
      <trkpt lat="46.07172" lon="14.51065">
        <ele>322.030017</ele>
        <time>2026-07-11T14:35:15.000Z</time>
      </trkpt>
      <trkpt lat="46.0717" lon="14.51064">
        <ele>321.796521</ele>
        <time>2026-07-11T14:35:16.000Z</time>
      </trkpt>
      <trkpt lat="46.0715" lon="14.5106">
        <ele>320.248985</ele>
        <time>2026-07-11T14:35:21.000Z</time>
      </trkpt>
      <trkpt lat="46.07141" lon="14.51059">
        <ele>319.539546</ele>
        <time>2026-07-11T14:35:23.000Z</time>
      </trkpt>
      <trkpt lat="46.07132" lon="14.51058">
        <ele>318.779483</ele>
        <time>2026-07-11T14:35:25.000Z</time>
      </trkpt>
      <trkpt lat="46.07127" lon="14.51056">
        <ele>318.40172</ele>
        <time>2026-07-11T14:35:26.000Z</time>
      </trkpt>
      <trkpt lat="46.07123" lon="14.51055">
        <ele>318.083059</ele>
        <time>2026-07-11T14:35:27.000Z</time>
      </trkpt>
      <trkpt lat="46.07096" lon="14.51051">
        <ele>315.978514</ele>
        <time>2026-07-11T14:35:32.000Z</time>
      </trkpt>
      <trkpt lat="46.0707" lon="14.51044">
        <ele>313.888869</ele>
        <time>2026-07-11T14:35:38.000Z</time>
      </trkpt>
      <trkpt lat="46.0706" lon="14.51043">
        <ele>313.119739</ele>
        <time>2026-07-11T14:35:40.000Z</time>
      </trkpt>
      <trkpt lat="46.0704" lon="14.51039">
        <ele>311.516272</ele>
        <time>2026-07-11T14:35:44.000Z</time>
      </trkpt>
      <trkpt lat="46.07026" lon="14.51029">
        <ele>311.221812</ele>
        <time>2026-07-11T14:35:47.000Z</time>
      </trkpt>
      <trkpt lat="46.07017" lon="14.51027">
        <ele>311.130028</ele>
        <time>2026-07-11T14:35:49.000Z</time>
      </trkpt>
      <trkpt lat="46.07006" lon="14.51027">
        <ele>311.025669</ele>
        <time>2026-07-11T14:35:51.000Z</time>
      </trkpt>
      <trkpt lat="46.07001" lon="14.51027">
        <ele>310.973438</ele>
        <time>2026-07-11T14:35:52.000Z</time>
      </trkpt>
      <trkpt lat="46.06977" lon="14.51022">
        <ele>310.742161</ele>
        <time>2026-07-11T14:35:57.000Z</time>
      </trkpt>
      <trkpt lat="46.0694" lon="14.51013">
        <ele>310.379922</ele>
        <time>2026-07-11T14:36:04.000Z</time>
      </trkpt>
      <trkpt lat="46.06909" lon="14.51008">
        <ele>310.08383</ele>
        <time>2026-07-11T14:36:10.000Z</time>
      </trkpt>
      <trkpt lat="46.06899" lon="14.51005">
        <ele>309.985025</ele>
        <time>2026-07-11T14:36:12.000Z</time>
      </trkpt>
      <trkpt lat="46.06879" lon="14.51">
        <ele>309.787763</ele>
        <time>2026-07-11T14:36:16.000Z</time>
      </trkpt>
      <trkpt lat="46.0687" lon="14.50998">
        <ele>309.695549</ele>
        <time>2026-07-11T14:36:18.000Z</time>
      </trkpt>
      <trkpt lat="46.06847" lon="14.50993">
        <ele>309.316539</ele>
        <time>2026-07-11T14:36:24.000Z</time>
      </trkpt>
      <trkpt lat="46.06832" lon="14.50989">
        <ele>309.009296</ele>
        <time>2026-07-11T14:36:29.000Z</time>
      </trkpt>
      <trkpt lat="46.06829" lon="14.50988">
        <ele>308.933609</ele>
        <time>2026-07-11T14:36:31.000Z</time>
      </trkpt>
      <trkpt lat="46.06827" lon="14.50987">
        <ele>308.900329</ele>
        <time>2026-07-11T14:36:32.000Z</time>
      </trkpt>
      <trkpt lat="46.06824" lon="14.50981">
        <ele>308.801549</ele>
        <time>2026-07-11T14:36:36.000Z</time>
      </trkpt>
      <trkpt lat="46.06824" lon="14.50981">
        <ele>308.787359</ele>
        <time>2026-07-11T14:36:37.000Z</time>
      </trkpt>
      <trkpt lat="46.06819" lon="14.50977">
        <ele>308.673425</ele>
        <time>2026-07-11T14:36:49.000Z</time>
      </trkpt>
      <trkpt lat="46.06817" lon="14.50977">
        <ele>308.626949</ele>
        <time>2026-07-11T14:36:50.000Z</time>
      </trkpt>
      <trkpt lat="46.06798" lon="14.50973">
        <ele>308.243255</ele>
        <time>2026-07-11T14:36:55.000Z</time>
      </trkpt>
      <trkpt lat="46.0679" lon="14.50977">
        <ele>308.07281</ele>
        <time>2026-07-11T14:36:57.000Z</time>
      </trkpt>
      <trkpt lat="46.06781" lon="14.5098">
        <ele>307.885908</ele>
        <time>2026-07-11T14:36:59.000Z</time>
      </trkpt>
      <trkpt lat="46.06776" lon="14.50981">
        <ele>307.782081</ele>
        <time>2026-07-11T14:37:00.000Z</time>
      </trkpt>
      <trkpt lat="46.06771" lon="14.5098">
        <ele>307.678869</ele>
        <time>2026-07-11T14:37:01.000Z</time>
      </trkpt>
      <trkpt lat="46.06762" lon="14.50977">
        <ele>307.490631</ele>
        <time>2026-07-11T14:37:03.000Z</time>
      </trkpt>
      <trkpt lat="46.06756" lon="14.50975">
        <ele>307.360493</ele>
        <time>2026-07-11T14:37:04.000Z</time>
      </trkpt>
      <trkpt lat="46.06751" lon="14.50973">
        <ele>307.249576</ele>
        <time>2026-07-11T14:37:05.000Z</time>
      </trkpt>
      <trkpt lat="46.0673" lon="14.50967">
        <ele>306.807911</ele>
        <time>2026-07-11T14:37:09.000Z</time>
      </trkpt>
      <trkpt lat="46.06692" lon="14.50949">
        <ele>305.998578</ele>
        <time>2026-07-11T14:37:17.000Z</time>
      </trkpt>
      <trkpt lat="46.06682" lon="14.50945">
        <ele>305.952903</ele>
        <time>2026-07-11T14:37:19.000Z</time>
      </trkpt>
      <trkpt lat="46.06664" lon="14.50937">
        <ele>306.016531</ele>
        <time>2026-07-11T14:37:23.000Z</time>
      </trkpt>
      <trkpt lat="46.0663" lon="14.50924">
        <ele>306.132164</ele>
        <time>2026-07-11T14:37:30.000Z</time>
      </trkpt>
      <trkpt lat="46.06626" lon="14.50923">
        <ele>306.14394</ele>
        <time>2026-07-11T14:37:31.000Z</time>
      </trkpt>
      <trkpt lat="46.06588" lon="14.50909">
        <ele>306.27276</ele>
        <time>2026-07-11T14:37:39.000Z</time>
      </trkpt>
      <trkpt lat="46.06569" lon="14.5091">
        <ele>306.334894</ele>
        <time>2026-07-11T14:37:43.000Z</time>
      </trkpt>
      <trkpt lat="46.06563" lon="14.50909">
        <ele>306.353653</ele>
        <time>2026-07-11T14:37:44.000Z</time>
      </trkpt>
      <trkpt lat="46.06542" lon="14.50901">
        <ele>306.426306</ele>
        <time>2026-07-11T14:37:49.000Z</time>
      </trkpt>
      <trkpt lat="46.06533" lon="14.50897">
        <ele>306.457163</ele>
        <time>2026-07-11T14:37:51.000Z</time>
      </trkpt>
      <trkpt lat="46.06525" lon="14.50892">
        <ele>306.487013</ele>
        <time>2026-07-11T14:37:53.000Z</time>
      </trkpt>
      <trkpt lat="46.06515" lon="14.50884">
        <ele>306.567621</ele>
        <time>2026-07-11T14:37:55.000Z</time>
      </trkpt>
      <trkpt lat="46.06512" lon="14.50882">
        <ele>306.788643</ele>
        <time>2026-07-11T14:37:56.000Z</time>
      </trkpt>
      <trkpt lat="46.06502" lon="14.5088">
        <ele>307.417437</ele>
        <time>2026-07-11T14:37:58.000Z</time>
      </trkpt>
      <trkpt lat="46.06497" lon="14.50879">
        <ele>307.715761</ele>
        <time>2026-07-11T14:37:59.000Z</time>
      </trkpt>
      <trkpt lat="46.06488" lon="14.50877">
        <ele>308.291775</ele>
        <time>2026-07-11T14:38:01.000Z</time>
      </trkpt>
      <trkpt lat="46.06483" lon="14.50876">
        <ele>308.575488</ele>
        <time>2026-07-11T14:38:02.000Z</time>
      </trkpt>
      <trkpt lat="46.06479" lon="14.50873">
        <ele>308.882453</ele>
        <time>2026-07-11T14:38:03.000Z</time>
      </trkpt>
      <trkpt lat="46.06461" lon="14.50866">
        <ele>310.019739</ele>
        <time>2026-07-11T14:38:07.000Z</time>
      </trkpt>
      <trkpt lat="46.06449" lon="14.50867">
        <ele>310.753423</ele>
        <time>2026-07-11T14:38:10.000Z</time>
      </trkpt>
      <trkpt lat="46.06441" lon="14.50863">
        <ele>311.298808</ele>
        <time>2026-07-11T14:38:12.000Z</time>
      </trkpt>
      <trkpt lat="46.06427" lon="14.50859">
        <ele>312.160748</ele>
        <time>2026-07-11T14:38:15.000Z</time>
      </trkpt>
      <trkpt lat="46.06417" lon="14.50854">
        <ele>312.852396</ele>
        <time>2026-07-11T14:38:18.000Z</time>
      </trkpt>
      <trkpt lat="46.06401" lon="14.50848">
        <ele>313.864271</ele>
        <time>2026-07-11T14:38:23.000Z</time>
      </trkpt>
      <trkpt lat="46.06385" lon="14.50831">
        <ele>315.120136</ele>
        <time>2026-07-11T14:38:28.000Z</time>
      </trkpt>
      <trkpt lat="46.06377" lon="14.50825">
        <ele>315.655445</ele>
        <time>2026-07-11T14:38:33.000Z</time>
      </trkpt>
      <trkpt lat="46.06377" lon="14.50825">
        <ele>315.655445</ele>
        <time>2026-07-11T14:38:35.000Z</time>
      </trkpt>
      <trkpt lat="46.06373" lon="14.50818">
        <ele>316.036659</ele>
        <time>2026-07-11T14:38:51.000Z</time>
      </trkpt>
      <trkpt lat="46.06371" lon="14.50816">
        <ele>316.224069</ele>
        <time>2026-07-11T14:38:52.000Z</time>
      </trkpt>
      <trkpt lat="46.06351" lon="14.5081">
        <ele>317.491332</ele>
        <time>2026-07-11T14:38:57.000Z</time>
      </trkpt>
      <trkpt lat="46.06341" lon="14.50808">
        <ele>317.846535</ele>
        <time>2026-07-11T14:38:59.000Z</time>
      </trkpt>
      <trkpt lat="46.06332" lon="14.50809">
        <ele>318.084653</ele>
        <time>2026-07-11T14:39:01.000Z</time>
      </trkpt>
      <trkpt lat="46.06327" lon="14.50807">
        <ele>318.208778</ele>
        <time>2026-07-11T14:39:02.000Z</time>
      </trkpt>
      <trkpt lat="46.06322" lon="14.50806">
        <ele>318.330738</ele>
        <time>2026-07-11T14:39:03.000Z</time>
      </trkpt>
      <trkpt lat="46.06306" lon="14.50803">
        <ele>318.704776</ele>
        <time>2026-07-11T14:39:06.000Z</time>
      </trkpt>
      <trkpt lat="46.06286" lon="14.50801">
        <ele>319.181744</ele>
        <time>2026-07-11T14:39:11.000Z</time>
      </trkpt>
      <trkpt lat="46.06265" lon="14.50797">
        <ele>319.691382</ele>
        <time>2026-07-11T14:39:15.000Z</time>
      </trkpt>
      <trkpt lat="46.06258" lon="14.50792">
        <ele>319.892767</ele>
        <time>2026-07-11T14:39:17.000Z</time>
      </trkpt>
      <trkpt lat="46.06249" lon="14.50786">
        <ele>320.108493</ele>
        <time>2026-07-11T14:39:20.000Z</time>
      </trkpt>
      <trkpt lat="46.06242" lon="14.50785">
        <ele>320.278136</ele>
        <time>2026-07-11T14:39:22.000Z</time>
      </trkpt>
      <trkpt lat="46.06233" lon="14.50782">
        <ele>320.498808</ele>
        <time>2026-07-11T14:39:24.000Z</time>
      </trkpt>
      <trkpt lat="46.0622" lon="14.50778">
        <ele>320.838816</ele>
        <time>2026-07-11T14:39:27.000Z</time>
      </trkpt>
      <trkpt lat="46.06214" lon="14.50776">
        <ele>320.966116</ele>
        <time>2026-07-11T14:39:28.000Z</time>
      </trkpt>
      <trkpt lat="46.06194" lon="14.50765">
        <ele>321.490932</ele>
        <time>2026-07-11T14:39:33.000Z</time>
      </trkpt>
      <trkpt lat="46.06184" lon="14.50761">
        <ele>321.748214</ele>
        <time>2026-07-11T14:39:35.000Z</time>
      </trkpt>
      <trkpt lat="46.0617" lon="14.50755">
        <ele>321.961266</ele>
        <time>2026-07-11T14:39:38.000Z</time>
      </trkpt>
      <trkpt lat="46.06159" lon="14.5075">
        <ele>321.691515</ele>
        <time>2026-07-11T14:39:40.000Z</time>
      </trkpt>
      <trkpt lat="46.0615" lon="14.50746">
        <ele>321.470825</ele>
        <time>2026-07-11T14:39:42.000Z</time>
      </trkpt>
      <trkpt lat="46.06136" lon="14.50737">
        <ele>321.120207</ele>
        <time>2026-07-11T14:39:45.000Z</time>
      </trkpt>
      <trkpt lat="46.06118" lon="14.50726">
        <ele>320.660269</ele>
        <time>2026-07-11T14:39:49.000Z</time>
      </trkpt>
      <trkpt lat="46.06103" lon="14.50719">
        <ele>320.301809</ele>
        <time>2026-07-11T14:39:52.000Z</time>
      </trkpt>
      <trkpt lat="46.06088" lon="14.50712">
        <ele>319.945845</ele>
        <time>2026-07-11T14:39:55.000Z</time>
      </trkpt>
      <trkpt lat="46.06082" lon="14.50709">
        <ele>319.802407</ele>
        <time>2026-07-11T14:39:56.000Z</time>
      </trkpt>
      <trkpt lat="46.06078" lon="14.50707">
        <ele>319.693787</ele>
        <time>2026-07-11T14:39:57.000Z</time>
      </trkpt>
      <trkpt lat="46.06065" lon="14.50703">
        <ele>319.393653</ele>
        <time>2026-07-11T14:40:00.000Z</time>
      </trkpt>
      <trkpt lat="46.0604" lon="14.50694">
        <ele>318.807092</ele>
        <time>2026-07-11T14:40:05.000Z</time>
      </trkpt>
      <trkpt lat="46.06024" lon="14.50688">
        <ele>318.425319</ele>
        <time>2026-07-11T14:40:08.000Z</time>
      </trkpt>
      <trkpt lat="46.0602" lon="14.50685">
        <ele>318.332135</ele>
        <time>2026-07-11T14:40:09.000Z</time>
      </trkpt>
      <trkpt lat="46.05999" lon="14.50676">
        <ele>317.735313</ele>
        <time>2026-07-11T14:40:13.000Z</time>
      </trkpt>
      <trkpt lat="46.05988" lon="14.50672">
        <ele>317.256918</ele>
        <time>2026-07-11T14:40:15.000Z</time>
      </trkpt>
      <trkpt lat="46.05973" lon="14.50664">
        <ele>316.543313</ele>
        <time>2026-07-11T14:40:18.000Z</time>
      </trkpt>
      <trkpt lat="46.05958" lon="14.50656">
        <ele>315.795824</ele>
        <time>2026-07-11T14:40:21.000Z</time>
      </trkpt>
      <trkpt lat="46.05937" lon="14.5065">
        <ele>314.825836</ele>
        <time>2026-07-11T14:40:25.000Z</time>
      </trkpt>
      <trkpt lat="46.0593" lon="14.50648">
        <ele>314.510726</ele>
        <time>2026-07-11T14:40:26.000Z</time>
      </trkpt>
      <trkpt lat="46.05902" lon="14.50631">
        <ele>313.145425</ele>
        <time>2026-07-11T14:40:31.000Z</time>
      </trkpt>
      <trkpt lat="46.05896" lon="14.50627">
        <ele>312.857315</ele>
        <time>2026-07-11T14:40:32.000Z</time>
      </trkpt>
      <trkpt lat="46.05872" lon="14.50615">
        <ele>311.710669</ele>
        <time>2026-07-11T14:40:37.000Z</time>
      </trkpt>
      <trkpt lat="46.05844" lon="14.50609">
        <ele>310.418578</ele>
        <time>2026-07-11T14:40:42.000Z</time>
      </trkpt>
      <trkpt lat="46.05839" lon="14.50605">
        <ele>310.16898</ele>
        <time>2026-07-11T14:40:43.000Z</time>
      </trkpt>
      <trkpt lat="46.05824" lon="14.50591">
        <ele>309.649214</ele>
        <time>2026-07-11T14:40:47.000Z</time>
      </trkpt>
      <trkpt lat="46.05805" lon="14.50579">
        <ele>309.352621</ele>
        <time>2026-07-11T14:40:52.000Z</time>
      </trkpt>
      <trkpt lat="46.05794" lon="14.50571">
        <ele>309.162977</ele>
        <time>2026-07-11T14:40:56.000Z</time>
      </trkpt>
      <trkpt lat="46.05791" lon="14.50572">
        <ele>309.125606</ele>
        <time>2026-07-11T14:40:57.000Z</time>
      </trkpt>
      <trkpt lat="46.05779" lon="14.5058">
        <ele>308.934198</ele>
        <time>2026-07-11T14:41:02.000Z</time>
      </trkpt>
      <trkpt lat="46.05779" lon="14.5058">
        <ele>308.928314</ele>
        <time>2026-07-11T14:41:04.000Z</time>
      </trkpt>
      <trkpt lat="46.05775" lon="14.50577">
        <ele>308.857726</ele>
        <time>2026-07-11T14:42:33.000Z</time>
      </trkpt>
      <trkpt lat="46.05773" lon="14.50577">
        <ele>308.832812</ele>
        <time>2026-07-11T14:42:34.000Z</time>
      </trkpt>
      <trkpt lat="46.05758" lon="14.50572">
        <ele>308.603899</ele>
        <time>2026-07-11T14:42:39.000Z</time>
      </trkpt>
      <trkpt lat="46.05754" lon="14.50571">
        <ele>308.554968</ele>
        <time>2026-07-11T14:42:40.000Z</time>
      </trkpt>
      <trkpt lat="46.05743" lon="14.50574">
        <ele>308.383394</ele>
        <time>2026-07-11T14:42:43.000Z</time>
      </trkpt>
      <trkpt lat="46.05726" lon="14.50576">
        <ele>308.139719</ele>
        <time>2026-07-11T14:42:47.000Z</time>
      </trkpt>
      <trkpt lat="46.0571" lon="14.5057">
        <ele>307.889227</ele>
        <time>2026-07-11T14:42:52.000Z</time>
      </trkpt>
      <trkpt lat="46.057" lon="14.50568">
        <ele>307.73379</ele>
        <time>2026-07-11T14:42:57.000Z</time>
      </trkpt>
      <trkpt lat="46.05699" lon="14.50568">
        <ele>307.727562</ele>
        <time>2026-07-11T14:42:59.000Z</time>
      </trkpt>
      <trkpt lat="46.05695" lon="14.50563">
        <ele>307.654148</ele>
        <time>2026-07-11T14:43:16.000Z</time>
      </trkpt>
      <trkpt lat="46.05693" lon="14.50561">
        <ele>307.614755</ele>
        <time>2026-07-11T14:43:17.000Z</time>
      </trkpt>
      <trkpt lat="46.05679" lon="14.50549">
        <ele>307.372473</ele>
        <time>2026-07-11T14:43:22.000Z</time>
      </trkpt>
      <trkpt lat="46.0565" lon="14.50552">
        <ele>307.820259</ele>
        <time>2026-07-11T14:43:29.000Z</time>
      </trkpt>
      <trkpt lat="46.05626" lon="14.50553">
        <ele>308.988824</ele>
        <time>2026-07-11T14:43:35.000Z</time>
      </trkpt>
      <trkpt lat="46.05605" lon="14.50543">
        <ele>310.025359</ele>
        <time>2026-07-11T14:43:41.000Z</time>
      </trkpt>
      <trkpt lat="46.05592" lon="14.50536">
        <ele>310.717893</ele>
        <time>2026-07-11T14:43:46.000Z</time>
      </trkpt>
      <trkpt lat="46.05591" lon="14.50536">
        <ele>310.751994</ele>
        <time>2026-07-11T14:43:47.000Z</time>
      </trkpt>
      <trkpt lat="46.05586" lon="14.50539">
        <ele>311.035225</ele>
        <time>2026-07-11T14:43:49.000Z</time>
      </trkpt>
      <trkpt lat="46.05581" lon="14.5054">
        <ele>311.250519</ele>
        <time>2026-07-11T14:43:50.000Z</time>
      </trkpt>
      <trkpt lat="46.05565" lon="14.5054">
        <ele>312.026172</ele>
        <time>2026-07-11T14:43:54.000Z</time>
      </trkpt>
      <trkpt lat="46.05543" lon="14.50535">
        <ele>313.106947</ele>
        <time>2026-07-11T14:43:59.000Z</time>
      </trkpt>
      <trkpt lat="46.05514" lon="14.50518">
        <ele>314.622948</ele>
        <time>2026-07-11T14:44:06.000Z</time>
      </trkpt>
      <trkpt lat="46.05497" lon="14.50507">
        <ele>315.541003</ele>
        <time>2026-07-11T14:44:11.000Z</time>
      </trkpt>
      <trkpt lat="46.05479" lon="14.50497">
        <ele>315.690074</ele>
        <time>2026-07-11T14:44:16.000Z</time>
      </trkpt>
      <trkpt lat="46.05462" lon="14.50467">
        <ele>315.334495</ele>
        <time>2026-07-11T14:44:23.000Z</time>
      </trkpt>
      <trkpt lat="46.05457" lon="14.50458">
        <ele>315.229331</ele>
        <time>2026-07-11T14:44:27.000Z</time>
      </trkpt>
      <trkpt lat="46.0544" lon="14.50445">
        <ele>314.970403</ele>
        <time>2026-07-11T14:44:33.000Z</time>
      </trkpt>
      <trkpt lat="46.05437" lon="14.50444">
        <ele>314.930213</ele>
        <time>2026-07-11T14:44:34.000Z</time>
      </trkpt>
      <trkpt lat="46.05413" lon="14.50429">
        <ele>314.571707</ele>
        <time>2026-07-11T14:44:41.000Z</time>
      </trkpt>
      <trkpt lat="46.05379" lon="14.50414">
        <ele>314.093105</ele>
        <time>2026-07-11T14:44:50.000Z</time>
      </trkpt>
      <trkpt lat="46.05367" lon="14.50411">
        <ele>313.932525</ele>
        <time>2026-07-11T14:44:53.000Z</time>
      </trkpt>
      <trkpt lat="46.05353" lon="14.50405">
        <ele>313.744029</ele>
        <time>2026-07-11T14:44:56.000Z</time>
      </trkpt>
      <trkpt lat="46.05334" lon="14.50399">
        <ele>313.482136</ele>
        <time>2026-07-11T14:45:00.000Z</time>
      </trkpt>
      <trkpt lat="46.05328" lon="14.5039">
        <ele>313.378889</ele>
        <time>2026-07-11T14:45:02.000Z</time>
      </trkpt>
      <trkpt lat="46.05319" lon="14.50382">
        <ele>313.284816</ele>
        <time>2026-07-11T14:45:04.000Z</time>
      </trkpt>
      <trkpt lat="46.05309" lon="14.50376">
        <ele>313.171261</ele>
        <time>2026-07-11T14:45:07.000Z</time>
      </trkpt>
      <trkpt lat="46.05292" lon="14.5037">
        <ele>313.003973</ele>
        <time>2026-07-11T14:45:11.000Z</time>
      </trkpt>
      <trkpt lat="46.05278" lon="14.50364">
        <ele>312.868846</ele>
        <time>2026-07-11T14:45:14.000Z</time>
      </trkpt>
      <trkpt lat="46.05271" lon="14.5036">
        <ele>312.792102</ele>
        <time>2026-07-11T14:45:16.000Z</time>
      </trkpt>
      <trkpt lat="46.0526" lon="14.50357">
        <ele>312.678852</ele>
        <time>2026-07-11T14:45:19.000Z</time>
      </trkpt>
      <trkpt lat="46.05241" lon="14.50352">
        <ele>312.497051</ele>
        <time>2026-07-11T14:45:24.000Z</time>
      </trkpt>
      <trkpt lat="46.05238" lon="14.50353">
        <ele>312.464161</ele>
        <time>2026-07-11T14:45:25.000Z</time>
      </trkpt>
      <trkpt lat="46.05228" lon="14.50358">
        <ele>312.359101</ele>
        <time>2026-07-11T14:45:30.000Z</time>
      </trkpt>
      <trkpt lat="46.05228" lon="14.50359">
        <ele>312.355132</ele>
        <time>2026-07-11T14:45:31.000Z</time>
      </trkpt>
      <trkpt lat="46.05223" lon="14.50352">
        <ele>312.290935</ele>
        <time>2026-07-11T14:45:47.000Z</time>
      </trkpt>
      <trkpt lat="46.05221" lon="14.50351">
        <ele>312.272202</ele>
        <time>2026-07-11T14:45:48.000Z</time>
      </trkpt>
      <trkpt lat="46.05209" lon="14.50346">
        <ele>312.149401</ele>
        <time>2026-07-11T14:45:53.000Z</time>
      </trkpt>
      <trkpt lat="46.05198" lon="14.5034">
        <ele>312.034595</ele>
        <time>2026-07-11T14:45:57.000Z</time>
      </trkpt>
      <trkpt lat="46.05181" lon="14.50332">
        <ele>311.860832</ele>
        <time>2026-07-11T14:46:03.000Z</time>
      </trkpt>
      <trkpt lat="46.0517" lon="14.50327">
        <ele>311.752014</ele>
        <time>2026-07-11T14:46:08.000Z</time>
      </trkpt>
      <trkpt lat="46.05168" lon="14.50329">
        <ele>311.733326</ele>
        <time>2026-07-11T14:46:09.000Z</time>
      </trkpt>
      <trkpt lat="46.05168" lon="14.50329">
        <ele>311.727782</ele>
        <time>2026-07-11T14:46:11.000Z</time>
      </trkpt>
      <trkpt lat="46.0516" lon="14.50334">
        <ele>311.371614</ele>
        <time>2026-07-11T14:46:25.000Z</time>
      </trkpt>
      <trkpt lat="46.05158" lon="14.50339">
        <ele>311.118073</ele>
        <time>2026-07-11T14:46:26.000Z</time>
      </trkpt>
      <trkpt lat="46.05155" lon="14.50347">
        <ele>310.773126</ele>
        <time>2026-07-11T14:46:27.000Z</time>
      </trkpt>
      <trkpt lat="46.05154" lon="14.5035">
        <ele>310.624773</ele>
        <time>2026-07-11T14:46:28.000Z</time>
      </trkpt>
      <trkpt lat="46.05152" lon="14.5037">
        <ele>309.80325</ele>
        <time>2026-07-11T14:46:34.000Z</time>
      </trkpt>
      <trkpt lat="46.05147" lon="14.50375">
        <ele>309.471445</ele>
        <time>2026-07-11T14:46:35.000Z</time>
      </trkpt>
      <trkpt lat="46.05147" lon="14.50379">
        <ele>309.324512</ele>
        <time>2026-07-11T14:46:37.000Z</time>
      </trkpt>
      <trkpt lat="46.05149" lon="14.50383">
        <ele>309.147356</ele>
        <time>2026-07-11T14:46:38.000Z</time>
      </trkpt>
      <trkpt lat="46.05151" lon="14.50389">
        <ele>308.839647</ele>
        <time>2026-07-11T14:46:40.000Z</time>
      </trkpt>
      <trkpt lat="46.0515" lon="14.50395">
        <ele>308.611853</ele>
        <time>2026-07-11T14:46:42.000Z</time>
      </trkpt>
      <trkpt lat="46.05143" lon="14.50411">
        <ele>307.851933</ele>
        <time>2026-07-11T14:46:48.000Z</time>
      </trkpt>
      <trkpt lat="46.05143" lon="14.50413">
        <ele>307.752362</ele>
        <time>2026-07-11T14:46:51.000Z</time>
      </trkpt>
      <trkpt lat="46.05139" lon="14.50422">
        <ele>307.319394</ele>
        <time>2026-07-11T14:46:58.000Z</time>
      </trkpt>
      <trkpt lat="46.05138" lon="14.5043">
        <ele>306.985999</ele>
        <time>2026-07-11T14:47:00.000Z</time>
      </trkpt>
      <trkpt lat="46.05139" lon="14.50434">
        <ele>306.784727</ele>
        <time>2026-07-11T14:47:01.000Z</time>
      </trkpt>
      <trkpt lat="46.05143" lon="14.50443">
        <ele>306.384972</ele>
        <time>2026-07-11T14:47:04.000Z</time>
      </trkpt>
      <trkpt lat="46.05143" lon="14.50445">
        <ele>306.287017</ele>
        <time>2026-07-11T14:47:05.000Z</time>
      </trkpt>
      <trkpt lat="46.05138" lon="14.50461">
        <ele>305.584552</ele>
        <time>2026-07-11T14:47:11.000Z</time>
      </trkpt>
      <trkpt lat="46.0513" lon="14.50483">
        <ele>304.580353</ele>
        <time>2026-07-11T14:47:19.000Z</time>
      </trkpt>
      <trkpt lat="46.05127" lon="14.50493">
        <ele>304.135153</ele>
        <time>2026-07-11T14:47:25.000Z</time>
      </trkpt>
      <trkpt lat="46.05127" lon="14.50494">
        <ele>304.085142</ele>
        <time>2026-07-11T14:47:26.000Z</time>
      </trkpt>
      <trkpt lat="46.05125" lon="14.505">
        <ele>303.813728</ele>
        <time>2026-07-11T14:47:31.000Z</time>
      </trkpt>
      <trkpt lat="46.05119" lon="14.50513">
        <ele>303.203654</ele>
        <time>2026-07-11T14:47:40.000Z</time>
      </trkpt>
      <trkpt lat="46.05118" lon="14.50512">
        <ele>303.143936</ele>
        <time>2026-07-11T14:47:41.000Z</time>
      </trkpt>
      <trkpt lat="46.05118" lon="14.50512">
        <ele>303.143936</ele>
        <time>2026-07-11T14:47:44.000Z</time>
      </trkpt>
      <trkpt lat="46.05121" lon="14.50555">
        <ele>301.396066</ele>
        <time>2026-07-11T14:47:55.000Z</time>
      </trkpt>
      <trkpt lat="46.05119" lon="14.50554">
        <ele>301.271067</ele>
        <time>2026-07-11T14:47:56.000Z</time>
      </trkpt>
      <trkpt lat="46.05122" lon="14.50566">
        <ele>301.44691</ele>
        <time>2026-07-11T14:48:00.000Z</time>
      </trkpt>
      <trkpt lat="46.05124" lon="14.50569">
        <ele>301.525108</ele>
        <time>2026-07-11T14:48:01.000Z</time>
      </trkpt>
      <trkpt lat="46.05128" lon="14.50575">
        <ele>301.723562</ele>
        <time>2026-07-11T14:48:04.000Z</time>
      </trkpt>
      <trkpt lat="46.0513" lon="14.50579">
        <ele>301.835322</ele>
        <time>2026-07-11T14:48:06.000Z</time>
      </trkpt>
      <trkpt lat="46.05131" lon="14.50582">
        <ele>301.900615</ele>
        <time>2026-07-11T14:48:07.000Z</time>
      </trkpt>
      <trkpt lat="46.05131" lon="14.50589">
        <ele>302.063345</ele>
        <time>2026-07-11T14:48:10.000Z</time>
      </trkpt>
      <trkpt lat="46.05129" lon="14.50591">
        <ele>302.120116</ele>
        <time>2026-07-11T14:48:12.000Z</time>
      </trkpt>
      <trkpt lat="46.05123" lon="14.50591">
        <ele>302.325914</ele>
        <time>2026-07-11T14:48:16.000Z</time>
      </trkpt>
      <trkpt lat="46.05117" lon="14.50592">
        <ele>302.517954</ele>
        <time>2026-07-11T14:48:19.000Z</time>
      </trkpt>
      <trkpt lat="46.05111" lon="14.50596">
        <ele>302.75555</ele>
        <time>2026-07-11T14:48:25.000Z</time>
      </trkpt>
      <trkpt lat="46.05113" lon="14.50498">
        <ele>304.97525</ele>
        <time>2026-07-11T14:52:58.000Z</time>
      </trkpt>
      <trkpt lat="46.05116" lon="14.50498">
        <ele>305.043733</ele>
        <time>2026-07-11T14:53:00.000Z</time>
      </trkpt>
      <trkpt lat="46.05117" lon="14.50499">
        <ele>305.100192</ele>
        <time>2026-07-11T14:53:01.000Z</time>
      </trkpt>
      <trkpt lat="46.05119" lon="14.50496">
        <ele>305.182102</ele>
        <time>2026-07-11T14:53:04.000Z</time>
      </trkpt>
      <trkpt lat="46.0512" lon="14.50494">
        <ele>305.21926</ele>
        <time>2026-07-11T14:53:05.000Z</time>
      </trkpt>
      <trkpt lat="46.05121" lon="14.50492">
        <ele>305.282479</ele>
        <time>2026-07-11T14:53:07.000Z</time>
      </trkpt>
      <trkpt lat="46.05121" lon="14.50489">
        <ele>305.358759</ele>
        <time>2026-07-11T14:53:09.000Z</time>
      </trkpt>
      <trkpt lat="46.05126" lon="14.50484">
        <ele>305.552825</ele>
        <time>2026-07-11T14:53:16.000Z</time>
      </trkpt>
      <trkpt lat="46.05126" lon="14.50484">
        <ele>305.552825</ele>
        <time>2026-07-11T14:53:17.000Z</time>
      </trkpt>
      <trkpt lat="46.05143" lon="14.50459">
        <ele>306.346058</ele>
        <time>2026-07-11T14:54:33.000Z</time>
      </trkpt>
      <trkpt lat="46.05144" lon="14.50458">
        <ele>306.38878</ele>
        <time>2026-07-11T14:54:34.000Z</time>
      </trkpt>
      <trkpt lat="46.05145" lon="14.50456">
        <ele>306.425939</ele>
        <time>2026-07-11T14:54:35.000Z</time>
      </trkpt>
      <trkpt lat="46.05146" lon="14.50448">
        <ele>306.615654</ele>
        <time>2026-07-11T14:54:40.000Z</time>
      </trkpt>
      <trkpt lat="46.05146" lon="14.50446">
        <ele>306.650149</ele>
        <time>2026-07-11T14:54:41.000Z</time>
      </trkpt>
      <trkpt lat="46.05146" lon="14.50445">
        <ele>306.687308</ele>
        <time>2026-07-11T14:54:42.000Z</time>
      </trkpt>
      <trkpt lat="46.05147" lon="14.50444">
        <ele>306.722865</ele>
        <time>2026-07-11T14:54:43.000Z</time>
      </trkpt>
      <trkpt lat="46.05146" lon="14.50444">
        <ele>306.739135</ele>
        <time>2026-07-11T14:54:45.000Z</time>
      </trkpt>
      <trkpt lat="46.0515" lon="14.50463">
        <ele>307.278398</ele>
        <time>2026-07-11T15:27:33.000Z</time>
      </trkpt>
      <trkpt lat="46.05146" lon="14.50462">
        <ele>307.489016</ele>
        <time>2026-07-11T15:41:14.000Z</time>
      </trkpt>
      <trkpt lat="46.05162" lon="14.50384">
        <ele>310.388971</ele>
        <time>2026-07-11T15:51:17.000Z</time>
      </trkpt>
      <trkpt lat="46.05164" lon="14.50384">
        <ele>310.486822</ele>
        <time>2026-07-11T15:51:18.000Z</time>
      </trkpt>
      <trkpt lat="46.05165" lon="14.50384">
        <ele>310.527914</ele>
        <time>2026-07-11T15:51:19.000Z</time>
      </trkpt>
      <trkpt lat="46.05165" lon="14.50382">
        <ele>310.597027</ele>
        <time>2026-07-11T15:51:22.000Z</time>
      </trkpt>
      <trkpt lat="46.05165" lon="14.50379">
        <ele>310.711559</ele>
        <time>2026-07-11T15:51:24.000Z</time>
      </trkpt>
      <trkpt lat="46.05163" lon="14.50376">
        <ele>310.866217</ele>
        <time>2026-07-11T15:51:25.000Z</time>
      </trkpt>
      <trkpt lat="46.05161" lon="14.50372">
        <ele>311.018965</ele>
        <time>2026-07-11T15:51:26.000Z</time>
      </trkpt>
      <trkpt lat="46.05161" lon="14.50365">
        <ele>311.265145</ele>
        <time>2026-07-11T15:51:28.000Z</time>
      </trkpt>
      <trkpt lat="46.05161" lon="14.50363">
        <ele>311.345068</ele>
        <time>2026-07-11T15:51:29.000Z</time>
      </trkpt>
      <trkpt lat="46.0516" lon="14.50361">
        <ele>311.419264</ele>
        <time>2026-07-11T15:51:30.000Z</time>
      </trkpt>
      <trkpt lat="46.05159" lon="14.50352">
        <ele>311.759969</ele>
        <time>2026-07-11T15:51:34.000Z</time>
      </trkpt>
      <trkpt lat="46.05166" lon="14.5031">
        <ele>313.303259</ele>
        <time>2026-07-11T15:51:39.000Z</time>
      </trkpt>
      <trkpt lat="46.05181" lon="14.50323">
        <ele>314.237799</ele>
        <time>2026-07-11T15:52:02.000Z</time>
      </trkpt>
      <trkpt lat="46.05191" lon="14.50327">
        <ele>314.745458</ele>
        <time>2026-07-11T15:52:08.000Z</time>
      </trkpt>
      <trkpt lat="46.05201" lon="14.50328">
        <ele>315.250954</ele>
        <time>2026-07-11T15:52:12.000Z</time>
      </trkpt>
      <trkpt lat="46.05206" lon="14.50331">
        <ele>315.555973</ele>
        <time>2026-07-11T15:52:14.000Z</time>
      </trkpt>
      <trkpt lat="46.05219" lon="14.50343">
        <ele>316.339671</ele>
        <time>2026-07-11T15:52:19.000Z</time>
      </trkpt>
      <trkpt lat="46.05232" lon="14.50353">
        <ele>317.202914</ele>
        <time>2026-07-11T15:52:24.000Z</time>
      </trkpt>
      <trkpt lat="46.05234" lon="14.50353">
        <ele>317.363855</ele>
        <time>2026-07-11T15:52:25.000Z</time>
      </trkpt>
      <trkpt lat="46.05246" lon="14.50353">
        <ele>318.044487</ele>
        <time>2026-07-11T15:52:30.000Z</time>
      </trkpt>
      <trkpt lat="46.05265" lon="14.50366">
        <ele>319.264315</ele>
        <time>2026-07-11T15:52:37.000Z</time>
      </trkpt>
      <trkpt lat="46.0528" lon="14.50384">
        <ele>320.429637</ele>
        <time>2026-07-11T15:52:43.000Z</time>
      </trkpt>
      <trkpt lat="46.05297" lon="14.50392">
        <ele>321.445874</ele>
        <time>2026-07-11T15:52:49.000Z</time>
      </trkpt>
      <trkpt lat="46.05323" lon="14.50401">
        <ele>323.064023</ele>
        <time>2026-07-11T15:52:56.000Z</time>
      </trkpt>
      <trkpt lat="46.05338" lon="14.50412">
        <ele>324.04145</ele>
        <time>2026-07-11T15:53:01.000Z</time>
      </trkpt>
      <trkpt lat="46.05356" lon="14.50432">
        <ele>325.376854</ele>
        <time>2026-07-11T15:53:08.000Z</time>
      </trkpt>
      <trkpt lat="46.05377" lon="14.50442">
        <ele>326.670582</ele>
        <time>2026-07-11T15:53:14.000Z</time>
      </trkpt>
      <trkpt lat="46.05382" lon="14.50446">
        <ele>326.658566</ele>
        <time>2026-07-11T15:53:16.000Z</time>
      </trkpt>
      <trkpt lat="46.05408" lon="14.50447">
        <ele>324.600176</ele>
        <time>2026-07-11T15:53:22.000Z</time>
      </trkpt>
      <trkpt lat="46.05426" lon="14.50451">
        <ele>323.187493</ele>
        <time>2026-07-11T15:53:26.000Z</time>
      </trkpt>
      <trkpt lat="46.05433" lon="14.50455">
        <ele>322.677845</ele>
        <time>2026-07-11T15:53:28.000Z</time>
      </trkpt>
      <trkpt lat="46.05447" lon="14.50458">
        <ele>321.558977</ele>
        <time>2026-07-11T15:53:33.000Z</time>
      </trkpt>
      <trkpt lat="46.05449" lon="14.50455">
        <ele>321.321073</ele>
        <time>2026-07-11T15:53:34.000Z</time>
      </trkpt>
      <trkpt lat="46.05465" lon="14.50435">
        <ele>319.713723</ele>
        <time>2026-07-11T15:53:40.000Z</time>
      </trkpt>
      <trkpt lat="46.05485" lon="14.50412">
        <ele>317.729291</ele>
        <time>2026-07-11T15:53:46.000Z</time>
      </trkpt>
      <trkpt lat="46.05501" lon="14.50389">
        <ele>315.988294</ele>
        <time>2026-07-11T15:53:51.000Z</time>
      </trkpt>
      <trkpt lat="46.05531" lon="14.50343">
        <ele>312.667776</ele>
        <time>2026-07-11T15:54:01.000Z</time>
      </trkpt>
      <trkpt lat="46.05545" lon="14.5032">
        <ele>311.375605</ele>
        <time>2026-07-11T15:54:06.000Z</time>
      </trkpt>
      <trkpt lat="46.0555" lon="14.50312">
        <ele>310.94464</ele>
        <time>2026-07-11T15:54:08.000Z</time>
      </trkpt>
      <trkpt lat="46.0556" lon="14.50296">
        <ele>309.995565</ele>
        <time>2026-07-11T15:54:12.000Z</time>
      </trkpt>
      <trkpt lat="46.05573" lon="14.50273">
        <ele>308.758295</ele>
        <time>2026-07-11T15:54:18.000Z</time>
      </trkpt>
      <trkpt lat="46.05574" lon="14.50271">
        <ele>308.656407</ele>
        <time>2026-07-11T15:54:19.000Z</time>
      </trkpt>
      <trkpt lat="46.05577" lon="14.50267">
        <ele>308.416234</ele>
        <time>2026-07-11T15:54:21.000Z</time>
      </trkpt>
      <trkpt lat="46.05585" lon="14.50256">
        <ele>307.759748</ele>
        <time>2026-07-11T15:54:25.000Z</time>
      </trkpt>
      <trkpt lat="46.05589" lon="14.5025">
        <ele>307.392966</ele>
        <time>2026-07-11T15:54:27.000Z</time>
      </trkpt>
      <trkpt lat="46.05603" lon="14.50231">
        <ele>306.205258</ele>
        <time>2026-07-11T15:54:32.000Z</time>
      </trkpt>
      <trkpt lat="46.05605" lon="14.50226">
        <ele>306.003945</ele>
        <time>2026-07-11T15:54:33.000Z</time>
      </trkpt>
      <trkpt lat="46.0561" lon="14.50215">
        <ele>305.446795</ele>
        <time>2026-07-11T15:54:35.000Z</time>
      </trkpt>
      <trkpt lat="46.05612" lon="14.50211">
        <ele>305.227779</ele>
        <time>2026-07-11T15:54:36.000Z</time>
      </trkpt>
      <trkpt lat="46.05622" lon="14.502">
        <ele>304.458912</ele>
        <time>2026-07-11T15:54:39.000Z</time>
      </trkpt>
      <trkpt lat="46.0563" lon="14.50194">
        <ele>303.940636</ele>
        <time>2026-07-11T15:54:41.000Z</time>
      </trkpt>
      <trkpt lat="46.05639" lon="14.50188">
        <ele>303.307948</ele>
        <time>2026-07-11T15:54:43.000Z</time>
      </trkpt>
      <trkpt lat="46.05652" lon="14.50182">
        <ele>302.50753</ele>
        <time>2026-07-11T15:54:47.000Z</time>
      </trkpt>
      <trkpt lat="46.05655" lon="14.50181">
        <ele>302.302447</ele>
        <time>2026-07-11T15:54:49.000Z</time>
      </trkpt>
      <trkpt lat="46.05658" lon="14.5018">
        <ele>302.11844</ele>
        <time>2026-07-11T15:54:51.000Z</time>
      </trkpt>
      <trkpt lat="46.0566" lon="14.50179">
        <ele>302.053584</ele>
        <time>2026-07-11T15:54:54.000Z</time>
      </trkpt>
      <trkpt lat="46.05665" lon="14.50179">
        <ele>302.110849</ele>
        <time>2026-07-11T15:55:41.000Z</time>
      </trkpt>
      <trkpt lat="46.05667" lon="14.50178">
        <ele>302.142924</ele>
        <time>2026-07-11T15:55:42.000Z</time>
      </trkpt>
      <trkpt lat="46.05678" lon="14.50168">
        <ele>302.303032</ele>
        <time>2026-07-11T15:55:46.000Z</time>
      </trkpt>
      <trkpt lat="46.05693" lon="14.5015">
        <ele>302.551905</ele>
        <time>2026-07-11T15:55:51.000Z</time>
      </trkpt>
      <trkpt lat="46.05696" lon="14.50144">
        <ele>302.61226</ele>
        <time>2026-07-11T15:55:52.000Z</time>
      </trkpt>
      <trkpt lat="46.05698" lon="14.50138">
        <ele>302.670877</ele>
        <time>2026-07-11T15:55:53.000Z</time>
      </trkpt>
      <trkpt lat="46.05704" lon="14.50127">
        <ele>302.783005</ele>
        <time>2026-07-11T15:55:55.000Z</time>
      </trkpt>
      <trkpt lat="46.05707" lon="14.50123">
        <ele>302.843471</ele>
        <time>2026-07-11T15:55:56.000Z</time>
      </trkpt>
      <trkpt lat="46.0573" lon="14.501">
        <ele>303.182849</ele>
        <time>2026-07-11T15:56:01.000Z</time>
      </trkpt>
      <trkpt lat="46.05735" lon="14.50095">
        <ele>303.256599</ele>
        <time>2026-07-11T15:56:02.000Z</time>
      </trkpt>
      <trkpt lat="46.0576" lon="14.50072">
        <ele>303.631163</ele>
        <time>2026-07-11T15:56:07.000Z</time>
      </trkpt>
      <trkpt lat="46.05768" lon="14.50061">
        <ele>303.769397</ele>
        <time>2026-07-11T15:56:09.000Z</time>
      </trkpt>
      <trkpt lat="46.05776" lon="14.50048">
        <ele>303.919336</ele>
        <time>2026-07-11T15:56:11.000Z</time>
      </trkpt>
      <trkpt lat="46.05799" lon="14.50025">
        <ele>304.270802</ele>
        <time>2026-07-11T15:56:16.000Z</time>
      </trkpt>
      <trkpt lat="46.05808" lon="14.50016">
        <ele>304.356816</ele>
        <time>2026-07-11T15:56:18.000Z</time>
      </trkpt>
      <trkpt lat="46.05817" lon="14.50006">
        <ele>304.436433</ele>
        <time>2026-07-11T15:56:20.000Z</time>
      </trkpt>
      <trkpt lat="46.0583" lon="14.49991">
        <ele>304.558393</ele>
        <time>2026-07-11T15:56:23.000Z</time>
      </trkpt>
      <trkpt lat="46.05842" lon="14.49978">
        <ele>304.671852</ele>
        <time>2026-07-11T15:56:26.000Z</time>
      </trkpt>
      <trkpt lat="46.05862" lon="14.49956">
        <ele>304.856985</ele>
        <time>2026-07-11T15:56:30.000Z</time>
      </trkpt>
      <trkpt lat="46.0587" lon="14.49949">
        <ele>304.931796</ele>
        <time>2026-07-11T15:56:33.000Z</time>
      </trkpt>
      <trkpt lat="46.05883" lon="14.49936">
        <ele>305.044315</ele>
        <time>2026-07-11T15:56:36.000Z</time>
      </trkpt>
      <trkpt lat="46.05887" lon="14.49932">
        <ele>305.080995</ele>
        <time>2026-07-11T15:56:37.000Z</time>
      </trkpt>
      <trkpt lat="46.05896" lon="14.49925">
        <ele>305.155843</ele>
        <time>2026-07-11T15:56:39.000Z</time>
      </trkpt>
      <trkpt lat="46.05908" lon="14.49914">
        <ele>305.259789</ele>
        <time>2026-07-11T15:56:42.000Z</time>
      </trkpt>
      <trkpt lat="46.05911" lon="14.4991">
        <ele>305.29191</ele>
        <time>2026-07-11T15:56:43.000Z</time>
      </trkpt>
      <trkpt lat="46.05918" lon="14.49903">
        <ele>305.355924</ele>
        <time>2026-07-11T15:56:45.000Z</time>
      </trkpt>
      <trkpt lat="46.05933" lon="14.4989">
        <ele>305.486652</ele>
        <time>2026-07-11T15:56:49.000Z</time>
      </trkpt>
      <trkpt lat="46.05936" lon="14.49885">
        <ele>305.518477</ele>
        <time>2026-07-11T15:56:50.000Z</time>
      </trkpt>
      <trkpt lat="46.05958" lon="14.49863">
        <ele>305.822258</ele>
        <time>2026-07-11T15:56:55.000Z</time>
      </trkpt>
      <trkpt lat="46.05962" lon="14.49859">
        <ele>305.887135</ele>
        <time>2026-07-11T15:56:57.000Z</time>
      </trkpt>
      <trkpt lat="46.05965" lon="14.49856">
        <ele>305.946026</ele>
        <time>2026-07-11T15:56:58.000Z</time>
      </trkpt>
      <trkpt lat="46.05975" lon="14.49848">
        <ele>306.117175</ele>
        <time>2026-07-11T15:57:01.000Z</time>
      </trkpt>
      <trkpt lat="46.05984" lon="14.49841">
        <ele>306.262412</ele>
        <time>2026-07-11T15:57:06.000Z</time>
      </trkpt>
      <trkpt lat="46.05987" lon="14.49837">
        <ele>306.328051</ele>
        <time>2026-07-11T15:57:45.000Z</time>
      </trkpt>
      <trkpt lat="46.05989" lon="14.49835">
        <ele>306.358308</ele>
        <time>2026-07-11T15:57:46.000Z</time>
      </trkpt>
      <trkpt lat="46.05999" lon="14.49822">
        <ele>306.564691</ele>
        <time>2026-07-11T15:57:50.000Z</time>
      </trkpt>
      <trkpt lat="46.06002" lon="14.49818">
        <ele>306.623064</ele>
        <time>2026-07-11T15:57:51.000Z</time>
      </trkpt>
      <trkpt lat="46.06008" lon="14.49808">
        <ele>306.755888</ele>
        <time>2026-07-11T15:57:53.000Z</time>
      </trkpt>
      <trkpt lat="46.06011" lon="14.49803">
        <ele>306.821372</ele>
        <time>2026-07-11T15:57:54.000Z</time>
      </trkpt>
      <trkpt lat="46.06014" lon="14.49798">
        <ele>306.889912</ele>
        <time>2026-07-11T15:57:55.000Z</time>
      </trkpt>
      <trkpt lat="46.0602" lon="14.49789">
        <ele>307.022651</ele>
        <time>2026-07-11T15:57:57.000Z</time>
      </trkpt>
      <trkpt lat="46.06028" lon="14.49778">
        <ele>307.1808</ele>
        <time>2026-07-11T15:57:59.000Z</time>
      </trkpt>
      <trkpt lat="46.06034" lon="14.4977">
        <ele>307.301507</ele>
        <time>2026-07-11T15:58:01.000Z</time>
      </trkpt>
      <trkpt lat="46.06039" lon="14.49761">
        <ele>307.425938</ele>
        <time>2026-07-11T15:58:03.000Z</time>
      </trkpt>
      <trkpt lat="46.06046" lon="14.49753">
        <ele>307.554519</ele>
        <time>2026-07-11T15:58:05.000Z</time>
      </trkpt>
      <trkpt lat="46.06049" lon="14.49748">
        <ele>307.622495</ele>
        <time>2026-07-11T15:58:06.000Z</time>
      </trkpt>
      <trkpt lat="46.06055" lon="14.4974">
        <ele>307.74529</ele>
        <time>2026-07-11T15:58:08.000Z</time>
      </trkpt>
      <trkpt lat="46.06065" lon="14.49731">
        <ele>307.916795</ele>
        <time>2026-07-11T15:58:11.000Z</time>
      </trkpt>
      <trkpt lat="46.06072" lon="14.49723">
        <ele>308.053203</ele>
        <time>2026-07-11T15:58:13.000Z</time>
      </trkpt>
      <trkpt lat="46.06078" lon="14.49715">
        <ele>308.171725</ele>
        <time>2026-07-11T15:58:15.000Z</time>
      </trkpt>
      <trkpt lat="46.06081" lon="14.4971">
        <ele>308.245041</ele>
        <time>2026-07-11T15:58:16.000Z</time>
      </trkpt>
      <trkpt lat="46.06108" lon="14.49674">
        <ele>308.433459</ele>
        <time>2026-07-11T15:58:24.000Z</time>
      </trkpt>
      <trkpt lat="46.06111" lon="14.4967">
        <ele>308.453367</ele>
        <time>2026-07-11T15:58:25.000Z</time>
      </trkpt>
      <trkpt lat="46.06143" lon="14.4964">
        <ele>308.632204</ele>
        <time>2026-07-11T15:58:34.000Z</time>
      </trkpt>
      <trkpt lat="46.06173" lon="14.49614">
        <ele>308.794799</ele>
        <time>2026-07-11T15:58:42.000Z</time>
      </trkpt>
      <trkpt lat="46.06185" lon="14.49605">
        <ele>308.859272</ele>
        <time>2026-07-11T15:58:45.000Z</time>
      </trkpt>
      <trkpt lat="46.06208" lon="14.49587">
        <ele>308.979937</ele>
        <time>2026-07-11T15:58:51.000Z</time>
      </trkpt>
      <trkpt lat="46.06229" lon="14.49573">
        <ele>309.088483</ele>
        <time>2026-07-11T15:58:56.000Z</time>
      </trkpt>
      <trkpt lat="46.06249" lon="14.49556">
        <ele>308.973247</ele>
        <time>2026-07-11T15:59:01.000Z</time>
      </trkpt>
      <trkpt lat="46.06259" lon="14.4955">
        <ele>308.892363</ele>
        <time>2026-07-11T15:59:03.000Z</time>
      </trkpt>
      <trkpt lat="46.0628" lon="14.49536">
        <ele>308.713527</ele>
        <time>2026-07-11T15:59:08.000Z</time>
      </trkpt>
      <trkpt lat="46.06291" lon="14.49527">
        <ele>308.615342</ele>
        <time>2026-07-11T15:59:11.000Z</time>
      </trkpt>
      <trkpt lat="46.06319" lon="14.49506">
        <ele>308.375332</ele>
        <time>2026-07-11T15:59:18.000Z</time>
      </trkpt>
      <trkpt lat="46.06332" lon="14.49498">
        <ele>308.265856</ele>
        <time>2026-07-11T15:59:21.000Z</time>
      </trkpt>
      <trkpt lat="46.06336" lon="14.49496">
        <ele>308.227463</ele>
        <time>2026-07-11T15:59:22.000Z</time>
      </trkpt>
      <trkpt lat="46.0635" lon="14.49489">
        <ele>308.113435</ele>
        <time>2026-07-11T15:59:25.000Z</time>
      </trkpt>
      <trkpt lat="46.06359" lon="14.49483">
        <ele>308.036238</ele>
        <time>2026-07-11T15:59:27.000Z</time>
      </trkpt>
      <trkpt lat="46.06399" lon="14.49464">
        <ele>307.734719</ele>
        <time>2026-07-11T15:59:36.000Z</time>
      </trkpt>
      <trkpt lat="46.06431" lon="14.49455">
        <ele>308.225177</ele>
        <time>2026-07-11T15:59:43.000Z</time>
      </trkpt>
      <trkpt lat="46.06454" lon="14.49453">
        <ele>308.577196</ele>
        <time>2026-07-11T15:59:48.000Z</time>
      </trkpt>
      <trkpt lat="46.06463" lon="14.49447">
        <ele>308.725738</ele>
        <time>2026-07-11T15:59:50.000Z</time>
      </trkpt>
      <trkpt lat="46.06489" lon="14.49429">
        <ele>309.154553</ele>
        <time>2026-07-11T15:59:56.000Z</time>
      </trkpt>
      <trkpt lat="46.06493" lon="14.49427">
        <ele>309.224824</ele>
        <time>2026-07-11T15:59:57.000Z</time>
      </trkpt>
      <trkpt lat="46.06535" lon="14.49398">
        <ele>309.926648</ele>
        <time>2026-07-11T16:00:07.000Z</time>
      </trkpt>
      <trkpt lat="46.06561" lon="14.49371">
        <ele>310.408959</ele>
        <time>2026-07-11T16:00:14.000Z</time>
      </trkpt>
      <trkpt lat="46.06569" lon="14.49363">
        <ele>310.316359</ele>
        <time>2026-07-11T16:00:16.000Z</time>
      </trkpt>
      <trkpt lat="46.06585" lon="14.49349">
        <ele>310.04964</ele>
        <time>2026-07-11T16:00:20.000Z</time>
      </trkpt>
      <trkpt lat="46.06599" lon="14.49334">
        <ele>309.805239</ele>
        <time>2026-07-11T16:00:24.000Z</time>
      </trkpt>
      <trkpt lat="46.06606" lon="14.49326">
        <ele>309.676833</ele>
        <time>2026-07-11T16:00:26.000Z</time>
      </trkpt>
      <trkpt lat="46.0661" lon="14.49323">
        <ele>309.611695</ele>
        <time>2026-07-11T16:00:27.000Z</time>
      </trkpt>
      <trkpt lat="46.06655" lon="14.4928">
        <ele>308.857631</ele>
        <time>2026-07-11T16:00:38.000Z</time>
      </trkpt>
      <trkpt lat="46.06682" lon="14.49255">
        <ele>308.407617</ele>
        <time>2026-07-11T16:00:45.000Z</time>
      </trkpt>
      <trkpt lat="46.06693" lon="14.49244">
        <ele>308.216121</ele>
        <time>2026-07-11T16:00:48.000Z</time>
      </trkpt>
      <trkpt lat="46.06701" lon="14.49237">
        <ele>308.090717</ele>
        <time>2026-07-11T16:00:50.000Z</time>
      </trkpt>
      <trkpt lat="46.06713" lon="14.49227">
        <ele>307.902475</ele>
        <time>2026-07-11T16:00:53.000Z</time>
      </trkpt>
      <trkpt lat="46.06717" lon="14.49223">
        <ele>308.007558</ele>
        <time>2026-07-11T16:00:54.000Z</time>
      </trkpt>
      <trkpt lat="46.06729" lon="14.4922">
        <ele>308.255552</ele>
        <time>2026-07-11T16:00:58.000Z</time>
      </trkpt>
      <trkpt lat="46.06737" lon="14.49221">
        <ele>308.424726</ele>
        <time>2026-07-11T16:01:00.000Z</time>
      </trkpt>
      <trkpt lat="46.06739" lon="14.49218">
        <ele>308.481151</ele>
        <time>2026-07-11T16:01:02.000Z</time>
      </trkpt>
      <trkpt lat="46.06756" lon="14.49198">
        <ele>308.923034</ele>
        <time>2026-07-11T16:01:07.000Z</time>
      </trkpt>
      <trkpt lat="46.06768" lon="14.49186">
        <ele>309.229145</ele>
        <time>2026-07-11T16:01:10.000Z</time>
      </trkpt>
      <trkpt lat="46.06775" lon="14.49177">
        <ele>309.405999</ele>
        <time>2026-07-11T16:01:12.000Z</time>
      </trkpt>
      <trkpt lat="46.0679" lon="14.49161">
        <ele>309.786311</ele>
        <time>2026-07-11T16:01:16.000Z</time>
      </trkpt>
      <trkpt lat="46.06809" lon="14.49141">
        <ele>310.262557</ele>
        <time>2026-07-11T16:01:21.000Z</time>
      </trkpt>
      <trkpt lat="46.06836" lon="14.49114">
        <ele>310.938852</ele>
        <time>2026-07-11T16:01:28.000Z</time>
      </trkpt>
      <trkpt lat="46.06839" lon="14.49109">
        <ele>311.031675</ele>
        <time>2026-07-11T16:01:29.000Z</time>
      </trkpt>
      <trkpt lat="46.06851" lon="14.49098">
        <ele>311.320215</ele>
        <time>2026-07-11T16:01:32.000Z</time>
      </trkpt>
      <trkpt lat="46.0687" lon="14.49079">
        <ele>311.62777</ele>
        <time>2026-07-11T16:01:37.000Z</time>
      </trkpt>
      <trkpt lat="46.06886" lon="14.49069">
        <ele>311.724233</ele>
        <time>2026-07-11T16:01:41.000Z</time>
      </trkpt>
      <trkpt lat="46.06893" lon="14.49062">
        <ele>311.774077</ele>
        <time>2026-07-11T16:01:43.000Z</time>
      </trkpt>
      <trkpt lat="46.06897" lon="14.49058">
        <ele>311.801679</ele>
        <time>2026-07-11T16:01:44.000Z</time>
      </trkpt>
      <trkpt lat="46.06917" lon="14.4904">
        <ele>311.929614</ele>
        <time>2026-07-11T16:01:49.000Z</time>
      </trkpt>
      <trkpt lat="46.06934" lon="14.49023">
        <ele>312.043146</ele>
        <time>2026-07-11T16:01:53.000Z</time>
      </trkpt>
      <trkpt lat="46.06949" lon="14.49004">
        <ele>312.154643</ele>
        <time>2026-07-11T16:01:57.000Z</time>
      </trkpt>
      <trkpt lat="46.06957" lon="14.48997">
        <ele>312.20764</ele>
        <time>2026-07-11T16:01:59.000Z</time>
      </trkpt>
      <trkpt lat="46.06969" lon="14.48987">
        <ele>312.282128</ele>
        <time>2026-07-11T16:02:02.000Z</time>
      </trkpt>
      <trkpt lat="46.06977" lon="14.48979">
        <ele>312.337529</ele>
        <time>2026-07-11T16:02:04.000Z</time>
      </trkpt>
      <trkpt lat="46.06985" lon="14.48972">
        <ele>312.390526</ele>
        <time>2026-07-11T16:02:06.000Z</time>
      </trkpt>
      <trkpt lat="46.06993" lon="14.48964">
        <ele>312.443949</ele>
        <time>2026-07-11T16:02:08.000Z</time>
      </trkpt>
      <trkpt lat="46.07001" lon="14.48955">
        <ele>312.49605</ele>
        <time>2026-07-11T16:02:10.000Z</time>
      </trkpt>
      <trkpt lat="46.07005" lon="14.4895">
        <ele>312.526675</ele>
        <time>2026-07-11T16:02:11.000Z</time>
      </trkpt>
      <trkpt lat="46.07033" lon="14.48926">
        <ele>312.228106</ele>
        <time>2026-07-11T16:02:18.000Z</time>
      </trkpt>
      <trkpt lat="46.0704" lon="14.48919">
        <ele>312.114902</ele>
        <time>2026-07-11T16:02:20.000Z</time>
      </trkpt>
      <trkpt lat="46.07056" lon="14.48903">
        <ele>311.86951</ele>
        <time>2026-07-11T16:02:24.000Z</time>
      </trkpt>
      <trkpt lat="46.07077" lon="14.48884">
        <ele>311.550977</ele>
        <time>2026-07-11T16:02:29.000Z</time>
      </trkpt>
      <trkpt lat="46.07104" lon="14.48857">
        <ele>311.12125</ele>
        <time>2026-07-11T16:02:36.000Z</time>
      </trkpt>
      <trkpt lat="46.07133" lon="14.4883">
        <ele>310.691671</ele>
        <time>2026-07-11T16:02:43.000Z</time>
      </trkpt>
      <trkpt lat="46.07148" lon="14.48815">
        <ele>310.448869</ele>
        <time>2026-07-11T16:02:47.000Z</time>
      </trkpt>
      <trkpt lat="46.07153" lon="14.48811">
        <ele>310.382763</ele>
        <time>2026-07-11T16:02:48.000Z</time>
      </trkpt>
      <trkpt lat="46.07178" lon="14.48787">
        <ele>310.818559</ele>
        <time>2026-07-11T16:02:54.000Z</time>
      </trkpt>
      <trkpt lat="46.07191" lon="14.48777">
        <ele>311.228329</ele>
        <time>2026-07-11T16:02:57.000Z</time>
      </trkpt>
      <trkpt lat="46.07217" lon="14.48753">
        <ele>312.061098</ele>
        <time>2026-07-11T16:03:03.000Z</time>
      </trkpt>
      <trkpt lat="46.07225" lon="14.48745">
        <ele>312.35039</ele>
        <time>2026-07-11T16:03:05.000Z</time>
      </trkpt>
      <trkpt lat="46.07259" lon="14.48712">
        <ele>313.465576</ele>
        <time>2026-07-11T16:03:13.000Z</time>
      </trkpt>
      <trkpt lat="46.07275" lon="14.48698">
        <ele>313.979142</ele>
        <time>2026-07-11T16:03:17.000Z</time>
      </trkpt>
      <trkpt lat="46.07289" lon="14.48685">
        <ele>314.430398</ele>
        <time>2026-07-11T16:03:20.000Z</time>
      </trkpt>
      <trkpt lat="46.07326" lon="14.4865">
        <ele>315.351183</ele>
        <time>2026-07-11T16:03:29.000Z</time>
      </trkpt>
      <trkpt lat="46.07358" lon="14.48622">
        <ele>315.744177</ele>
        <time>2026-07-11T16:03:37.000Z</time>
      </trkpt>
      <trkpt lat="46.07362" lon="14.48619">
        <ele>315.789597</ele>
        <time>2026-07-11T16:03:38.000Z</time>
      </trkpt>
      <trkpt lat="46.07379" lon="14.48606">
        <ele>315.992478</ele>
        <time>2026-07-11T16:03:42.000Z</time>
      </trkpt>
      <trkpt lat="46.07383" lon="14.48603">
        <ele>316.042503</ele>
        <time>2026-07-11T16:03:43.000Z</time>
      </trkpt>
      <trkpt lat="46.07419" lon="14.48564">
        <ele>316.514337</ele>
        <time>2026-07-11T16:03:52.000Z</time>
      </trkpt>
      <trkpt lat="46.07444" lon="14.48539">
        <ele>316.828178</ele>
        <time>2026-07-11T16:03:58.000Z</time>
      </trkpt>
      <trkpt lat="46.07453" lon="14.48531">
        <ele>316.93829</ele>
        <time>2026-07-11T16:04:00.000Z</time>
      </trkpt>
      <trkpt lat="46.07456" lon="14.48527">
        <ele>316.985222</ele>
        <time>2026-07-11T16:04:01.000Z</time>
      </trkpt>
      <trkpt lat="46.07463" lon="14.48517">
        <ele>317.030975</ele>
        <time>2026-07-11T16:04:03.000Z</time>
      </trkpt>
      <trkpt lat="46.07467" lon="14.48512">
        <ele>316.978545</ele>
        <time>2026-07-11T16:04:04.000Z</time>
      </trkpt>
      <trkpt lat="46.07495" lon="14.48478">
        <ele>316.607486</ele>
        <time>2026-07-11T16:04:11.000Z</time>
      </trkpt>
      <trkpt lat="46.07523" lon="14.48444">
        <ele>316.232398</ele>
        <time>2026-07-11T16:04:18.000Z</time>
      </trkpt>
      <trkpt lat="46.0756" lon="14.48398">
        <ele>315.733821</ele>
        <time>2026-07-11T16:04:28.000Z</time>
      </trkpt>
      <trkpt lat="46.07587" lon="14.48367">
        <ele>315.385493</ele>
        <time>2026-07-11T16:04:35.000Z</time>
      </trkpt>
      <trkpt lat="46.07598" lon="14.48356">
        <ele>315.248677</ele>
        <time>2026-07-11T16:04:38.000Z</time>
      </trkpt>
      <trkpt lat="46.07609" lon="14.48344">
        <ele>315.035324</ele>
        <time>2026-07-11T16:04:41.000Z</time>
      </trkpt>
      <trkpt lat="46.07613" lon="14.4834">
        <ele>314.958783</ele>
        <time>2026-07-11T16:04:42.000Z</time>
      </trkpt>
      <trkpt lat="46.07621" lon="14.48335">
        <ele>314.823255</ele>
        <time>2026-07-11T16:04:44.000Z</time>
      </trkpt>
      <trkpt lat="46.07626" lon="14.48331">
        <ele>314.736502</ele>
        <time>2026-07-11T16:04:45.000Z</time>
      </trkpt>
      <trkpt lat="46.07629" lon="14.48327">
        <ele>314.669748</ele>
        <time>2026-07-11T16:04:46.000Z</time>
      </trkpt>
      <trkpt lat="46.07637" lon="14.4832">
        <ele>314.530293</ele>
        <time>2026-07-11T16:04:48.000Z</time>
      </trkpt>
      <trkpt lat="46.07643" lon="14.48313">
        <ele>314.409522</ele>
        <time>2026-07-11T16:04:50.000Z</time>
      </trkpt>
      <trkpt lat="46.07659" lon="14.48303">
        <ele>314.12045</ele>
        <time>2026-07-11T16:04:55.000Z</time>
      </trkpt>
      <trkpt lat="46.07677" lon="14.48288">
        <ele>313.794665</ele>
        <time>2026-07-11T16:05:01.000Z</time>
      </trkpt>
      <trkpt lat="46.07704" lon="14.48265">
        <ele>313.301129</ele>
        <time>2026-07-11T16:05:08.000Z</time>
      </trkpt>
      <trkpt lat="46.07708" lon="14.48262">
        <ele>313.22173</ele>
        <time>2026-07-11T16:05:09.000Z</time>
      </trkpt>
      <trkpt lat="46.07727" lon="14.4825">
        <ele>312.904588</ele>
        <time>2026-07-11T16:05:13.000Z</time>
      </trkpt>
      <trkpt lat="46.07739" lon="14.4824">
        <ele>312.677675</ele>
        <time>2026-07-11T16:05:16.000Z</time>
      </trkpt>
      <trkpt lat="46.07744" lon="14.48237">
        <ele>312.597281</ele>
        <time>2026-07-11T16:05:17.000Z</time>
      </trkpt>
      <trkpt lat="46.07757" lon="14.48227">
        <ele>312.386606</ele>
        <time>2026-07-11T16:05:20.000Z</time>
      </trkpt>
      <trkpt lat="46.07774" lon="14.48213">
        <ele>312.473643</ele>
        <time>2026-07-11T16:05:24.000Z</time>
      </trkpt>
      <trkpt lat="46.07778" lon="14.4821">
        <ele>312.492232</ele>
        <time>2026-07-11T16:05:25.000Z</time>
      </trkpt>
      <trkpt lat="46.07784" lon="14.48206">
        <ele>312.517863</ele>
        <time>2026-07-11T16:05:26.000Z</time>
      </trkpt>
      <trkpt lat="46.07806" lon="14.48194">
        <ele>312.622952</ele>
        <time>2026-07-11T16:05:31.000Z</time>
      </trkpt>
      <trkpt lat="46.07836" lon="14.48177">
        <ele>312.760911</ele>
        <time>2026-07-11T16:05:39.000Z</time>
      </trkpt>
      <trkpt lat="46.07856" lon="14.48175">
        <ele>312.847579</ele>
        <time>2026-07-11T16:05:45.000Z</time>
      </trkpt>
      <trkpt lat="46.07862" lon="14.4817">
        <ele>312.875032</ele>
        <time>2026-07-11T16:05:47.000Z</time>
      </trkpt>
      <trkpt lat="46.07864" lon="14.48164">
        <ele>312.89683</ele>
        <time>2026-07-11T16:05:49.000Z</time>
      </trkpt>
      <trkpt lat="46.07865" lon="14.48161">
        <ele>312.905454</ele>
        <time>2026-07-11T16:05:50.000Z</time>
      </trkpt>
      <trkpt lat="46.07865" lon="14.48157">
        <ele>312.918876</ele>
        <time>2026-07-11T16:05:54.000Z</time>
      </trkpt>
      <trkpt lat="46.0787" lon="14.48153">
        <ele>312.941497</ele>
        <time>2026-07-11T16:05:59.000Z</time>
      </trkpt>
      <trkpt lat="46.07875" lon="14.48149">
        <ele>312.965843</ele>
        <time>2026-07-11T16:06:01.000Z</time>
      </trkpt>
      <trkpt lat="46.07884" lon="14.48141">
        <ele>313.01093</ele>
        <time>2026-07-11T16:06:04.000Z</time>
      </trkpt>
      <trkpt lat="46.07892" lon="14.48135">
        <ele>313.048471</ele>
        <time>2026-07-11T16:06:06.000Z</time>
      </trkpt>
      <trkpt lat="46.07912" lon="14.48121">
        <ele>313.145808</ele>
        <time>2026-07-11T16:06:11.000Z</time>
      </trkpt>
      <trkpt lat="46.0792" lon="14.48116">
        <ele>313.184984</ele>
        <time>2026-07-11T16:06:13.000Z</time>
      </trkpt>
      <trkpt lat="46.07928" lon="14.48112">
        <ele>313.223688</ele>
        <time>2026-07-11T16:06:15.000Z</time>
      </trkpt>
      <trkpt lat="46.07936" lon="14.4811">
        <ele>313.260678</ele>
        <time>2026-07-11T16:06:17.000Z</time>
      </trkpt>
      <trkpt lat="46.0794" lon="14.48112">
        <ele>313.278777</ele>
        <time>2026-07-11T16:06:18.000Z</time>
      </trkpt>
      <trkpt lat="46.07944" lon="14.48114">
        <ele>313.296287</ele>
        <time>2026-07-11T16:06:19.000Z</time>
      </trkpt>
      <trkpt lat="46.07952" lon="14.48112">
        <ele>313.331127</ele>
        <time>2026-07-11T16:06:21.000Z</time>
      </trkpt>
      <trkpt lat="46.07965" lon="14.48094">
        <ele>313.414662</ele>
        <time>2026-07-11T16:06:25.000Z</time>
      </trkpt>
      <trkpt lat="46.08001" lon="14.48066">
        <ele>313.5968</ele>
        <time>2026-07-11T16:06:33.000Z</time>
      </trkpt>
      <trkpt lat="46.08041" lon="14.48033">
        <ele>313.803921</ele>
        <time>2026-07-11T16:06:42.000Z</time>
      </trkpt>
      <trkpt lat="46.08062" lon="14.48016">
        <ele>313.912999</ele>
        <time>2026-07-11T16:06:47.000Z</time>
      </trkpt>
      <trkpt lat="46.0808" lon="14.48002">
        <ele>313.93094</ele>
        <time>2026-07-11T16:06:51.000Z</time>
      </trkpt>
      <trkpt lat="46.08124" lon="14.47971">
        <ele>313.741036</ele>
        <time>2026-07-11T16:07:01.000Z</time>
      </trkpt>
      <trkpt lat="46.08168" lon="14.47942">
        <ele>313.553436</ele>
        <time>2026-07-11T16:07:11.000Z</time>
      </trkpt>
      <trkpt lat="46.08217" lon="14.47908">
        <ele>313.342306</ele>
        <time>2026-07-11T16:07:22.000Z</time>
      </trkpt>
      <trkpt lat="46.08266" lon="14.47871">
        <ele>313.494957</ele>
        <time>2026-07-11T16:07:33.000Z</time>
      </trkpt>
      <trkpt lat="46.08287" lon="14.47853">
        <ele>313.653636</ele>
        <time>2026-07-11T16:07:39.000Z</time>
      </trkpt>
      <trkpt lat="46.08298" lon="14.47849">
        <ele>313.724438</ele>
        <time>2026-07-11T16:07:44.000Z</time>
      </trkpt>
      <trkpt lat="46.08309" lon="14.47847">
        <ele>313.794313</ele>
        <time>2026-07-11T16:07:51.000Z</time>
      </trkpt>
      <trkpt lat="46.08312" lon="14.47847">
        <ele>313.817312</ele>
        <time>2026-07-11T16:08:09.000Z</time>
      </trkpt>
      <trkpt lat="46.08315" lon="14.47845">
        <ele>313.83489</ele>
        <time>2026-07-11T16:08:10.000Z</time>
      </trkpt>
      <trkpt lat="46.0833" lon="14.47832">
        <ele>313.94905</ele>
        <time>2026-07-11T16:08:15.000Z</time>
      </trkpt>
      <trkpt lat="46.0835" lon="14.47815">
        <ele>314.094927</ele>
        <time>2026-07-11T16:08:20.000Z</time>
      </trkpt>
      <trkpt lat="46.08362" lon="14.47804">
        <ele>314.186827</ele>
        <time>2026-07-11T16:08:23.000Z</time>
      </trkpt>
      <trkpt lat="46.08379" lon="14.47791">
        <ele>314.310462</ele>
        <time>2026-07-11T16:08:27.000Z</time>
      </trkpt>
      <trkpt lat="46.08383" lon="14.47787">
        <ele>314.341699</ele>
        <time>2026-07-11T16:08:28.000Z</time>
      </trkpt>
      <trkpt lat="46.08401" lon="14.47772">
        <ele>314.509161</ele>
        <time>2026-07-11T16:08:32.000Z</time>
      </trkpt>
      <trkpt lat="46.08411" lon="14.47765">
        <ele>314.616962</ele>
        <time>2026-07-11T16:08:34.000Z</time>
      </trkpt>
      <trkpt lat="46.08415" lon="14.47762">
        <ele>314.667034</ele>
        <time>2026-07-11T16:08:35.000Z</time>
      </trkpt>
      <trkpt lat="46.0845" lon="14.4773">
        <ele>315.087777</ele>
        <time>2026-07-11T16:08:43.000Z</time>
      </trkpt>
      <trkpt lat="46.08465" lon="14.47718">
        <ele>315.255858</ele>
        <time>2026-07-11T16:08:46.000Z</time>
      </trkpt>
      <trkpt lat="46.08488" lon="14.47692">
        <ele>315.550224</ele>
        <time>2026-07-11T16:08:52.000Z</time>
      </trkpt>
      <trkpt lat="46.08491" lon="14.47688">
        <ele>315.596828</ele>
        <time>2026-07-11T16:08:53.000Z</time>
      </trkpt>
      <trkpt lat="46.08501" lon="14.47676">
        <ele>315.728988</ele>
        <time>2026-07-11T16:08:56.000Z</time>
      </trkpt>
      <trkpt lat="46.0852" lon="14.47654">
        <ele>315.976382</ele>
        <time>2026-07-11T16:09:01.000Z</time>
      </trkpt>
      <trkpt lat="46.08539" lon="14.47635">
        <ele>316.213722</ele>
        <time>2026-07-11T16:09:06.000Z</time>
      </trkpt>
      <trkpt lat="46.08566" lon="14.47603">
        <ele>316.444415</ele>
        <time>2026-07-11T16:09:13.000Z</time>
      </trkpt>
      <trkpt lat="46.08569" lon="14.47598">
        <ele>316.474147</ele>
        <time>2026-07-11T16:09:14.000Z</time>
      </trkpt>
      <trkpt lat="46.08585" lon="14.47584">
        <ele>316.590953</ele>
        <time>2026-07-11T16:09:18.000Z</time>
      </trkpt>
      <trkpt lat="46.08608" lon="14.4756">
        <ele>316.772516</ele>
        <time>2026-07-11T16:09:24.000Z</time>
      </trkpt>
      <trkpt lat="46.08612" lon="14.47556">
        <ele>316.803824</ele>
        <time>2026-07-11T16:09:25.000Z</time>
      </trkpt>
      <trkpt lat="46.08639" lon="14.47531">
        <ele>317.010122</ele>
        <time>2026-07-11T16:09:32.000Z</time>
      </trkpt>
      <trkpt lat="46.08646" lon="14.47523">
        <ele>317.067548</ele>
        <time>2026-07-11T16:09:34.000Z</time>
      </trkpt>
      <trkpt lat="46.08657" lon="14.47511">
        <ele>317.15227</ele>
        <time>2026-07-11T16:09:37.000Z</time>
      </trkpt>
      <trkpt lat="46.0866" lon="14.47509">
        <ele>317.178147</ele>
        <time>2026-07-11T16:09:38.000Z</time>
      </trkpt>
      <trkpt lat="46.08679" lon="14.47491">
        <ele>317.320015</ele>
        <time>2026-07-11T16:09:44.000Z</time>
      </trkpt>
      <trkpt lat="46.08693" lon="14.47477">
        <ele>317.527162</ele>
        <time>2026-07-11T16:09:50.000Z</time>
      </trkpt>
      <trkpt lat="46.08707" lon="14.47462">
        <ele>317.899104</ele>
        <time>2026-07-11T16:09:54.000Z</time>
      </trkpt>
      <trkpt lat="46.08711" lon="14.47459">
        <ele>317.999024</ele>
        <time>2026-07-11T16:09:55.000Z</time>
      </trkpt>
      <trkpt lat="46.08742" lon="14.4743">
        <ele>318.809558</ele>
        <time>2026-07-11T16:10:03.000Z</time>
      </trkpt>
      <trkpt lat="46.08758" lon="14.47416">
        <ele>319.210254</ele>
        <time>2026-07-11T16:10:07.000Z</time>
      </trkpt>
      <trkpt lat="46.08766" lon="14.47409">
        <ele>319.41374</ele>
        <time>2026-07-11T16:10:09.000Z</time>
      </trkpt>
      <trkpt lat="46.08783" lon="14.474">
        <ele>319.802583</ele>
        <time>2026-07-11T16:10:14.000Z</time>
      </trkpt>
      <trkpt lat="46.08788" lon="14.47399">
        <ele>319.900827</ele>
        <time>2026-07-11T16:10:18.000Z</time>
      </trkpt>
      <trkpt lat="46.08793" lon="14.47397">
        <ele>320.016584</ele>
        <time>2026-07-11T16:11:01.000Z</time>
      </trkpt>
      <trkpt lat="46.08795" lon="14.47394">
        <ele>320.075702</ele>
        <time>2026-07-11T16:11:02.000Z</time>
      </trkpt>
      <trkpt lat="46.08797" lon="14.47392">
        <ele>320.1431</ele>
        <time>2026-07-11T16:11:03.000Z</time>
      </trkpt>
      <trkpt lat="46.08813" lon="14.47378">
        <ele>320.532291</ele>
        <time>2026-07-11T16:11:08.000Z</time>
      </trkpt>
      <trkpt lat="46.08815" lon="14.47373">
        <ele>320.622123</ele>
        <time>2026-07-11T16:11:09.000Z</time>
      </trkpt>
      <trkpt lat="46.0882" lon="14.47364">
        <ele>320.801664</ele>
        <time>2026-07-11T16:11:11.000Z</time>
      </trkpt>
      <trkpt lat="46.08834" lon="14.47347">
        <ele>321.18397</ele>
        <time>2026-07-11T16:11:15.000Z</time>
      </trkpt>
      <trkpt lat="46.08864" lon="14.47322">
        <ele>321.018722</ele>
        <time>2026-07-11T16:11:22.000Z</time>
      </trkpt>
      <trkpt lat="46.08885" lon="14.47304">
        <ele>320.826817</ele>
        <time>2026-07-11T16:11:27.000Z</time>
      </trkpt>
      <trkpt lat="46.08906" lon="14.47287">
        <ele>320.634073</ele>
        <time>2026-07-11T16:11:32.000Z</time>
      </trkpt>
      <trkpt lat="46.08936" lon="14.47262">
        <ele>320.355618</ele>
        <time>2026-07-11T16:11:39.000Z</time>
      </trkpt>
      <trkpt lat="46.0894" lon="14.47258">
        <ele>320.315371</ele>
        <time>2026-07-11T16:11:40.000Z</time>
      </trkpt>
      <trkpt lat="46.08982" lon="14.47221">
        <ele>319.923846</ele>
        <time>2026-07-11T16:11:50.000Z</time>
      </trkpt>
      <trkpt lat="46.0901" lon="14.47195">
        <ele>319.665485</ele>
        <time>2026-07-11T16:11:57.000Z</time>
      </trkpt>
      <trkpt lat="46.09023" lon="14.47182">
        <ele>319.54641</ele>
        <time>2026-07-11T16:12:00.000Z</time>
      </trkpt>
      <trkpt lat="46.09039" lon="14.47168">
        <ele>319.404041</ele>
        <time>2026-07-11T16:12:04.000Z</time>
      </trkpt>
      <trkpt lat="46.09054" lon="14.47159">
        <ele>319.279548</ele>
        <time>2026-07-11T16:12:07.000Z</time>
      </trkpt>
      <trkpt lat="46.09066" lon="14.47147">
        <ele>319.166955</ele>
        <time>2026-07-11T16:12:10.000Z</time>
      </trkpt>
      <trkpt lat="46.09072" lon="14.47142">
        <ele>319.117423</ele>
        <time>2026-07-11T16:12:11.000Z</time>
      </trkpt>
      <trkpt lat="46.09076" lon="14.47138">
        <ele>319.077722</ele>
        <time>2026-07-11T16:12:12.000Z</time>
      </trkpt>
      <trkpt lat="46.09095" lon="14.47119">
        <ele>318.898409</ele>
        <time>2026-07-11T16:12:17.000Z</time>
      </trkpt>
      <trkpt lat="46.09116" lon="14.471">
        <ele>318.707761</ele>
        <time>2026-07-11T16:12:22.000Z</time>
      </trkpt>
      <trkpt lat="46.09124" lon="14.47091">
        <ele>318.632324</ele>
        <time>2026-07-11T16:12:24.000Z</time>
      </trkpt>
      <trkpt lat="46.09128" lon="14.47087">
        <ele>318.593118</ele>
        <time>2026-07-11T16:12:25.000Z</time>
      </trkpt>
      <trkpt lat="46.09161" lon="14.47058">
        <ele>318.532807</ele>
        <time>2026-07-11T16:12:32.000Z</time>
      </trkpt>
      <trkpt lat="46.09188" lon="14.47036">
        <ele>318.650816</ele>
        <time>2026-07-11T16:12:38.000Z</time>
      </trkpt>
      <trkpt lat="46.09228" lon="14.47004">
        <ele>318.822009</ele>
        <time>2026-07-11T16:12:47.000Z</time>
      </trkpt>
      <trkpt lat="46.09269" lon="14.46966">
        <ele>319.002716</ele>
        <time>2026-07-11T16:12:56.000Z</time>
      </trkpt>
      <trkpt lat="46.09298" lon="14.4694">
        <ele>319.134101</ele>
        <time>2026-07-11T16:13:03.000Z</time>
      </trkpt>
      <trkpt lat="46.09314" lon="14.46929">
        <ele>319.363168</ele>
        <time>2026-07-11T16:13:08.000Z</time>
      </trkpt>
      <trkpt lat="46.09322" lon="14.46927">
        <ele>319.467117</ele>
        <time>2026-07-11T16:13:10.000Z</time>
      </trkpt>
      <trkpt lat="46.09329" lon="14.4692">
        <ele>319.579368</ele>
        <time>2026-07-11T16:13:12.000Z</time>
      </trkpt>
      <trkpt lat="46.09334" lon="14.46916">
        <ele>319.65053</ele>
        <time>2026-07-11T16:13:13.000Z</time>
      </trkpt>
      <trkpt lat="46.09342" lon="14.46904">
        <ele>319.808739</ele>
        <time>2026-07-11T16:13:16.000Z</time>
      </trkpt>
      <trkpt lat="46.09352" lon="14.46893">
        <ele>319.969358</ele>
        <time>2026-07-11T16:13:19.000Z</time>
      </trkpt>
      <trkpt lat="46.09367" lon="14.4688">
        <ele>320.194689</ele>
        <time>2026-07-11T16:13:23.000Z</time>
      </trkpt>
      <trkpt lat="46.09392" lon="14.46856">
        <ele>320.578336</ele>
        <time>2026-07-11T16:13:29.000Z</time>
      </trkpt>
      <trkpt lat="46.09429" lon="14.4682">
        <ele>321.160625</ele>
        <time>2026-07-11T16:13:38.000Z</time>
      </trkpt>
      <trkpt lat="46.09433" lon="14.46817">
        <ele>321.225021</ele>
        <time>2026-07-11T16:13:39.000Z</time>
      </trkpt>
      <trkpt lat="46.09443" lon="14.4681">
        <ele>321.360008</ele>
        <time>2026-07-11T16:13:41.000Z</time>
      </trkpt>
      <trkpt lat="46.09447" lon="14.46806">
        <ele>321.424871</ele>
        <time>2026-07-11T16:13:42.000Z</time>
      </trkpt>
      <trkpt lat="46.0949" lon="14.4676">
        <ele>322.038304</ele>
        <time>2026-07-11T16:13:53.000Z</time>
      </trkpt>
      <trkpt lat="46.09503" lon="14.46739">
        <ele>322.259924</ele>
        <time>2026-07-11T16:13:57.000Z</time>
      </trkpt>
      <trkpt lat="46.09511" lon="14.4673">
        <ele>322.374602</ele>
        <time>2026-07-11T16:13:59.000Z</time>
      </trkpt>
      <trkpt lat="46.09527" lon="14.46712">
        <ele>322.596731</ele>
        <time>2026-07-11T16:14:03.000Z</time>
      </trkpt>
      <trkpt lat="46.09531" lon="14.46707">
        <ele>322.662514</ele>
        <time>2026-07-11T16:14:04.000Z</time>
      </trkpt>
      <trkpt lat="46.09538" lon="14.46697">
        <ele>322.770167</ele>
        <time>2026-07-11T16:14:06.000Z</time>
      </trkpt>
      <trkpt lat="46.09545" lon="14.46688">
        <ele>322.871586</ele>
        <time>2026-07-11T16:14:08.000Z</time>
      </trkpt>
      <trkpt lat="46.09575" lon="14.46652">
        <ele>323.31098</ele>
        <time>2026-07-11T16:14:16.000Z</time>
      </trkpt>
      <trkpt lat="46.09582" lon="14.46643">
        <ele>323.415171</ele>
        <time>2026-07-11T16:14:18.000Z</time>
      </trkpt>
      <trkpt lat="46.09607" lon="14.46608">
        <ele>323.617499</ele>
        <time>2026-07-11T16:14:26.000Z</time>
      </trkpt>
      <trkpt lat="46.09619" lon="14.46593">
        <ele>323.687602</ele>
        <time>2026-07-11T16:14:31.000Z</time>
      </trkpt>
      <trkpt lat="46.09634" lon="14.46581">
        <ele>323.767174</ele>
        <time>2026-07-11T16:14:37.000Z</time>
      </trkpt>
      <trkpt lat="46.0965" lon="14.46561">
        <ele>323.861791</ele>
        <time>2026-07-11T16:14:44.000Z</time>
      </trkpt>
      <trkpt lat="46.09651" lon="14.46552">
        <ele>323.891077</ele>
        <time>2026-07-11T16:14:48.000Z</time>
      </trkpt>
      <trkpt lat="46.09651" lon="14.46551">
        <ele>323.89264</ele>
        <time>2026-07-11T16:14:50.000Z</time>
      </trkpt>
      <trkpt lat="46.09648" lon="14.46546">
        <ele>323.915289</ele>
        <time>2026-07-11T16:15:30.000Z</time>
      </trkpt>
      <trkpt lat="46.09646" lon="14.46543">
        <ele>323.929407</ele>
        <time>2026-07-11T16:15:31.000Z</time>
      </trkpt>
      <trkpt lat="46.09637" lon="14.46523">
        <ele>324.003146</ele>
        <time>2026-07-11T16:15:37.000Z</time>
      </trkpt>
      <trkpt lat="46.09638" lon="14.4652">
        <ele>324.013366</ele>
        <time>2026-07-11T16:15:38.000Z</time>
      </trkpt>
      <trkpt lat="46.09651" lon="14.46498">
        <ele>324.105516</ele>
        <time>2026-07-11T16:15:45.000Z</time>
      </trkpt>
      <trkpt lat="46.09666" lon="14.46479">
        <ele>324.194581</ele>
        <time>2026-07-11T16:15:50.000Z</time>
      </trkpt>
      <trkpt lat="46.09678" lon="14.46462">
        <ele>324.270968</ele>
        <time>2026-07-11T16:15:54.000Z</time>
      </trkpt>
      <trkpt lat="46.09684" lon="14.46452">
        <ele>324.175558</ele>
        <time>2026-07-11T16:15:56.000Z</time>
      </trkpt>
      <trkpt lat="46.09702" lon="14.46413">
        <ele>322.581352</ele>
        <time>2026-07-11T16:16:02.000Z</time>
      </trkpt>
      <trkpt lat="46.09722" lon="14.46377">
        <ele>321.059958</ele>
        <time>2026-07-11T16:16:06.000Z</time>
      </trkpt>
      <trkpt lat="46.09728" lon="14.46367">
        <ele>320.608606</ele>
        <time>2026-07-11T16:16:07.000Z</time>
      </trkpt>
      <trkpt lat="46.0974" lon="14.4635">
        <ele>319.771989</ele>
        <time>2026-07-11T16:16:09.000Z</time>
      </trkpt>
      <trkpt lat="46.09746" lon="14.46341">
        <ele>319.378467</ele>
        <time>2026-07-11T16:16:10.000Z</time>
      </trkpt>
      <trkpt lat="46.09753" lon="14.46325">
        <ele>318.721751</ele>
        <time>2026-07-11T16:16:12.000Z</time>
      </trkpt>
      <trkpt lat="46.09767" lon="14.46288">
        <ele>317.324699</ele>
        <time>2026-07-11T16:16:16.000Z</time>
      </trkpt>
      <trkpt lat="46.0978" lon="14.46274">
        <ele>316.535111</ele>
        <time>2026-07-11T16:16:18.000Z</time>
      </trkpt>
      <trkpt lat="46.09786" lon="14.4627">
        <ele>316.223751</ele>
        <time>2026-07-11T16:16:19.000Z</time>
      </trkpt>
      <trkpt lat="46.09798" lon="14.4626">
        <ele>315.600655</ele>
        <time>2026-07-11T16:16:22.000Z</time>
      </trkpt>
      <trkpt lat="46.09803" lon="14.46258">
        <ele>315.628945</ele>
        <time>2026-07-11T16:16:23.000Z</time>
      </trkpt>
      <trkpt lat="46.09816" lon="14.46248">
        <ele>315.714862</ele>
        <time>2026-07-11T16:16:26.000Z</time>
      </trkpt>
      <trkpt lat="46.09822" lon="14.46239">
        <ele>315.766678</ele>
        <time>2026-07-11T16:16:28.000Z</time>
      </trkpt>
      <trkpt lat="46.09842" lon="14.46211">
        <ele>315.929196</ele>
        <time>2026-07-11T16:16:34.000Z</time>
      </trkpt>
      <trkpt lat="46.09849" lon="14.46201">
        <ele>315.986445</ele>
        <time>2026-07-11T16:16:36.000Z</time>
      </trkpt>
      <trkpt lat="46.09875" lon="14.46162">
        <ele>316.205235</ele>
        <time>2026-07-11T16:16:44.000Z</time>
      </trkpt>
      <trkpt lat="46.09879" lon="14.46156">
        <ele>316.239684</ele>
        <time>2026-07-11T16:16:45.000Z</time>
      </trkpt>
      <trkpt lat="46.09901" lon="14.46122">
        <ele>316.429749</ele>
        <time>2026-07-11T16:16:52.000Z</time>
      </trkpt>
      <trkpt lat="46.09922" lon="14.46092">
        <ele>316.603602</ele>
        <time>2026-07-11T16:16:59.000Z</time>
      </trkpt>
      <trkpt lat="46.09924" lon="14.46087">
        <ele>316.628501</ele>
        <time>2026-07-11T16:17:00.000Z</time>
      </trkpt>
      <trkpt lat="46.09926" lon="14.46084">
        <ele>316.647023</ele>
        <time>2026-07-11T16:17:01.000Z</time>
      </trkpt>
      <trkpt lat="46.09944" lon="14.46057">
        <ele>316.649872</ele>
        <time>2026-07-11T16:17:07.000Z</time>
      </trkpt>
      <trkpt lat="46.0995" lon="14.46048">
        <ele>316.649872</ele>
        <time>2026-07-11T16:17:09.000Z</time>
      </trkpt>
      <trkpt lat="46.0996" lon="14.46031">
        <ele>316.649872</ele>
        <time>2026-07-11T16:17:13.000Z</time>
      </trkpt>
      <trkpt lat="46.09962" lon="14.46028">
        <ele>316.649872</ele>
        <time>2026-07-11T16:17:14.000Z</time>
      </trkpt>
      <trkpt lat="46.09973" lon="14.4601">
        <ele>316.649872</ele>
        <time>2026-07-11T16:17:19.000Z</time>
      </trkpt>
      <trkpt lat="46.09978" lon="14.46004">
        <ele>316.649872</ele>
        <time>2026-07-11T16:17:21.000Z</time>
      </trkpt>
      <trkpt lat="46.0998" lon="14.46">
        <ele>316.649872</ele>
        <time>2026-07-11T16:17:22.000Z</time>
      </trkpt>
      <trkpt lat="46.09989" lon="14.45985">
        <ele>316.649872</ele>
        <time>2026-07-11T16:17:27.000Z</time>
      </trkpt>
      <trkpt lat="46.0999" lon="14.45984">
        <ele>316.649872</ele>
        <time>2026-07-11T16:17:28.000Z</time>
      </trkpt>
      <trkpt lat="46.0999" lon="14.45984">
        <ele>316.649872</ele>
        <time>2026-07-11T16:17:30.000Z</time>
      </trkpt>
      <trkpt lat="46.09994" lon="14.45987">
        <ele>316.649872</ele>
        <time>2026-07-11T16:17:46.000Z</time>
      </trkpt>
      <trkpt lat="46.09999" lon="14.45993">
        <ele>316.649872</ele>
        <time>2026-07-11T16:17:48.000Z</time>
      </trkpt>
      <trkpt lat="46.10012" lon="14.46011">
        <ele>316.649872</ele>
        <time>2026-07-11T16:17:54.000Z</time>
      </trkpt>
      <trkpt lat="46.10014" lon="14.46011">
        <ele>316.649872</ele>
        <time>2026-07-11T16:17:55.000Z</time>
      </trkpt>
      <trkpt lat="46.10018" lon="14.46006">
        <ele>316.649872</ele>
        <time>2026-07-11T16:17:59.000Z</time>
      </trkpt>
      <trkpt lat="46.10018" lon="14.46006">
        <ele>316.649872</ele>
        <time>2026-07-11T16:18:00.000Z</time>
      </trkpt>
      <trkpt lat="46.10022" lon="14.46">
        <ele>316.649872</ele>
        <time>2026-07-11T16:18:20.000Z</time>
      </trkpt>
      <trkpt lat="46.10024" lon="14.45997">
        <ele>316.649872</ele>
        <time>2026-07-11T16:18:21.000Z</time>
      </trkpt>
      <trkpt lat="46.10026" lon="14.45994">
        <ele>316.649872</ele>
        <time>2026-07-11T16:18:22.000Z</time>
      </trkpt>
      <trkpt lat="46.10036" lon="14.45971">
        <ele>316.649872</ele>
        <time>2026-07-11T16:18:28.000Z</time>
      </trkpt>
      <trkpt lat="46.10038" lon="14.45967">
        <ele>316.649872</ele>
        <time>2026-07-11T16:18:29.000Z</time>
      </trkpt>
      <trkpt lat="46.10053" lon="14.45942">
        <ele>316.649872</ele>
        <time>2026-07-11T16:18:37.000Z</time>
      </trkpt>
      <trkpt lat="46.10062" lon="14.45937">
        <ele>316.649872</ele>
        <time>2026-07-11T16:18:42.000Z</time>
      </trkpt>
      <trkpt lat="46.10064" lon="14.45936">
        <ele>316.649872</ele>
        <time>2026-07-11T16:18:43.000Z</time>
      </trkpt>
      <trkpt lat="46.10065" lon="14.45936">
        <ele>316.649872</ele>
        <time>2026-07-11T16:18:46.000Z</time>
      </trkpt>
    </trkseg>
  </trk>
</gpx>